<?xml version='1.0' encoding='UTF-8'?><gpx version="1.1" creator="JPX - https://github.com/jenetics/jpx" xmlns="http://www.topografix.com/GPX/1/1"><trk><trkseg><trkpt lat="43.3205867" lon="13.12427"><ele>587.5</ele><time>2026-04-11T14:05:15.13Z</time></trkpt><trkpt lat="43.320535" lon="13.1243683"><ele>595.0</ele><time>2026-04-11T14:05:17.13Z</time></trkpt><trkpt lat="43.3204867" lon="13.1244533"><ele>602.5</ele><time>2026-04-11T14:05:19.13Z</time></trkpt><trkpt lat="43.3202833" lon="13.1244817"><ele>610.0</ele><time>2026-04-11T14:05:23.13Z</time></trkpt><trkpt lat="43.3201983" lon="13.1244767"><ele>610.0</ele><time>2026-04-11T14:05:24.13Z</time></trkpt><trkpt lat="43.3201067" lon="13.1244667"><ele>610.0</ele><time>2026-04-11T14:05:25.13Z</time></trkpt><trkpt lat="43.3200183" lon="13.1244467"><ele>610.0</ele><time>2026-04-11T14:05:26.13Z</time></trkpt><trkpt lat="43.31994" lon="13.1244317"><ele>610.0</ele><time>2026-04-11T14:05:27.13Z</time></trkpt><trkpt lat="43.3198683" lon="13.1244217"><ele>610.0</ele><time>2026-04-11T14:05:28.13Z</time></trkpt><trkpt lat="43.3197983" lon="13.1244067"><ele>610.0</ele><time>2026-04-11T14:05:29.13Z</time></trkpt><trkpt lat="43.3197217" lon="13.124405"><ele>613.3333333333334</ele><time>2026-04-11T14:05:30.13Z</time></trkpt><trkpt lat="43.3196383" lon="13.1244033"><ele>616.6666666666667</ele><time>2026-04-11T14:05:31.13Z</time></trkpt><trkpt lat="43.31957" lon="13.1244033"><ele>620.0</ele><time>2026-04-11T14:05:32.13Z</time></trkpt><trkpt lat="43.31949" lon="13.1243833"><ele>623.3333333333334</ele><time>2026-04-11T14:05:34.13Z</time></trkpt><trkpt lat="43.3194017" lon="13.124295"><ele>626.6666666666666</ele><time>2026-04-11T14:05:36.13Z</time></trkpt><trkpt lat="43.3193317" lon="13.124245"><ele>630.0</ele><time>2026-04-11T14:05:37.13Z</time></trkpt><trkpt lat="43.319255" lon="13.1242267"><ele>630.0</ele><time>2026-04-11T14:05:38.13Z</time></trkpt><trkpt lat="43.3191817" lon="13.1242367"><ele>630.0</ele><time>2026-04-11T14:05:39.13Z</time></trkpt><trkpt lat="43.3191167" lon="13.1242883"><ele>630.0</ele><time>2026-04-11T14:05:40.13Z</time></trkpt><trkpt lat="43.3189533" lon="13.1244383"><ele>630.0</ele><time>2026-04-11T14:05:43.13Z</time></trkpt><trkpt lat="43.3188783" lon="13.1244733"><ele>630.0</ele><time>2026-04-11T14:05:44.13Z</time></trkpt><trkpt lat="43.318795" lon="13.1245167"><ele>633.8333333333334</ele><time>2026-04-11T14:05:45.13Z</time></trkpt><trkpt lat="43.3187267" lon="13.12455"><ele>637.6666666666666</ele><time>2026-04-11T14:05:46.13Z</time></trkpt><trkpt lat="43.31866" lon="13.1245617"><ele>641.5</ele><time>2026-04-11T14:05:47.13Z</time></trkpt><trkpt lat="43.3185833" lon="13.1245517"><ele>645.3333333333333</ele><time>2026-04-11T14:05:48.13Z</time></trkpt><trkpt lat="43.3185033" lon="13.1245433"><ele>649.1666666666666</ele><time>2026-04-11T14:05:49.13Z</time></trkpt><trkpt lat="43.3184167" lon="13.124545"><ele>653.0</ele><time>2026-04-11T14:05:50.13Z</time></trkpt><trkpt lat="43.31833" lon="13.1245233"><ele>653.0</ele><time>2026-04-11T14:05:51.13Z</time></trkpt><trkpt lat="43.3182417" lon="13.1244867"><ele>653.0</ele><time>2026-04-11T14:05:52.13Z</time></trkpt><trkpt lat="43.3181417" lon="13.1244617"><ele>653.0</ele><time>2026-04-11T14:05:53.13Z</time></trkpt><trkpt lat="43.3180483" lon="13.12446"><ele>653.0</ele><time>2026-04-11T14:05:54.13Z</time></trkpt><trkpt lat="43.317975" lon="13.1244567"><ele>653.0</ele><time>2026-04-11T14:05:55.13Z</time></trkpt><trkpt lat="43.31791" lon="13.124445"><ele>653.0</ele><time>2026-04-11T14:05:56.13Z</time></trkpt><trkpt lat="43.317835" lon="13.124405"><ele>656.2</ele><time>2026-04-11T14:05:57.13Z</time></trkpt><trkpt lat="43.3177467" lon="13.1243683"><ele>659.4</ele><time>2026-04-11T14:05:58.13Z</time></trkpt><trkpt lat="43.3176533" lon="13.1243533"><ele>662.6</ele><time>2026-04-11T14:05:59.13Z</time></trkpt><trkpt lat="43.3175717" lon="13.124345"><ele>665.8000000000001</ele><time>2026-04-11T14:06:00.13Z</time></trkpt><trkpt lat="43.3174867" lon="13.12433"><ele>669.0</ele><time>2026-04-11T14:06:01.13Z</time></trkpt><trkpt lat="43.3172917" lon="13.1242533"><ele>670.8000000000001</ele><time>2026-04-11T14:06:03.13Z</time></trkpt><trkpt lat="43.3172033" lon="13.1242033"><ele>672.6</ele><time>2026-04-11T14:06:04.13Z</time></trkpt><trkpt lat="43.3171133" lon="13.124145"><ele>674.4</ele><time>2026-04-11T14:06:05.13Z</time></trkpt><trkpt lat="43.3170083" lon="13.124075"><ele>676.2</ele><time>2026-04-11T14:06:06.13Z</time></trkpt><trkpt lat="43.3168883" lon="13.1240183"><ele>678.0</ele><time>2026-04-11T14:06:07.13Z</time></trkpt><trkpt lat="43.3167517" lon="13.1239883"><ele>685.0</ele><time>2026-04-11T14:06:08.13Z</time></trkpt><trkpt lat="43.316605" lon="13.123955"><ele>692.0</ele><time>2026-04-11T14:06:09.13Z</time></trkpt><trkpt lat="43.31645" lon="13.12393"><ele>699.0</ele><time>2026-04-11T14:06:10.13Z</time></trkpt><trkpt lat="43.31629" lon="13.1238983"><ele>705.3333333333334</ele><time>2026-04-11T14:06:11.13Z</time></trkpt><trkpt lat="43.3161217" lon="13.1238867"><ele>711.6666666666667</ele><time>2026-04-11T14:06:12.13Z</time></trkpt><trkpt lat="43.31596" lon="13.123895"><ele>718.0</ele><time>2026-04-11T14:06:13.13Z</time></trkpt><trkpt lat="43.3157983" lon="13.1239067"><ele>718.0</ele><time>2026-04-11T14:06:14.13Z</time></trkpt><trkpt lat="43.3156533" lon="13.1239233"><ele>718.0</ele><time>2026-04-11T14:06:15.13Z</time></trkpt><trkpt lat="43.31554" lon="13.1239483"><ele>718.0</ele><time>2026-04-11T14:06:16.13Z</time></trkpt><trkpt lat="43.3154583" lon="13.12397"><ele>718.0</ele><time>2026-04-11T14:06:17.13Z</time></trkpt><trkpt lat="43.3153567" lon="13.12398"><ele>718.0</ele><time>2026-04-11T14:06:19.13Z</time></trkpt><trkpt lat="43.3152532" lon="13.1239328"><ele>725.3333333333334</ele><time>2026-04-11T14:06:21.13Z</time></trkpt><trkpt lat="43.315169" lon="13.1239071"><ele>732.6666666666666</ele><time>2026-04-11T14:06:22.13Z</time></trkpt><trkpt lat="43.3149248" lon="13.1238353"><ele>740.0</ele><time>2026-04-11T14:06:24.13Z</time></trkpt><trkpt lat="43.3147878" lon="13.1237873"><ele>743.25</ele><time>2026-04-11T14:06:25.13Z</time></trkpt><trkpt lat="43.3146446" lon="13.1237649"><ele>746.5</ele><time>2026-04-11T14:06:26.13Z</time></trkpt><trkpt lat="43.3144969" lon="13.1237576"><ele>749.75</ele><time>2026-04-11T14:06:27.13Z</time></trkpt><trkpt lat="43.3143629" lon="13.1237574"><ele>753.0</ele><time>2026-04-11T14:06:28.13Z</time></trkpt><trkpt lat="43.3142527" lon="13.1237446"><ele>753.0</ele><time>2026-04-11T14:06:29.13Z</time></trkpt><trkpt lat="43.3141489" lon="13.123716"><ele>753.0</ele><time>2026-04-11T14:06:30.13Z</time></trkpt><trkpt lat="43.3140407" lon="13.1236863"><ele>753.0</ele><time>2026-04-11T14:06:31.13Z</time></trkpt><trkpt lat="43.3139219" lon="13.1236637"><ele>753.0</ele><time>2026-04-11T14:06:32.13Z</time></trkpt><trkpt lat="43.3138001" lon="13.123662"><ele>755.8</ele><time>2026-04-11T14:06:33.13Z</time></trkpt><trkpt lat="43.3136844" lon="13.1236765"><ele>758.5999999999999</ele><time>2026-04-11T14:06:34.13Z</time></trkpt><trkpt lat="43.3135748" lon="13.1236791"><ele>761.4000000000001</ele><time>2026-04-11T14:06:35.13Z</time></trkpt><trkpt lat="43.3134604" lon="13.1236768"><ele>764.2</ele><time>2026-04-11T14:06:36.13Z</time></trkpt><trkpt lat="43.3133617" lon="13.1236566"><ele>767.0</ele><time>2026-04-11T14:06:37.129Z</time></trkpt><trkpt lat="43.3132722" lon="13.1236184"><ele>767.0</ele><time>2026-04-11T14:06:38.129Z</time></trkpt><trkpt lat="43.3131862" lon="13.1235639"><ele>767.0</ele><time>2026-04-11T14:06:39.129Z</time></trkpt><trkpt lat="43.3131106" lon="13.123506"><ele>767.0</ele><time>2026-04-11T14:06:40.129Z</time></trkpt><trkpt lat="43.3130443" lon="13.123435"><ele>767.0</ele><time>2026-04-11T14:06:41.129Z</time></trkpt><trkpt lat="43.312975" lon="13.1233648"><ele>767.0</ele><time>2026-04-11T14:06:42.129Z</time></trkpt><trkpt lat="43.3128991" lon="13.1233009"><ele>767.0</ele><time>2026-04-11T14:06:43.129Z</time></trkpt><trkpt lat="43.3127179" lon="13.1231721"><ele>773.2</ele><time>2026-04-11T14:06:45.129Z</time></trkpt><trkpt lat="43.3126107" lon="13.1231092"><ele>779.4000000000001</ele><time>2026-04-11T14:06:46.129Z</time></trkpt><trkpt lat="43.3125032" lon="13.1230469"><ele>785.5999999999999</ele><time>2026-04-11T14:06:47.129Z</time></trkpt><trkpt lat="43.3124064" lon="13.1229834"><ele>791.8</ele><time>2026-04-11T14:06:48.129Z</time></trkpt><trkpt lat="43.3123244" lon="13.1229096"><ele>798.0</ele><time>2026-04-11T14:06:49.129Z</time></trkpt><trkpt lat="43.3122577" lon="13.1228277"><ele>799.0</ele><time>2026-04-11T14:06:50.129Z</time></trkpt><trkpt lat="43.3122022" lon="13.1227299"><ele>800.0</ele><time>2026-04-11T14:06:51.129Z</time></trkpt><trkpt lat="43.3121584" lon="13.1226246"><ele>801.0</ele><time>2026-04-11T14:06:52.129Z</time></trkpt><trkpt lat="43.3121207" lon="13.12253"><ele>802.0</ele><time>2026-04-11T14:06:53.129Z</time></trkpt><trkpt lat="43.3120623" lon="13.1224203"><ele>803.0</ele><time>2026-04-11T14:06:55.129Z</time></trkpt><trkpt lat="43.3119779" lon="13.1225117"><ele>803.0</ele><time>2026-04-11T14:06:58.129Z</time></trkpt><trkpt lat="43.3119198" lon="13.1226034"><ele>803.0</ele><time>2026-04-11T14:06:59.129Z</time></trkpt><trkpt lat="43.311838" lon="13.1227015"><ele>803.0</ele><time>2026-04-11T14:07:00.13Z</time></trkpt><trkpt lat="43.3117397" lon="13.1227848"><ele>803.0</ele><time>2026-04-11T14:07:01.13Z</time></trkpt><trkpt lat="43.3116412" lon="13.1228401"><ele>803.0</ele><time>2026-04-11T14:07:02.129Z</time></trkpt><trkpt lat="43.3115468" lon="13.1228781"><ele>803.0</ele><time>2026-04-11T14:07:03.129Z</time></trkpt><trkpt lat="43.3114548" lon="13.1228982"><ele>803.0</ele><time>2026-04-11T14:07:04.129Z</time></trkpt><trkpt lat="43.3112532" lon="13.1229443"><ele>803.0</ele><time>2026-04-11T14:07:06.129Z</time></trkpt><trkpt lat="43.3111316" lon="13.1229703"><ele>803.0</ele><time>2026-04-11T14:07:07.129Z</time></trkpt><trkpt lat="43.3110008" lon="13.1229943"><ele>804.5999999999999</ele><time>2026-04-11T14:07:08.129Z</time></trkpt><trkpt lat="43.3108746" lon="13.1230226"><ele>806.1999999999999</ele><time>2026-04-11T14:07:09.129Z</time></trkpt><trkpt lat="43.3107608" lon="13.123057"><ele>807.8</ele><time>2026-04-11T14:07:10.129Z</time></trkpt><trkpt lat="43.3106601" lon="13.1230844"><ele>809.4</ele><time>2026-04-11T14:07:11.129Z</time></trkpt><trkpt lat="43.3105631" lon="13.1231021"><ele>811.0</ele><time>2026-04-11T14:07:12.129Z</time></trkpt><trkpt lat="43.3104571" lon="13.123122"><ele>812.0</ele><time>2026-04-11T14:07:13.129Z</time></trkpt><trkpt lat="43.3103448" lon="13.1231561"><ele>813.0</ele><time>2026-04-11T14:07:14.129Z</time></trkpt><trkpt lat="43.3102399" lon="13.1232101"><ele>814.0</ele><time>2026-04-11T14:07:15.129Z</time></trkpt><trkpt lat="43.3101429" lon="13.1232742"><ele>815.0</ele><time>2026-04-11T14:07:16.129Z</time></trkpt><trkpt lat="43.3100561" lon="13.1233326"><ele>816.0</ele><time>2026-04-11T14:07:17.129Z</time></trkpt><trkpt lat="43.3099786" lon="13.1233806"><ele>812.0</ele><time>2026-04-11T14:07:18.129Z</time></trkpt><trkpt lat="43.3099013" lon="13.1234093"><ele>808.0</ele><time>2026-04-11T14:07:19.129Z</time></trkpt><trkpt lat="43.3098058" lon="13.1234216"><ele>804.0</ele><time>2026-04-11T14:07:20.129Z</time></trkpt><trkpt lat="43.3096877" lon="13.1234328"><ele>800.0</ele><time>2026-04-11T14:07:21.129Z</time></trkpt><trkpt lat="43.3095579" lon="13.12345"><ele>796.0</ele><time>2026-04-11T14:07:22.129Z</time></trkpt><trkpt lat="43.3094427" lon="13.1234673"><ele>795.75</ele><time>2026-04-11T14:07:23.129Z</time></trkpt><trkpt lat="43.309326" lon="13.1234848"><ele>795.5</ele><time>2026-04-11T14:07:24.129Z</time></trkpt><trkpt lat="43.3092159" lon="13.1235056"><ele>795.25</ele><time>2026-04-11T14:07:25.129Z</time></trkpt><trkpt lat="43.3090083" lon="13.1235667"><ele>795.0</ele><time>2026-04-11T14:07:27.129Z</time></trkpt><trkpt lat="43.3089217" lon="13.12361"><ele>793.75</ele><time>2026-04-11T14:07:28.129Z</time></trkpt><trkpt lat="43.308835" lon="13.1236517"><ele>792.5</ele><time>2026-04-11T14:07:29.129Z</time></trkpt><trkpt lat="43.3087383" lon="13.1236917"><ele>791.25</ele><time>2026-04-11T14:07:30.129Z</time></trkpt><trkpt lat="43.3086117" lon="13.1237333"><ele>790.0</ele><time>2026-04-11T14:07:31.129Z</time></trkpt><trkpt lat="43.30847" lon="13.1237783"><ele>790.0</ele><time>2026-04-11T14:07:32.129Z</time></trkpt><trkpt lat="43.308325" lon="13.12383"><ele>790.0</ele><time>2026-04-11T14:07:33.129Z</time></trkpt><trkpt lat="43.30819" lon="13.123885"><ele>790.0</ele><time>2026-04-11T14:07:34.129Z</time></trkpt><trkpt lat="43.3080617" lon="13.12395"><ele>790.0</ele><time>2026-04-11T14:07:35.129Z</time></trkpt><trkpt lat="43.3079483" lon="13.1240033"><ele>789.3333333333333</ele><time>2026-04-11T14:07:36.129Z</time></trkpt><trkpt lat="43.3078517" lon="13.1240517"><ele>788.6666666666666</ele><time>2026-04-11T14:07:37.129Z</time></trkpt><trkpt lat="43.3077667" lon="13.1241117"><ele>788.0</ele><time>2026-04-11T14:07:38.129Z</time></trkpt><trkpt lat="43.3076917" lon="13.1241517"><ele>787.3333333333333</ele><time>2026-04-11T14:07:39.129Z</time></trkpt><trkpt lat="43.3076183" lon="13.12418"><ele>786.6666666666666</ele><time>2026-04-11T14:07:40.13Z</time></trkpt><trkpt lat="43.3075533" lon="13.124205"><ele>786.0</ele><time>2026-04-11T14:07:41.129Z</time></trkpt><trkpt lat="43.3074867" lon="13.1242067"><ele>785.1999999999999</ele><time>2026-04-11T14:07:42.129Z</time></trkpt><trkpt lat="43.3074133" lon="13.1241767"><ele>784.4</ele><time>2026-04-11T14:07:43.129Z</time></trkpt><trkpt lat="43.3073333" lon="13.1241217"><ele>783.6</ele><time>2026-04-11T14:07:44.129Z</time></trkpt><trkpt lat="43.3072383" lon="13.12405"><ele>782.8</ele><time>2026-04-11T14:07:45.129Z</time></trkpt><trkpt lat="43.3071367" lon="13.1239717"><ele>782.0</ele><time>2026-04-11T14:07:46.129Z</time></trkpt><trkpt lat="43.3069267" lon="13.1238533"><ele>782.0</ele><time>2026-04-11T14:07:48.129Z</time></trkpt><trkpt lat="43.3068583" lon="13.123815"><ele>782.0</ele><time>2026-04-11T14:07:49.129Z</time></trkpt><trkpt lat="43.3067883" lon="13.123735"><ele>782.0</ele><time>2026-04-11T14:07:51.129Z</time></trkpt><trkpt lat="43.3067933" lon="13.1235983"><ele>782.0</ele><time>2026-04-11T14:07:53.129Z</time></trkpt><trkpt lat="43.3068167" lon="13.1234833"><ele>782.0</ele><time>2026-04-11T14:07:54.129Z</time></trkpt><trkpt lat="43.306845" lon="13.1233383"><ele>783.0</ele><time>2026-04-11T14:07:55.129Z</time></trkpt><trkpt lat="43.3068633" lon="13.1231783"><ele>784.0</ele><time>2026-04-11T14:07:56.129Z</time></trkpt><trkpt lat="43.3068617" lon="13.1229983"><ele>785.0</ele><time>2026-04-11T14:07:57.129Z</time></trkpt><trkpt lat="43.306835" lon="13.12282"><ele>786.0</ele><time>2026-04-11T14:07:58.129Z</time></trkpt><trkpt lat="43.306795" lon="13.1226617"><ele>786.0</ele><time>2026-04-11T14:07:59.129Z</time></trkpt><trkpt lat="43.3067567" lon="13.1225317"><ele>786.0</ele><time>2026-04-11T14:08:00.129Z</time></trkpt><trkpt lat="43.30674" lon="13.1224"><ele>786.0</ele><time>2026-04-11T14:08:01.129Z</time></trkpt><trkpt lat="43.306755" lon="13.1222783"><ele>786.0</ele><time>2026-04-11T14:08:02.129Z</time></trkpt><trkpt lat="43.3067883" lon="13.122125"><ele>786.0</ele><time>2026-04-11T14:08:03.129Z</time></trkpt><trkpt lat="43.30683" lon="13.1219617"><ele>789.25</ele><time>2026-04-11T14:08:04.129Z</time></trkpt><trkpt lat="43.3068717" lon="13.12179"><ele>792.5</ele><time>2026-04-11T14:08:05.129Z</time></trkpt><trkpt lat="43.306895" lon="13.12164"><ele>795.75</ele><time>2026-04-11T14:08:06.129Z</time></trkpt><trkpt lat="43.3069433" lon="13.1215183"><ele>799.0</ele><time>2026-04-11T14:08:07.129Z</time></trkpt><trkpt lat="43.3071117" lon="13.1213267"><ele>802.0</ele><time>2026-04-11T14:08:09.129Z</time></trkpt><trkpt lat="43.3072067" lon="13.1212367"><ele>805.0</ele><time>2026-04-11T14:08:10.129Z</time></trkpt><trkpt lat="43.3073017" lon="13.1211283"><ele>808.0</ele><time>2026-04-11T14:08:11.129Z</time></trkpt><trkpt lat="43.3073983" lon="13.1210083"><ele>811.0</ele><time>2026-04-11T14:08:12.129Z</time></trkpt><trkpt lat="43.3074917" lon="13.12088"><ele>813.75</ele><time>2026-04-11T14:08:13.129Z</time></trkpt><trkpt lat="43.30759" lon="13.1207383"><ele>816.5</ele><time>2026-04-11T14:08:14.129Z</time></trkpt><trkpt lat="43.3076883" lon="13.1206233"><ele>819.25</ele><time>2026-04-11T14:08:15.129Z</time></trkpt><trkpt lat="43.3078033" lon="13.1205417"><ele>822.0</ele><time>2026-04-11T14:08:16.129Z</time></trkpt><trkpt lat="43.3079083" lon="13.1204767"><ele>825.0</ele><time>2026-04-11T14:08:17.129Z</time></trkpt><trkpt lat="43.3079883" lon="13.1204133"><ele>828.0</ele><time>2026-04-11T14:08:18.129Z</time></trkpt><trkpt lat="43.3080583" lon="13.1203383"><ele>831.0</ele><time>2026-04-11T14:08:19.129Z</time></trkpt><trkpt lat="43.30812" lon="13.1202417"><ele>834.0</ele><time>2026-04-11T14:08:20.129Z</time></trkpt><trkpt lat="43.3081817" lon="13.1201333"><ele>837.0</ele><time>2026-04-11T14:08:21.129Z</time></trkpt><trkpt lat="43.30825" lon="13.1200067"><ele>842.25</ele><time>2026-04-11T14:08:22.129Z</time></trkpt><trkpt lat="43.3083117" lon="13.1198683"><ele>847.5</ele><time>2026-04-11T14:08:23.129Z</time></trkpt><trkpt lat="43.3083583" lon="13.1197233"><ele>852.75</ele><time>2026-04-11T14:08:24.129Z</time></trkpt><trkpt lat="43.3083967" lon="13.1195433"><ele>858.0</ele><time>2026-04-11T14:08:25.129Z</time></trkpt><trkpt lat="43.30846" lon="13.1193633"><ele>858.0</ele><time>2026-04-11T14:08:26.129Z</time></trkpt><trkpt lat="43.3085367" lon="13.1192017"><ele>858.0</ele><time>2026-04-11T14:08:27.129Z</time></trkpt><trkpt lat="43.3086083" lon="13.119015"><ele>858.0</ele><time>2026-04-11T14:08:28.129Z</time></trkpt><trkpt lat="43.308745" lon="13.11865"><ele>860.5</ele><time>2026-04-11T14:08:30.129Z</time></trkpt><trkpt lat="43.3088133" lon="13.1184767"><ele>863.0</ele><time>2026-04-11T14:08:31.129Z</time></trkpt><trkpt lat="43.3088817" lon="13.1183183"><ele>865.5</ele><time>2026-04-11T14:08:32.129Z</time></trkpt><trkpt lat="43.308965" lon="13.1181767"><ele>868.0</ele><time>2026-04-11T14:08:33.129Z</time></trkpt><trkpt lat="43.3090517" lon="13.1180317"><ele>872.2</ele><time>2026-04-11T14:08:34.129Z</time></trkpt><trkpt lat="43.3091433" lon="13.1178833"><ele>876.4</ele><time>2026-04-11T14:08:35.129Z</time></trkpt><trkpt lat="43.3092246" lon="13.1177632"><ele>880.6000000000001</ele><time>2026-04-11T14:08:36.129Z</time></trkpt><trkpt lat="43.3092891" lon="13.1176602"><ele>884.8000000000001</ele><time>2026-04-11T14:08:37.129Z</time></trkpt><trkpt lat="43.3093363" lon="13.1175651"><ele>889.0</ele><time>2026-04-11T14:08:38.129Z</time></trkpt><trkpt lat="43.309349" lon="13.1173915"><ele>891.0</ele><time>2026-04-11T14:08:40.129Z</time></trkpt><trkpt lat="43.3093256" lon="13.1172864"><ele>893.0000000000001</ele><time>2026-04-11T14:08:41.129Z</time></trkpt><trkpt lat="43.3092781" lon="13.1171486"><ele>895.0000000000001</ele><time>2026-04-11T14:08:42.129Z</time></trkpt><trkpt lat="43.3092094" lon="13.1170041"><ele>897.0</ele><time>2026-04-11T14:08:43.129Z</time></trkpt><trkpt lat="43.3091509" lon="13.116874"><ele>899.0</ele><time>2026-04-11T14:08:44.129Z</time></trkpt><trkpt lat="43.3091149" lon="13.1167425"><ele>899.0</ele><time>2026-04-11T14:08:45.129Z</time></trkpt><trkpt lat="43.3090999" lon="13.1166042"><ele>899.0000000000001</ele><time>2026-04-11T14:08:46.129Z</time></trkpt><trkpt lat="43.3091022" lon="13.1164567"><ele>899.0000000000001</ele><time>2026-04-11T14:08:47.129Z</time></trkpt><trkpt lat="43.3091161" lon="13.1163101"><ele>899.0</ele><time>2026-04-11T14:08:48.129Z</time></trkpt><trkpt lat="43.3091314" lon="13.1161809"><ele>899.0</ele><time>2026-04-11T14:08:49.129Z</time></trkpt><trkpt lat="43.3091942" lon="13.1160039"><ele>898.8000000000001</ele><time>2026-04-11T14:08:51.129Z</time></trkpt><trkpt lat="43.3092548" lon="13.1159467"><ele>898.6000000000001</ele><time>2026-04-11T14:08:52.129Z</time></trkpt><trkpt lat="43.309335" lon="13.1158991"><ele>898.4</ele><time>2026-04-11T14:08:53.129Z</time></trkpt><trkpt lat="43.3094445" lon="13.1158463"><ele>898.2</ele><time>2026-04-11T14:08:54.129Z</time></trkpt><trkpt lat="43.3095556" lon="13.1157763"><ele>898.0</ele><time>2026-04-11T14:08:55.129Z</time></trkpt><trkpt lat="43.3096472" lon="13.1157053"><ele>898.0</ele><time>2026-04-11T14:08:56.129Z</time></trkpt><trkpt lat="43.3097324" lon="13.115635"><ele>898.0</ele><time>2026-04-11T14:08:57.129Z</time></trkpt><trkpt lat="43.3098266" lon="13.1155868"><ele>898.0</ele><time>2026-04-11T14:08:58.129Z</time></trkpt><trkpt lat="43.3099219" lon="13.1155343"><ele>898.0</ele><time>2026-04-11T14:08:59.129Z</time></trkpt><trkpt lat="43.3099903" lon="13.1154944"><ele>898.0</ele><time>2026-04-11T14:09:00.129Z</time></trkpt><trkpt lat="43.310081" lon="13.1153892"><ele>900.1666666666666</ele><time>2026-04-11T14:09:02.129Z</time></trkpt><trkpt lat="43.3101243" lon="13.1153192"><ele>902.3333333333333</ele><time>2026-04-11T14:09:03.129Z</time></trkpt><trkpt lat="43.3101654" lon="13.1152453"><ele>904.5</ele><time>2026-04-11T14:09:04.129Z</time></trkpt><trkpt lat="43.3102528" lon="13.1151469"><ele>906.6666666666667</ele><time>2026-04-11T14:09:06.129Z</time></trkpt><trkpt lat="43.31037" lon="13.1150748"><ele>908.8333333333334</ele><time>2026-04-11T14:09:08.129Z</time></trkpt><trkpt lat="43.3104283" lon="13.1150228"><ele>911.0</ele><time>2026-04-11T14:09:09.129Z</time></trkpt><trkpt lat="43.310491" lon="13.1149611"><ele>909.5999999999999</ele><time>2026-04-11T14:09:10.129Z</time></trkpt><trkpt lat="43.3106063" lon="13.1148238"><ele>908.1999999999999</ele><time>2026-04-11T14:09:13.129Z</time></trkpt><trkpt lat="43.3106006" lon="13.1147174"><ele>906.8000000000001</ele><time>2026-04-11T14:09:15.129Z</time></trkpt><trkpt lat="43.3105595" lon="13.1146056"><ele>905.4000000000001</ele><time>2026-04-11T14:09:17.129Z</time></trkpt><trkpt lat="43.3104887" lon="13.114516"><ele>904.0</ele><time>2026-04-11T14:09:19.129Z</time></trkpt><trkpt lat="43.3104198" lon="13.1144427"><ele>902.4000000000001</ele><time>2026-04-11T14:09:21.129Z</time></trkpt><trkpt lat="43.3104234" lon="13.1143292"><ele>900.8000000000001</ele><time>2026-04-11T14:09:24.129Z</time></trkpt><trkpt lat="43.3104678" lon="13.1142222"><ele>899.1999999999999</ele><time>2026-04-11T14:09:26.129Z</time></trkpt><trkpt lat="43.3105149" lon="13.114084"><ele>897.5999999999999</ele><time>2026-04-11T14:09:28.129Z</time></trkpt><trkpt lat="43.3105361" lon="13.1139496"><ele>896.0</ele><time>2026-04-11T14:09:30.129Z</time></trkpt><trkpt lat="43.3105103" lon="13.1138375"><ele>891.8</ele><time>2026-04-11T14:09:32.129Z</time></trkpt><trkpt lat="43.3104578" lon="13.1136273"><ele>887.5999999999999</ele><time>2026-04-11T14:09:36.129Z</time></trkpt><trkpt lat="43.3104047" lon="13.1135591"><ele>883.4</ele><time>2026-04-11T14:09:38.129Z</time></trkpt><trkpt lat="43.3103873" lon="13.1134706"><ele>879.2</ele><time>2026-04-11T14:09:40.129Z</time></trkpt><trkpt lat="43.3104094" lon="13.1133455"><ele>875.0</ele><time>2026-04-11T14:09:42.129Z</time></trkpt><trkpt lat="43.3104383" lon="13.1131983"><ele>870.4</ele><time>2026-04-11T14:09:44.129Z</time></trkpt><trkpt lat="43.3104283" lon="13.1130883"><ele>865.8</ele><time>2026-04-11T14:09:46.129Z</time></trkpt><trkpt lat="43.3104317" lon="13.1129933"><ele>861.2</ele><time>2026-04-11T14:09:48.129Z</time></trkpt><trkpt lat="43.31048" lon="13.1128467"><ele>856.6</ele><time>2026-04-11T14:09:50.129Z</time></trkpt><trkpt lat="43.310505" lon="13.1126833"><ele>852.0</ele><time>2026-04-11T14:09:52.129Z</time></trkpt><trkpt lat="43.3104917" lon="13.1125383"><ele>850.0</ele><time>2026-04-11T14:09:54.129Z</time></trkpt><trkpt lat="43.3105417" lon="13.1122533"><ele>848.0</ele><time>2026-04-11T14:09:57.129Z</time></trkpt><trkpt lat="43.3105667" lon="13.1121317"><ele>846.0</ele><time>2026-04-11T14:09:58.129Z</time></trkpt><trkpt lat="43.31058" lon="13.1120083"><ele>844.0</ele><time>2026-04-11T14:09:59.129Z</time></trkpt><trkpt lat="43.3105967" lon="13.111895"><ele>844.0</ele><time>2026-04-11T14:10:00.129Z</time></trkpt><trkpt lat="43.310605" lon="13.111805"><ele>844.0</ele><time>2026-04-11T14:10:01.129Z</time></trkpt><trkpt lat="43.3106367" lon="13.1116717"><ele>844.0</ele><time>2026-04-11T14:10:03.129Z</time></trkpt><trkpt lat="43.310655" lon="13.1115183"><ele>844.0</ele><time>2026-04-11T14:10:05.129Z</time></trkpt><trkpt lat="43.31068" lon="13.1113767"><ele>844.0</ele><time>2026-04-11T14:10:07.129Z</time></trkpt><trkpt lat="43.31069" lon="13.1112383"><ele>841.4999999999999</ele><time>2026-04-11T14:10:09.129Z</time></trkpt><trkpt lat="43.310695" lon="13.1110933"><ele>839.0</ele><time>2026-04-11T14:10:11.129Z</time></trkpt><trkpt lat="43.3106983" lon="13.1110017"><ele>836.5</ele><time>2026-04-11T14:10:12.129Z</time></trkpt><trkpt lat="43.3106983" lon="13.1109017"><ele>834.0</ele><time>2026-04-11T14:10:13.129Z</time></trkpt><trkpt lat="43.3107117" lon="13.1107933"><ele>831.4999999999999</ele><time>2026-04-11T14:10:14.129Z</time></trkpt><trkpt lat="43.31074" lon="13.110665"><ele>829.0</ele><time>2026-04-11T14:10:15.129Z</time></trkpt><trkpt lat="43.3107867" lon="13.110385"><ele>828.0</ele><time>2026-04-11T14:10:17.129Z</time></trkpt><trkpt lat="43.310815" lon="13.1102117"><ele>827.0</ele><time>2026-04-11T14:10:18.129Z</time></trkpt><trkpt lat="43.31084" lon="13.1100317"><ele>826.0</ele><time>2026-04-11T14:10:19.129Z</time></trkpt><trkpt lat="43.3108683" lon="13.1098533"><ele>825.0</ele><time>2026-04-11T14:10:20.129Z</time></trkpt><trkpt lat="43.3109017" lon="13.1096717"><ele>825.0</ele><time>2026-04-11T14:10:21.129Z</time></trkpt><trkpt lat="43.31093" lon="13.1095083"><ele>825.0</ele><time>2026-04-11T14:10:22.129Z</time></trkpt><trkpt lat="43.31096" lon="13.1093683"><ele>825.0</ele><time>2026-04-11T14:10:23.129Z</time></trkpt><trkpt lat="43.3109817" lon="13.1092267"><ele>825.0</ele><time>2026-04-11T14:10:24.129Z</time></trkpt><trkpt lat="43.310995" lon="13.1090917"><ele>825.0</ele><time>2026-04-11T14:10:25.129Z</time></trkpt><trkpt lat="43.3110117" lon="13.109005"><ele>825.0</ele><time>2026-04-11T14:10:26.129Z</time></trkpt><trkpt lat="43.3110133" lon="13.1089167"><ele>825.0</ele><time>2026-04-11T14:10:27.129Z</time></trkpt><trkpt lat="43.311035" lon="13.1088283"><ele>825.0</ele><time>2026-04-11T14:10:28.129Z</time></trkpt><trkpt lat="43.311055" lon="13.108715"><ele>825.0</ele><time>2026-04-11T14:10:29.129Z</time></trkpt><trkpt lat="43.311065" lon="13.1086"><ele>825.0</ele><time>2026-04-11T14:10:30.129Z</time></trkpt><trkpt lat="43.3110733" lon="13.1084783"><ele>825.0</ele><time>2026-04-11T14:10:31.129Z</time></trkpt><trkpt lat="43.311085" lon="13.108375"><ele>825.0</ele><time>2026-04-11T14:10:32.129Z</time></trkpt><trkpt lat="43.311095" lon="13.1082633"><ele>825.0</ele><time>2026-04-11T14:10:33.129Z</time></trkpt><trkpt lat="43.3110817" lon="13.1081417"><ele>825.0</ele><time>2026-04-11T14:10:34.13Z</time></trkpt><trkpt lat="43.3110717" lon="13.1080367"><ele>825.0</ele><time>2026-04-11T14:10:35.129Z</time></trkpt><trkpt lat="43.3110583" lon="13.10794"><ele>825.0</ele><time>2026-04-11T14:10:36.129Z</time></trkpt><trkpt lat="43.3110467" lon="13.1077317"><ele>825.1666666666666</ele><time>2026-04-11T14:10:38.129Z</time></trkpt><trkpt lat="43.3110517" lon="13.1076267"><ele>825.3333333333333</ele><time>2026-04-11T14:10:39.129Z</time></trkpt><trkpt lat="43.3110667" lon="13.1075167"><ele>825.5</ele><time>2026-04-11T14:10:40.129Z</time></trkpt><trkpt lat="43.3110817" lon="13.1074017"><ele>825.6666666666666</ele><time>2026-04-11T14:10:41.13Z</time></trkpt><trkpt lat="43.311105" lon="13.1072933"><ele>825.8333333333333</ele><time>2026-04-11T14:10:42.129Z</time></trkpt><trkpt lat="43.311125" lon="13.1071917"><ele>826.0</ele><time>2026-04-11T14:10:43.129Z</time></trkpt><trkpt lat="43.311135" lon="13.107095"><ele>826.0</ele><time>2026-04-11T14:10:44.129Z</time></trkpt><trkpt lat="43.3111417" lon="13.1070067"><ele>826.0</ele><time>2026-04-11T14:10:45.129Z</time></trkpt><trkpt lat="43.311135" lon="13.10687"><ele>826.0</ele><time>2026-04-11T14:10:47.129Z</time></trkpt><trkpt lat="43.3111883" lon="13.1067483"><ele>826.0</ele><time>2026-04-11T14:10:57.129Z</time></trkpt><trkpt lat="43.31112" lon="13.1065917"><ele>826.0</ele><time>2026-04-11T14:11:04.129Z</time></trkpt><trkpt lat="43.311085" lon="13.106455"><ele>827.3333333333333</ele><time>2026-04-11T14:11:06.129Z</time></trkpt><trkpt lat="43.3110617" lon="13.1063733"><ele>828.6666666666666</ele><time>2026-04-11T14:11:07.129Z</time></trkpt><trkpt lat="43.3110517" lon="13.1062867"><ele>830.0</ele><time>2026-04-11T14:11:08.129Z</time></trkpt><trkpt lat="43.3110483" lon="13.1061783"><ele>831.3333333333333</ele><time>2026-04-11T14:11:09.129Z</time></trkpt><trkpt lat="43.3110417" lon="13.1060667"><ele>832.6666666666666</ele><time>2026-04-11T14:11:10.129Z</time></trkpt><trkpt lat="43.3110317" lon="13.1059367"><ele>834.0</ele><time>2026-04-11T14:11:11.129Z</time></trkpt><trkpt lat="43.3110317" lon="13.1058317"><ele>835.8000000000001</ele><time>2026-04-11T14:11:12.129Z</time></trkpt><trkpt lat="43.31102" lon="13.10574"><ele>837.6</ele><time>2026-04-11T14:11:13.13Z</time></trkpt><trkpt lat="43.3109833" lon="13.10561"><ele>839.4</ele><time>2026-04-11T14:11:15.13Z</time></trkpt><trkpt lat="43.3109133" lon="13.105535"><ele>841.2</ele><time>2026-04-11T14:11:17.129Z</time></trkpt><trkpt lat="43.31082" lon="13.10546"><ele>843.0</ele><time>2026-04-11T14:11:19.129Z</time></trkpt><trkpt lat="43.310655" lon="13.10538"><ele>843.0</ele><time>2026-04-11T14:11:22.129Z</time></trkpt><trkpt lat="43.310585" lon="13.1053567"><ele>843.0</ele><time>2026-04-11T14:11:23.129Z</time></trkpt><trkpt lat="43.3105167" lon="13.1053233"><ele>843.0</ele><time>2026-04-11T14:11:24.129Z</time></trkpt><trkpt lat="43.3104483" lon="13.1053017"><ele>843.0</ele><time>2026-04-11T14:11:25.129Z</time></trkpt><trkpt lat="43.3103533" lon="13.1052867"><ele>843.0</ele><time>2026-04-11T14:11:27.129Z</time></trkpt><trkpt lat="43.3102433" lon="13.1052467"><ele>843.0</ele><time>2026-04-11T14:11:29.129Z</time></trkpt><trkpt lat="43.3101533" lon="13.1051983"><ele>842.1666666666666</ele><time>2026-04-11T14:11:31.129Z</time></trkpt><trkpt lat="43.3100583" lon="13.1051267"><ele>841.3333333333333</ele><time>2026-04-11T14:11:33.129Z</time></trkpt><trkpt lat="43.3099883" lon="13.1051"><ele>840.5</ele><time>2026-04-11T14:11:34.129Z</time></trkpt><trkpt lat="43.309905" lon="13.105075"><ele>839.6666666666666</ele><time>2026-04-11T14:11:35.129Z</time></trkpt><trkpt lat="43.30982" lon="13.10506"><ele>838.8333333333333</ele><time>2026-04-11T14:11:36.129Z</time></trkpt><trkpt lat="43.30973" lon="13.10506"><ele>838.0</ele><time>2026-04-11T14:11:37.129Z</time></trkpt><trkpt lat="43.3096567" lon="13.1050633"><ele>835.8</ele><time>2026-04-11T14:11:38.129Z</time></trkpt><trkpt lat="43.3095933" lon="13.105075"><ele>833.5999999999999</ele><time>2026-04-11T14:11:39.129Z</time></trkpt><trkpt lat="43.3094833" lon="13.10513"><ele>831.4000000000001</ele><time>2026-04-11T14:11:41.129Z</time></trkpt><trkpt lat="43.309355" lon="13.10524"><ele>829.2</ele><time>2026-04-11T14:11:43.129Z</time></trkpt><trkpt lat="43.3092983" lon="13.1052967"><ele>827.0</ele><time>2026-04-11T14:11:44.13Z</time></trkpt><trkpt lat="43.3092483" lon="13.1053517"><ele>827.0</ele><time>2026-04-11T14:11:45.13Z</time></trkpt><trkpt lat="43.3091467" lon="13.105455"><ele>827.0</ele><time>2026-04-11T14:11:47.129Z</time></trkpt><trkpt lat="43.30909" lon="13.10552"><ele>827.0</ele><time>2026-04-11T14:11:48.129Z</time></trkpt><trkpt lat="43.30904" lon="13.1055883"><ele>827.0</ele><time>2026-04-11T14:11:49.129Z</time></trkpt><trkpt lat="43.309005" lon="13.1056617"><ele>827.0</ele><time>2026-04-11T14:11:50.129Z</time></trkpt><trkpt lat="43.3089517" lon="13.1058133"><ele>820.0</ele><time>2026-04-11T14:11:52.129Z</time></trkpt><trkpt lat="43.3089067" lon="13.10594"><ele>813.0</ele><time>2026-04-11T14:11:54.129Z</time></trkpt><trkpt lat="43.3088733" lon="13.1060883"><ele>806.0</ele><time>2026-04-11T14:11:56.129Z</time></trkpt><trkpt lat="43.308845" lon="13.1062467"><ele>799.0</ele><time>2026-04-11T14:11:58.129Z</time></trkpt><trkpt lat="43.3088117" lon="13.10635"><ele>792.0</ele><time>2026-04-11T14:12:00.129Z</time></trkpt><trkpt lat="43.3088667" lon="13.1064283"><ele>795.8</ele><time>2026-04-11T14:12:03.129Z</time></trkpt><trkpt lat="43.308975" lon="13.1062917"><ele>799.6</ele><time>2026-04-11T14:12:18.129Z</time></trkpt><trkpt lat="43.3090317" lon="13.10621"><ele>803.4</ele><time>2026-04-11T14:12:20.129Z</time></trkpt><trkpt lat="43.3090983" lon="13.1061083"><ele>807.1999999999999</ele><time>2026-04-11T14:12:22.129Z</time></trkpt><trkpt lat="43.30918" lon="13.1060017"><ele>811.0</ele><time>2026-04-11T14:12:24.129Z</time></trkpt><trkpt lat="43.3093317" lon="13.1058817"><ele>810.9999999999999</ele><time>2026-04-11T14:12:28.129Z</time></trkpt><trkpt lat="43.309405" lon="13.1058417"><ele>811.0</ele><time>2026-04-11T14:12:30.129Z</time></trkpt><trkpt lat="43.3094968" lon="13.1058256"><ele>811.0</ele><time>2026-04-11T14:12:33.129Z</time></trkpt><trkpt lat="43.3095516" lon="13.1058876"><ele>811.0</ele><time>2026-04-11T14:12:35.129Z</time></trkpt><trkpt lat="43.3095348" lon="13.1059885"><ele>810.9999999999999</ele><time>2026-04-11T14:12:37.13Z</time></trkpt><trkpt lat="43.3094845" lon="13.1061117"><ele>811.0</ele><time>2026-04-11T14:12:39.129Z</time></trkpt><trkpt lat="43.3094457" lon="13.1062418"><ele>811.0</ele><time>2026-04-11T14:12:41.129Z</time></trkpt><trkpt lat="43.3094232" lon="13.1063457"><ele>811.0</ele><time>2026-04-11T14:12:43.129Z</time></trkpt><trkpt lat="43.3094317" lon="13.1064319"><ele>811.0</ele><time>2026-04-11T14:12:45.129Z</time></trkpt><trkpt lat="43.3094711" lon="13.1066855"><ele>811.0</ele><time>2026-04-11T14:12:49.129Z</time></trkpt><trkpt lat="43.3094976" lon="13.1068316"><ele>811.0</ele><time>2026-04-11T14:12:51.129Z</time></trkpt><trkpt lat="43.3095114" lon="13.1069879"><ele>808.0</ele><time>2026-04-11T14:12:53.129Z</time></trkpt><trkpt lat="43.3095282" lon="13.1071564"><ele>805.0</ele><time>2026-04-11T14:12:55.129Z</time></trkpt><trkpt lat="43.3095412" lon="13.1072428"><ele>802.0</ele><time>2026-04-11T14:12:56.129Z</time></trkpt><trkpt lat="43.3095538" lon="13.1074112"><ele>799.0</ele><time>2026-04-11T14:12:58.129Z</time></trkpt><trkpt lat="43.3095314" lon="13.107565"><ele>796.0</ele><time>2026-04-11T14:13:00.129Z</time></trkpt><trkpt lat="43.3094956" lon="13.107672"><ele>791.25</ele><time>2026-04-11T14:13:02.129Z</time></trkpt><trkpt lat="43.3094498" lon="13.1077821"><ele>786.5</ele><time>2026-04-11T14:13:04.129Z</time></trkpt><trkpt lat="43.3093817" lon="13.10792"><ele>781.75</ele><time>2026-04-11T14:13:06.129Z</time></trkpt><trkpt lat="43.3092783" lon="13.1081167"><ele>777.0</ele><time>2026-04-11T14:13:09.129Z</time></trkpt><trkpt lat="43.3092417" lon="13.1081883"><ele>772.8</ele><time>2026-04-11T14:13:10.129Z</time></trkpt><trkpt lat="43.3091983" lon="13.1082867"><ele>768.6</ele><time>2026-04-11T14:13:12.129Z</time></trkpt><trkpt lat="43.3091817" lon="13.1084167"><ele>764.4</ele><time>2026-04-11T14:13:14.129Z</time></trkpt><trkpt lat="43.30912" lon="13.1085967"><ele>760.1999999999999</ele><time>2026-04-11T14:13:16.129Z</time></trkpt><trkpt lat="43.3090733" lon="13.1086983"><ele>756.0</ele><time>2026-04-11T14:13:17.129Z</time></trkpt><trkpt lat="43.30902" lon="13.1087917"><ele>756.0</ele><time>2026-04-11T14:13:18.129Z</time></trkpt><trkpt lat="43.3089683" lon="13.1088817"><ele>756.0</ele><time>2026-04-11T14:13:19.129Z</time></trkpt><trkpt lat="43.3089183" lon="13.1089483"><ele>756.0</ele><time>2026-04-11T14:13:20.129Z</time></trkpt><trkpt lat="43.3088633" lon="13.1089983"><ele>756.0</ele><time>2026-04-11T14:13:21.129Z</time></trkpt><trkpt lat="43.3088017" lon="13.10904"><ele>756.0</ele><time>2026-04-11T14:13:22.129Z</time></trkpt><trkpt lat="43.3087417" lon="13.10908"><ele>756.0</ele><time>2026-04-11T14:13:23.129Z</time></trkpt><trkpt lat="43.3086833" lon="13.10913"><ele>756.0</ele><time>2026-04-11T14:13:24.129Z</time></trkpt><trkpt lat="43.3086317" lon="13.1091983"><ele>753.1666666666666</ele><time>2026-04-11T14:13:25.129Z</time></trkpt><trkpt lat="43.30858" lon="13.1092883"><ele>750.3333333333334</ele><time>2026-04-11T14:13:26.129Z</time></trkpt><trkpt lat="43.30854" lon="13.109375"><ele>747.5</ele><time>2026-04-11T14:13:27.129Z</time></trkpt><trkpt lat="43.3084483" lon="13.109525"><ele>744.6666666666667</ele><time>2026-04-11T14:13:29.129Z</time></trkpt><trkpt lat="43.3083967" lon="13.1095933"><ele>741.8333333333334</ele><time>2026-04-11T14:13:30.129Z</time></trkpt><trkpt lat="43.308345" lon="13.109655"><ele>739.0</ele><time>2026-04-11T14:13:31.129Z</time></trkpt><trkpt lat="43.3082883" lon="13.1097267"><ele>739.0</ele><time>2026-04-11T14:13:32.129Z</time></trkpt><trkpt lat="43.308235" lon="13.1097883"><ele>739.0</ele><time>2026-04-11T14:13:33.129Z</time></trkpt><trkpt lat="43.30817" lon="13.1098633"><ele>739.0</ele><time>2026-04-11T14:13:34.129Z</time></trkpt><trkpt lat="43.3081067" lon="13.10993"><ele>739.0</ele><time>2026-04-11T14:13:35.129Z</time></trkpt><trkpt lat="43.3080383" lon="13.109985"><ele>739.0</ele><time>2026-04-11T14:13:36.129Z</time></trkpt><trkpt lat="43.30794" lon="13.1100717"><ele>739.0</ele><time>2026-04-11T14:13:38.129Z</time></trkpt><trkpt lat="43.3078267" lon="13.1101633"><ele>734.1666666666667</ele><time>2026-04-11T14:13:40.13Z</time></trkpt><trkpt lat="43.3077617" lon="13.1102017"><ele>729.3333333333334</ele><time>2026-04-11T14:13:41.129Z</time></trkpt><trkpt lat="43.30769" lon="13.1102367"><ele>724.5</ele><time>2026-04-11T14:13:42.129Z</time></trkpt><trkpt lat="43.3076233" lon="13.110275"><ele>719.6666666666666</ele><time>2026-04-11T14:13:43.129Z</time></trkpt><trkpt lat="43.3075083" lon="13.1103333"><ele>714.8333333333333</ele><time>2026-04-11T14:13:45.129Z</time></trkpt><trkpt lat="43.3074467" lon="13.110355"><ele>710.0</ele><time>2026-04-11T14:13:46.129Z</time></trkpt><trkpt lat="43.3073817" lon="13.11037"><ele>710.0</ele><time>2026-04-11T14:13:47.129Z</time></trkpt><trkpt lat="43.30731" lon="13.110375"><ele>710.0</ele><time>2026-04-11T14:13:48.129Z</time></trkpt><trkpt lat="43.3071533" lon="13.11039"><ele>710.0</ele><time>2026-04-11T14:13:50.129Z</time></trkpt><trkpt lat="43.30707" lon="13.11039"><ele>710.0</ele><time>2026-04-11T14:13:51.129Z</time></trkpt><trkpt lat="43.3069967" lon="13.1103917"><ele>710.0</ele><time>2026-04-11T14:13:52.128Z</time></trkpt><trkpt lat="43.3069333" lon="13.1103917"><ele>710.0</ele><time>2026-04-11T14:13:53.128Z</time></trkpt><trkpt lat="43.3068617" lon="13.11042"><ele>706.4</ele><time>2026-04-11T14:13:55.128Z</time></trkpt><trkpt lat="43.3069383" lon="13.1105417"><ele>702.8</ele><time>2026-04-11T14:13:58.128Z</time></trkpt><trkpt lat="43.30699" lon="13.11062"><ele>699.2</ele><time>2026-04-11T14:13:59.128Z</time></trkpt><trkpt lat="43.3070483" lon="13.1107033"><ele>695.6</ele><time>2026-04-11T14:14:00.128Z</time></trkpt><trkpt lat="43.3070967" lon="13.11077"><ele>692.0</ele><time>2026-04-11T14:14:01.128Z</time></trkpt><trkpt lat="43.30715" lon="13.1108967"><ele>688.75</ele><time>2026-04-11T14:14:03.128Z</time></trkpt><trkpt lat="43.3071033" lon="13.1109967"><ele>685.5</ele><time>2026-04-11T14:14:05.128Z</time></trkpt><trkpt lat="43.3069833" lon="13.1110117"><ele>682.25</ele><time>2026-04-11T14:14:07.128Z</time></trkpt><trkpt lat="43.306885" lon="13.1110483"><ele>679.0</ele><time>2026-04-11T14:14:09.128Z</time></trkpt><trkpt lat="43.3067967" lon="13.11124"><ele>679.0</ele><time>2026-04-11T14:14:12.128Z</time></trkpt><trkpt lat="43.3067367" lon="13.1113717"><ele>679.0</ele><time>2026-04-11T14:14:14.128Z</time></trkpt><trkpt lat="43.3066667" lon="13.1114433"><ele>679.0</ele><time>2026-04-11T14:14:16.128Z</time></trkpt><trkpt lat="43.306565" lon="13.111455"><ele>679.0</ele><time>2026-04-11T14:14:18.128Z</time></trkpt><trkpt lat="43.3065017" lon="13.1114633"><ele>679.0</ele><time>2026-04-11T14:14:19.128Z</time></trkpt><trkpt lat="43.3064333" lon="13.1114833"><ele>679.0</ele><time>2026-04-11T14:14:20.128Z</time></trkpt><trkpt lat="43.3063617" lon="13.1114983"><ele>674.8333333333334</ele><time>2026-04-11T14:14:21.128Z</time></trkpt><trkpt lat="43.30629" lon="13.11152"><ele>670.6666666666667</ele><time>2026-04-11T14:14:22.128Z</time></trkpt><trkpt lat="43.3062217" lon="13.11154"><ele>666.5</ele><time>2026-04-11T14:14:23.128Z</time></trkpt><trkpt lat="43.3061567" lon="13.1115533"><ele>662.3333333333334</ele><time>2026-04-11T14:14:24.128Z</time></trkpt><trkpt lat="43.306045" lon="13.1115783"><ele>658.1666666666666</ele><time>2026-04-11T14:14:26.128Z</time></trkpt><trkpt lat="43.3059517" lon="13.111605"><ele>654.0</ele><time>2026-04-11T14:14:28.128Z</time></trkpt><trkpt lat="43.30587" lon="13.1115767"><ele>653.0</ele><time>2026-04-11T14:14:30.128Z</time></trkpt><trkpt lat="43.305775" lon="13.1113283"><ele>652.0</ele><time>2026-04-11T14:14:34.128Z</time></trkpt><trkpt lat="43.3056517" lon="13.1113167"><ele>651.0</ele><time>2026-04-11T14:14:36.128Z</time></trkpt><trkpt lat="43.3055867" lon="13.1113117"><ele>650.0</ele><time>2026-04-11T14:14:37.128Z</time></trkpt><trkpt lat="43.3054933" lon="13.1112867"><ele>646.25</ele><time>2026-04-11T14:14:39.128Z</time></trkpt><trkpt lat="43.305425" lon="13.1113033"><ele>642.5</ele><time>2026-04-11T14:14:42.128Z</time></trkpt><trkpt lat="43.3053883" lon="13.1114333"><ele>638.75</ele><time>2026-04-11T14:16:00.128Z</time></trkpt><trkpt lat="43.305495" lon="13.1113033"><ele>635.0</ele><time>2026-04-11T14:27:21.127Z</time></trkpt><trkpt lat="43.3053467" lon="13.1114433"><ele>635.0</ele><time>2026-04-11T14:27:25.127Z</time></trkpt><trkpt lat="43.30525" lon="13.1115333"><ele>635.0</ele><time>2026-04-11T14:27:27.127Z</time></trkpt><trkpt lat="43.3051917" lon="13.1115767"><ele>635.0</ele><time>2026-04-11T14:27:28.127Z</time></trkpt><trkpt lat="43.3051117" lon="13.11163"><ele>635.0</ele><time>2026-04-11T14:27:29.127Z</time></trkpt><trkpt lat="43.3050067" lon="13.1116867"><ele>635.0</ele><time>2026-04-11T14:27:30.127Z</time></trkpt><trkpt lat="43.3048867" lon="13.1117433"><ele>634.6</ele><time>2026-04-11T14:27:31.127Z</time></trkpt><trkpt lat="43.304785" lon="13.1117983"><ele>634.2</ele><time>2026-04-11T14:27:32.127Z</time></trkpt><trkpt lat="43.3047" lon="13.1118467"><ele>633.8</ele><time>2026-04-11T14:27:33.127Z</time></trkpt><trkpt lat="43.30462" lon="13.1119117"><ele>633.4</ele><time>2026-04-11T14:27:34.127Z</time></trkpt><trkpt lat="43.3045417" lon="13.1120083"><ele>633.0</ele><time>2026-04-11T14:27:35.127Z</time></trkpt><trkpt lat="43.3044467" lon="13.1121367"><ele>631.0</ele><time>2026-04-11T14:27:36.127Z</time></trkpt><trkpt lat="43.304345" lon="13.1122867"><ele>629.0</ele><time>2026-04-11T14:27:37.127Z</time></trkpt><trkpt lat="43.3042517" lon="13.11243"><ele>627.0</ele><time>2026-04-11T14:27:38.127Z</time></trkpt><trkpt lat="43.3041783" lon="13.1125433"><ele>625.0</ele><time>2026-04-11T14:27:39.127Z</time></trkpt><trkpt lat="43.30413" lon="13.1126217"><ele>624.75</ele><time>2026-04-11T14:27:40.127Z</time></trkpt><trkpt lat="43.3041" lon="13.1127133"><ele>624.5</ele><time>2026-04-11T14:27:41.127Z</time></trkpt><trkpt lat="43.3040867" lon="13.11283"><ele>624.25</ele><time>2026-04-11T14:27:42.127Z</time></trkpt><trkpt lat="43.30404" lon="13.1131417"><ele>624.0</ele><time>2026-04-11T14:27:44.127Z</time></trkpt><trkpt lat="43.3039983" lon="13.1133133"><ele>624.0</ele><time>2026-04-11T14:27:45.127Z</time></trkpt><trkpt lat="43.3039433" lon="13.1134917"><ele>624.0</ele><time>2026-04-11T14:27:46.127Z</time></trkpt><trkpt lat="43.3038733" lon="13.11365"><ele>624.0</ele><time>2026-04-11T14:27:47.127Z</time></trkpt><trkpt lat="43.303808" lon="13.1137968"><ele>624.0</ele><time>2026-04-11T14:27:48.127Z</time></trkpt><trkpt lat="43.303744" lon="13.1139218"><ele>621.0</ele><time>2026-04-11T14:27:49.127Z</time></trkpt><trkpt lat="43.3036809" lon="13.1140202"><ele>618.0</ele><time>2026-04-11T14:27:50.127Z</time></trkpt><trkpt lat="43.3036125" lon="13.1141121"><ele>615.0</ele><time>2026-04-11T14:27:51.127Z</time></trkpt><trkpt lat="43.3035337" lon="13.114211"><ele>612.0</ele><time>2026-04-11T14:27:52.127Z</time></trkpt><trkpt lat="43.3034351" lon="13.1143114"><ele>609.0</ele><time>2026-04-11T14:27:53.127Z</time></trkpt><trkpt lat="43.3033176" lon="13.1144215"><ele>609.0</ele><time>2026-04-11T14:27:54.127Z</time></trkpt><trkpt lat="43.3031979" lon="13.1145327"><ele>609.0</ele><time>2026-04-11T14:27:55.127Z</time></trkpt><trkpt lat="43.3030822" lon="13.1146349"><ele>609.0</ele><time>2026-04-11T14:27:56.127Z</time></trkpt><trkpt lat="43.3029704" lon="13.1147358"><ele>609.0</ele><time>2026-04-11T14:27:57.127Z</time></trkpt><trkpt lat="43.3028735" lon="13.1148334"><ele>607.75</ele><time>2026-04-11T14:27:58.127Z</time></trkpt><trkpt lat="43.3027805" lon="13.1149257"><ele>606.5</ele><time>2026-04-11T14:27:59.127Z</time></trkpt><trkpt lat="43.3026815" lon="13.1150187"><ele>605.25</ele><time>2026-04-11T14:28:00.128Z</time></trkpt><trkpt lat="43.3025826" lon="13.1151084"><ele>604.0</ele><time>2026-04-11T14:28:01.127Z</time></trkpt><trkpt lat="43.3024892" lon="13.1151928"><ele>604.0</ele><time>2026-04-11T14:28:02.127Z</time></trkpt><trkpt lat="43.3023875" lon="13.1152669"><ele>604.0</ele><time>2026-04-11T14:28:03.127Z</time></trkpt><trkpt lat="43.3021872" lon="13.1153794"><ele>604.0</ele><time>2026-04-11T14:28:05.127Z</time></trkpt><trkpt lat="43.3020831" lon="13.1154481"><ele>604.0</ele><time>2026-04-11T14:28:06.127Z</time></trkpt><trkpt lat="43.3019751" lon="13.1155443"><ele>602.75</ele><time>2026-04-11T14:28:07.127Z</time></trkpt><trkpt lat="43.3018636" lon="13.1156642"><ele>601.5</ele><time>2026-04-11T14:28:08.127Z</time></trkpt><trkpt lat="43.3017395" lon="13.1157853"><ele>600.25</ele><time>2026-04-11T14:28:09.128Z</time></trkpt><trkpt lat="43.3016319" lon="13.1158984"><ele>599.0</ele><time>2026-04-11T14:28:10.127Z</time></trkpt><trkpt lat="43.3015306" lon="13.1159959"><ele>599.0</ele><time>2026-04-11T14:28:11.127Z</time></trkpt><trkpt lat="43.3014315" lon="13.1160627"><ele>599.0</ele><time>2026-04-11T14:28:12.127Z</time></trkpt><trkpt lat="43.3013283" lon="13.1161117"><ele>599.0</ele><time>2026-04-11T14:28:13.127Z</time></trkpt><trkpt lat="43.3012288" lon="13.1161561"><ele>599.0</ele><time>2026-04-11T14:28:14.127Z</time></trkpt><trkpt lat="43.3011388" lon="13.1162048"><ele>599.0</ele><time>2026-04-11T14:28:15.127Z</time></trkpt><trkpt lat="43.3010402" lon="13.116255"><ele>596.25</ele><time>2026-04-11T14:28:16.127Z</time></trkpt><trkpt lat="43.3009314" lon="13.1163138"><ele>593.5</ele><time>2026-04-11T14:28:17.127Z</time></trkpt><trkpt lat="43.3008086" lon="13.1163625"><ele>590.75</ele><time>2026-04-11T14:28:18.127Z</time></trkpt><trkpt lat="43.3006639" lon="13.1163913"><ele>588.0</ele><time>2026-04-11T14:28:19.127Z</time></trkpt><trkpt lat="43.3005193" lon="13.1164043"><ele>585.5</ele><time>2026-04-11T14:28:20.127Z</time></trkpt><trkpt lat="43.3003855" lon="13.1164086"><ele>583.0</ele><time>2026-04-11T14:28:21.127Z</time></trkpt><trkpt lat="43.3002616" lon="13.1164189"><ele>580.5</ele><time>2026-04-11T14:28:22.127Z</time></trkpt><trkpt lat="43.3001492" lon="13.1164289"><ele>578.0</ele><time>2026-04-11T14:28:23.127Z</time></trkpt><trkpt lat="43.3000515" lon="13.1164373"><ele>578.0</ele><time>2026-04-11T14:28:24.127Z</time></trkpt><trkpt lat="43.2998425" lon="13.1164418"><ele>578.0</ele><time>2026-04-11T14:28:26.127Z</time></trkpt><trkpt lat="43.2997205" lon="13.116448"><ele>578.0</ele><time>2026-04-11T14:28:27.127Z</time></trkpt><trkpt lat="43.2995883" lon="13.1164608"><ele>578.25</ele><time>2026-04-11T14:28:28.127Z</time></trkpt><trkpt lat="43.2994434" lon="13.1164748"><ele>578.5</ele><time>2026-04-11T14:28:29.127Z</time></trkpt><trkpt lat="43.2993016" lon="13.1164886"><ele>578.75</ele><time>2026-04-11T14:28:30.127Z</time></trkpt><trkpt lat="43.2991607" lon="13.1165054"><ele>579.0</ele><time>2026-04-11T14:28:31.127Z</time></trkpt><trkpt lat="43.2990324" lon="13.1165261"><ele>578.4</ele><time>2026-04-11T14:28:32.127Z</time></trkpt><trkpt lat="43.2989123" lon="13.1165527"><ele>577.8</ele><time>2026-04-11T14:28:33.127Z</time></trkpt><trkpt lat="43.2988074" lon="13.1165748"><ele>577.2</ele><time>2026-04-11T14:28:34.127Z</time></trkpt><trkpt lat="43.2987065" lon="13.1165954"><ele>576.6</ele><time>2026-04-11T14:28:35.127Z</time></trkpt><trkpt lat="43.2986006" lon="13.1166293"><ele>576.0</ele><time>2026-04-11T14:28:36.127Z</time></trkpt><trkpt lat="43.2984921" lon="13.1166719"><ele>576.0</ele><time>2026-04-11T14:28:37.127Z</time></trkpt><trkpt lat="43.2983926" lon="13.1167071"><ele>576.0</ele><time>2026-04-11T14:28:38.127Z</time></trkpt><trkpt lat="43.2983032" lon="13.1167518"><ele>576.0</ele><time>2026-04-11T14:28:39.127Z</time></trkpt><trkpt lat="43.2982158" lon="13.1168037"><ele>576.0</ele><time>2026-04-11T14:28:40.128Z</time></trkpt><trkpt lat="43.2981216" lon="13.1168685"><ele>576.0</ele><time>2026-04-11T14:28:41.127Z</time></trkpt><trkpt lat="43.2980239" lon="13.116944"><ele>571.5</ele><time>2026-04-11T14:28:42.127Z</time></trkpt><trkpt lat="43.2979222" lon="13.117008"><ele>567.0</ele><time>2026-04-11T14:28:43.127Z</time></trkpt><trkpt lat="43.2978193" lon="13.1170531"><ele>562.5</ele><time>2026-04-11T14:28:44.127Z</time></trkpt><trkpt lat="43.2977177" lon="13.1170937"><ele>558.0</ele><time>2026-04-11T14:28:45.127Z</time></trkpt><trkpt lat="43.297517" lon="13.1172094"><ele>558.0</ele><time>2026-04-11T14:28:47.127Z</time></trkpt><trkpt lat="43.2973982" lon="13.1172913"><ele>558.0</ele><time>2026-04-11T14:28:48.127Z</time></trkpt><trkpt lat="43.2972714" lon="13.1173666"><ele>558.0</ele><time>2026-04-11T14:28:49.127Z</time></trkpt><trkpt lat="43.2971435" lon="13.117433"><ele>558.0</ele><time>2026-04-11T14:28:50.127Z</time></trkpt><trkpt lat="43.2970116" lon="13.1174767"><ele>557.25</ele><time>2026-04-11T14:28:51.127Z</time></trkpt><trkpt lat="43.2968935" lon="13.1175228"><ele>556.5</ele><time>2026-04-11T14:28:52.127Z</time></trkpt><trkpt lat="43.2967765" lon="13.1175636"><ele>555.75</ele><time>2026-04-11T14:28:53.127Z</time></trkpt><trkpt lat="43.2966631" lon="13.1175973"><ele>555.0</ele><time>2026-04-11T14:28:54.127Z</time></trkpt><trkpt lat="43.296556" lon="13.1176208"><ele>555.0</ele><time>2026-04-11T14:28:55.127Z</time></trkpt><trkpt lat="43.2964543" lon="13.1176478"><ele>555.0</ele><time>2026-04-11T14:28:56.127Z</time></trkpt><trkpt lat="43.2963583" lon="13.1176685"><ele>555.0</ele><time>2026-04-11T14:28:57.127Z</time></trkpt><trkpt lat="43.2962614" lon="13.1176832"><ele>555.0</ele><time>2026-04-11T14:28:58.127Z</time></trkpt><trkpt lat="43.2961777" lon="13.1176942"><ele>555.0</ele><time>2026-04-11T14:28:59.127Z</time></trkpt><trkpt lat="43.2961069" lon="13.1177026"><ele>553.6</ele><time>2026-04-11T14:29:00.127Z</time></trkpt><trkpt lat="43.296005" lon="13.1177403"><ele>552.2</ele><time>2026-04-11T14:29:02.127Z</time></trkpt><trkpt lat="43.2959437" lon="13.1178031"><ele>550.8</ele><time>2026-04-11T14:29:04.127Z</time></trkpt><trkpt lat="43.295878" lon="13.1178939"><ele>549.4</ele><time>2026-04-11T14:29:07.127Z</time></trkpt><trkpt lat="43.2958232" lon="13.1181092"><ele>548.0</ele><time>2026-04-11T14:29:10.127Z</time></trkpt><trkpt lat="43.2958052" lon="13.1182461"><ele>548.0</ele><time>2026-04-11T14:29:11.127Z</time></trkpt><trkpt lat="43.2957988" lon="13.1184294"><ele>548.0</ele><time>2026-04-11T14:29:12.127Z</time></trkpt><trkpt lat="43.2958072" lon="13.1186477"><ele>548.0</ele><time>2026-04-11T14:29:13.127Z</time></trkpt><trkpt lat="43.2958227" lon="13.1188672"><ele>548.25</ele><time>2026-04-11T14:29:14.127Z</time></trkpt><trkpt lat="43.2958312" lon="13.1190854"><ele>548.5</ele><time>2026-04-11T14:29:15.127Z</time></trkpt><trkpt lat="43.2958243" lon="13.1192898"><ele>548.75</ele><time>2026-04-11T14:29:16.127Z</time></trkpt><trkpt lat="43.2958118" lon="13.1194775"><ele>549.0</ele><time>2026-04-11T14:29:17.127Z</time></trkpt><trkpt lat="43.2957949" lon="13.1196419"><ele>549.0</ele><time>2026-04-11T14:29:18.127Z</time></trkpt><trkpt lat="43.2957728" lon="13.1197844"><ele>549.0</ele><time>2026-04-11T14:29:19.127Z</time></trkpt><trkpt lat="43.2957493" lon="13.1199038"><ele>549.0</ele><time>2026-04-11T14:29:20.127Z</time></trkpt><trkpt lat="43.2957356" lon="13.1200262"><ele>549.0</ele><time>2026-04-11T14:29:21.127Z</time></trkpt><trkpt lat="43.2957405" lon="13.1201598"><ele>549.0</ele><time>2026-04-11T14:29:22.127Z</time></trkpt><trkpt lat="43.2957557" lon="13.12032"><ele>549.0</ele><time>2026-04-11T14:29:23.127Z</time></trkpt><trkpt lat="43.2957687" lon="13.1205152"><ele>549.0</ele><time>2026-04-11T14:29:24.127Z</time></trkpt><trkpt lat="43.2957794" lon="13.1207227"><ele>549.0</ele><time>2026-04-11T14:29:25.127Z</time></trkpt><trkpt lat="43.2957898" lon="13.1209261"><ele>549.0</ele><time>2026-04-11T14:29:26.127Z</time></trkpt><trkpt lat="43.2957901" lon="13.1211171"><ele>548.6666666666666</ele><time>2026-04-11T14:29:27.127Z</time></trkpt><trkpt lat="43.2957823" lon="13.1213054"><ele>548.3333333333333</ele><time>2026-04-11T14:29:28.127Z</time></trkpt><trkpt lat="43.2957591" lon="13.1217031"><ele>548.0</ele><time>2026-04-11T14:29:30.127Z</time></trkpt><trkpt lat="43.2957476" lon="13.1218994"><ele>548.0</ele><time>2026-04-11T14:29:31.127Z</time></trkpt><trkpt lat="43.2957408" lon="13.1221012"><ele>548.0</ele><time>2026-04-11T14:29:32.127Z</time></trkpt><trkpt lat="43.2957326" lon="13.1223135"><ele>548.0</ele><time>2026-04-11T14:29:33.127Z</time></trkpt><trkpt lat="43.2957283" lon="13.1225211"><ele>548.0</ele><time>2026-04-11T14:29:34.127Z</time></trkpt><trkpt lat="43.2957251" lon="13.122735"><ele>548.0</ele><time>2026-04-11T14:29:35.127Z</time></trkpt><trkpt lat="43.2957185" lon="13.1229409"><ele>548.0</ele><time>2026-04-11T14:29:36.127Z</time></trkpt><trkpt lat="43.2957113" lon="13.1231271"><ele>548.0</ele><time>2026-04-11T14:29:37.127Z</time></trkpt><trkpt lat="43.2957044" lon="13.1232934"><ele>547.6</ele><time>2026-04-11T14:29:38.127Z</time></trkpt><trkpt lat="43.2956969" lon="13.1234513"><ele>547.1999999999999</ele><time>2026-04-11T14:29:39.127Z</time></trkpt><trkpt lat="43.2957017" lon="13.1236038"><ele>546.8</ele><time>2026-04-11T14:29:40.127Z</time></trkpt><trkpt lat="43.2957172" lon="13.1237379"><ele>546.4</ele><time>2026-04-11T14:29:41.127Z</time></trkpt><trkpt lat="43.2957465" lon="13.1238716"><ele>546.0</ele><time>2026-04-11T14:29:42.127Z</time></trkpt><trkpt lat="43.2957931" lon="13.1240033"><ele>544.75</ele><time>2026-04-11T14:29:43.127Z</time></trkpt><trkpt lat="43.2958489" lon="13.1241316"><ele>543.5</ele><time>2026-04-11T14:29:44.127Z</time></trkpt><trkpt lat="43.2959084" lon="13.1242663"><ele>542.25</ele><time>2026-04-11T14:29:45.127Z</time></trkpt><trkpt lat="43.2959777" lon="13.1243998"><ele>541.0</ele><time>2026-04-11T14:29:46.128Z</time></trkpt><trkpt lat="43.2960542" lon="13.1245258"><ele>541.0</ele><time>2026-04-11T14:29:47.127Z</time></trkpt><trkpt lat="43.2961204" lon="13.1246481"><ele>541.0</ele><time>2026-04-11T14:29:48.127Z</time></trkpt><trkpt lat="43.2961639" lon="13.1247703"><ele>541.0</ele><time>2026-04-11T14:29:49.126Z</time></trkpt><trkpt lat="43.296242" lon="13.1250297"><ele>541.0</ele><time>2026-04-11T14:29:51.127Z</time></trkpt><trkpt lat="43.2963029" lon="13.1251508"><ele>538.25</ele><time>2026-04-11T14:29:52.126Z</time></trkpt><trkpt lat="43.2963817" lon="13.1252785"><ele>535.5</ele><time>2026-04-11T14:29:53.126Z</time></trkpt><trkpt lat="43.2964744" lon="13.1254169"><ele>532.75</ele><time>2026-04-11T14:29:54.126Z</time></trkpt><trkpt lat="43.2965677" lon="13.1255643"><ele>530.0</ele><time>2026-04-11T14:29:55.126Z</time></trkpt><trkpt lat="43.2966579" lon="13.1257109"><ele>535.0</ele><time>2026-04-11T14:29:56.127Z</time></trkpt><trkpt lat="43.2967443" lon="13.1258634"><ele>540.0</ele><time>2026-04-11T14:29:57.126Z</time></trkpt><trkpt lat="43.2968274" lon="13.126015"><ele>545.0</ele><time>2026-04-11T14:29:58.126Z</time></trkpt><trkpt lat="43.2969055" lon="13.1261704"><ele>550.0</ele><time>2026-04-11T14:29:59.126Z</time></trkpt><trkpt lat="43.2969774" lon="13.1263206"><ele>550.0</ele><time>2026-04-11T14:30:00.126Z</time></trkpt><trkpt lat="43.297045" lon="13.1264648"><ele>550.0</ele><time>2026-04-11T14:30:01.126Z</time></trkpt><trkpt lat="43.2970994" lon="13.1266056"><ele>550.0</ele><time>2026-04-11T14:30:02.126Z</time></trkpt><trkpt lat="43.2971313" lon="13.126724"><ele>550.0</ele><time>2026-04-11T14:30:03.126Z</time></trkpt><trkpt lat="43.2971581" lon="13.1268258"><ele>550.0</ele><time>2026-04-11T14:30:04.126Z</time></trkpt><trkpt lat="43.2971967" lon="13.1269291"><ele>552.75</ele><time>2026-04-11T14:30:05.126Z</time></trkpt><trkpt lat="43.2972536" lon="13.1270337"><ele>555.5</ele><time>2026-04-11T14:30:06.126Z</time></trkpt><trkpt lat="43.2973263" lon="13.1271457"><ele>558.25</ele><time>2026-04-11T14:30:07.126Z</time></trkpt><trkpt lat="43.2974046" lon="13.1272756"><ele>561.0</ele><time>2026-04-11T14:30:08.126Z</time></trkpt><trkpt lat="43.297477" lon="13.127413"><ele>561.0</ele><time>2026-04-11T14:30:09.126Z</time></trkpt><trkpt lat="43.2975355" lon="13.1275537"><ele>561.0</ele><time>2026-04-11T14:30:10.126Z</time></trkpt><trkpt lat="43.2976302" lon="13.1278224"><ele>561.0</ele><time>2026-04-11T14:30:12.126Z</time></trkpt><trkpt lat="43.2976871" lon="13.1279506"><ele>561.0</ele><time>2026-04-11T14:30:13.126Z</time></trkpt><trkpt lat="43.2977422" lon="13.1280642"><ele>561.0</ele><time>2026-04-11T14:30:14.126Z</time></trkpt><trkpt lat="43.2977935" lon="13.1281681"><ele>561.0</ele><time>2026-04-11T14:30:15.126Z</time></trkpt><trkpt lat="43.2978386" lon="13.1282711"><ele>561.0</ele><time>2026-04-11T14:30:16.126Z</time></trkpt><trkpt lat="43.2978846" lon="13.1283781"><ele>561.0</ele><time>2026-04-11T14:30:17.126Z</time></trkpt><trkpt lat="43.2979199" lon="13.1284754"><ele>561.0</ele><time>2026-04-11T14:30:18.126Z</time></trkpt><trkpt lat="43.2979511" lon="13.1285667"><ele>561.0</ele><time>2026-04-11T14:30:19.126Z</time></trkpt><trkpt lat="43.2979816" lon="13.1286454"><ele>557.4</ele><time>2026-04-11T14:30:20.126Z</time></trkpt><trkpt lat="43.2980135" lon="13.1287595"><ele>553.8</ele><time>2026-04-11T14:30:22.127Z</time></trkpt><trkpt lat="43.2980226" lon="13.1288536"><ele>550.1999999999999</ele><time>2026-04-11T14:30:24.126Z</time></trkpt><trkpt lat="43.2980132" lon="13.1289718"><ele>546.6</ele><time>2026-04-11T14:30:26.127Z</time></trkpt><trkpt lat="43.2980105" lon="13.1291255"><ele>543.0</ele><time>2026-04-11T14:30:28.126Z</time></trkpt><trkpt lat="43.2980113" lon="13.1292603"><ele>539.8</ele><time>2026-04-11T14:30:30.126Z</time></trkpt><trkpt lat="43.2980112" lon="13.1293545"><ele>536.5999999999999</ele><time>2026-04-11T14:30:32.126Z</time></trkpt><trkpt lat="43.297986" lon="13.1295727"><ele>533.4000000000001</ele><time>2026-04-11T14:30:36.126Z</time></trkpt><trkpt lat="43.29792" lon="13.129665"><ele>530.2</ele><time>2026-04-11T14:30:38.126Z</time></trkpt><trkpt lat="43.2978367" lon="13.1297283"><ele>527.0</ele><time>2026-04-11T14:30:40.126Z</time></trkpt><trkpt lat="43.2977517" lon="13.1297683"><ele>527.0</ele><time>2026-04-11T14:30:42.126Z</time></trkpt><trkpt lat="43.2976767" lon="13.1298067"><ele>527.0</ele><time>2026-04-11T14:30:44.126Z</time></trkpt><trkpt lat="43.29762" lon="13.12988"><ele>527.0</ele><time>2026-04-11T14:30:46.126Z</time></trkpt><trkpt lat="43.297565" lon="13.1299733"><ele>527.0</ele><time>2026-04-11T14:30:48.126Z</time></trkpt><trkpt lat="43.2975383" lon="13.1300517"><ele>527.0</ele><time>2026-04-11T14:30:50.126Z</time></trkpt><trkpt lat="43.2975383" lon="13.130195"><ele>527.0</ele><time>2026-04-11T14:30:52.126Z</time></trkpt><trkpt lat="43.2975633" lon="13.1303033"><ele>524.5</ele><time>2026-04-11T14:30:53.126Z</time></trkpt><trkpt lat="43.2976167" lon="13.1305517"><ele>522.0</ele><time>2026-04-11T14:30:55.126Z</time></trkpt><trkpt lat="43.2976383" lon="13.1306733"><ele>519.5</ele><time>2026-04-11T14:30:56.126Z</time></trkpt><trkpt lat="43.2976567" lon="13.130795"><ele>517.0</ele><time>2026-04-11T14:30:57.126Z</time></trkpt><trkpt lat="43.29768" lon="13.1309217"><ele>515.4</ele><time>2026-04-11T14:30:58.126Z</time></trkpt><trkpt lat="43.2977" lon="13.131045"><ele>513.8000000000001</ele><time>2026-04-11T14:30:59.126Z</time></trkpt><trkpt lat="43.2977217" lon="13.13117"><ele>512.2</ele><time>2026-04-11T14:31:00.126Z</time></trkpt><trkpt lat="43.2977383" lon="13.1312967"><ele>510.6</ele><time>2026-04-11T14:31:01.126Z</time></trkpt><trkpt lat="43.2977583" lon="13.131425"><ele>509.0</ele><time>2026-04-11T14:31:02.126Z</time></trkpt><trkpt lat="43.29778" lon="13.1315617"><ele>507.8333333333333</ele><time>2026-04-11T14:31:03.126Z</time></trkpt><trkpt lat="43.297795" lon="13.13169"><ele>506.66666666666663</ele><time>2026-04-11T14:31:04.126Z</time></trkpt><trkpt lat="43.2978067" lon="13.1317967"><ele>505.5</ele><time>2026-04-11T14:31:05.126Z</time></trkpt><trkpt lat="43.2978467" lon="13.1319217"><ele>504.33333333333337</ele><time>2026-04-11T14:31:07.126Z</time></trkpt><trkpt lat="43.29792" lon="13.1319883"><ele>503.1666666666667</ele><time>2026-04-11T14:31:09.126Z</time></trkpt><trkpt lat="43.2979717" lon="13.13204"><ele>502.0</ele><time>2026-04-11T14:31:10.126Z</time></trkpt><trkpt lat="43.29803" lon="13.1321017"><ele>506.0</ele><time>2026-04-11T14:31:11.127Z</time></trkpt><trkpt lat="43.2981" lon="13.1321817"><ele>510.00000000000006</ele><time>2026-04-11T14:31:12.126Z</time></trkpt><trkpt lat="43.2981717" lon="13.1322617"><ele>514.0</ele><time>2026-04-11T14:31:13.126Z</time></trkpt><trkpt lat="43.2982467" lon="13.132325"><ele>518.0</ele><time>2026-04-11T14:31:14.127Z</time></trkpt><trkpt lat="43.2983467" lon="13.1324583"><ele>522.0</ele><time>2026-04-11T14:31:16.126Z</time></trkpt><trkpt lat="43.29838" lon="13.13255"><ele>522.0</ele><time>2026-04-11T14:31:17.127Z</time></trkpt><trkpt lat="43.2984133" lon="13.1326683"><ele>522.0</ele><time>2026-04-11T14:31:18.126Z</time></trkpt><trkpt lat="43.2984367" lon="13.132795"><ele>522.0</ele><time>2026-04-11T14:31:19.126Z</time></trkpt><trkpt lat="43.2984433" lon="13.1329"><ele>522.0</ele><time>2026-04-11T14:31:20.126Z</time></trkpt><trkpt lat="43.2984417" lon="13.1330033"><ele>522.0</ele><time>2026-04-11T14:31:21.126Z</time></trkpt><trkpt lat="43.2984217" lon="13.1330967"><ele>522.0</ele><time>2026-04-11T14:31:22.126Z</time></trkpt><trkpt lat="43.2984" lon="13.13318"><ele>520.3333333333334</ele><time>2026-04-11T14:31:23.126Z</time></trkpt><trkpt lat="43.2983933" lon="13.133275"><ele>518.6666666666666</ele><time>2026-04-11T14:31:24.126Z</time></trkpt><trkpt lat="43.298405" lon="13.1333733"><ele>517.0</ele><time>2026-04-11T14:31:25.126Z</time></trkpt><trkpt lat="43.2984183" lon="13.1334883"><ele>515.3333333333333</ele><time>2026-04-11T14:31:26.126Z</time></trkpt><trkpt lat="43.2984417" lon="13.1336067"><ele>513.6666666666666</ele><time>2026-04-11T14:31:27.126Z</time></trkpt><trkpt lat="43.2984567" lon="13.1337117"><ele>512.0</ele><time>2026-04-11T14:31:28.126Z</time></trkpt><trkpt lat="43.2984633" lon="13.133815"><ele>511.99999999999994</ele><time>2026-04-11T14:31:29.127Z</time></trkpt><trkpt lat="43.2984833" lon="13.13392"><ele>512.0</ele><time>2026-04-11T14:31:30.126Z</time></trkpt><trkpt lat="43.2984967" lon="13.1340183"><ele>512.0</ele><time>2026-04-11T14:31:31.127Z</time></trkpt><trkpt lat="43.2985133" lon="13.1341067"><ele>512.0</ele><time>2026-04-11T14:31:32.126Z</time></trkpt><trkpt lat="43.2985283" lon="13.1341917"><ele>511.99999999999994</ele><time>2026-04-11T14:31:33.126Z</time></trkpt><trkpt lat="43.298525" lon="13.1343517"><ele>512.0</ele><time>2026-04-11T14:31:35.126Z</time></trkpt><trkpt lat="43.2984833" lon="13.134645"><ele>510.6</ele><time>2026-04-11T14:31:39.126Z</time></trkpt><trkpt lat="43.29846" lon="13.1348083"><ele>509.20000000000005</ele><time>2026-04-11T14:31:41.126Z</time></trkpt><trkpt lat="43.2984417" lon="13.1349217"><ele>507.8</ele><time>2026-04-11T14:31:42.126Z</time></trkpt><trkpt lat="43.29842" lon="13.1350483"><ele>506.4</ele><time>2026-04-11T14:31:43.126Z</time></trkpt><trkpt lat="43.2984033" lon="13.13518"><ele>505.0</ele><time>2026-04-11T14:31:44.126Z</time></trkpt><trkpt lat="43.298385" lon="13.13527"><ele>504.0</ele><time>2026-04-11T14:31:45.126Z</time></trkpt><trkpt lat="43.2983633" lon="13.1353617"><ele>503.0</ele><time>2026-04-11T14:31:46.126Z</time></trkpt><trkpt lat="43.29836" lon="13.135495"><ele>502.0</ele><time>2026-04-11T14:31:48.126Z</time></trkpt><trkpt lat="43.2982917" lon="13.1354567"><ele>501.0</ele><time>2026-04-11T14:31:55.126Z</time></trkpt><trkpt lat="43.2982667" lon="13.1353767"><ele>500.0</ele><time>2026-04-11T14:31:56.126Z</time></trkpt><trkpt lat="43.2982183" lon="13.13513"><ele>500.0</ele><time>2026-04-11T14:31:59.126Z</time></trkpt><trkpt lat="43.2982317" lon="13.1349583"><ele>500.0</ele><time>2026-04-11T14:32:01.126Z</time></trkpt><trkpt lat="43.298235" lon="13.1348617"><ele>500.0</ele><time>2026-04-11T14:32:02.126Z</time></trkpt><trkpt lat="43.2982367" lon="13.134775"><ele>500.0</ele><time>2026-04-11T14:32:03.126Z</time></trkpt><trkpt lat="43.2982483" lon="13.13463"><ele>500.0</ele><time>2026-04-11T14:32:05.126Z</time></trkpt><trkpt lat="43.29827" lon="13.1344883"><ele>501.0</ele><time>2026-04-11T14:32:07.126Z</time></trkpt><trkpt lat="43.29828" lon="13.1343917"><ele>502.0</ele><time>2026-04-11T14:32:09.126Z</time></trkpt><trkpt lat="43.2982417" lon="13.1343133"><ele>503.0</ele><time>2026-04-11T14:32:12.126Z</time></trkpt><trkpt lat="43.298205" lon="13.1342117"><ele>504.0</ele><time>2026-04-11T14:32:16.126Z</time></trkpt><trkpt lat="43.2981983" lon="13.134095"><ele>505.0</ele><time>2026-04-11T14:32:19.126Z</time></trkpt><trkpt lat="43.2981983" lon="13.1338833"><ele>505.33333333333337</ele><time>2026-04-11T14:32:24.126Z</time></trkpt><trkpt lat="43.2981817" lon="13.1337567"><ele>505.6666666666667</ele><time>2026-04-11T14:32:27.126Z</time></trkpt><trkpt lat="43.298135" lon="13.1336667"><ele>506.0</ele><time>2026-04-11T14:32:30.126Z</time></trkpt><trkpt lat="43.2980767" lon="13.13358"><ele>506.33333333333337</ele><time>2026-04-11T14:32:33.126Z</time></trkpt><trkpt lat="43.2980333" lon="13.133515"><ele>506.6666666666667</ele><time>2026-04-11T14:32:35.126Z</time></trkpt><trkpt lat="43.29799" lon="13.1334267"><ele>507.0</ele><time>2026-04-11T14:32:37.127Z</time></trkpt><trkpt lat="43.29794" lon="13.1333333"><ele>507.0</ele><time>2026-04-11T14:32:39.126Z</time></trkpt><trkpt lat="43.2979133" lon="13.1332283"><ele>507.00000000000006</ele><time>2026-04-11T14:32:42.126Z</time></trkpt><trkpt lat="43.297915" lon="13.1329817"><ele>507.00000000000006</ele><time>2026-04-11T14:32:47.126Z</time></trkpt><trkpt lat="43.297925" lon="13.1328783"><ele>507.0</ele><time>2026-04-11T14:32:48.126Z</time></trkpt><trkpt lat="43.2979267" lon="13.132785"><ele>507.0</ele><time>2026-04-11T14:32:49.126Z</time></trkpt><trkpt lat="43.2979033" lon="13.1326633"><ele>506.1666666666667</ele><time>2026-04-11T14:32:51.126Z</time></trkpt><trkpt lat="43.2978417" lon="13.132625"><ele>505.33333333333337</ele><time>2026-04-11T14:32:53.126Z</time></trkpt><trkpt lat="43.2977517" lon="13.1325967"><ele>504.5</ele><time>2026-04-11T14:32:55.126Z</time></trkpt><trkpt lat="43.297665" lon="13.1325167"><ele>503.6666666666667</ele><time>2026-04-11T14:32:57.126Z</time></trkpt><trkpt lat="43.2975783" lon="13.1324433"><ele>502.83333333333337</ele><time>2026-04-11T14:32:59.126Z</time></trkpt><trkpt lat="43.2975083" lon="13.1323817"><ele>502.0</ele><time>2026-04-11T14:33:01.126Z</time></trkpt><trkpt lat="43.2974667" lon="13.13229"><ele>502.0</ele><time>2026-04-11T14:33:04.126Z</time></trkpt><trkpt lat="43.2974017" lon="13.1320767"><ele>502.00000000000006</ele><time>2026-04-11T14:33:10.127Z</time></trkpt><trkpt lat="43.2973717" lon="13.131995"><ele>502.00000000000006</ele><time>2026-04-11T14:33:14.126Z</time></trkpt><trkpt lat="43.29736" lon="13.1319"><ele>502.0</ele><time>2026-04-11T14:33:16.126Z</time></trkpt><trkpt lat="43.2973517" lon="13.13178"><ele>502.0</ele><time>2026-04-11T14:33:18.126Z</time></trkpt><trkpt lat="43.2973333" lon="13.131655"><ele>503.40000000000003</ele><time>2026-04-11T14:33:20.126Z</time></trkpt><trkpt lat="43.2973167" lon="13.1315267"><ele>504.80000000000007</ele><time>2026-04-11T14:33:22.126Z</time></trkpt><trkpt lat="43.2973" lon="13.1314083"><ele>506.2</ele><time>2026-04-11T14:33:24.126Z</time></trkpt><trkpt lat="43.2972883" lon="13.1313083"><ele>507.6</ele><time>2026-04-11T14:33:26.126Z</time></trkpt><trkpt lat="43.2972982" lon="13.1311094"><ele>509.0</ele><time>2026-04-11T14:33:30.126Z</time></trkpt><trkpt lat="43.2972671" lon="13.131011"><ele>508.99999999999994</ele><time>2026-04-11T14:33:32.126Z</time></trkpt><trkpt lat="43.2972453" lon="13.1309269"><ele>509.0</ele><time>2026-04-11T14:33:34.126Z</time></trkpt><trkpt lat="43.2972845" lon="13.1308086"><ele>509.0</ele><time>2026-04-11T14:33:37.126Z</time></trkpt><trkpt lat="43.2972842" lon="13.1306949"><ele>509.0</ele><time>2026-04-11T14:33:40.126Z</time></trkpt><trkpt lat="43.2972421" lon="13.1306032"><ele>508.99999999999994</ele><time>2026-04-11T14:33:42.126Z</time></trkpt><trkpt lat="43.2971947" lon="13.1305004"><ele>509.0</ele><time>2026-04-11T14:33:44.126Z</time></trkpt><trkpt lat="43.2971509" lon="13.1303744"><ele>510.2</ele><time>2026-04-11T14:33:46.126Z</time></trkpt><trkpt lat="43.2971278" lon="13.1302866"><ele>511.4</ele><time>2026-04-11T14:33:48.126Z</time></trkpt><trkpt lat="43.297139" lon="13.1300872"><ele>512.6</ele><time>2026-04-11T14:33:52.126Z</time></trkpt><trkpt lat="43.2971017" lon="13.129986"><ele>513.8</ele><time>2026-04-11T14:33:54.126Z</time></trkpt><trkpt lat="43.2970811" lon="13.1298566"><ele>515.0</ele><time>2026-04-11T14:33:56.126Z</time></trkpt><trkpt lat="43.2970684" lon="13.1297435"><ele>515.0</ele><time>2026-04-11T14:33:58.126Z</time></trkpt><trkpt lat="43.2970432" lon="13.1296339"><ele>515.0</ele><time>2026-04-11T14:34:00.126Z</time></trkpt><trkpt lat="43.2970083" lon="13.1295267"><ele>515.0</ele><time>2026-04-11T14:34:02.126Z</time></trkpt><trkpt lat="43.2969572" lon="13.1294337"><ele>515.0</ele><time>2026-04-11T14:34:04.126Z</time></trkpt><trkpt lat="43.2969232" lon="13.1293381"><ele>515.0</ele><time>2026-04-11T14:34:06.126Z</time></trkpt><trkpt lat="43.2968763" lon="13.1292658"><ele>515.0</ele><time>2026-04-11T14:34:08.126Z</time></trkpt><trkpt lat="43.2968096" lon="13.1291687"><ele>516.0</ele><time>2026-04-11T14:34:10.126Z</time></trkpt><trkpt lat="43.2967186" lon="13.1289533"><ele>517.0</ele><time>2026-04-11T14:34:14.126Z</time></trkpt><trkpt lat="43.2966841" lon="13.1288284"><ele>518.0</ele><time>2026-04-11T14:34:16.126Z</time></trkpt><trkpt lat="43.296609" lon="13.1287143"><ele>519.0</ele><time>2026-04-11T14:34:18.126Z</time></trkpt><trkpt lat="43.2965636" lon="13.1286441"><ele>519.0</ele><time>2026-04-11T14:34:19.126Z</time></trkpt><trkpt lat="43.2965265" lon="13.1285648"><ele>519.0</ele><time>2026-04-11T14:34:20.126Z</time></trkpt><trkpt lat="43.2964999" lon="13.1284854"><ele>519.0</ele><time>2026-04-11T14:34:21.126Z</time></trkpt><trkpt lat="43.2964654" lon="13.1283325"><ele>519.0</ele><time>2026-04-11T14:34:23.126Z</time></trkpt><trkpt lat="43.2964342" lon="13.1281632"><ele>519.0</ele><time>2026-04-11T14:34:25.127Z</time></trkpt><trkpt lat="43.2964185" lon="13.1280633"><ele>519.6</ele><time>2026-04-11T14:34:26.126Z</time></trkpt><trkpt lat="43.29641" lon="13.127957"><ele>520.2</ele><time>2026-04-11T14:34:27.126Z</time></trkpt><trkpt lat="43.2964027" lon="13.1278452"><ele>520.8000000000001</ele><time>2026-04-11T14:34:28.126Z</time></trkpt><trkpt lat="43.2963983" lon="13.127749"><ele>521.4</ele><time>2026-04-11T14:34:29.126Z</time></trkpt><trkpt lat="43.2963989" lon="13.1276401"><ele>522.0</ele><time>2026-04-11T14:34:31.126Z</time></trkpt><trkpt lat="43.2963117" lon="13.1273683"><ele>522.0</ele><time>2026-04-11T14:36:15.126Z</time></trkpt><trkpt lat="43.2962683" lon="13.127265"><ele>522.0</ele><time>2026-04-11T14:36:17.126Z</time></trkpt><trkpt lat="43.2962283" lon="13.1271533"><ele>522.0</ele><time>2026-04-11T14:36:19.126Z</time></trkpt><trkpt lat="43.2961867" lon="13.1270233"><ele>522.0</ele><time>2026-04-11T14:36:21.126Z</time></trkpt><trkpt lat="43.2961467" lon="13.1269117"><ele>522.0</ele><time>2026-04-11T14:36:23.126Z</time></trkpt><trkpt lat="43.2961283" lon="13.126825"><ele>522.0</ele><time>2026-04-11T14:36:25.126Z</time></trkpt><trkpt lat="43.296145" lon="13.1267133"><ele>522.0</ele><time>2026-04-11T14:36:27.126Z</time></trkpt><trkpt lat="43.296155" lon="13.1266067"><ele>522.0</ele><time>2026-04-11T14:36:29.126Z</time></trkpt><trkpt lat="43.2961383" lon="13.1265233"><ele>522.0</ele><time>2026-04-11T14:36:31.126Z</time></trkpt><trkpt lat="43.296065" lon="13.1264367"><ele>522.0</ele><time>2026-04-11T14:36:34.126Z</time></trkpt><trkpt lat="43.2960767" lon="13.12623"><ele>522.0</ele><time>2026-04-11T14:36:40.126Z</time></trkpt><trkpt lat="43.296135" lon="13.1261367"><ele>521.8571428571429</ele><time>2026-04-11T14:36:42.126Z</time></trkpt><trkpt lat="43.2961767" lon="13.1260517"><ele>521.7142857142857</ele><time>2026-04-11T14:36:44.126Z</time></trkpt><trkpt lat="43.2961567" lon="13.1259317"><ele>521.5714285714286</ele><time>2026-04-11T14:36:47.126Z</time></trkpt><trkpt lat="43.29611" lon="13.1258717"><ele>521.4285714285714</ele><time>2026-04-11T14:36:49.126Z</time></trkpt><trkpt lat="43.2960433" lon="13.1258683"><ele>521.2857142857143</ele><time>2026-04-11T14:36:51.126Z</time></trkpt><trkpt lat="43.2959717" lon="13.1258367"><ele>521.1428571428571</ele><time>2026-04-11T14:36:54.126Z</time></trkpt><trkpt lat="43.2959567" lon="13.1257433"><ele>521.0</ele><time>2026-04-11T14:36:56.126Z</time></trkpt><trkpt lat="43.2959683" lon="13.1255233"><ele>522.2857142857142</ele><time>2026-04-11T14:37:00.126Z</time></trkpt><trkpt lat="43.2959267" lon="13.1254517"><ele>523.5714285714286</ele><time>2026-04-11T14:37:03.126Z</time></trkpt><trkpt lat="43.295865" lon="13.125405"><ele>524.8571428571429</ele><time>2026-04-11T14:37:05.127Z</time></trkpt><trkpt lat="43.29582" lon="13.1253233"><ele>526.1428571428571</ele><time>2026-04-11T14:37:07.126Z</time></trkpt><trkpt lat="43.2957717" lon="13.125245"><ele>527.4285714285714</ele><time>2026-04-11T14:37:09.126Z</time></trkpt><trkpt lat="43.2957017" lon="13.1252533"><ele>528.7142857142857</ele><time>2026-04-11T14:37:12.126Z</time></trkpt><trkpt lat="43.2957033" lon="13.1253433"><ele>530.0</ele><time>2026-04-11T14:37:16.126Z</time></trkpt><trkpt lat="43.29572" lon="13.1254367"><ele>530.0</ele><time>2026-04-11T14:37:20.126Z</time></trkpt><trkpt lat="43.2956217" lon="13.1255833"><ele>530.0</ele><time>2026-04-11T14:37:24.126Z</time></trkpt><trkpt lat="43.2955367" lon="13.1256383"><ele>530.0</ele><time>2026-04-11T14:37:26.126Z</time></trkpt><trkpt lat="43.29543" lon="13.1256967"><ele>530.0</ele><time>2026-04-11T14:37:28.126Z</time></trkpt><trkpt lat="43.29532" lon="13.1257333"><ele>530.0</ele><time>2026-04-11T14:37:30.126Z</time></trkpt><trkpt lat="43.29526" lon="13.12576"><ele>530.0</ele><time>2026-04-11T14:37:31.126Z</time></trkpt><trkpt lat="43.29516" lon="13.1257783"><ele>530.0</ele><time>2026-04-11T14:37:33.126Z</time></trkpt><trkpt lat="43.2950967" lon="13.12581"><ele>530.0</ele><time>2026-04-11T14:37:35.126Z</time></trkpt><trkpt lat="43.2950983" lon="13.1259017"><ele>530.0</ele><time>2026-04-11T14:37:40.126Z</time></trkpt><trkpt lat="43.2951017" lon="13.1260117"><ele>530.0</ele><time>2026-04-11T14:37:44.126Z</time></trkpt><trkpt lat="43.2949683" lon="13.1261033"><ele>530.0</ele><time>2026-04-11T14:37:52.126Z</time></trkpt><trkpt lat="43.2948733" lon="13.1261183"><ele>530.0</ele><time>2026-04-11T14:37:54.126Z</time></trkpt><trkpt lat="43.294805" lon="13.1261267"><ele>530.0</ele><time>2026-04-11T14:37:56.126Z</time></trkpt><trkpt lat="43.2947457" lon="13.1260872"><ele>530.0</ele><time>2026-04-11T14:37:59.126Z</time></trkpt><trkpt lat="43.2946706" lon="13.1260389"><ele>530.0</ele><time>2026-04-11T14:38:01.126Z</time></trkpt><trkpt lat="43.2945904" lon="13.1259768"><ele>530.0</ele><time>2026-04-11T14:38:03.126Z</time></trkpt><trkpt lat="43.2945017" lon="13.1259248"><ele>532.4</ele><time>2026-04-11T14:38:06.126Z</time></trkpt><trkpt lat="43.2943538" lon="13.1258023"><ele>534.8</ele><time>2026-04-11T14:38:09.126Z</time></trkpt><trkpt lat="43.2942926" lon="13.1257535"><ele>537.2</ele><time>2026-04-11T14:38:10.126Z</time></trkpt><trkpt lat="43.2942285" lon="13.1257042"><ele>539.6</ele><time>2026-04-11T14:38:11.126Z</time></trkpt><trkpt lat="43.2941651" lon="13.1256543"><ele>542.0</ele><time>2026-04-11T14:38:12.126Z</time></trkpt><trkpt lat="43.2940993" lon="13.1256027"><ele>542.0</ele><time>2026-04-11T14:38:13.126Z</time></trkpt><trkpt lat="43.294028" lon="13.1255406"><ele>542.0</ele><time>2026-04-11T14:38:14.126Z</time></trkpt><trkpt lat="43.2939489" lon="13.1254654"><ele>542.0</ele><time>2026-04-11T14:38:15.126Z</time></trkpt><trkpt lat="43.2938753" lon="13.12538"><ele>542.0</ele><time>2026-04-11T14:38:16.126Z</time></trkpt><trkpt lat="43.2938071" lon="13.1252953"><ele>542.0</ele><time>2026-04-11T14:38:17.126Z</time></trkpt><trkpt lat="43.2937419" lon="13.125222"><ele>543.3333333333333</ele><time>2026-04-11T14:38:18.126Z</time></trkpt><trkpt lat="43.2936819" lon="13.1251628"><ele>544.6666666666666</ele><time>2026-04-11T14:38:19.126Z</time></trkpt><trkpt lat="43.2936214" lon="13.125117"><ele>546.0</ele><time>2026-04-11T14:38:20.127Z</time></trkpt><trkpt lat="43.2935506" lon="13.1250772"><ele>547.3333333333334</ele><time>2026-04-11T14:38:21.126Z</time></trkpt><trkpt lat="43.2934707" lon="13.1250374"><ele>548.6666666666667</ele><time>2026-04-11T14:38:22.126Z</time></trkpt><trkpt lat="43.2933826" lon="13.1249875"><ele>550.0</ele><time>2026-04-11T14:38:23.126Z</time></trkpt><trkpt lat="43.2932894" lon="13.124941"><ele>550.0</ele><time>2026-04-11T14:38:24.126Z</time></trkpt><trkpt lat="43.2931983" lon="13.1249035"><ele>550.0</ele><time>2026-04-11T14:38:25.126Z</time></trkpt><trkpt lat="43.2931068" lon="13.1248611"><ele>550.0</ele><time>2026-04-11T14:38:26.126Z</time></trkpt><trkpt lat="43.2930303" lon="13.1248094"><ele>550.0</ele><time>2026-04-11T14:38:27.126Z</time></trkpt><trkpt lat="43.2928938" lon="13.1246795"><ele>550.0</ele><time>2026-04-11T14:38:29.126Z</time></trkpt><trkpt lat="43.2928337" lon="13.1246334"><ele>554.0</ele><time>2026-04-11T14:38:30.126Z</time></trkpt><trkpt lat="43.2927657" lon="13.1246109"><ele>558.0</ele><time>2026-04-11T14:38:31.126Z</time></trkpt><trkpt lat="43.2926781" lon="13.1246004"><ele>562.0</ele><time>2026-04-11T14:38:32.126Z</time></trkpt><trkpt lat="43.2925734" lon="13.1245936"><ele>566.0</ele><time>2026-04-11T14:38:33.127Z</time></trkpt><trkpt lat="43.2924622" lon="13.1245839"><ele>570.0</ele><time>2026-04-11T14:38:34.126Z</time></trkpt><trkpt lat="43.2923694" lon="13.1245725"><ele>570.0</ele><time>2026-04-11T14:38:35.126Z</time></trkpt><trkpt lat="43.2922901" lon="13.1245566"><ele>570.0</ele><time>2026-04-11T14:38:36.126Z</time></trkpt><trkpt lat="43.2922176" lon="13.1245194"><ele>570.0</ele><time>2026-04-11T14:38:37.126Z</time></trkpt><trkpt lat="43.2921464" lon="13.1244816"><ele>570.0</ele><time>2026-04-11T14:38:38.127Z</time></trkpt><trkpt lat="43.292081" lon="13.1244511"><ele>570.0</ele><time>2026-04-11T14:38:39.126Z</time></trkpt><trkpt lat="43.292001" lon="13.1244398"><ele>570.0</ele><time>2026-04-11T14:38:41.126Z</time></trkpt><trkpt lat="43.2919455" lon="13.1245182"><ele>570.8</ele><time>2026-04-11T14:38:43.126Z</time></trkpt><trkpt lat="43.2918819" lon="13.1246231"><ele>571.6</ele><time>2026-04-11T14:38:45.126Z</time></trkpt><trkpt lat="43.291833" lon="13.1247037"><ele>572.4</ele><time>2026-04-11T14:38:47.126Z</time></trkpt><trkpt lat="43.2917688" lon="13.1247732"><ele>573.2</ele><time>2026-04-11T14:38:49.126Z</time></trkpt><trkpt lat="43.2916035" lon="13.1246952"><ele>574.0</ele><time>2026-04-11T14:38:53.126Z</time></trkpt><trkpt lat="43.2915249" lon="13.1246529"><ele>574.0</ele><time>2026-04-11T14:38:55.126Z</time></trkpt><trkpt lat="43.2914315" lon="13.1246549"><ele>574.0</ele><time>2026-04-11T14:38:57.126Z</time></trkpt><trkpt lat="43.2913658" lon="13.1246737"><ele>574.0</ele><time>2026-04-11T14:38:58.126Z</time></trkpt><trkpt lat="43.2912532" lon="13.1247063"><ele>574.0</ele><time>2026-04-11T14:39:00.127Z</time></trkpt><trkpt lat="43.2911708" lon="13.1247589"><ele>574.0</ele><time>2026-04-11T14:39:02.126Z</time></trkpt><trkpt lat="43.2910994" lon="13.1247506"><ele>574.0</ele><time>2026-04-11T14:39:04.126Z</time></trkpt><trkpt lat="43.2910142" lon="13.1246703"><ele>574.6</ele><time>2026-04-11T14:39:06.126Z</time></trkpt><trkpt lat="43.2909254" lon="13.1246031"><ele>575.2</ele><time>2026-04-11T14:39:08.126Z</time></trkpt><trkpt lat="43.2908471" lon="13.1245866"><ele>575.8000000000001</ele><time>2026-04-11T14:39:10.126Z</time></trkpt><trkpt lat="43.2906618" lon="13.1245522"><ele>576.4</ele><time>2026-04-11T14:39:14.126Z</time></trkpt><trkpt lat="43.2906131" lon="13.1244907"><ele>577.0</ele><time>2026-04-11T14:39:16.126Z</time></trkpt><trkpt lat="43.2905278" lon="13.1244426"><ele>579.0</ele><time>2026-04-11T14:39:19.126Z</time></trkpt><trkpt lat="43.290461" lon="13.1244204"><ele>581.0</ele><time>2026-04-11T14:39:21.126Z</time></trkpt><trkpt lat="43.2903916" lon="13.1243663"><ele>583.0</ele><time>2026-04-11T14:39:23.126Z</time></trkpt><trkpt lat="43.290329" lon="13.1242737"><ele>585.0</ele><time>2026-04-11T14:39:25.126Z</time></trkpt><trkpt lat="43.2902588" lon="13.124155"><ele>587.0</ele><time>2026-04-11T14:39:27.126Z</time></trkpt><trkpt lat="43.2901861" lon="13.12403"><ele>589.4</ele><time>2026-04-11T14:39:29.126Z</time></trkpt><trkpt lat="43.2901025" lon="13.1239142"><ele>591.8000000000001</ele><time>2026-04-11T14:39:31.126Z</time></trkpt><trkpt lat="43.2899892" lon="13.1237746"><ele>594.2</ele><time>2026-04-11T14:39:33.126Z</time></trkpt><trkpt lat="43.2899309" lon="13.1237065"><ele>596.6</ele><time>2026-04-11T14:39:34.126Z</time></trkpt><trkpt lat="43.2898781" lon="13.1236432"><ele>599.0</ele><time>2026-04-11T14:39:35.126Z</time></trkpt><trkpt lat="43.2898255" lon="13.1235919"><ele>598.6</ele><time>2026-04-11T14:39:36.126Z</time></trkpt><trkpt lat="43.2897201" lon="13.1235574"><ele>598.2</ele><time>2026-04-11T14:39:38.126Z</time></trkpt><trkpt lat="43.2896129" lon="13.1235355"><ele>597.8000000000001</ele><time>2026-04-11T14:39:40.126Z</time></trkpt><trkpt lat="43.2895389" lon="13.1234985"><ele>597.4</ele><time>2026-04-11T14:39:42.126Z</time></trkpt><trkpt lat="43.2894685" lon="13.1234223"><ele>597.0</ele><time>2026-04-11T14:39:45.126Z</time></trkpt><trkpt lat="43.2893987" lon="13.1233814"><ele>597.0</ele><time>2026-04-11T14:39:47.126Z</time></trkpt><trkpt lat="43.2893226" lon="13.1233333"><ele>597.0</ele><time>2026-04-11T14:39:49.126Z</time></trkpt><trkpt lat="43.2892286" lon="13.1232726"><ele>597.0</ele><time>2026-04-11T14:39:51.126Z</time></trkpt><trkpt lat="43.2891721" lon="13.1232269"><ele>597.0</ele><time>2026-04-11T14:39:52.126Z</time></trkpt><trkpt lat="43.2890157" lon="13.1230671"><ele>597.0</ele><time>2026-04-11T14:39:55.126Z</time></trkpt><trkpt lat="43.2889639" lon="13.1229977"><ele>597.8333333333334</ele><time>2026-04-11T14:39:56.126Z</time></trkpt><trkpt lat="43.2889237" lon="13.1229087"><ele>598.6666666666666</ele><time>2026-04-11T14:39:57.126Z</time></trkpt><trkpt lat="43.2888934" lon="13.1228289"><ele>599.5</ele><time>2026-04-11T14:39:58.126Z</time></trkpt><trkpt lat="43.2888677" lon="13.1227351"><ele>600.3333333333333</ele><time>2026-04-11T14:39:59.126Z</time></trkpt><trkpt lat="43.2888504" lon="13.1226314"><ele>601.1666666666666</ele><time>2026-04-11T14:40:00.126Z</time></trkpt><trkpt lat="43.2888269" lon="13.122483"><ele>602.0</ele><time>2026-04-11T14:40:02.126Z</time></trkpt><trkpt lat="43.2887926" lon="13.1223849"><ele>602.0</ele><time>2026-04-11T14:40:05.126Z</time></trkpt><trkpt lat="43.288753" lon="13.1223085"><ele>602.0</ele><time>2026-04-11T14:40:07.126Z</time></trkpt><trkpt lat="43.2886992" lon="13.1222219"><ele>602.0</ele><time>2026-04-11T14:40:09.126Z</time></trkpt><trkpt lat="43.2886172" lon="13.1222031"><ele>602.0</ele><time>2026-04-11T14:40:12.126Z</time></trkpt><trkpt lat="43.2886917" lon="13.1223083"><ele>602.0</ele><time>2026-04-11T14:40:17.126Z</time></trkpt><trkpt lat="43.2888117" lon="13.1225983"><ele>602.0</ele><time>2026-04-11T14:40:21.126Z</time></trkpt><trkpt lat="43.2888183" lon="13.1227333"><ele>602.0</ele><time>2026-04-11T14:40:23.126Z</time></trkpt><trkpt lat="43.288745" lon="13.122865"><ele>602.0</ele><time>2026-04-11T14:40:25.126Z</time></trkpt><trkpt lat="43.288725" lon="13.1229517"><ele>602.0</ele><time>2026-04-11T14:40:26.126Z</time></trkpt><trkpt lat="43.2887217" lon="13.1230433"><ele>602.0</ele><time>2026-04-11T14:40:27.126Z</time></trkpt><trkpt lat="43.288715" lon="13.123205"><ele>601.0</ele><time>2026-04-11T14:40:29.126Z</time></trkpt><trkpt lat="43.28873" lon="13.12336"><ele>600.0</ele><time>2026-04-11T14:40:31.126Z</time></trkpt><trkpt lat="43.288795" lon="13.1234817"><ele>599.0</ele><time>2026-04-11T14:40:33.126Z</time></trkpt><trkpt lat="43.2888617" lon="13.1235733"><ele>598.0</ele><time>2026-04-11T14:40:35.126Z</time></trkpt><trkpt lat="43.288925" lon="13.1236733"><ele>597.0</ele><time>2026-04-11T14:40:37.126Z</time></trkpt><trkpt lat="43.288935" lon="13.1237783"><ele>602.2</ele><time>2026-04-11T14:40:39.126Z</time></trkpt><trkpt lat="43.2888333" lon="13.1238017"><ele>607.4000000000001</ele><time>2026-04-11T14:40:44.126Z</time></trkpt><trkpt lat="43.288765" lon="13.1237033"><ele>612.5999999999999</ele><time>2026-04-11T14:40:46.126Z</time></trkpt><trkpt lat="43.288695" lon="13.1235483"><ele>617.8</ele><time>2026-04-11T14:40:48.126Z</time></trkpt><trkpt lat="43.2886517" lon="13.1234617"><ele>623.0</ele><time>2026-04-11T14:40:49.126Z</time></trkpt><trkpt lat="43.28861" lon="13.1233617"><ele>623.0</ele><time>2026-04-11T14:40:50.126Z</time></trkpt><trkpt lat="43.2885683" lon="13.1232583"><ele>623.0</ele><time>2026-04-11T14:40:51.126Z</time></trkpt><trkpt lat="43.2885217" lon="13.1231667"><ele>623.0</ele><time>2026-04-11T14:40:52.126Z</time></trkpt><trkpt lat="43.288475" lon="13.12306"><ele>623.0</ele><time>2026-04-11T14:40:53.126Z</time></trkpt><trkpt lat="43.2884133" lon="13.122975"><ele>623.0</ele><time>2026-04-11T14:40:54.126Z</time></trkpt><trkpt lat="43.2883533" lon="13.122885"><ele>623.0</ele><time>2026-04-11T14:40:55.126Z</time></trkpt><trkpt lat="43.2883" lon="13.122815"><ele>625.1999999999999</ele><time>2026-04-11T14:40:56.126Z</time></trkpt><trkpt lat="43.2882383" lon="13.122735"><ele>627.4</ele><time>2026-04-11T14:40:57.126Z</time></trkpt><trkpt lat="43.288165" lon="13.1226733"><ele>629.5999999999999</ele><time>2026-04-11T14:40:58.126Z</time></trkpt><trkpt lat="43.2881" lon="13.1226033"><ele>631.8</ele><time>2026-04-11T14:40:59.126Z</time></trkpt><trkpt lat="43.2880217" lon="13.1225317"><ele>634.0</ele><time>2026-04-11T14:41:00.126Z</time></trkpt><trkpt lat="43.28785" lon="13.1224217"><ele>633.1428571428571</ele><time>2026-04-11T14:41:02.126Z</time></trkpt><trkpt lat="43.2877783" lon="13.1223933"><ele>632.2857142857142</ele><time>2026-04-11T14:41:03.127Z</time></trkpt><trkpt lat="43.2877117" lon="13.1223633"><ele>631.4285714285713</ele><time>2026-04-11T14:41:04.126Z</time></trkpt><trkpt lat="43.2876417" lon="13.1223567"><ele>630.5714285714286</ele><time>2026-04-11T14:41:05.126Z</time></trkpt><trkpt lat="43.2875683" lon="13.12235"><ele>629.7142857142857</ele><time>2026-04-11T14:41:06.126Z</time></trkpt><trkpt lat="43.2875017" lon="13.1223333"><ele>628.8571428571428</ele><time>2026-04-11T14:41:07.126Z</time></trkpt><trkpt lat="43.2874367" lon="13.1223017"><ele>628.0</ele><time>2026-04-11T14:41:08.126Z</time></trkpt><trkpt lat="43.28737" lon="13.1222583"><ele>627.9999999999999</ele><time>2026-04-11T14:41:09.126Z</time></trkpt><trkpt lat="43.2873117" lon="13.1221983"><ele>628.0</ele><time>2026-04-11T14:41:10.126Z</time></trkpt><trkpt lat="43.2872617" lon="13.1221383"><ele>628.0</ele><time>2026-04-11T14:41:11.126Z</time></trkpt><trkpt lat="43.2872133" lon="13.1220783"><ele>628.0</ele><time>2026-04-11T14:41:12.126Z</time></trkpt><trkpt lat="43.28716" lon="13.12202"><ele>628.0</ele><time>2026-04-11T14:41:13.126Z</time></trkpt><trkpt lat="43.2871083" lon="13.1219683"><ele>627.9999999999999</ele><time>2026-04-11T14:41:14.126Z</time></trkpt><trkpt lat="43.28704" lon="13.1218683"><ele>628.0</ele><time>2026-04-11T14:41:16.126Z</time></trkpt><trkpt lat="43.2869767" lon="13.1217583"><ele>628.6</ele><time>2026-04-11T14:41:18.126Z</time></trkpt><trkpt lat="43.28688" lon="13.1216517"><ele>629.1999999999999</ele><time>2026-04-11T14:41:20.126Z</time></trkpt><trkpt lat="43.286825" lon="13.1216067"><ele>629.8</ele><time>2026-04-11T14:41:21.126Z</time></trkpt><trkpt lat="43.2867083" lon="13.1215167"><ele>630.4</ele><time>2026-04-11T14:41:23.126Z</time></trkpt><trkpt lat="43.28665" lon="13.1214567"><ele>631.0</ele><time>2026-04-11T14:41:24.126Z</time></trkpt><trkpt lat="43.2866067" lon="13.1213883"><ele>631.0</ele><time>2026-04-11T14:41:25.126Z</time></trkpt><trkpt lat="43.2865717" lon="13.12123"><ele>631.0</ele><time>2026-04-11T14:41:27.126Z</time></trkpt><trkpt lat="43.2865467" lon="13.1210633"><ele>631.0</ele><time>2026-04-11T14:41:29.126Z</time></trkpt><trkpt lat="43.2864733" lon="13.12093"><ele>631.0</ele><time>2026-04-11T14:41:31.126Z</time></trkpt><trkpt lat="43.286395" lon="13.1208317"><ele>634.0</ele><time>2026-04-11T14:41:33.126Z</time></trkpt><trkpt lat="43.2863617" lon="13.12072"><ele>637.0</ele><time>2026-04-11T14:41:35.126Z</time></trkpt><trkpt lat="43.2863583" lon="13.1206333"><ele>640.0</ele><time>2026-04-11T14:41:37.126Z</time></trkpt><trkpt lat="43.2862883" lon="13.1205167"><ele>643.0</ele><time>2026-04-11T14:41:46.126Z</time></trkpt><trkpt lat="43.2862" lon="13.1203867"><ele>646.0</ele><time>2026-04-11T14:41:52.126Z</time></trkpt><trkpt lat="43.2861633" lon="13.1203133"><ele>646.0</ele><time>2026-04-11T14:41:55.126Z</time></trkpt><trkpt lat="43.2861333" lon="13.1201833"><ele>646.0</ele><time>2026-04-11T14:42:03.126Z</time></trkpt><trkpt lat="43.2860883" lon="13.1201033"><ele>646.0</ele><time>2026-04-11T14:42:06.126Z</time></trkpt><trkpt lat="43.286055" lon="13.1200267"><ele>646.0</ele><time>2026-04-11T14:42:09.126Z</time></trkpt><trkpt lat="43.2860183" lon="13.1198"><ele>646.0</ele><time>2026-04-11T14:42:14.126Z</time></trkpt><trkpt lat="43.285995" lon="13.1196867"><ele>644.8</ele><time>2026-04-11T14:42:16.126Z</time></trkpt><trkpt lat="43.28595" lon="13.1195733"><ele>643.5999999999999</ele><time>2026-04-11T14:42:18.126Z</time></trkpt><trkpt lat="43.28588" lon="13.1194017"><ele>642.4</ele><time>2026-04-11T14:42:20.126Z</time></trkpt><trkpt lat="43.2858417" lon="13.11929"><ele>641.2</ele><time>2026-04-11T14:42:21.126Z</time></trkpt><trkpt lat="43.2858" lon="13.1191833"><ele>640.0</ele><time>2026-04-11T14:42:22.126Z</time></trkpt><trkpt lat="43.2857683" lon="13.1190733"><ele>639.8</ele><time>2026-04-11T14:42:23.126Z</time></trkpt><trkpt lat="43.2857433" lon="13.11898"><ele>639.6</ele><time>2026-04-11T14:42:24.126Z</time></trkpt><trkpt lat="43.2857133" lon="13.1189"><ele>639.4</ele><time>2026-04-11T14:42:25.126Z</time></trkpt><trkpt lat="43.2856633" lon="13.1187867"><ele>639.2</ele><time>2026-04-11T14:42:27.126Z</time></trkpt><trkpt lat="43.2855783" lon="13.1187367"><ele>639.0</ele><time>2026-04-11T14:42:33.126Z</time></trkpt><trkpt lat="43.28538" lon="13.11861"><ele>642.0</ele><time>2026-04-11T14:43:21.126Z</time></trkpt><trkpt lat="43.2853233" lon="13.118565"><ele>645.0</ele><time>2026-04-11T14:43:23.126Z</time></trkpt><trkpt lat="43.285255" lon="13.1185167"><ele>648.0</ele><time>2026-04-11T14:43:26.126Z</time></trkpt><trkpt lat="43.2851633" lon="13.118485"><ele>651.0</ele><time>2026-04-11T14:43:29.126Z</time></trkpt><trkpt lat="43.28506" lon="13.1184767"><ele>654.0</ele><time>2026-04-11T14:43:31.126Z</time></trkpt><trkpt lat="43.2849967" lon="13.1184833"><ele>657.0</ele><time>2026-04-11T14:43:32.126Z</time></trkpt><trkpt lat="43.2849317" lon="13.118485"><ele>657.0</ele><time>2026-04-11T14:43:33.126Z</time></trkpt><trkpt lat="43.284865" lon="13.11849"><ele>657.0</ele><time>2026-04-11T14:43:34.126Z</time></trkpt><trkpt lat="43.284715" lon="13.1184967"><ele>657.0</ele><time>2026-04-11T14:43:36.126Z</time></trkpt><trkpt lat="43.2846417" lon="13.1185067"><ele>657.0</ele><time>2026-04-11T14:43:37.126Z</time></trkpt><trkpt lat="43.28457" lon="13.1185133"><ele>657.0</ele><time>2026-04-11T14:43:38.126Z</time></trkpt><trkpt lat="43.2845017" lon="13.1185183"><ele>657.0</ele><time>2026-04-11T14:43:39.126Z</time></trkpt><trkpt lat="43.28443" lon="13.1185333"><ele>660.4000000000001</ele><time>2026-04-11T14:43:41.126Z</time></trkpt><trkpt lat="43.2844217" lon="13.1186333"><ele>663.8000000000001</ele><time>2026-04-11T14:46:29.125Z</time></trkpt><trkpt lat="43.2844717" lon="13.11888"><ele>667.2</ele><time>2026-04-11T14:46:33.125Z</time></trkpt><trkpt lat="43.2844633" lon="13.11897"><ele>670.6</ele><time>2026-04-11T14:46:35.125Z</time></trkpt><trkpt lat="43.284395" lon="13.11899"><ele>674.0</ele><time>2026-04-11T14:46:38.125Z</time></trkpt><trkpt lat="43.2843017" lon="13.1188983"><ele>674.0</ele><time>2026-04-11T14:46:40.125Z</time></trkpt><trkpt lat="43.2842367" lon="13.11885"><ele>674.0</ele><time>2026-04-11T14:46:41.125Z</time></trkpt><trkpt lat="43.2841517" lon="13.1188067"><ele>674.0</ele><time>2026-04-11T14:46:42.125Z</time></trkpt><trkpt lat="43.2840683" lon="13.11878"><ele>674.0</ele><time>2026-04-11T14:46:43.125Z</time></trkpt><trkpt lat="43.2839933" lon="13.1187617"><ele>674.0</ele><time>2026-04-11T14:46:44.125Z</time></trkpt><trkpt lat="43.2839233" lon="13.1187517"><ele>674.0</ele><time>2026-04-11T14:46:45.125Z</time></trkpt><trkpt lat="43.2838067" lon="13.1187117"><ele>674.8000000000001</ele><time>2026-04-11T14:46:47.125Z</time></trkpt><trkpt lat="43.283745" lon="13.1186567"><ele>675.6</ele><time>2026-04-11T14:46:48.125Z</time></trkpt><trkpt lat="43.28369" lon="13.1185717"><ele>676.4</ele><time>2026-04-11T14:46:49.125Z</time></trkpt><trkpt lat="43.2836467" lon="13.11848"><ele>677.2</ele><time>2026-04-11T14:46:50.125Z</time></trkpt><trkpt lat="43.2835483" lon="13.1182667"><ele>678.0</ele><time>2026-04-11T14:46:52.125Z</time></trkpt><trkpt lat="43.283505" lon="13.1181417"><ele>678.5</ele><time>2026-04-11T14:46:53.125Z</time></trkpt><trkpt lat="43.2834533" lon="13.1179983"><ele>679.0</ele><time>2026-04-11T14:46:54.125Z</time></trkpt><trkpt lat="43.2833883" lon="13.1178383"><ele>679.5</ele><time>2026-04-11T14:46:55.125Z</time></trkpt><trkpt lat="43.2833267" lon="13.1176717"><ele>680.0</ele><time>2026-04-11T14:46:56.125Z</time></trkpt><trkpt lat="43.2832633" lon="13.1175217"><ele>680.4</ele><time>2026-04-11T14:46:57.125Z</time></trkpt><trkpt lat="43.2832133" lon="13.1173917"><ele>680.8</ele><time>2026-04-11T14:46:58.125Z</time></trkpt><trkpt lat="43.283165" lon="13.1172767"><ele>681.2</ele><time>2026-04-11T14:46:59.125Z</time></trkpt><trkpt lat="43.28312" lon="13.1171533"><ele>681.6</ele><time>2026-04-11T14:47:00.125Z</time></trkpt><trkpt lat="43.2830733" lon="13.1170283"><ele>682.0</ele><time>2026-04-11T14:47:01.125Z</time></trkpt><trkpt lat="43.2830267" lon="13.1169167"><ele>683.4000000000001</ele><time>2026-04-11T14:47:02.125Z</time></trkpt><trkpt lat="43.2829783" lon="13.1168133"><ele>684.8000000000001</ele><time>2026-04-11T14:47:03.125Z</time></trkpt><trkpt lat="43.2829217" lon="13.1167217"><ele>686.2</ele><time>2026-04-11T14:47:04.125Z</time></trkpt><trkpt lat="43.282855" lon="13.116625"><ele>687.6</ele><time>2026-04-11T14:47:05.125Z</time></trkpt><trkpt lat="43.282775" lon="13.1165333"><ele>689.0</ele><time>2026-04-11T14:47:06.125Z</time></trkpt><trkpt lat="43.2826933" lon="13.1164417"><ele>691.4000000000001</ele><time>2026-04-11T14:47:07.125Z</time></trkpt><trkpt lat="43.2826033" lon="13.1163667"><ele>693.8</ele><time>2026-04-11T14:47:08.125Z</time></trkpt><trkpt lat="43.2825133" lon="13.1163067"><ele>696.2</ele><time>2026-04-11T14:47:09.125Z</time></trkpt><trkpt lat="43.28242" lon="13.1162583"><ele>698.5999999999999</ele><time>2026-04-11T14:47:10.125Z</time></trkpt><trkpt lat="43.28233" lon="13.1162083"><ele>701.0</ele><time>2026-04-11T14:47:11.125Z</time></trkpt><trkpt lat="43.2821817" lon="13.1160967"><ele>702.1999999999999</ele><time>2026-04-11T14:47:13.125Z</time></trkpt><trkpt lat="43.2821083" lon="13.116045"><ele>703.4</ele><time>2026-04-11T14:47:14.125Z</time></trkpt><trkpt lat="43.28203" lon="13.1160183"><ele>704.6</ele><time>2026-04-11T14:47:15.125Z</time></trkpt><trkpt lat="43.2819583" lon="13.1159967"><ele>705.8</ele><time>2026-04-11T14:47:16.125Z</time></trkpt><trkpt lat="43.2818583" lon="13.1159383"><ele>707.0</ele><time>2026-04-11T14:47:18.125Z</time></trkpt><trkpt lat="43.2817833" lon="13.1158183"><ele>709.3333333333333</ele><time>2026-04-11T14:47:20.125Z</time></trkpt><trkpt lat="43.2817383" lon="13.1157317"><ele>711.6666666666666</ele><time>2026-04-11T14:47:21.125Z</time></trkpt><trkpt lat="43.2816933" lon="13.1156367"><ele>714.0</ele><time>2026-04-11T14:47:22.125Z</time></trkpt><trkpt lat="43.2816433" lon="13.115545"><ele>716.3333333333334</ele><time>2026-04-11T14:47:23.125Z</time></trkpt><trkpt lat="43.2815933" lon="13.1154533"><ele>718.6666666666667</ele><time>2026-04-11T14:47:24.125Z</time></trkpt><trkpt lat="43.2815419" lon="13.1153553"><ele>721.0</ele><time>2026-04-11T14:47:25.125Z</time></trkpt><trkpt lat="43.2814923" lon="13.1152681"><ele>721.0</ele><time>2026-04-11T14:47:26.125Z</time></trkpt><trkpt lat="43.2814527" lon="13.1151977"><ele>721.0</ele><time>2026-04-11T14:47:27.125Z</time></trkpt><trkpt lat="43.2814082" lon="13.1150781"><ele>721.0</ele><time>2026-04-11T14:47:29.125Z</time></trkpt><trkpt lat="43.2814169" lon="13.1149621"><ele>721.0</ele><time>2026-04-11T14:47:31.125Z</time></trkpt><trkpt lat="43.2814576" lon="13.114842"><ele>721.0</ele><time>2026-04-11T14:47:33.125Z</time></trkpt><trkpt lat="43.2815045" lon="13.1145604"><ele>724.5999999999999</ele><time>2026-04-11T14:47:37.125Z</time></trkpt><trkpt lat="43.2814989" lon="13.1144651"><ele>728.2</ele><time>2026-04-11T14:47:38.125Z</time></trkpt><trkpt lat="43.2814941" lon="13.1143641"><ele>731.8</ele><time>2026-04-11T14:47:39.125Z</time></trkpt><trkpt lat="43.2814877" lon="13.1142736"><ele>735.4000000000001</ele><time>2026-04-11T14:47:40.125Z</time></trkpt><trkpt lat="43.2814676" lon="13.1141056"><ele>739.0</ele><time>2026-04-11T14:47:42.125Z</time></trkpt><trkpt lat="43.2814403" lon="13.1139496"><ele>743.0</ele><time>2026-04-11T14:47:44.125Z</time></trkpt><trkpt lat="43.2814213" lon="13.1137902"><ele>747.0</ele><time>2026-04-11T14:47:46.125Z</time></trkpt><trkpt lat="43.2814173" lon="13.1136193"><ele>751.0</ele><time>2026-04-11T14:47:48.125Z</time></trkpt><trkpt lat="43.281434" lon="13.1134447"><ele>755.0</ele><time>2026-04-11T14:47:50.125Z</time></trkpt><trkpt lat="43.2814463" lon="13.1133505"><ele>759.0</ele><time>2026-04-11T14:47:51.125Z</time></trkpt><trkpt lat="43.2814696" lon="13.1132604"><ele>762.0</ele><time>2026-04-11T14:47:52.125Z</time></trkpt><trkpt lat="43.281502" lon="13.1131847"><ele>765.0</ele><time>2026-04-11T14:47:53.125Z</time></trkpt><trkpt lat="43.2815416" lon="13.1131119"><ele>768.0</ele><time>2026-04-11T14:47:54.125Z</time></trkpt><trkpt lat="43.2816193" lon="13.1128924"><ele>771.0</ele><time>2026-04-11T14:47:57.125Z</time></trkpt><trkpt lat="43.281587" lon="13.1127695"><ele>774.0</ele><time>2026-04-11T14:47:59.125Z</time></trkpt><trkpt lat="43.2815718" lon="13.1126413"><ele>774.0</ele><time>2026-04-11T14:48:01.125Z</time></trkpt><trkpt lat="43.2815541" lon="13.1125078"><ele>774.0</ele><time>2026-04-11T14:48:03.125Z</time></trkpt><trkpt lat="43.2815167" lon="13.1123625"><ele>774.0</ele><time>2026-04-11T14:48:05.125Z</time></trkpt><trkpt lat="43.2814972" lon="13.1122763"><ele>774.0</ele><time>2026-04-11T14:48:06.125Z</time></trkpt><trkpt lat="43.281476" lon="13.1121913"><ele>774.0</ele><time>2026-04-11T14:48:07.125Z</time></trkpt><trkpt lat="43.2814447" lon="13.1121034"><ele>774.0</ele><time>2026-04-11T14:48:08.125Z</time></trkpt><trkpt lat="43.2814054" lon="13.1120126"><ele>778.8000000000001</ele><time>2026-04-11T14:48:09.125Z</time></trkpt><trkpt lat="43.2813609" lon="13.1119263"><ele>783.6</ele><time>2026-04-11T14:48:10.125Z</time></trkpt><trkpt lat="43.2813221" lon="13.1118507"><ele>788.4</ele><time>2026-04-11T14:48:11.125Z</time></trkpt><trkpt lat="43.2812993" lon="13.1117135"><ele>793.2</ele><time>2026-04-11T14:48:13.125Z</time></trkpt><trkpt lat="43.2813102" lon="13.1115837"><ele>798.0</ele><time>2026-04-11T14:48:15.125Z</time></trkpt><trkpt lat="43.2812172" lon="13.111366"><ele>800.5</ele><time>2026-04-11T14:48:18.125Z</time></trkpt><trkpt lat="43.2811671" lon="13.1112852"><ele>803.0</ele><time>2026-04-11T14:48:19.125Z</time></trkpt><trkpt lat="43.281113" lon="13.1112007"><ele>805.5</ele><time>2026-04-11T14:48:20.125Z</time></trkpt><trkpt lat="43.2810667" lon="13.1111194"><ele>808.0</ele><time>2026-04-11T14:48:21.125Z</time></trkpt><trkpt lat="43.2810196" lon="13.11105"><ele>810.5</ele><time>2026-04-11T14:48:22.125Z</time></trkpt><trkpt lat="43.2809184" lon="13.1109432"><ele>813.0</ele><time>2026-04-11T14:48:24.125Z</time></trkpt><trkpt lat="43.2808609" lon="13.1108838"><ele>813.0</ele><time>2026-04-11T14:48:25.125Z</time></trkpt><trkpt lat="43.2808089" lon="13.1108047"><ele>813.0</ele><time>2026-04-11T14:48:26.125Z</time></trkpt><trkpt lat="43.280761" lon="13.1107076"><ele>813.0</ele><time>2026-04-11T14:48:27.125Z</time></trkpt><trkpt lat="43.2807121" lon="13.1106074"><ele>813.0</ele><time>2026-04-11T14:48:28.125Z</time></trkpt><trkpt lat="43.2806625" lon="13.1105034"><ele>813.0</ele><time>2026-04-11T14:48:29.125Z</time></trkpt><trkpt lat="43.2806175" lon="13.110402"><ele>813.0</ele><time>2026-04-11T14:48:30.125Z</time></trkpt><trkpt lat="43.2805639" lon="13.11031"><ele>815.4</ele><time>2026-04-11T14:48:31.125Z</time></trkpt><trkpt lat="43.2805065" lon="13.1102185"><ele>817.8</ele><time>2026-04-11T14:48:32.125Z</time></trkpt><trkpt lat="43.2804473" lon="13.110127"><ele>820.2</ele><time>2026-04-11T14:48:33.125Z</time></trkpt><trkpt lat="43.280381" lon="13.110026"><ele>822.6</ele><time>2026-04-11T14:48:34.125Z</time></trkpt><trkpt lat="43.2803064" lon="13.1099179"><ele>825.0</ele><time>2026-04-11T14:48:35.125Z</time></trkpt><trkpt lat="43.2802251" lon="13.1098014"><ele>827.75</ele><time>2026-04-11T14:48:36.125Z</time></trkpt><trkpt lat="43.2800765" lon="13.1095656"><ele>830.5</ele><time>2026-04-11T14:48:38.125Z</time></trkpt><trkpt lat="43.2800057" lon="13.10946"><ele>833.25</ele><time>2026-04-11T14:48:39.125Z</time></trkpt><trkpt lat="43.2799489" lon="13.1093669"><ele>836.0</ele><time>2026-04-11T14:48:40.125Z</time></trkpt><trkpt lat="43.2799" lon="13.1092828"><ele>836.0</ele><time>2026-04-11T14:48:41.125Z</time></trkpt><trkpt lat="43.2798537" lon="13.1092065"><ele>836.0</ele><time>2026-04-11T14:48:42.125Z</time></trkpt><trkpt lat="43.2797864" lon="13.1090897"><ele>836.0</ele><time>2026-04-11T14:48:44.125Z</time></trkpt><trkpt lat="43.2797168" lon="13.1089805"><ele>836.0</ele><time>2026-04-11T14:48:46.125Z</time></trkpt><trkpt lat="43.2796316" lon="13.1088715"><ele>836.0</ele><time>2026-04-11T14:48:48.125Z</time></trkpt><trkpt lat="43.2795767" lon="13.1088169"><ele>836.5000000000001</ele><time>2026-04-11T14:48:49.125Z</time></trkpt><trkpt lat="43.2795131" lon="13.1087475"><ele>837.0</ele><time>2026-04-11T14:48:50.125Z</time></trkpt><trkpt lat="43.2794451" lon="13.1086856"><ele>837.5</ele><time>2026-04-11T14:48:51.125Z</time></trkpt><trkpt lat="43.2793751" lon="13.1086252"><ele>838.0</ele><time>2026-04-11T14:48:52.125Z</time></trkpt><trkpt lat="43.2793105" lon="13.1085612"><ele>838.5000000000001</ele><time>2026-04-11T14:48:53.125Z</time></trkpt><trkpt lat="43.2792518" lon="13.1085055"><ele>839.0</ele><time>2026-04-11T14:48:54.125Z</time></trkpt><trkpt lat="43.2791643" lon="13.1084501"><ele>839.0</ele><time>2026-04-11T14:48:56.125Z</time></trkpt><trkpt lat="43.2791036" lon="13.108489"><ele>839.0</ele><time>2026-04-11T14:48:58.125Z</time></trkpt><trkpt lat="43.2790144" lon="13.1086949"><ele>839.0</ele><time>2026-04-11T14:49:01.125Z</time></trkpt><trkpt lat="43.2789832" lon="13.1087728"><ele>839.0</ele><time>2026-04-11T14:49:02.125Z</time></trkpt><trkpt lat="43.2789258" lon="13.1088818"><ele>839.0</ele><time>2026-04-11T14:49:04.125Z</time></trkpt><trkpt lat="43.27883" lon="13.1088967"><ele>837.8000000000001</ele><time>2026-04-11T14:49:07.125Z</time></trkpt><trkpt lat="43.2787483" lon="13.1088217"><ele>836.6</ele><time>2026-04-11T14:49:09.125Z</time></trkpt><trkpt lat="43.2786983" lon="13.1087033"><ele>835.4</ele><time>2026-04-11T14:49:11.125Z</time></trkpt><trkpt lat="43.27869" lon="13.1085683"><ele>834.2</ele><time>2026-04-11T14:49:13.125Z</time></trkpt><trkpt lat="43.278715" lon="13.108395"><ele>833.0</ele><time>2026-04-11T14:49:15.125Z</time></trkpt><trkpt lat="43.2787217" lon="13.10828"><ele>834.8</ele><time>2026-04-11T14:49:16.125Z</time></trkpt><trkpt lat="43.2787333" lon="13.10816"><ele>836.5999999999999</ele><time>2026-04-11T14:49:17.125Z</time></trkpt><trkpt lat="43.2787433" lon="13.1080383"><ele>838.4000000000001</ele><time>2026-04-11T14:49:18.125Z</time></trkpt><trkpt lat="43.2787517" lon="13.1079167"><ele>840.2</ele><time>2026-04-11T14:49:19.125Z</time></trkpt><trkpt lat="43.27877" lon="13.1076683"><ele>842.0</ele><time>2026-04-11T14:49:21.125Z</time></trkpt><trkpt lat="43.2787767" lon="13.1075417"><ele>842.0</ele><time>2026-04-11T14:49:22.125Z</time></trkpt><trkpt lat="43.278785" lon="13.1074167"><ele>842.0</ele><time>2026-04-11T14:49:23.125Z</time></trkpt><trkpt lat="43.2787983" lon="13.1072883"><ele>842.0</ele><time>2026-04-11T14:49:24.125Z</time></trkpt><trkpt lat="43.278815" lon="13.1071633"><ele>842.0</ele><time>2026-04-11T14:49:25.125Z</time></trkpt><trkpt lat="43.2788317" lon="13.1070417"><ele>842.0</ele><time>2026-04-11T14:49:26.125Z</time></trkpt><trkpt lat="43.2788467" lon="13.106915"><ele>844.4000000000001</ele><time>2026-04-11T14:49:27.125Z</time></trkpt><trkpt lat="43.278855" lon="13.1067767"><ele>846.8000000000001</ele><time>2026-04-11T14:49:28.125Z</time></trkpt><trkpt lat="43.2788667" lon="13.1066333"><ele>849.2</ele><time>2026-04-11T14:49:29.125Z</time></trkpt><trkpt lat="43.27887" lon="13.106495"><ele>851.6</ele><time>2026-04-11T14:49:30.125Z</time></trkpt><trkpt lat="43.2788683" lon="13.1063617"><ele>854.0</ele><time>2026-04-11T14:49:31.125Z</time></trkpt><trkpt lat="43.2788567" lon="13.1062383"><ele>854.6666666666667</ele><time>2026-04-11T14:49:32.126Z</time></trkpt><trkpt lat="43.2788417" lon="13.10611"><ele>855.3333333333334</ele><time>2026-04-11T14:49:33.125Z</time></trkpt><trkpt lat="43.2788117" lon="13.106015"><ele>856.0</ele><time>2026-04-11T14:49:34.125Z</time></trkpt><trkpt lat="43.2787617" lon="13.1059533"><ele>856.6666666666667</ele><time>2026-04-11T14:49:35.125Z</time></trkpt><trkpt lat="43.2787" lon="13.1059117"><ele>857.3333333333334</ele><time>2026-04-11T14:49:36.125Z</time></trkpt><trkpt lat="43.2786233" lon="13.1058733"><ele>858.0</ele><time>2026-04-11T14:49:37.125Z</time></trkpt><trkpt lat="43.2785217" lon="13.1058267"><ele>858.0</ele><time>2026-04-11T14:49:38.126Z</time></trkpt><trkpt lat="43.2784067" lon="13.1057733"><ele>858.0</ele><time>2026-04-11T14:49:39.125Z</time></trkpt><trkpt lat="43.2782717" lon="13.1057283"><ele>858.0</ele><time>2026-04-11T14:49:40.125Z</time></trkpt><trkpt lat="43.278042" lon="13.1056641"><ele>858.2</ele><time>2026-04-11T14:49:42.125Z</time></trkpt><trkpt lat="43.2779406" lon="13.1056373"><ele>858.4</ele><time>2026-04-11T14:49:43.125Z</time></trkpt><trkpt lat="43.2778284" lon="13.1056079"><ele>858.6000000000001</ele><time>2026-04-11T14:49:44.125Z</time></trkpt><trkpt lat="43.2777134" lon="13.1055776"><ele>858.8000000000001</ele><time>2026-04-11T14:49:45.125Z</time></trkpt><trkpt lat="43.2776016" lon="13.1055423"><ele>859.0</ele><time>2026-04-11T14:49:46.125Z</time></trkpt><trkpt lat="43.277499" lon="13.1054996"><ele>859.0</ele><time>2026-04-11T14:49:47.125Z</time></trkpt><trkpt lat="43.2773998" lon="13.1054512"><ele>859.0000000000001</ele><time>2026-04-11T14:49:48.125Z</time></trkpt><trkpt lat="43.2773109" lon="13.1053922"><ele>859.0000000000001</ele><time>2026-04-11T14:49:49.125Z</time></trkpt><trkpt lat="43.2772389" lon="13.1053194"><ele>859.0</ele><time>2026-04-11T14:49:50.125Z</time></trkpt><trkpt lat="43.2771799" lon="13.1052348"><ele>859.0</ele><time>2026-04-11T14:49:51.125Z</time></trkpt><trkpt lat="43.2771314" lon="13.10513"><ele>857.4999999999999</ele><time>2026-04-11T14:49:52.125Z</time></trkpt><trkpt lat="43.2770848" lon="13.105015"><ele>856.0</ele><time>2026-04-11T14:49:53.125Z</time></trkpt><trkpt lat="43.2770412" lon="13.1049089"><ele>854.5</ele><time>2026-04-11T14:49:54.125Z</time></trkpt><trkpt lat="43.2769929" lon="13.1048224"><ele>853.0</ele><time>2026-04-11T14:49:55.125Z</time></trkpt><trkpt lat="43.2769397" lon="13.1047563"><ele>851.4999999999999</ele><time>2026-04-11T14:49:56.125Z</time></trkpt><trkpt lat="43.2768748" lon="13.1046938"><ele>850.0</ele><time>2026-04-11T14:49:57.125Z</time></trkpt><trkpt lat="43.2768098" lon="13.1046416"><ele>850.0</ele><time>2026-04-11T14:49:58.125Z</time></trkpt><trkpt lat="43.2767513" lon="13.1045954"><ele>850.0</ele><time>2026-04-11T14:49:59.125Z</time></trkpt><trkpt lat="43.2766491" lon="13.1045244"><ele>850.0</ele><time>2026-04-11T14:50:01.125Z</time></trkpt><trkpt lat="43.2764524" lon="13.1043939"><ele>850.0</ele><time>2026-04-11T14:50:05.125Z</time></trkpt><trkpt lat="43.2763988" lon="13.1043404"><ele>847.2</ele><time>2026-04-11T14:50:06.125Z</time></trkpt><trkpt lat="43.2763413" lon="13.1042688"><ele>844.4</ele><time>2026-04-11T14:50:07.125Z</time></trkpt><trkpt lat="43.2762709" lon="13.1041955"><ele>841.5999999999999</ele><time>2026-04-11T14:50:08.125Z</time></trkpt><trkpt lat="43.2761837" lon="13.1041263"><ele>838.8</ele><time>2026-04-11T14:50:09.125Z</time></trkpt><trkpt lat="43.2760825" lon="13.1040571"><ele>836.0</ele><time>2026-04-11T14:50:10.125Z</time></trkpt><trkpt lat="43.2759852" lon="13.1039974"><ele>834.1999999999999</ele><time>2026-04-11T14:50:11.125Z</time></trkpt><trkpt lat="43.2758954" lon="13.1039578"><ele>832.4</ele><time>2026-04-11T14:50:12.125Z</time></trkpt><trkpt lat="43.2758056" lon="13.1039339"><ele>830.6</ele><time>2026-04-11T14:50:13.125Z</time></trkpt><trkpt lat="43.275715" lon="13.1039317"><ele>828.8</ele><time>2026-04-11T14:50:14.125Z</time></trkpt><trkpt lat="43.2756117" lon="13.103925"><ele>827.0</ele><time>2026-04-11T14:50:15.125Z</time></trkpt><trkpt lat="43.27551" lon="13.1039217"><ele>826.0</ele><time>2026-04-11T14:50:16.125Z</time></trkpt><trkpt lat="43.2754167" lon="13.10392"><ele>825.0</ele><time>2026-04-11T14:50:17.125Z</time></trkpt><trkpt lat="43.2753217" lon="13.1039233"><ele>824.0</ele><time>2026-04-11T14:50:18.125Z</time></trkpt><trkpt lat="43.2752233" lon="13.1039383"><ele>823.0</ele><time>2026-04-11T14:50:19.125Z</time></trkpt><trkpt lat="43.27514" lon="13.1039533"><ele>822.0</ele><time>2026-04-11T14:50:20.125Z</time></trkpt><trkpt lat="43.275055" lon="13.1039433"><ele>822.0</ele><time>2026-04-11T14:50:21.125Z</time></trkpt><trkpt lat="43.2749483" lon="13.103925"><ele>822.0</ele><time>2026-04-11T14:50:22.125Z</time></trkpt><trkpt lat="43.2746817" lon="13.1038883"><ele>822.0</ele><time>2026-04-11T14:50:24.126Z</time></trkpt><trkpt lat="43.2745567" lon="13.1038767"><ele>822.4000000000001</ele><time>2026-04-11T14:50:25.125Z</time></trkpt><trkpt lat="43.274455" lon="13.103875"><ele>822.8000000000001</ele><time>2026-04-11T14:50:26.125Z</time></trkpt><trkpt lat="43.2743683" lon="13.1038767"><ele>823.2</ele><time>2026-04-11T14:50:27.125Z</time></trkpt><trkpt lat="43.2742783" lon="13.1038817"><ele>823.6</ele><time>2026-04-11T14:50:28.125Z</time></trkpt><trkpt lat="43.274175" lon="13.1038783"><ele>824.0</ele><time>2026-04-11T14:50:29.125Z</time></trkpt><trkpt lat="43.274075" lon="13.1038583"><ele>824.0000000000001</ele><time>2026-04-11T14:50:30.125Z</time></trkpt><trkpt lat="43.2739933" lon="13.1038417"><ele>824.0</ele><time>2026-04-11T14:50:31.125Z</time></trkpt><trkpt lat="43.273915" lon="13.1038333"><ele>824.0</ele><time>2026-04-11T14:50:32.126Z</time></trkpt><trkpt lat="43.2738433" lon="13.10385"><ele>824.0</ele><time>2026-04-11T14:50:33.125Z</time></trkpt><trkpt lat="43.2737817" lon="13.103885"><ele>824.0000000000001</ele><time>2026-04-11T14:50:34.125Z</time></trkpt><trkpt lat="43.273685" lon="13.1039617"><ele>824.0</ele><time>2026-04-11T14:50:36.125Z</time></trkpt><trkpt lat="43.27356" lon="13.1039467"><ele>825.6666666666667</ele><time>2026-04-11T14:50:38.125Z</time></trkpt><trkpt lat="43.2734733" lon="13.1039333"><ele>827.3333333333334</ele><time>2026-04-11T14:50:39.125Z</time></trkpt><trkpt lat="43.273385" lon="13.1039383"><ele>829.0</ele><time>2026-04-11T14:50:40.125Z</time></trkpt><trkpt lat="43.2733" lon="13.10396"><ele>830.6666666666667</ele><time>2026-04-11T14:50:41.125Z</time></trkpt><trkpt lat="43.2732183" lon="13.103975"><ele>832.3333333333334</ele><time>2026-04-11T14:50:42.125Z</time></trkpt><trkpt lat="43.2731483" lon="13.103985"><ele>834.0</ele><time>2026-04-11T14:50:43.125Z</time></trkpt><trkpt lat="43.273015" lon="13.1040767"><ele>838.6</ele><time>2026-04-11T14:50:46.125Z</time></trkpt><trkpt lat="43.2729617" lon="13.1042017"><ele>843.2</ele><time>2026-04-11T14:50:48.125Z</time></trkpt><trkpt lat="43.2728891" lon="13.1043209"><ele>847.8000000000001</ele><time>2026-04-11T14:50:50.125Z</time></trkpt><trkpt lat="43.272797" lon="13.104406"><ele>852.4000000000001</ele><time>2026-04-11T14:50:52.125Z</time></trkpt><trkpt lat="43.2727259" lon="13.1044445"><ele>857.0</ele><time>2026-04-11T14:50:53.125Z</time></trkpt><trkpt lat="43.2726415" lon="13.1044795"><ele>857.0</ele><time>2026-04-11T14:50:54.125Z</time></trkpt><trkpt lat="43.2725647" lon="13.1045105"><ele>857.0</ele><time>2026-04-11T14:50:55.125Z</time></trkpt><trkpt lat="43.2724981" lon="13.1045396"><ele>857.0</ele><time>2026-04-11T14:50:56.125Z</time></trkpt><trkpt lat="43.2724322" lon="13.1045812"><ele>857.0</ele><time>2026-04-11T14:50:57.125Z</time></trkpt><trkpt lat="43.2723738" lon="13.1046431"><ele>857.0</ele><time>2026-04-11T14:50:58.125Z</time></trkpt><trkpt lat="43.2723247" lon="13.1047167"><ele>857.0</ele><time>2026-04-11T14:50:59.125Z</time></trkpt><trkpt lat="43.2722888" lon="13.1047929"><ele>857.0</ele><time>2026-04-11T14:51:00.125Z</time></trkpt><trkpt lat="43.2722709" lon="13.1049519"><ele>855.6</ele><time>2026-04-11T14:51:02.125Z</time></trkpt><trkpt lat="43.2722835" lon="13.1050458"><ele>854.2</ele><time>2026-04-11T14:51:03.125Z</time></trkpt><trkpt lat="43.2722968" lon="13.1051531"><ele>852.8</ele><time>2026-04-11T14:51:04.125Z</time></trkpt><trkpt lat="43.2723217" lon="13.1053977"><ele>851.4</ele><time>2026-04-11T14:51:06.125Z</time></trkpt><trkpt lat="43.272332" lon="13.1055482"><ele>850.0</ele><time>2026-04-11T14:51:07.125Z</time></trkpt><trkpt lat="43.2723435" lon="13.1057136"><ele>848.5</ele><time>2026-04-11T14:51:08.125Z</time></trkpt><trkpt lat="43.2723465" lon="13.1058834"><ele>847.0</ele><time>2026-04-11T14:51:09.125Z</time></trkpt><trkpt lat="43.2723444" lon="13.106055"><ele>845.5</ele><time>2026-04-11T14:51:10.125Z</time></trkpt><trkpt lat="43.2723426" lon="13.1062335"><ele>844.0</ele><time>2026-04-11T14:51:11.125Z</time></trkpt><trkpt lat="43.2723468" lon="13.1064118"><ele>843.0</ele><time>2026-04-11T14:51:12.125Z</time></trkpt><trkpt lat="43.2723492" lon="13.1065835"><ele>842.0</ele><time>2026-04-11T14:51:13.125Z</time></trkpt><trkpt lat="43.2723482" lon="13.106734"><ele>841.0</ele><time>2026-04-11T14:51:14.125Z</time></trkpt><trkpt lat="43.2723477" lon="13.1068748"><ele>840.0</ele><time>2026-04-11T14:51:15.125Z</time></trkpt><trkpt lat="43.2723487" lon="13.1070221"><ele>839.0</ele><time>2026-04-11T14:51:16.125Z</time></trkpt><trkpt lat="43.2723473" lon="13.1071743"><ele>839.0</ele><time>2026-04-11T14:51:17.125Z</time></trkpt><trkpt lat="43.2723445" lon="13.1073251"><ele>839.0</ele><time>2026-04-11T14:51:18.125Z</time></trkpt><trkpt lat="43.2723381" lon="13.1074657"><ele>839.0</ele><time>2026-04-11T14:51:19.125Z</time></trkpt><trkpt lat="43.2723321" lon="13.1075949"><ele>839.0</ele><time>2026-04-11T14:51:20.125Z</time></trkpt><trkpt lat="43.2723339" lon="13.1077068"><ele>839.0</ele><time>2026-04-11T14:51:21.125Z</time></trkpt><trkpt lat="43.2723483" lon="13.107795"><ele>838.0</ele><time>2026-04-11T14:51:22.125Z</time></trkpt><trkpt lat="43.2723717" lon="13.1079533"><ele>837.0</ele><time>2026-04-11T14:51:24.125Z</time></trkpt><trkpt lat="43.2723883" lon="13.1081133"><ele>836.0</ele><time>2026-04-11T14:51:26.125Z</time></trkpt><trkpt lat="43.272385" lon="13.10834"><ele>835.0</ele><time>2026-04-11T14:51:29.125Z</time></trkpt><trkpt lat="43.2723567" lon="13.1084267"><ele>834.8333333333333</ele><time>2026-04-11T14:51:30.125Z</time></trkpt><trkpt lat="43.2723167" lon="13.10852"><ele>834.6666666666666</ele><time>2026-04-11T14:51:31.125Z</time></trkpt><trkpt lat="43.27228" lon="13.1086033"><ele>834.5</ele><time>2026-04-11T14:51:32.125Z</time></trkpt><trkpt lat="43.27224" lon="13.108675"><ele>834.3333333333333</ele><time>2026-04-11T14:51:33.125Z</time></trkpt><trkpt lat="43.2721967" lon="13.1087683"><ele>834.1666666666666</ele><time>2026-04-11T14:51:34.125Z</time></trkpt><trkpt lat="43.2721517" lon="13.108865"><ele>834.0</ele><time>2026-04-11T14:51:35.125Z</time></trkpt><trkpt lat="43.2721067" lon="13.1089417"><ele>834.0</ele><time>2026-04-11T14:51:36.125Z</time></trkpt><trkpt lat="43.2720517" lon="13.1089983"><ele>834.0</ele><time>2026-04-11T14:51:37.125Z</time></trkpt><trkpt lat="43.2719967" lon="13.1090433"><ele>834.0</ele><time>2026-04-11T14:51:38.125Z</time></trkpt><trkpt lat="43.2719267" lon="13.109075"><ele>834.0</ele><time>2026-04-11T14:51:39.125Z</time></trkpt><trkpt lat="43.2718583" lon="13.1091067"><ele>834.0</ele><time>2026-04-11T14:51:40.125Z</time></trkpt><trkpt lat="43.2717767" lon="13.10915"><ele>834.0</ele><time>2026-04-11T14:51:41.125Z</time></trkpt><trkpt lat="43.2717" lon="13.10921"><ele>831.2</ele><time>2026-04-11T14:51:42.125Z</time></trkpt><trkpt lat="43.2716317" lon="13.10928"><ele>828.4000000000001</ele><time>2026-04-11T14:51:43.125Z</time></trkpt><trkpt lat="43.27157" lon="13.1093167"><ele>825.6</ele><time>2026-04-11T14:51:44.125Z</time></trkpt><trkpt lat="43.2714633" lon="13.1093683"><ele>822.8</ele><time>2026-04-11T14:51:46.125Z</time></trkpt><trkpt lat="43.2713883" lon="13.1093733"><ele>820.0</ele><time>2026-04-11T14:51:47.125Z</time></trkpt><trkpt lat="43.2711833" lon="13.1093583"><ele>819.2</ele><time>2026-04-11T14:51:49.125Z</time></trkpt><trkpt lat="43.2710733" lon="13.1093533"><ele>818.4</ele><time>2026-04-11T14:51:50.125Z</time></trkpt><trkpt lat="43.2709633" lon="13.1093417"><ele>817.5999999999999</ele><time>2026-04-11T14:51:51.125Z</time></trkpt><trkpt lat="43.2708517" lon="13.10933"><ele>816.8</ele><time>2026-04-11T14:51:52.125Z</time></trkpt><trkpt lat="43.2707483" lon="13.1093117"><ele>816.0</ele><time>2026-04-11T14:51:53.125Z</time></trkpt><trkpt lat="43.2706567" lon="13.1093"><ele>812.4</ele><time>2026-04-11T14:51:54.125Z</time></trkpt><trkpt lat="43.2705867" lon="13.1093"><ele>808.8</ele><time>2026-04-11T14:51:55.125Z</time></trkpt><trkpt lat="43.2704767" lon="13.1093117"><ele>805.1999999999999</ele><time>2026-04-11T14:51:57.125Z</time></trkpt><trkpt lat="43.2703967" lon="13.10928"><ele>801.5999999999999</ele><time>2026-04-11T14:51:59.125Z</time></trkpt><trkpt lat="43.270305" lon="13.10922"><ele>798.0</ele><time>2026-04-11T14:52:01.125Z</time></trkpt><trkpt lat="43.27024" lon="13.1091"><ele>801.0</ele><time>2026-04-11T14:52:03.125Z</time></trkpt><trkpt lat="43.270205" lon="13.10895"><ele>804.0</ele><time>2026-04-11T14:52:05.125Z</time></trkpt><trkpt lat="43.2701833" lon="13.1088467"><ele>807.0</ele><time>2026-04-11T14:52:06.125Z</time></trkpt><trkpt lat="43.270165" lon="13.1087483"><ele>810.0</ele><time>2026-04-11T14:52:07.125Z</time></trkpt><trkpt lat="43.27014" lon="13.108665"><ele>813.0</ele><time>2026-04-11T14:52:08.125Z</time></trkpt><trkpt lat="43.2700517" lon="13.10851"><ele>813.0</ele><time>2026-04-11T14:52:10.125Z</time></trkpt><trkpt lat="43.2699967" lon="13.10842"><ele>813.0</ele><time>2026-04-11T14:52:11.125Z</time></trkpt><trkpt lat="43.26993" lon="13.1083283"><ele>813.0</ele><time>2026-04-11T14:52:12.125Z</time></trkpt><trkpt lat="43.2698517" lon="13.10824"><ele>813.0</ele><time>2026-04-11T14:52:13.125Z</time></trkpt><trkpt lat="43.269775" lon="13.1081533"><ele>813.0</ele><time>2026-04-11T14:52:14.125Z</time></trkpt><trkpt lat="43.2697033" lon="13.1080617"><ele>812.2857142857143</ele><time>2026-04-11T14:52:15.125Z</time></trkpt><trkpt lat="43.2696333" lon="13.107975"><ele>811.5714285714286</ele><time>2026-04-11T14:52:16.125Z</time></trkpt><trkpt lat="43.269575" lon="13.1079083"><ele>810.8571428571429</ele><time>2026-04-11T14:52:17.125Z</time></trkpt><trkpt lat="43.2695317" lon="13.1078417"><ele>810.1428571428571</ele><time>2026-04-11T14:52:18.125Z</time></trkpt><trkpt lat="43.269485" lon="13.10777"><ele>809.4285714285713</ele><time>2026-04-11T14:52:19.125Z</time></trkpt><trkpt lat="43.26944" lon="13.1077017"><ele>808.7142857142857</ele><time>2026-04-11T14:52:20.125Z</time></trkpt><trkpt lat="43.269395" lon="13.107635"><ele>808.0</ele><time>2026-04-11T14:52:21.126Z</time></trkpt><trkpt lat="43.2693483" lon="13.1075517"><ele>807.9999999999999</ele><time>2026-04-11T14:52:22.125Z</time></trkpt><trkpt lat="43.2693117" lon="13.107475"><ele>808.0</ele><time>2026-04-11T14:52:23.125Z</time></trkpt><trkpt lat="43.26926" lon="13.107395"><ele>808.0</ele><time>2026-04-11T14:52:24.125Z</time></trkpt><trkpt lat="43.2692083" lon="13.1073133"><ele>808.0</ele><time>2026-04-11T14:52:25.125Z</time></trkpt><trkpt lat="43.269155" lon="13.1072333"><ele>807.9999999999999</ele><time>2026-04-11T14:52:26.125Z</time></trkpt><trkpt lat="43.2691" lon="13.10714"><ele>808.0</ele><time>2026-04-11T14:52:27.125Z</time></trkpt><trkpt lat="43.2690383" lon="13.1070483"><ele>809.5</ele><time>2026-04-11T14:52:28.125Z</time></trkpt><trkpt lat="43.2689833" lon="13.1069567"><ele>811.0</ele><time>2026-04-11T14:52:29.125Z</time></trkpt><trkpt lat="43.2688683" lon="13.1067517"><ele>812.5</ele><time>2026-04-11T14:52:31.125Z</time></trkpt><trkpt lat="43.268815" lon="13.10665"><ele>814.0</ele><time>2026-04-11T14:52:32.125Z</time></trkpt><trkpt lat="43.26876" lon="13.1065533"><ele>813.9999999999999</ele><time>2026-04-11T14:52:33.125Z</time></trkpt><trkpt lat="43.2687033" lon="13.1064667"><ele>814.0</ele><time>2026-04-11T14:52:34.125Z</time></trkpt><trkpt lat="43.2686483" lon="13.106385"><ele>814.0</ele><time>2026-04-11T14:52:35.125Z</time></trkpt><trkpt lat="43.26859" lon="13.1063033"><ele>814.0</ele><time>2026-04-11T14:52:36.125Z</time></trkpt><trkpt lat="43.26853" lon="13.1062233"><ele>813.9999999999999</ele><time>2026-04-11T14:52:37.125Z</time></trkpt><trkpt lat="43.2684633" lon="13.1061583"><ele>814.0</ele><time>2026-04-11T14:52:38.125Z</time></trkpt><trkpt lat="43.2684" lon="13.1060933"><ele>814.0</ele><time>2026-04-11T14:52:39.125Z</time></trkpt><trkpt lat="43.268335" lon="13.10603"><ele>814.0</ele><time>2026-04-11T14:52:40.125Z</time></trkpt><trkpt lat="43.2682617" lon="13.1059683"><ele>814.0</ele><time>2026-04-11T14:52:41.125Z</time></trkpt><trkpt lat="43.2681867" lon="13.1059017"><ele>814.0</ele><time>2026-04-11T14:52:42.125Z</time></trkpt><trkpt lat="43.2681" lon="13.105835"><ele>814.0</ele><time>2026-04-11T14:52:43.125Z</time></trkpt><trkpt lat="43.268015" lon="13.1057617"><ele>814.4000000000001</ele><time>2026-04-11T14:52:44.125Z</time></trkpt><trkpt lat="43.2679383" lon="13.1057067"><ele>814.8</ele><time>2026-04-11T14:52:45.125Z</time></trkpt><trkpt lat="43.2678617" lon="13.105645"><ele>815.2</ele><time>2026-04-11T14:52:46.125Z</time></trkpt><trkpt lat="43.2677783" lon="13.1055767"><ele>815.5999999999999</ele><time>2026-04-11T14:52:47.125Z</time></trkpt><trkpt lat="43.2677033" lon="13.105515"><ele>816.0</ele><time>2026-04-11T14:52:48.125Z</time></trkpt><trkpt lat="43.2676217" lon="13.1054517"><ele>816.0</ele><time>2026-04-11T14:52:49.125Z</time></trkpt><trkpt lat="43.26754" lon="13.105385"><ele>816.0</ele><time>2026-04-11T14:52:50.125Z</time></trkpt><trkpt lat="43.2673667" lon="13.105235"><ele>816.0</ele><time>2026-04-11T14:52:52.125Z</time></trkpt><trkpt lat="43.2672833" lon="13.105165"><ele>816.0</ele><time>2026-04-11T14:52:53.125Z</time></trkpt><trkpt lat="43.2672017" lon="13.1051117"><ele>816.5</ele><time>2026-04-11T14:52:54.125Z</time></trkpt><trkpt lat="43.2671267" lon="13.1050683"><ele>817.0</ele><time>2026-04-11T14:52:55.125Z</time></trkpt><trkpt lat="43.267045" lon="13.10504"><ele>817.5</ele><time>2026-04-11T14:52:56.125Z</time></trkpt><trkpt lat="43.2669633" lon="13.1050117"><ele>818.0</ele><time>2026-04-11T14:52:57.125Z</time></trkpt><trkpt lat="43.2668983" lon="13.1049967"><ele>818.5</ele><time>2026-04-11T14:52:58.125Z</time></trkpt><trkpt lat="43.2668" lon="13.1049583"><ele>819.0</ele><time>2026-04-11T14:53:00.125Z</time></trkpt><trkpt lat="43.2666967" lon="13.1048733"><ele>819.0</ele><time>2026-04-11T14:53:02.125Z</time></trkpt><trkpt lat="43.266635" lon="13.1048167"><ele>819.0</ele><time>2026-04-11T14:53:03.125Z</time></trkpt><trkpt lat="43.2665717" lon="13.10475"><ele>819.0</ele><time>2026-04-11T14:53:04.125Z</time></trkpt><trkpt lat="43.2665233" lon="13.1046883"><ele>819.0</ele><time>2026-04-11T14:53:05.125Z</time></trkpt><trkpt lat="43.26648" lon="13.1046183"><ele>819.0</ele><time>2026-04-11T14:53:06.125Z</time></trkpt><trkpt lat="43.2664417" lon="13.1045217"><ele>819.0</ele><time>2026-04-11T14:53:07.125Z</time></trkpt><trkpt lat="43.2664" lon="13.1044167"><ele>818.0</ele><time>2026-04-11T14:53:08.125Z</time></trkpt><trkpt lat="43.26636" lon="13.1043183"><ele>817.0</ele><time>2026-04-11T14:53:09.125Z</time></trkpt><trkpt lat="43.2663233" lon="13.104225"><ele>816.0</ele><time>2026-04-11T14:53:10.125Z</time></trkpt><trkpt lat="43.2662733" lon="13.1041367"><ele>815.0</ele><time>2026-04-11T14:53:11.125Z</time></trkpt><trkpt lat="43.2661733" lon="13.103995"><ele>814.0</ele><time>2026-04-11T14:53:13.125Z</time></trkpt><trkpt lat="43.2661117" lon="13.1039183"><ele>814.0</ele><time>2026-04-11T14:53:14.125Z</time></trkpt><trkpt lat="43.26605" lon="13.1038367"><ele>814.0</ele><time>2026-04-11T14:53:15.125Z</time></trkpt><trkpt lat="43.26599" lon="13.1037533"><ele>814.0</ele><time>2026-04-11T14:53:16.125Z</time></trkpt><trkpt lat="43.2659267" lon="13.1036633"><ele>814.0</ele><time>2026-04-11T14:53:17.125Z</time></trkpt><trkpt lat="43.2658633" lon="13.10356"><ele>814.0</ele><time>2026-04-11T14:53:18.125Z</time></trkpt><trkpt lat="43.2658083" lon="13.1034617"><ele>814.0</ele><time>2026-04-11T14:53:19.125Z</time></trkpt><trkpt lat="43.2657583" lon="13.10337"><ele>814.0</ele><time>2026-04-11T14:53:20.125Z</time></trkpt><trkpt lat="43.2657233" lon="13.103275"><ele>814.0</ele><time>2026-04-11T14:53:21.125Z</time></trkpt><trkpt lat="43.2656817" lon="13.1031333"><ele>814.0</ele><time>2026-04-11T14:53:23.125Z</time></trkpt><trkpt lat="43.265665" lon="13.102975"><ele>814.0</ele><time>2026-04-11T14:53:25.125Z</time></trkpt><trkpt lat="43.2656483" lon="13.1028783"><ele>814.9999999999999</ele><time>2026-04-11T14:53:26.125Z</time></trkpt><trkpt lat="43.2656217" lon="13.1027767"><ele>816.0</ele><time>2026-04-11T14:53:27.125Z</time></trkpt><trkpt lat="43.2655867" lon="13.10268"><ele>817.0</ele><time>2026-04-11T14:53:28.125Z</time></trkpt><trkpt lat="43.265555" lon="13.1025733"><ele>818.0</ele><time>2026-04-11T14:53:29.125Z</time></trkpt><trkpt lat="43.2655133" lon="13.1024617"><ele>818.9999999999999</ele><time>2026-04-11T14:53:30.125Z</time></trkpt><trkpt lat="43.2654717" lon="13.1023567"><ele>820.0</ele><time>2026-04-11T14:53:31.125Z</time></trkpt><trkpt lat="43.2654317" lon="13.1022483"><ele>820.0</ele><time>2026-04-11T14:53:32.125Z</time></trkpt><trkpt lat="43.2653667" lon="13.1020517"><ele>820.0</ele><time>2026-04-11T14:53:34.125Z</time></trkpt><trkpt lat="43.2653267" lon="13.101945"><ele>820.0</ele><time>2026-04-11T14:53:35.125Z</time></trkpt><trkpt lat="43.265285" lon="13.10186"><ele>820.0</ele><time>2026-04-11T14:53:36.125Z</time></trkpt><trkpt lat="43.2652367" lon="13.101775"><ele>820.0</ele><time>2026-04-11T14:53:37.125Z</time></trkpt><trkpt lat="43.2651883" lon="13.1016933"><ele>819.9999999999999</ele><time>2026-04-11T14:53:38.125Z</time></trkpt><trkpt lat="43.2651417" lon="13.1016033"><ele>820.0</ele><time>2026-04-11T14:53:39.125Z</time></trkpt><trkpt lat="43.2651033" lon="13.1015017"><ele>820.0</ele><time>2026-04-11T14:53:40.125Z</time></trkpt><trkpt lat="43.26506" lon="13.10139"><ele>820.0</ele><time>2026-04-11T14:53:41.125Z</time></trkpt><trkpt lat="43.2650167" lon="13.1012717"><ele>819.9999999999999</ele><time>2026-04-11T14:53:42.125Z</time></trkpt><trkpt lat="43.2649717" lon="13.101175"><ele>820.0</ele><time>2026-04-11T14:53:43.125Z</time></trkpt><trkpt lat="43.2649317" lon="13.10108"><ele>821.9999999999999</ele><time>2026-04-11T14:53:44.125Z</time></trkpt><trkpt lat="43.264895" lon="13.1009833"><ele>824.0</ele><time>2026-04-11T14:53:45.125Z</time></trkpt><trkpt lat="43.2648617" lon="13.1008833"><ele>826.0</ele><time>2026-04-11T14:53:46.125Z</time></trkpt><trkpt lat="43.2648317" lon="13.1007633"><ele>828.0</ele><time>2026-04-11T14:53:47.125Z</time></trkpt><trkpt lat="43.264805" lon="13.1006317"><ele>829.9999999999999</ele><time>2026-04-11T14:53:48.125Z</time></trkpt><trkpt lat="43.2647733" lon="13.1005067"><ele>832.0</ele><time>2026-04-11T14:53:49.125Z</time></trkpt><trkpt lat="43.26475" lon="13.1003917"><ele>832.0</ele><time>2026-04-11T14:53:50.125Z</time></trkpt><trkpt lat="43.2647283" lon="13.10027"><ele>832.0</ele><time>2026-04-11T14:53:51.125Z</time></trkpt><trkpt lat="43.2647017" lon="13.100145"><ele>832.0</ele><time>2026-04-11T14:53:52.125Z</time></trkpt><trkpt lat="43.26468" lon="13.1000433"><ele>832.0</ele><time>2026-04-11T14:53:53.125Z</time></trkpt><trkpt lat="43.2645933" lon="13.0998483"><ele>832.0</ele><time>2026-04-11T14:53:55.125Z</time></trkpt><trkpt lat="43.2645333" lon="13.0997417"><ele>833.0</ele><time>2026-04-11T14:53:56.125Z</time></trkpt><trkpt lat="43.2644683" lon="13.0996167"><ele>834.0</ele><time>2026-04-11T14:53:57.125Z</time></trkpt><trkpt lat="43.2644117" lon="13.0995017"><ele>835.0</ele><time>2026-04-11T14:53:58.125Z</time></trkpt><trkpt lat="43.2643617" lon="13.0994067"><ele>836.0</ele><time>2026-04-11T14:53:59.125Z</time></trkpt><trkpt lat="43.2643217" lon="13.09932"><ele>837.0</ele><time>2026-04-11T14:54:00.125Z</time></trkpt><trkpt lat="43.2642533" lon="13.0991917"><ele>837.6666666666666</ele><time>2026-04-11T14:54:02.125Z</time></trkpt><trkpt lat="43.2641683" lon="13.0990667"><ele>838.3333333333333</ele><time>2026-04-11T14:54:04.125Z</time></trkpt><trkpt lat="43.2641233" lon="13.0989983"><ele>839.0</ele><time>2026-04-11T14:54:05.125Z</time></trkpt><trkpt lat="43.26408" lon="13.0989333"><ele>839.6666666666666</ele><time>2026-04-11T14:54:06.125Z</time></trkpt><trkpt lat="43.2640317" lon="13.09887"><ele>840.3333333333333</ele><time>2026-04-11T14:54:07.125Z</time></trkpt><trkpt lat="43.2639833" lon="13.0988133"><ele>841.0</ele><time>2026-04-11T14:54:08.125Z</time></trkpt><trkpt lat="43.2638817" lon="13.0987583"><ele>842.4</ele><time>2026-04-11T14:54:10.125Z</time></trkpt><trkpt lat="43.2638117" lon="13.0987517"><ele>843.8</ele><time>2026-04-11T14:54:11.125Z</time></trkpt><trkpt lat="43.2637383" lon="13.0987517"><ele>845.1999999999999</ele><time>2026-04-11T14:54:12.125Z</time></trkpt><trkpt lat="43.2636683" lon="13.0987417"><ele>846.5999999999999</ele><time>2026-04-11T14:54:13.125Z</time></trkpt><trkpt lat="43.263555" lon="13.0986783"><ele>848.0</ele><time>2026-04-11T14:54:15.125Z</time></trkpt><trkpt lat="43.2634267" lon="13.098555"><ele>848.0000000000001</ele><time>2026-04-11T14:54:17.125Z</time></trkpt><trkpt lat="43.2633567" lon="13.0984667"><ele>848.0</ele><time>2026-04-11T14:54:18.125Z</time></trkpt><trkpt lat="43.2632917" lon="13.098375"><ele>848.0</ele><time>2026-04-11T14:54:19.125Z</time></trkpt><trkpt lat="43.263235" lon="13.098285"><ele>848.0</ele><time>2026-04-11T14:54:20.125Z</time></trkpt><trkpt lat="43.2631933" lon="13.0982117"><ele>848.0000000000001</ele><time>2026-04-11T14:54:21.125Z</time></trkpt><trkpt lat="43.263145" lon="13.09811"><ele>848.0</ele><time>2026-04-11T14:54:23.126Z</time></trkpt><trkpt lat="43.2630717" lon="13.0981033"><ele>849.2</ele><time>2026-04-11T14:54:26.125Z</time></trkpt><trkpt lat="43.2630267" lon="13.0982017"><ele>850.4</ele><time>2026-04-11T14:56:18.125Z</time></trkpt><trkpt lat="43.2629033" lon="13.098405"><ele>851.6000000000001</ele><time>2026-04-11T14:56:32.125Z</time></trkpt><trkpt lat="43.2628567" lon="13.09847"><ele>852.8000000000001</ele><time>2026-04-11T14:56:33.125Z</time></trkpt><trkpt lat="43.2627983" lon="13.0985533"><ele>854.0</ele><time>2026-04-11T14:56:34.125Z</time></trkpt><trkpt lat="43.2627417" lon="13.0986417"><ele>858.0</ele><time>2026-04-11T14:56:35.125Z</time></trkpt><trkpt lat="43.2626933" lon="13.098735"><ele>862.0</ele><time>2026-04-11T14:56:36.125Z</time></trkpt><trkpt lat="43.262655" lon="13.0988183"><ele>866.0</ele><time>2026-04-11T14:56:37.125Z</time></trkpt><trkpt lat="43.2626233" lon="13.0989667"><ele>870.0</ele><time>2026-04-11T14:56:39.125Z</time></trkpt><trkpt lat="43.2626533" lon="13.0992667"><ele>870.6</ele><time>2026-04-11T14:56:43.125Z</time></trkpt><trkpt lat="43.2626633" lon="13.0993867"><ele>871.2</ele><time>2026-04-11T14:56:45.125Z</time></trkpt><trkpt lat="43.26268" lon="13.099555"><ele>871.8</ele><time>2026-04-11T14:56:47.125Z</time></trkpt><trkpt lat="43.26268" lon="13.099675"><ele>872.4</ele><time>2026-04-11T14:56:48.125Z</time></trkpt><trkpt lat="43.2626833" lon="13.0998083"><ele>873.0</ele><time>2026-04-11T14:56:49.125Z</time></trkpt><trkpt lat="43.262685" lon="13.09995"><ele>873.0</ele><time>2026-04-11T14:56:50.125Z</time></trkpt><trkpt lat="43.26269" lon="13.10009"><ele>873.0</ele><time>2026-04-11T14:56:51.125Z</time></trkpt><trkpt lat="43.262695" lon="13.1002283"><ele>873.0</ele><time>2026-04-11T14:56:52.125Z</time></trkpt><trkpt lat="43.2627017" lon="13.1003667"><ele>873.0</ele><time>2026-04-11T14:56:53.125Z</time></trkpt><trkpt lat="43.262705" lon="13.10049"><ele>873.0</ele><time>2026-04-11T14:56:54.126Z</time></trkpt><trkpt lat="43.2627" lon="13.1006283"><ele>872.5999999999999</ele><time>2026-04-11T14:56:55.125Z</time></trkpt><trkpt lat="43.2626917" lon="13.10077"><ele>872.1999999999999</ele><time>2026-04-11T14:56:56.125Z</time></trkpt><trkpt lat="43.26268" lon="13.10092"><ele>871.8</ele><time>2026-04-11T14:56:57.125Z</time></trkpt><trkpt lat="43.2626767" lon="13.1010783"><ele>871.4</ele><time>2026-04-11T14:56:58.125Z</time></trkpt><trkpt lat="43.262675" lon="13.1012133"><ele>871.0</ele><time>2026-04-11T14:56:59.125Z</time></trkpt><trkpt lat="43.2626683" lon="13.1013283"><ele>871.0</ele><time>2026-04-11T14:57:00.125Z</time></trkpt><trkpt lat="43.2626583" lon="13.1015583"><ele>871.0</ele><time>2026-04-11T14:57:02.125Z</time></trkpt><trkpt lat="43.2626533" lon="13.1016817"><ele>871.0</ele><time>2026-04-11T14:57:03.125Z</time></trkpt><trkpt lat="43.2626433" lon="13.1018117"><ele>871.0</ele><time>2026-04-11T14:57:04.125Z</time></trkpt><trkpt lat="43.2626233" lon="13.1019533"><ele>870.5</ele><time>2026-04-11T14:57:05.125Z</time></trkpt><trkpt lat="43.2625917" lon="13.1021"><ele>870.0</ele><time>2026-04-11T14:57:06.125Z</time></trkpt><trkpt lat="43.2625567" lon="13.10225"><ele>869.5</ele><time>2026-04-11T14:57:07.125Z</time></trkpt><trkpt lat="43.2625283" lon="13.10241"><ele>869.0</ele><time>2026-04-11T14:57:08.125Z</time></trkpt><trkpt lat="43.2625083" lon="13.1025633"><ele>868.4000000000001</ele><time>2026-04-11T14:57:09.125Z</time></trkpt><trkpt lat="43.2624967" lon="13.102705"><ele>867.8000000000001</ele><time>2026-04-11T14:57:10.125Z</time></trkpt><trkpt lat="43.2624783" lon="13.1028267"><ele>867.1999999999999</ele><time>2026-04-11T14:57:11.125Z</time></trkpt><trkpt lat="43.2624617" lon="13.1029683"><ele>866.5999999999999</ele><time>2026-04-11T14:57:12.125Z</time></trkpt><trkpt lat="43.2624367" lon="13.1031217"><ele>866.0</ele><time>2026-04-11T14:57:13.125Z</time></trkpt><trkpt lat="43.26241" lon="13.10328"><ele>863.75</ele><time>2026-04-11T14:57:14.125Z</time></trkpt><trkpt lat="43.2623883" lon="13.1034433"><ele>861.5</ele><time>2026-04-11T14:57:15.125Z</time></trkpt><trkpt lat="43.2623667" lon="13.1036033"><ele>859.25</ele><time>2026-04-11T14:57:16.125Z</time></trkpt><trkpt lat="43.2623517" lon="13.103765"><ele>857.0</ele><time>2026-04-11T14:57:17.125Z</time></trkpt><trkpt lat="43.2623267" lon="13.1039317"><ele>854.5</ele><time>2026-04-11T14:57:18.125Z</time></trkpt><trkpt lat="43.262325" lon="13.104085"><ele>852.0</ele><time>2026-04-11T14:57:19.125Z</time></trkpt><trkpt lat="43.262325" lon="13.1042183"><ele>849.5</ele><time>2026-04-11T14:57:20.125Z</time></trkpt><trkpt lat="43.2623283" lon="13.10435"><ele>847.0</ele><time>2026-04-11T14:57:21.125Z</time></trkpt><trkpt lat="43.262355" lon="13.104595"><ele>846.9999999999999</ele><time>2026-04-11T14:57:23.125Z</time></trkpt><trkpt lat="43.2623583" lon="13.1047033"><ele>847.0</ele><time>2026-04-11T14:57:24.125Z</time></trkpt><trkpt lat="43.2623617" lon="13.1048067"><ele>847.0</ele><time>2026-04-11T14:57:25.125Z</time></trkpt><trkpt lat="43.2623683" lon="13.1049183"><ele>847.0</ele><time>2026-04-11T14:57:26.125Z</time></trkpt><trkpt lat="43.2623683" lon="13.1050433"><ele>846.9999999999999</ele><time>2026-04-11T14:57:27.125Z</time></trkpt><trkpt lat="43.2623533" lon="13.1051633"><ele>847.0</ele><time>2026-04-11T14:57:28.125Z</time></trkpt><trkpt lat="43.262345" lon="13.1052983"><ele>846.2</ele><time>2026-04-11T14:57:29.125Z</time></trkpt><trkpt lat="43.26233" lon="13.1054483"><ele>845.4000000000001</ele><time>2026-04-11T14:57:30.125Z</time></trkpt><trkpt lat="43.2623067" lon="13.1055967"><ele>844.5999999999999</ele><time>2026-04-11T14:57:31.126Z</time></trkpt><trkpt lat="43.2622867" lon="13.1057533"><ele>843.8</ele><time>2026-04-11T14:57:32.125Z</time></trkpt><trkpt lat="43.2622533" lon="13.1058867"><ele>843.0</ele><time>2026-04-11T14:57:33.125Z</time></trkpt><trkpt lat="43.2622217" lon="13.1060067"><ele>848.0</ele><time>2026-04-11T14:57:34.125Z</time></trkpt><trkpt lat="43.26219" lon="13.106115"><ele>853.0</ele><time>2026-04-11T14:57:35.125Z</time></trkpt><trkpt lat="43.2621471" lon="13.1062139"><ele>858.0</ele><time>2026-04-11T14:57:36.125Z</time></trkpt><trkpt lat="43.2621117" lon="13.1062951"><ele>863.0</ele><time>2026-04-11T14:57:37.125Z</time></trkpt><trkpt lat="43.2620662" lon="13.1063648"><ele>868.0</ele><time>2026-04-11T14:57:38.125Z</time></trkpt><trkpt lat="43.2620144" lon="13.1064231"><ele>873.0</ele><time>2026-04-11T14:57:39.125Z</time></trkpt><trkpt lat="43.2619561" lon="13.1064692"><ele>878.0</ele><time>2026-04-11T14:57:40.125Z</time></trkpt><trkpt lat="43.2618824" lon="13.1065146"><ele>878.0</ele><time>2026-04-11T14:57:41.125Z</time></trkpt><trkpt lat="43.2617881" lon="13.1065596"><ele>878.0</ele><time>2026-04-11T14:57:42.125Z</time></trkpt><trkpt lat="43.261562" lon="13.1066873"><ele>878.0</ele><time>2026-04-11T14:57:44.125Z</time></trkpt><trkpt lat="43.2614576" lon="13.1067673"><ele>875.5000000000001</ele><time>2026-04-11T14:57:45.125Z</time></trkpt><trkpt lat="43.2613656" lon="13.106856"><ele>873.0</ele><time>2026-04-11T14:57:46.125Z</time></trkpt><trkpt lat="43.2612951" lon="13.1069255"><ele>870.5</ele><time>2026-04-11T14:57:47.125Z</time></trkpt><trkpt lat="43.2612353" lon="13.1069785"><ele>868.0</ele><time>2026-04-11T14:57:48.125Z</time></trkpt><trkpt lat="43.2611532" lon="13.1070209"><ele>865.5000000000001</ele><time>2026-04-11T14:57:50.125Z</time></trkpt><trkpt lat="43.2611175" lon="13.106932"><ele>863.0</ele><time>2026-04-11T14:57:53.125Z</time></trkpt><trkpt lat="43.2611289" lon="13.1068026"><ele>863.0000000000001</ele><time>2026-04-11T14:57:55.125Z</time></trkpt><trkpt lat="43.2611496" lon="13.1066345"><ele>863.0</ele><time>2026-04-11T14:57:57.125Z</time></trkpt><trkpt lat="43.2611492" lon="13.106543"><ele>863.0</ele><time>2026-04-11T14:57:58.125Z</time></trkpt><trkpt lat="43.2611398" lon="13.1064438"><ele>863.0</ele><time>2026-04-11T14:57:59.125Z</time></trkpt><trkpt lat="43.2611229" lon="13.1063369"><ele>863.0000000000001</ele><time>2026-04-11T14:58:00.125Z</time></trkpt><trkpt lat="43.2611103" lon="13.1062278"><ele>863.0</ele><time>2026-04-11T14:58:01.125Z</time></trkpt><trkpt lat="43.2611184" lon="13.1061191"><ele>865.8</ele><time>2026-04-11T14:58:02.125Z</time></trkpt><trkpt lat="43.2611352" lon="13.1060052"><ele>868.5999999999999</ele><time>2026-04-11T14:58:03.125Z</time></trkpt><trkpt lat="43.2611779" lon="13.1057781"><ele>871.4000000000001</ele><time>2026-04-11T14:58:05.124Z</time></trkpt><trkpt lat="43.2611954" lon="13.1056683"><ele>874.2</ele><time>2026-04-11T14:58:06.124Z</time></trkpt><trkpt lat="43.2611974" lon="13.105573"><ele>877.0</ele><time>2026-04-11T14:58:07.124Z</time></trkpt><trkpt lat="43.2611805" lon="13.1054849"><ele>879.1428571428572</ele><time>2026-04-11T14:58:08.124Z</time></trkpt><trkpt lat="43.2611333" lon="13.105395"><ele>881.2857142857143</ele><time>2026-04-11T14:58:09.124Z</time></trkpt><trkpt lat="43.2610883" lon="13.10531"><ele>883.4285714285714</ele><time>2026-04-11T14:58:10.124Z</time></trkpt><trkpt lat="43.261045" lon="13.1052283"><ele>885.5714285714287</ele><time>2026-04-11T14:58:11.124Z</time></trkpt><trkpt lat="43.2610067" lon="13.10515"><ele>887.7142857142857</ele><time>2026-04-11T14:58:12.124Z</time></trkpt><trkpt lat="43.26097" lon="13.1050683"><ele>889.8571428571429</ele><time>2026-04-11T14:58:13.124Z</time></trkpt><trkpt lat="43.2609467" lon="13.1049817"><ele>892.0</ele><time>2026-04-11T14:58:14.124Z</time></trkpt><trkpt lat="43.2609317" lon="13.1048967"><ele>894.1428571428571</ele><time>2026-04-11T14:58:15.124Z</time></trkpt><trkpt lat="43.2609167" lon="13.104805"><ele>896.2857142857142</ele><time>2026-04-11T14:58:16.124Z</time></trkpt><trkpt lat="43.2609067" lon="13.1046983"><ele>898.4285714285716</ele><time>2026-04-11T14:58:17.124Z</time></trkpt><trkpt lat="43.2608967" lon="13.1045933"><ele>900.5714285714287</ele><time>2026-04-11T14:58:18.124Z</time></trkpt><trkpt lat="43.2608967" lon="13.1044883"><ele>902.7142857142858</ele><time>2026-04-11T14:58:19.124Z</time></trkpt><trkpt lat="43.2609033" lon="13.10439"><ele>904.857142857143</ele><time>2026-04-11T14:58:20.124Z</time></trkpt><trkpt lat="43.2609167" lon="13.104295"><ele>907.0000000000001</ele><time>2026-04-11T14:58:21.124Z</time></trkpt><trkpt lat="43.260885" lon="13.104135"><ele>910.4000000000001</ele><time>2026-04-11T14:58:23.124Z</time></trkpt><trkpt lat="43.2608383" lon="13.1040067"><ele>913.8000000000001</ele><time>2026-04-11T14:58:25.124Z</time></trkpt><trkpt lat="43.2608117" lon="13.10382"><ele>917.2</ele><time>2026-04-11T14:58:27.124Z</time></trkpt><trkpt lat="43.2608067" lon="13.103705"><ele>920.6</ele><time>2026-04-11T14:58:28.124Z</time></trkpt><trkpt lat="43.2608117" lon="13.1036"><ele>924.0</ele><time>2026-04-11T14:58:29.124Z</time></trkpt><trkpt lat="43.26077" lon="13.1034617"><ele>924.0</ele><time>2026-04-11T14:58:31.124Z</time></trkpt><trkpt lat="43.2607233" lon="13.10332"><ele>924.0</ele><time>2026-04-11T14:58:33.124Z</time></trkpt><trkpt lat="43.26073" lon="13.1032217"><ele>924.0</ele><time>2026-04-11T14:58:35.125Z</time></trkpt><trkpt lat="43.2607933" lon="13.10317"><ele>924.0</ele><time>2026-04-11T14:58:37.124Z</time></trkpt><trkpt lat="43.2608118" lon="13.1030627"><ele>924.0</ele><time>2026-04-11T14:58:45.124Z</time></trkpt><trkpt lat="43.2607776" lon="13.102985"><ele>924.0</ele><time>2026-04-11T14:58:47.124Z</time></trkpt><trkpt lat="43.2607578" lon="13.1027072"><ele>927.25</ele><time>2026-04-11T14:58:52.124Z</time></trkpt><trkpt lat="43.2607127" lon="13.102559"><ele>930.5</ele><time>2026-04-11T14:58:54.124Z</time></trkpt><trkpt lat="43.2606834" lon="13.1024133"><ele>933.75</ele><time>2026-04-11T14:58:56.124Z</time></trkpt><trkpt lat="43.2606893" lon="13.1022527"><ele>937.0</ele><time>2026-04-11T14:58:58.124Z</time></trkpt><trkpt lat="43.2606633" lon="13.1020963"><ele>938.3333333333333</ele><time>2026-04-11T14:59:00.124Z</time></trkpt><trkpt lat="43.2606312" lon="13.1020206"><ele>939.6666666666666</ele><time>2026-04-11T14:59:01.124Z</time></trkpt><trkpt lat="43.2605889" lon="13.101947"><ele>941.0</ele><time>2026-04-11T14:59:02.124Z</time></trkpt><trkpt lat="43.2605428" lon="13.1018831"><ele>942.3333333333333</ele><time>2026-04-11T14:59:03.124Z</time></trkpt><trkpt lat="43.2604573" lon="13.1018055"><ele>943.6666666666666</ele><time>2026-04-11T14:59:05.124Z</time></trkpt><trkpt lat="43.2604277" lon="13.1017286"><ele>945.0</ele><time>2026-04-11T14:59:07.124Z</time></trkpt><trkpt lat="43.2604325" lon="13.1016041"><ele>948.0</ele><time>2026-04-11T14:59:10.124Z</time></trkpt><trkpt lat="43.2603634" lon="13.1013889"><ele>951.0</ele><time>2026-04-11T14:59:13.124Z</time></trkpt><trkpt lat="43.2603292" lon="13.101281"><ele>954.0</ele><time>2026-04-11T14:59:14.124Z</time></trkpt><trkpt lat="43.2602958" lon="13.1011713"><ele>957.0</ele><time>2026-04-11T14:59:15.124Z</time></trkpt><trkpt lat="43.2602599" lon="13.1010635"><ele>960.0</ele><time>2026-04-11T14:59:16.124Z</time></trkpt><trkpt lat="43.2602182" lon="13.1009713"><ele>960.0</ele><time>2026-04-11T14:59:17.124Z</time></trkpt><trkpt lat="43.2601708" lon="13.1008977"><ele>960.0</ele><time>2026-04-11T14:59:18.124Z</time></trkpt><trkpt lat="43.260078" lon="13.1008022"><ele>960.0</ele><time>2026-04-11T14:59:20.124Z</time></trkpt><trkpt lat="43.2600049" lon="13.1006773"><ele>960.0</ele><time>2026-04-11T14:59:22.124Z</time></trkpt><trkpt lat="43.2599831" lon="13.1005232"><ele>960.0</ele><time>2026-04-11T14:59:24.124Z</time></trkpt><trkpt lat="43.2599992" lon="13.1004355"><ele>961.0</ele><time>2026-04-11T14:59:25.124Z</time></trkpt><trkpt lat="43.2600182" lon="13.1003441"><ele>962.0</ele><time>2026-04-11T14:59:26.124Z</time></trkpt><trkpt lat="43.2600246" lon="13.1002577"><ele>963.0</ele><time>2026-04-11T14:59:27.124Z</time></trkpt><trkpt lat="43.2600138" lon="13.1001696"><ele>964.0</ele><time>2026-04-11T14:59:28.124Z</time></trkpt><trkpt lat="43.2599521" lon="13.1000136"><ele>965.0</ele><time>2026-04-11T14:59:30.124Z</time></trkpt><trkpt lat="43.2599301" lon="13.0998804"><ele>966.0</ele><time>2026-04-11T14:59:32.124Z</time></trkpt><trkpt lat="43.2600076" lon="13.0996554"><ele>966.0</ele><time>2026-04-11T14:59:35.124Z</time></trkpt><trkpt lat="43.2600244" lon="13.0995574"><ele>965.9999999999999</ele><time>2026-04-11T14:59:36.124Z</time></trkpt><trkpt lat="43.2600364" lon="13.0994218"><ele>965.9999999999999</ele><time>2026-04-11T14:59:37.125Z</time></trkpt><trkpt lat="43.2600554" lon="13.0992433"><ele>966.0</ele><time>2026-04-11T14:59:38.124Z</time></trkpt><trkpt lat="43.2600702" lon="13.0990659"><ele>966.0</ele><time>2026-04-11T14:59:39.124Z</time></trkpt><trkpt lat="43.2600771" lon="13.0989019"><ele>965.8</ele><time>2026-04-11T14:59:40.124Z</time></trkpt><trkpt lat="43.2600711" lon="13.0987471"><ele>965.5999999999999</ele><time>2026-04-11T14:59:41.124Z</time></trkpt><trkpt lat="43.2600609" lon="13.0985933"><ele>965.4</ele><time>2026-04-11T14:59:42.124Z</time></trkpt><trkpt lat="43.2600532" lon="13.0984553"><ele>965.2</ele><time>2026-04-11T14:59:43.124Z</time></trkpt><trkpt lat="43.260042" lon="13.0983385"><ele>965.0</ele><time>2026-04-11T14:59:44.124Z</time></trkpt><trkpt lat="43.2600134" lon="13.0982445"><ele>965.0</ele><time>2026-04-11T14:59:45.124Z</time></trkpt><trkpt lat="43.2599624" lon="13.0981542"><ele>965.0</ele><time>2026-04-11T14:59:46.124Z</time></trkpt><trkpt lat="43.2598886" lon="13.0980596"><ele>965.0</ele><time>2026-04-11T14:59:47.124Z</time></trkpt><trkpt lat="43.2598104" lon="13.097961"><ele>965.0</ele><time>2026-04-11T14:59:48.124Z</time></trkpt><trkpt lat="43.2597558" lon="13.0978586"><ele>965.0</ele><time>2026-04-11T14:59:49.124Z</time></trkpt><trkpt lat="43.2597195" lon="13.0977348"><ele>965.5</ele><time>2026-04-11T14:59:50.124Z</time></trkpt><trkpt lat="43.2596833" lon="13.0976033"><ele>966.0</ele><time>2026-04-11T14:59:51.124Z</time></trkpt><trkpt lat="43.2596283" lon="13.09747"><ele>966.5</ele><time>2026-04-11T14:59:52.124Z</time></trkpt><trkpt lat="43.2595483" lon="13.0973217"><ele>967.0</ele><time>2026-04-11T14:59:53.124Z</time></trkpt><trkpt lat="43.259345" lon="13.0970183"><ele>968.4000000000001</ele><time>2026-04-11T14:59:55.124Z</time></trkpt><trkpt lat="43.25925" lon="13.0968783"><ele>969.8000000000001</ele><time>2026-04-11T14:59:56.124Z</time></trkpt><trkpt lat="43.2591767" lon="13.09673"><ele>971.2</ele><time>2026-04-11T14:59:57.124Z</time></trkpt><trkpt lat="43.259125" lon="13.09662"><ele>972.6</ele><time>2026-04-11T14:59:58.124Z</time></trkpt><trkpt lat="43.2590883" lon="13.0965267"><ele>974.0</ele><time>2026-04-11T14:59:59.124Z</time></trkpt><trkpt lat="43.2590883" lon="13.0964183"><ele>974.0</ele><time>2026-04-11T15:00:01.124Z</time></trkpt><trkpt lat="43.259165" lon="13.0962767"><ele>974.0</ele><time>2026-04-11T15:00:03.124Z</time></trkpt><trkpt lat="43.2592133" lon="13.0961617"><ele>974.0</ele><time>2026-04-11T15:00:04.124Z</time></trkpt><trkpt lat="43.2592683" lon="13.0960317"><ele>974.0</ele><time>2026-04-11T15:00:05.124Z</time></trkpt><trkpt lat="43.259335" lon="13.0958917"><ele>974.0</ele><time>2026-04-11T15:00:06.124Z</time></trkpt><trkpt lat="43.2593967" lon="13.095765"><ele>974.0000000000001</ele><time>2026-04-11T15:00:07.124Z</time></trkpt><trkpt lat="43.259455" lon="13.0956417"><ele>974.0000000000001</ele><time>2026-04-11T15:00:08.124Z</time></trkpt><trkpt lat="43.2595017" lon="13.095505"><ele>974.0</ele><time>2026-04-11T15:00:09.124Z</time></trkpt><trkpt lat="43.25955" lon="13.09536"><ele>974.0</ele><time>2026-04-11T15:00:10.124Z</time></trkpt><trkpt lat="43.2596117" lon="13.0952117"><ele>973.75</ele><time>2026-04-11T15:00:11.124Z</time></trkpt><trkpt lat="43.25969" lon="13.09506"><ele>973.5</ele><time>2026-04-11T15:00:12.124Z</time></trkpt><trkpt lat="43.259765" lon="13.09491"><ele>973.25</ele><time>2026-04-11T15:00:13.124Z</time></trkpt><trkpt lat="43.2598267" lon="13.094785"><ele>973.0</ele><time>2026-04-11T15:00:14.124Z</time></trkpt><trkpt lat="43.2599383" lon="13.0945667"><ele>971.5999999999999</ele><time>2026-04-11T15:00:16.124Z</time></trkpt><trkpt lat="43.259995" lon="13.0944533"><ele>970.1999999999999</ele><time>2026-04-11T15:00:17.124Z</time></trkpt><trkpt lat="43.2600533" lon="13.0943267"><ele>968.8</ele><time>2026-04-11T15:00:18.124Z</time></trkpt><trkpt lat="43.2601083" lon="13.09421"><ele>967.4</ele><time>2026-04-11T15:00:19.124Z</time></trkpt><trkpt lat="43.26016" lon="13.094115"><ele>966.0</ele><time>2026-04-11T15:00:20.124Z</time></trkpt><trkpt lat="43.26021" lon="13.0940217"><ele>966.0</ele><time>2026-04-11T15:00:21.124Z</time></trkpt><trkpt lat="43.2602633" lon="13.09393"><ele>965.9999999999999</ele><time>2026-04-11T15:00:22.124Z</time></trkpt><trkpt lat="43.2603133" lon="13.093855"><ele>965.9999999999999</ele><time>2026-04-11T15:00:23.124Z</time></trkpt><trkpt lat="43.260395" lon="13.0937483"><ele>966.0</ele><time>2026-04-11T15:00:25.124Z</time></trkpt><trkpt lat="43.2604767" lon="13.0936683"><ele>966.0</ele><time>2026-04-11T15:00:27.124Z</time></trkpt><trkpt lat="43.2605317" lon="13.09357"><ele>966.0</ele><time>2026-04-11T15:00:29.124Z</time></trkpt><trkpt lat="43.2605917" lon="13.0934"><ele>965.9999999999999</ele><time>2026-04-11T15:00:31.124Z</time></trkpt><trkpt lat="43.2606167" lon="13.0933017"><ele>965.9999999999999</ele><time>2026-04-11T15:00:32.124Z</time></trkpt><trkpt lat="43.26064" lon="13.093185"><ele>966.0</ele><time>2026-04-11T15:00:33.124Z</time></trkpt><trkpt lat="43.260655" lon="13.0930767"><ele>966.0</ele><time>2026-04-11T15:00:34.124Z</time></trkpt><trkpt lat="43.2606667" lon="13.0929683"><ele>960.4</ele><time>2026-04-11T15:00:35.124Z</time></trkpt><trkpt lat="43.26069" lon="13.09275"><ele>954.8</ele><time>2026-04-11T15:00:37.124Z</time></trkpt><trkpt lat="43.26071" lon="13.0926517"><ele>949.1999999999999</ele><time>2026-04-11T15:00:38.124Z</time></trkpt><trkpt lat="43.2607383" lon="13.092555"><ele>943.5999999999999</ele><time>2026-04-11T15:00:39.124Z</time></trkpt><trkpt lat="43.2607783" lon="13.092445"><ele>938.0</ele><time>2026-04-11T15:00:40.124Z</time></trkpt><trkpt lat="43.260815" lon="13.09233"><ele>936.25</ele><time>2026-04-11T15:00:41.124Z</time></trkpt><trkpt lat="43.2608533" lon="13.0921867"><ele>934.5</ele><time>2026-04-11T15:00:42.124Z</time></trkpt><trkpt lat="43.26088" lon="13.0920283"><ele>932.75</ele><time>2026-04-11T15:00:43.124Z</time></trkpt><trkpt lat="43.2609017" lon="13.0918633"><ele>931.0</ele><time>2026-04-11T15:00:44.124Z</time></trkpt><trkpt lat="43.260935" lon="13.0917117"><ele>929.8</ele><time>2026-04-11T15:00:45.124Z</time></trkpt><trkpt lat="43.2609767" lon="13.0915833"><ele>928.5999999999999</ele><time>2026-04-11T15:00:46.124Z</time></trkpt><trkpt lat="43.2610283" lon="13.0914667"><ele>927.4</ele><time>2026-04-11T15:00:47.124Z</time></trkpt><trkpt lat="43.26108" lon="13.0913617"><ele>926.2</ele><time>2026-04-11T15:00:48.125Z</time></trkpt><trkpt lat="43.261135" lon="13.0912583"><ele>925.0</ele><time>2026-04-11T15:00:49.124Z</time></trkpt><trkpt lat="43.2611883" lon="13.091185"><ele>925.0</ele><time>2026-04-11T15:00:50.124Z</time></trkpt><trkpt lat="43.26129" lon="13.0911683"><ele>925.0</ele><time>2026-04-11T15:00:52.124Z</time></trkpt><trkpt lat="43.2613733" lon="13.0912933"><ele>925.0</ele><time>2026-04-11T15:00:54.124Z</time></trkpt><trkpt lat="43.26141" lon="13.0913817"><ele>925.0</ele><time>2026-04-11T15:00:55.124Z</time></trkpt><trkpt lat="43.26145" lon="13.0914767"><ele>925.0</ele><time>2026-04-11T15:00:56.124Z</time></trkpt><trkpt lat="43.26156" lon="13.0916433"><ele>922.6666666666666</ele><time>2026-04-11T15:00:58.124Z</time></trkpt><trkpt lat="43.26162" lon="13.0917183"><ele>920.3333333333333</ele><time>2026-04-11T15:00:59.124Z</time></trkpt><trkpt lat="43.261675" lon="13.0917933"><ele>918.0</ele><time>2026-04-11T15:01:00.122Z</time></trkpt><trkpt lat="43.261745" lon="13.09192"><ele>915.6666666666667</ele><time>2026-04-11T15:01:02.125Z</time></trkpt><trkpt lat="43.2617933" lon="13.091995"><ele>913.3333333333334</ele><time>2026-04-11T15:01:04.124Z</time></trkpt><trkpt lat="43.26185" lon="13.0919317"><ele>911.0</ele><time>2026-04-11T15:01:07.124Z</time></trkpt><trkpt lat="43.2619133" lon="13.0917483"><ele>911.0</ele><time>2026-04-11T15:01:09.124Z</time></trkpt><trkpt lat="43.261965" lon="13.09161"><ele>911.0</ele><time>2026-04-11T15:01:10.124Z</time></trkpt><trkpt lat="43.2620233" lon="13.09146"><ele>911.0</ele><time>2026-04-11T15:01:11.124Z</time></trkpt><trkpt lat="43.262075" lon="13.091305"><ele>911.0</ele><time>2026-04-11T15:01:12.124Z</time></trkpt><trkpt lat="43.26212" lon="13.0911517"><ele>912.0</ele><time>2026-04-11T15:01:13.124Z</time></trkpt><trkpt lat="43.2621683" lon="13.0910067"><ele>913.0</ele><time>2026-04-11T15:01:14.124Z</time></trkpt><trkpt lat="43.2622267" lon="13.0908733"><ele>914.0</ele><time>2026-04-11T15:01:15.124Z</time></trkpt><trkpt lat="43.2622883" lon="13.0907333"><ele>915.0</ele><time>2026-04-11T15:01:16.124Z</time></trkpt><trkpt lat="43.262365" lon="13.0905967"><ele>915.0</ele><time>2026-04-11T15:01:17.124Z</time></trkpt><trkpt lat="43.2625317" lon="13.090365"><ele>915.0</ele><time>2026-04-11T15:01:19.124Z</time></trkpt><trkpt lat="43.262615" lon="13.0902367"><ele>915.0</ele><time>2026-04-11T15:01:20.124Z</time></trkpt><trkpt lat="43.262695" lon="13.0900967"><ele>915.0</ele><time>2026-04-11T15:01:21.124Z</time></trkpt><trkpt lat="43.262775" lon="13.08994"><ele>915.0</ele><time>2026-04-11T15:01:22.124Z</time></trkpt><trkpt lat="43.2628517" lon="13.0897567"><ele>915.0</ele><time>2026-04-11T15:01:23.124Z</time></trkpt><trkpt lat="43.262915" lon="13.089565"><ele>915.0</ele><time>2026-04-11T15:01:24.124Z</time></trkpt><trkpt lat="43.2629583" lon="13.0893783"><ele>915.75</ele><time>2026-04-11T15:01:25.124Z</time></trkpt><trkpt lat="43.263" lon="13.089185"><ele>916.5</ele><time>2026-04-11T15:01:26.124Z</time></trkpt><trkpt lat="43.2630383" lon="13.0890033"><ele>917.25</ele><time>2026-04-11T15:01:27.124Z</time></trkpt><trkpt lat="43.2630733" lon="13.08883"><ele>918.0</ele><time>2026-04-11T15:01:28.124Z</time></trkpt><trkpt lat="43.2631083" lon="13.08866"><ele>914.5</ele><time>2026-04-11T15:01:29.124Z</time></trkpt><trkpt lat="43.2631317" lon="13.0885067"><ele>911.0</ele><time>2026-04-11T15:01:30.124Z</time></trkpt><trkpt lat="43.2631467" lon="13.0883517"><ele>907.5</ele><time>2026-04-11T15:01:31.124Z</time></trkpt><trkpt lat="43.2631583" lon="13.0881833"><ele>904.0</ele><time>2026-04-11T15:01:32.124Z</time></trkpt><trkpt lat="43.2631639" lon="13.0880024"><ele>904.0</ele><time>2026-04-11T15:01:33.124Z</time></trkpt><trkpt lat="43.2631715" lon="13.0878175"><ele>904.0000000000001</ele><time>2026-04-11T15:01:34.124Z</time></trkpt><trkpt lat="43.2631829" lon="13.0876606"><ele>904.0000000000001</ele><time>2026-04-11T15:01:35.125Z</time></trkpt><trkpt lat="43.2631961" lon="13.0875339"><ele>904.0</ele><time>2026-04-11T15:01:36.124Z</time></trkpt><trkpt lat="43.2632127" lon="13.0874182"><ele>904.0</ele><time>2026-04-11T15:01:37.124Z</time></trkpt><trkpt lat="43.26322" lon="13.0873042"><ele>904.25</ele><time>2026-04-11T15:01:38.124Z</time></trkpt><trkpt lat="43.2632504" lon="13.0870118"><ele>904.5</ele><time>2026-04-11T15:01:40.124Z</time></trkpt><trkpt lat="43.2632722" lon="13.0868529"><ele>904.75</ele><time>2026-04-11T15:01:41.124Z</time></trkpt><trkpt lat="43.2632828" lon="13.0867103"><ele>905.0</ele><time>2026-04-11T15:01:42.124Z</time></trkpt><trkpt lat="43.2632912" lon="13.0865761"><ele>905.0000000000001</ele><time>2026-04-11T15:01:43.125Z</time></trkpt><trkpt lat="43.2632997" lon="13.0864558"><ele>905.0</ele><time>2026-04-11T15:01:44.124Z</time></trkpt><trkpt lat="43.2633098" lon="13.0863596"><ele>905.0</ele><time>2026-04-11T15:01:45.124Z</time></trkpt><trkpt lat="43.2633339" lon="13.0861974"><ele>905.0</ele><time>2026-04-11T15:01:47.124Z</time></trkpt><trkpt lat="43.2633856" lon="13.0861092"><ele>905.0000000000001</ele><time>2026-04-11T15:01:49.124Z</time></trkpt><trkpt lat="43.2634633" lon="13.0861016"><ele>905.0</ele><time>2026-04-11T15:01:51.124Z</time></trkpt><trkpt lat="43.2635282" lon="13.0861195"><ele>905.0000000000001</ele><time>2026-04-11T15:01:52.124Z</time></trkpt><trkpt lat="43.2636064" lon="13.0861508"><ele>905.0</ele><time>2026-04-11T15:01:53.124Z</time></trkpt><trkpt lat="43.2636821" lon="13.0861939"><ele>905.0</ele><time>2026-04-11T15:01:54.124Z</time></trkpt><trkpt lat="43.2637441" lon="13.0862511"><ele>905.0</ele><time>2026-04-11T15:01:55.124Z</time></trkpt><trkpt lat="43.2638022" lon="13.0863215"><ele>905.0000000000001</ele><time>2026-04-11T15:01:56.124Z</time></trkpt><trkpt lat="43.2638441" lon="13.086403"><ele>905.0</ele><time>2026-04-11T15:01:57.125Z</time></trkpt><trkpt lat="43.2638715" lon="13.086503"><ele>905.0</ele><time>2026-04-11T15:01:58.124Z</time></trkpt><trkpt lat="43.2638886" lon="13.0866155"><ele>905.0</ele><time>2026-04-11T15:01:59.124Z</time></trkpt><trkpt lat="43.2639288" lon="13.0868426"><ele>905.0</ele><time>2026-04-11T15:02:01.124Z</time></trkpt><trkpt lat="43.2639511" lon="13.0869546"><ele>905.0</ele><time>2026-04-11T15:02:02.124Z</time></trkpt><trkpt lat="43.2639759" lon="13.0870844"><ele>905.0</ele><time>2026-04-11T15:02:03.124Z</time></trkpt><trkpt lat="43.2639949" lon="13.0872281"><ele>904.2</ele><time>2026-04-11T15:02:04.124Z</time></trkpt><trkpt lat="43.2640108" lon="13.0873652"><ele>903.4</ele><time>2026-04-11T15:02:05.124Z</time></trkpt><trkpt lat="43.26402" lon="13.0874867"><ele>902.5999999999999</ele><time>2026-04-11T15:02:06.124Z</time></trkpt><trkpt lat="43.2640283" lon="13.0876117"><ele>901.8</ele><time>2026-04-11T15:02:07.124Z</time></trkpt><trkpt lat="43.2640283" lon="13.0877367"><ele>901.0</ele><time>2026-04-11T15:02:08.124Z</time></trkpt><trkpt lat="43.2640333" lon="13.0878583"><ele>899.9999999999999</ele><time>2026-04-11T15:02:09.124Z</time></trkpt><trkpt lat="43.2640433" lon="13.0879767"><ele>899.0</ele><time>2026-04-11T15:02:10.124Z</time></trkpt><trkpt lat="43.264065" lon="13.088095"><ele>898.0</ele><time>2026-04-11T15:02:11.124Z</time></trkpt><trkpt lat="43.26409" lon="13.088205"><ele>897.0</ele><time>2026-04-11T15:02:12.124Z</time></trkpt><trkpt lat="43.2641217" lon="13.0883033"><ele>895.9999999999999</ele><time>2026-04-11T15:02:13.124Z</time></trkpt><trkpt lat="43.26416" lon="13.088395"><ele>895.0</ele><time>2026-04-11T15:02:14.124Z</time></trkpt><trkpt lat="43.264205" lon="13.08848"><ele>893.3333333333333</ele><time>2026-04-11T15:02:15.124Z</time></trkpt><trkpt lat="43.2642467" lon="13.0885583"><ele>891.6666666666666</ele><time>2026-04-11T15:02:16.124Z</time></trkpt><trkpt lat="43.26428" lon="13.0886367"><ele>890.0</ele><time>2026-04-11T15:02:17.124Z</time></trkpt><trkpt lat="43.2643183" lon="13.0887167"><ele>888.3333333333333</ele><time>2026-04-11T15:02:18.124Z</time></trkpt><trkpt lat="43.2643517" lon="13.088805"><ele>886.6666666666666</ele><time>2026-04-11T15:02:19.124Z</time></trkpt><trkpt lat="43.2643983" lon="13.0889533"><ele>885.0</ele><time>2026-04-11T15:02:21.124Z</time></trkpt><trkpt lat="43.264475" lon="13.08923"><ele>883.5</ele><time>2026-04-11T15:02:25.124Z</time></trkpt><trkpt lat="43.2644967" lon="13.0893567"><ele>882.0</ele><time>2026-04-11T15:02:27.124Z</time></trkpt><trkpt lat="43.2645033" lon="13.0894733"><ele>880.5</ele><time>2026-04-11T15:02:29.125Z</time></trkpt><trkpt lat="43.264505" lon="13.0895733"><ele>879.0</ele><time>2026-04-11T15:02:31.124Z</time></trkpt><trkpt lat="43.26451" lon="13.0896883"><ele>877.5</ele><time>2026-04-11T15:02:34.125Z</time></trkpt><trkpt lat="43.264525" lon="13.0897867"><ele>876.0</ele><time>2026-04-11T15:02:36.124Z</time></trkpt><trkpt lat="43.2645433" lon="13.0899"><ele>874.0</ele><time>2026-04-11T15:02:38.124Z</time></trkpt><trkpt lat="43.2645533" lon="13.090005"><ele>871.9999999999999</ele><time>2026-04-11T15:02:40.124Z</time></trkpt><trkpt lat="43.2645567" lon="13.0901133"><ele>869.9999999999999</ele><time>2026-04-11T15:02:42.124Z</time></trkpt><trkpt lat="43.2645783" lon="13.0902967"><ele>868.0</ele><time>2026-04-11T15:02:46.124Z</time></trkpt><trkpt lat="43.2646" lon="13.0903983"><ele>866.0</ele><time>2026-04-11T15:02:48.124Z</time></trkpt><trkpt lat="43.2646217" lon="13.0905433"><ele>866.0</ele><time>2026-04-11T15:02:50.124Z</time></trkpt><trkpt lat="43.2646583" lon="13.0906967"><ele>865.9999999999999</ele><time>2026-04-11T15:02:52.124Z</time></trkpt><trkpt lat="43.2647033" lon="13.0908267"><ele>865.9999999999999</ele><time>2026-04-11T15:02:54.124Z</time></trkpt><trkpt lat="43.264745" lon="13.0909433"><ele>866.0</ele><time>2026-04-11T15:02:56.124Z</time></trkpt><trkpt lat="43.2647867" lon="13.0910667"><ele>866.0</ele><time>2026-04-11T15:02:58.124Z</time></trkpt><trkpt lat="43.264845" lon="13.09119"><ele>864.0000000000001</ele><time>2026-04-11T15:03:00.124Z</time></trkpt><trkpt lat="43.2648867" lon="13.0912567"><ele>862.0</ele><time>2026-04-11T15:03:01.124Z</time></trkpt><trkpt lat="43.2649433" lon="13.0913167"><ele>860.0</ele><time>2026-04-11T15:03:02.124Z</time></trkpt><trkpt lat="43.2649867" lon="13.09139"><ele>858.0</ele><time>2026-04-11T15:03:03.124Z</time></trkpt><trkpt lat="43.265105" lon="13.091565"><ele>856.0000000000001</ele><time>2026-04-11T15:03:06.124Z</time></trkpt><trkpt lat="43.26513" lon="13.0916483"><ele>854.0</ele><time>2026-04-11T15:03:08.124Z</time></trkpt><trkpt lat="43.26514" lon="13.091745"><ele>849.1666666666667</ele><time>2026-04-11T15:03:15.124Z</time></trkpt><trkpt lat="43.2651283" lon="13.091865"><ele>844.3333333333334</ele><time>2026-04-11T15:03:19.124Z</time></trkpt><trkpt lat="43.2651183" lon="13.0919733"><ele>839.5</ele><time>2026-04-11T15:03:22.124Z</time></trkpt><trkpt lat="43.265125" lon="13.0920883"><ele>834.6666666666667</ele><time>2026-04-11T15:03:25.124Z</time></trkpt><trkpt lat="43.2651567" lon="13.0922567"><ele>829.8333333333334</ele><time>2026-04-11T15:03:29.124Z</time></trkpt><trkpt lat="43.2651767" lon="13.0923483"><ele>825.0</ele><time>2026-04-11T15:03:33.124Z</time></trkpt><trkpt lat="43.2652283" lon="13.0924717"><ele>821.0</ele><time>2026-04-11T15:03:40.124Z</time></trkpt><trkpt lat="43.2652783" lon="13.0925583"><ele>817.0</ele><time>2026-04-11T15:03:42.124Z</time></trkpt><trkpt lat="43.2652917" lon="13.092665"><ele>813.0</ele><time>2026-04-11T15:03:44.124Z</time></trkpt><trkpt lat="43.2652533" lon="13.0927767"><ele>809.0</ele><time>2026-04-11T15:03:47.124Z</time></trkpt><trkpt lat="43.2651033" lon="13.0927667"><ele>805.0</ele><time>2026-04-11T15:03:51.124Z</time></trkpt><trkpt lat="43.265015" lon="13.09272"><ele>805.0</ele><time>2026-04-11T15:03:53.124Z</time></trkpt><trkpt lat="43.2649233" lon="13.0926517"><ele>805.0</ele><time>2026-04-11T15:03:55.124Z</time></trkpt><trkpt lat="43.2648333" lon="13.0925867"><ele>805.0</ele><time>2026-04-11T15:03:57.124Z</time></trkpt><trkpt lat="43.26475" lon="13.09252"><ele>805.0</ele><time>2026-04-11T15:03:59.124Z</time></trkpt><trkpt lat="43.2646833" lon="13.092445"><ele>805.0</ele><time>2026-04-11T15:04:01.124Z</time></trkpt><trkpt lat="43.2646333" lon="13.0923317"><ele>808.25</ele><time>2026-04-11T15:04:03.124Z</time></trkpt><trkpt lat="43.264595" lon="13.0922217"><ele>811.5</ele><time>2026-04-11T15:04:05.124Z</time></trkpt><trkpt lat="43.2645067" lon="13.0921833"><ele>814.75</ele><time>2026-04-11T15:04:08.124Z</time></trkpt><trkpt lat="43.2643" lon="13.09228"><ele>818.0</ele><time>2026-04-11T15:04:12.124Z</time></trkpt><trkpt lat="43.2642117" lon="13.092375"><ele>812.4</ele><time>2026-04-11T15:04:14.124Z</time></trkpt><trkpt lat="43.264145" lon="13.0925083"><ele>806.8</ele><time>2026-04-11T15:04:16.124Z</time></trkpt><trkpt lat="43.2641267" lon="13.0926283"><ele>801.2</ele><time>2026-04-11T15:04:18.124Z</time></trkpt><trkpt lat="43.26416" lon="13.0928"><ele>795.6</ele><time>2026-04-11T15:04:20.124Z</time></trkpt><trkpt lat="43.2641683" lon="13.0929067"><ele>790.0</ele><time>2026-04-11T15:04:21.124Z</time></trkpt><trkpt lat="43.2641717" lon="13.0930033"><ele>790.0</ele><time>2026-04-11T15:04:22.124Z</time></trkpt><trkpt lat="43.26417" lon="13.0931633"><ele>790.0</ele><time>2026-04-11T15:04:24.124Z</time></trkpt><trkpt lat="43.2641683" lon="13.093315"><ele>790.0</ele><time>2026-04-11T15:04:26.124Z</time></trkpt><trkpt lat="43.2641683" lon="13.0934683"><ele>790.0</ele><time>2026-04-11T15:04:28.124Z</time></trkpt><trkpt lat="43.2641867" lon="13.0935517"><ele>790.0</ele><time>2026-04-11T15:04:29.124Z</time></trkpt><trkpt lat="43.2642967" lon="13.09381"><ele>787.0</ele><time>2026-04-11T15:04:33.124Z</time></trkpt><trkpt lat="43.2643633" lon="13.0938683"><ele>784.0</ele><time>2026-04-11T15:04:35.124Z</time></trkpt><trkpt lat="43.26446" lon="13.0939033"><ele>781.0</ele><time>2026-04-11T15:04:37.124Z</time></trkpt><trkpt lat="43.26457" lon="13.09394"><ele>778.0</ele><time>2026-04-11T15:04:39.124Z</time></trkpt><trkpt lat="43.2646483" lon="13.0939467"><ele>775.0</ele><time>2026-04-11T15:04:40.124Z</time></trkpt><trkpt lat="43.2647383" lon="13.0939333"><ele>776.8333333333333</ele><time>2026-04-11T15:04:41.124Z</time></trkpt><trkpt lat="43.2648283" lon="13.0939217"><ele>778.6666666666666</ele><time>2026-04-11T15:04:42.124Z</time></trkpt><trkpt lat="43.2649117" lon="13.0939233"><ele>780.5</ele><time>2026-04-11T15:04:43.124Z</time></trkpt><trkpt lat="43.2649933" lon="13.093915"><ele>782.3333333333333</ele><time>2026-04-11T15:04:44.124Z</time></trkpt><trkpt lat="43.26507" lon="13.0939133"><ele>784.1666666666666</ele><time>2026-04-11T15:04:45.124Z</time></trkpt><trkpt lat="43.2651433" lon="13.09392"><ele>786.0</ele><time>2026-04-11T15:04:46.124Z</time></trkpt><trkpt lat="43.2652583" lon="13.0939433"><ele>786.0</ele><time>2026-04-11T15:04:48.124Z</time></trkpt><trkpt lat="43.2653667" lon="13.0939833"><ele>786.0</ele><time>2026-04-11T15:04:50.124Z</time></trkpt><trkpt lat="43.2654883" lon="13.0940833"><ele>786.0</ele><time>2026-04-11T15:04:52.124Z</time></trkpt><trkpt lat="43.265555" lon="13.094165"><ele>786.0</ele><time>2026-04-11T15:04:53.124Z</time></trkpt><trkpt lat="43.2656317" lon="13.0942383"><ele>786.0</ele><time>2026-04-11T15:04:54.124Z</time></trkpt><trkpt lat="43.2656983" lon="13.0942767"><ele>782.2857142857143</ele><time>2026-04-11T15:04:55.124Z</time></trkpt><trkpt lat="43.265765" lon="13.094295"><ele>778.5714285714286</ele><time>2026-04-11T15:04:56.124Z</time></trkpt><trkpt lat="43.2658317" lon="13.0943"><ele>774.8571428571429</ele><time>2026-04-11T15:04:57.124Z</time></trkpt><trkpt lat="43.2659033" lon="13.0942933"><ele>771.1428571428571</ele><time>2026-04-11T15:04:58.124Z</time></trkpt><trkpt lat="43.265985" lon="13.0943017"><ele>767.4285714285714</ele><time>2026-04-11T15:04:59.124Z</time></trkpt><trkpt lat="43.266065" lon="13.0943217"><ele>763.7142857142858</ele><time>2026-04-11T15:05:00.124Z</time></trkpt><trkpt lat="43.266135" lon="13.09436"><ele>760.0</ele><time>2026-04-11T15:05:01.124Z</time></trkpt><trkpt lat="43.2662033" lon="13.0943783"><ele>760.0</ele><time>2026-04-11T15:05:02.124Z</time></trkpt><trkpt lat="43.2662733" lon="13.0943867"><ele>760.0</ele><time>2026-04-11T15:05:03.124Z</time></trkpt><trkpt lat="43.2663417" lon="13.0944083"><ele>760.0</ele><time>2026-04-11T15:05:04.124Z</time></trkpt><trkpt lat="43.26641" lon="13.0944333"><ele>760.0</ele><time>2026-04-11T15:05:05.124Z</time></trkpt><trkpt lat="43.2664833" lon="13.0944517"><ele>760.0</ele><time>2026-04-11T15:05:06.124Z</time></trkpt><trkpt lat="43.2665583" lon="13.0944833"><ele>760.0</ele><time>2026-04-11T15:05:07.124Z</time></trkpt><trkpt lat="43.266645" lon="13.0945333"><ele>762.25</ele><time>2026-04-11T15:05:08.124Z</time></trkpt><trkpt lat="43.266735" lon="13.094595"><ele>764.5</ele><time>2026-04-11T15:05:09.124Z</time></trkpt><trkpt lat="43.2668233" lon="13.09466"><ele>766.75</ele><time>2026-04-11T15:05:10.124Z</time></trkpt><trkpt lat="43.26691" lon="13.094725"><ele>769.0</ele><time>2026-04-11T15:05:11.124Z</time></trkpt><trkpt lat="43.26705" lon="13.0948783"><ele>764.8000000000001</ele><time>2026-04-11T15:05:13.124Z</time></trkpt><trkpt lat="43.26714" lon="13.09497"><ele>760.6</ele><time>2026-04-11T15:05:15.124Z</time></trkpt><trkpt lat="43.26719" lon="13.0950333"><ele>756.4</ele><time>2026-04-11T15:05:17.124Z</time></trkpt><trkpt lat="43.2672667" lon="13.0951183"><ele>752.2</ele><time>2026-04-11T15:05:19.125Z</time></trkpt><trkpt lat="43.2673517" lon="13.09521"><ele>748.0</ele><time>2026-04-11T15:05:21.124Z</time></trkpt><trkpt lat="43.2674217" lon="13.0952433"><ele>747.7142857142857</ele><time>2026-04-11T15:05:23.124Z</time></trkpt><trkpt lat="43.26752" lon="13.0952017"><ele>747.4285714285714</ele><time>2026-04-11T15:05:25.124Z</time></trkpt><trkpt lat="43.2675833" lon="13.095165"><ele>747.1428571428571</ele><time>2026-04-11T15:05:26.124Z</time></trkpt><trkpt lat="43.2676483" lon="13.095145"><ele>746.8571428571429</ele><time>2026-04-11T15:05:27.124Z</time></trkpt><trkpt lat="43.267715" lon="13.095145"><ele>746.5714285714287</ele><time>2026-04-11T15:05:28.124Z</time></trkpt><trkpt lat="43.2677817" lon="13.0951533"><ele>746.2857142857143</ele><time>2026-04-11T15:05:29.124Z</time></trkpt><trkpt lat="43.2678483" lon="13.0951633"><ele>746.0</ele><time>2026-04-11T15:05:30.124Z</time></trkpt><trkpt lat="43.2679117" lon="13.0951933"><ele>746.0</ele><time>2026-04-11T15:05:31.124Z</time></trkpt><trkpt lat="43.26798" lon="13.0952283"><ele>746.0</ele><time>2026-04-11T15:05:32.124Z</time></trkpt><trkpt lat="43.2680917" lon="13.095355"><ele>746.0</ele><time>2026-04-11T15:05:34.124Z</time></trkpt><trkpt lat="43.26813" lon="13.095435"><ele>746.0</ele><time>2026-04-11T15:05:35.124Z</time></trkpt><trkpt lat="43.268165" lon="13.095515"><ele>746.0</ele><time>2026-04-11T15:05:36.124Z</time></trkpt><trkpt lat="43.2682" lon="13.095595"><ele>746.0</ele><time>2026-04-11T15:05:37.124Z</time></trkpt><trkpt lat="43.2682483" lon="13.0956633"><ele>746.8333333333333</ele><time>2026-04-11T15:05:38.124Z</time></trkpt><trkpt lat="43.2683067" lon="13.0957267"><ele>747.6666666666666</ele><time>2026-04-11T15:05:39.124Z</time></trkpt><trkpt lat="43.2683767" lon="13.0958333"><ele>748.5</ele><time>2026-04-11T15:05:41.124Z</time></trkpt><trkpt lat="43.2684583" lon="13.095855"><ele>749.3333333333334</ele><time>2026-04-11T15:05:44.124Z</time></trkpt><trkpt lat="43.26852" lon="13.0959"><ele>750.1666666666667</ele><time>2026-04-11T15:05:47.124Z</time></trkpt><trkpt lat="43.2685667" lon="13.0959733"><ele>751.0</ele><time>2026-04-11T15:05:49.124Z</time></trkpt><trkpt lat="43.26853" lon="13.0961067"><ele>749.0</ele><time>2026-04-11T15:10:09.124Z</time></trkpt><trkpt lat="43.26822" lon="13.0960267"><ele>747.0</ele><time>2026-04-11T15:10:41.124Z</time></trkpt><trkpt lat="43.26812" lon="13.096005"><ele>745.0</ele><time>2026-04-11T15:10:43.124Z</time></trkpt><trkpt lat="43.268035" lon="13.09596"><ele>745.0</ele><time>2026-04-11T15:10:45.124Z</time></trkpt><trkpt lat="43.267945" lon="13.0959317"><ele>745.0</ele><time>2026-04-11T15:10:47.125Z</time></trkpt><trkpt lat="43.267855" lon="13.0959183"><ele>745.0</ele><time>2026-04-11T15:10:49.124Z</time></trkpt><trkpt lat="43.2677567" lon="13.0958983"><ele>745.0</ele><time>2026-04-11T15:10:51.124Z</time></trkpt><trkpt lat="43.26765" lon="13.0958583"><ele>745.0</ele><time>2026-04-11T15:10:53.124Z</time></trkpt><trkpt lat="43.2675267" lon="13.0958233"><ele>745.0</ele><time>2026-04-11T15:10:55.124Z</time></trkpt><trkpt lat="43.2674317" lon="13.09577"><ele>745.0</ele><time>2026-04-11T15:10:57.124Z</time></trkpt><trkpt lat="43.26735" lon="13.0957133"><ele>745.0</ele><time>2026-04-11T15:10:59.124Z</time></trkpt><trkpt lat="43.2672349" lon="13.0955217"><ele>745.0</ele><time>2026-04-11T15:11:03.124Z</time></trkpt><trkpt lat="43.2671939" lon="13.0954086"><ele>745.6</ele><time>2026-04-11T15:11:05.124Z</time></trkpt><trkpt lat="43.2671199" lon="13.0953245"><ele>746.2</ele><time>2026-04-11T15:11:07.124Z</time></trkpt><trkpt lat="43.2670069" lon="13.0952456"><ele>746.8</ele><time>2026-04-11T15:11:09.124Z</time></trkpt><trkpt lat="43.2669409" lon="13.0951978"><ele>747.4</ele><time>2026-04-11T15:11:10.124Z</time></trkpt><trkpt lat="43.2668782" lon="13.0951422"><ele>748.0</ele><time>2026-04-11T15:11:11.124Z</time></trkpt><trkpt lat="43.2668094" lon="13.0950824"><ele>748.0</ele><time>2026-04-11T15:11:12.124Z</time></trkpt><trkpt lat="43.2667425" lon="13.0950219"><ele>748.0</ele><time>2026-04-11T15:11:13.124Z</time></trkpt><trkpt lat="43.2666755" lon="13.0949715"><ele>748.0</ele><time>2026-04-11T15:11:14.124Z</time></trkpt><trkpt lat="43.2666055" lon="13.0949292"><ele>748.0</ele><time>2026-04-11T15:11:15.124Z</time></trkpt><trkpt lat="43.2665344" lon="13.094884"><ele>748.0</ele><time>2026-04-11T15:11:16.124Z</time></trkpt><trkpt lat="43.2664649" lon="13.09484"><ele>748.0</ele><time>2026-04-11T15:11:17.124Z</time></trkpt><trkpt lat="43.2663923" lon="13.0948099"><ele>751.0</ele><time>2026-04-11T15:11:18.124Z</time></trkpt><trkpt lat="43.2662931" lon="13.0947686"><ele>754.0</ele><time>2026-04-11T15:11:20.124Z</time></trkpt><trkpt lat="43.2660876" lon="13.0947188"><ele>757.0</ele><time>2026-04-11T15:11:24.124Z</time></trkpt><trkpt lat="43.2659694" lon="13.0946934"><ele>760.0</ele><time>2026-04-11T15:11:26.124Z</time></trkpt><trkpt lat="43.2658995" lon="13.0947008"><ele>760.0</ele><time>2026-04-11T15:11:27.125Z</time></trkpt><trkpt lat="43.2658304" lon="13.0947165"><ele>760.0</ele><time>2026-04-11T15:11:28.125Z</time></trkpt><trkpt lat="43.2657679" lon="13.0947417"><ele>760.0</ele><time>2026-04-11T15:11:29.124Z</time></trkpt><trkpt lat="43.2656588" lon="13.0947778"><ele>760.0</ele><time>2026-04-11T15:11:31.124Z</time></trkpt><trkpt lat="43.2655677" lon="13.0947693"><ele>760.0</ele><time>2026-04-11T15:11:33.124Z</time></trkpt><trkpt lat="43.2654705" lon="13.0947279"><ele>760.0</ele><time>2026-04-11T15:11:35.124Z</time></trkpt><trkpt lat="43.2653764" lon="13.0946825"><ele>761.25</ele><time>2026-04-11T15:11:37.124Z</time></trkpt><trkpt lat="43.2652838" lon="13.0946592"><ele>762.5</ele><time>2026-04-11T15:11:39.124Z</time></trkpt><trkpt lat="43.2651922" lon="13.0946552"><ele>763.75</ele><time>2026-04-11T15:11:41.124Z</time></trkpt><trkpt lat="43.2649889" lon="13.0946639"><ele>765.0</ele><time>2026-04-11T15:11:44.124Z</time></trkpt><trkpt lat="43.264914" lon="13.0946537"><ele>765.0</ele><time>2026-04-11T15:11:45.124Z</time></trkpt><trkpt lat="43.2648451" lon="13.0946356"><ele>765.0</ele><time>2026-04-11T15:11:46.124Z</time></trkpt><trkpt lat="43.2647743" lon="13.0946207"><ele>765.0</ele><time>2026-04-11T15:11:47.124Z</time></trkpt><trkpt lat="43.2647093" lon="13.0946175"><ele>765.0</ele><time>2026-04-11T15:11:48.124Z</time></trkpt><trkpt lat="43.2645864" lon="13.0946494"><ele>765.0</ele><time>2026-04-11T15:11:50.124Z</time></trkpt><trkpt lat="43.2644817" lon="13.0947276"><ele>765.8333333333334</ele><time>2026-04-11T15:11:52.124Z</time></trkpt><trkpt lat="43.2643947" lon="13.0947817"><ele>766.6666666666667</ele><time>2026-04-11T15:11:54.124Z</time></trkpt><trkpt lat="43.2643014" lon="13.0948182"><ele>767.5</ele><time>2026-04-11T15:11:56.124Z</time></trkpt><trkpt lat="43.2642046" lon="13.0948905"><ele>768.3333333333334</ele><time>2026-04-11T15:11:58.124Z</time></trkpt><trkpt lat="43.2641475" lon="13.0949443"><ele>769.1666666666667</ele><time>2026-04-11T15:11:59.124Z</time></trkpt><trkpt lat="43.2640876" lon="13.0949977"><ele>770.0</ele><time>2026-04-11T15:12:00.124Z</time></trkpt><trkpt lat="43.2640259" lon="13.0950426"><ele>777.2</ele><time>2026-04-11T15:12:01.124Z</time></trkpt><trkpt lat="43.2639246" lon="13.0951176"><ele>784.4</ele><time>2026-04-11T15:12:03.124Z</time></trkpt><trkpt lat="43.2638242" lon="13.0953013"><ele>791.5999999999999</ele><time>2026-04-11T15:12:07.124Z</time></trkpt><trkpt lat="43.263811" lon="13.0953885"><ele>798.8</ele><time>2026-04-11T15:12:08.124Z</time></trkpt><trkpt lat="43.2637977" lon="13.0954981"><ele>806.0</ele><time>2026-04-11T15:12:09.124Z</time></trkpt><trkpt lat="43.2637837" lon="13.095603"><ele>806.0000000000001</ele><time>2026-04-11T15:12:10.124Z</time></trkpt><trkpt lat="43.263763" lon="13.0956861"><ele>806.0</ele><time>2026-04-11T15:12:11.124Z</time></trkpt><trkpt lat="43.2636826" lon="13.095788"><ele>806.0</ele><time>2026-04-11T15:12:13.124Z</time></trkpt><trkpt lat="43.2636137" lon="13.0958345"><ele>806.0</ele><time>2026-04-11T15:12:14.124Z</time></trkpt><trkpt lat="43.2635309" lon="13.0958726"><ele>806.0000000000001</ele><time>2026-04-11T15:12:15.124Z</time></trkpt><trkpt lat="43.2634604" lon="13.0959079"><ele>806.0</ele><time>2026-04-11T15:12:16.124Z</time></trkpt><trkpt lat="43.263347" lon="13.0959543"><ele>806.4</ele><time>2026-04-11T15:12:18.124Z</time></trkpt><trkpt lat="43.2632382" lon="13.096001"><ele>806.8</ele><time>2026-04-11T15:12:20.124Z</time></trkpt><trkpt lat="43.2631733" lon="13.0960258"><ele>807.1999999999999</ele><time>2026-04-11T15:12:21.124Z</time></trkpt><trkpt lat="43.2630986" lon="13.0960398"><ele>807.5999999999999</ele><time>2026-04-11T15:12:22.124Z</time></trkpt><trkpt lat="43.2630321" lon="13.0960589"><ele>808.0</ele><time>2026-04-11T15:12:23.124Z</time></trkpt><trkpt lat="43.2629119" lon="13.0961091"><ele>812.8</ele><time>2026-04-11T15:12:25.124Z</time></trkpt><trkpt lat="43.2627774" lon="13.096177"><ele>817.5999999999999</ele><time>2026-04-11T15:12:27.124Z</time></trkpt><trkpt lat="43.2627063" lon="13.0962212"><ele>822.4000000000001</ele><time>2026-04-11T15:12:28.125Z</time></trkpt><trkpt lat="43.2626257" lon="13.0962746"><ele>827.2</ele><time>2026-04-11T15:12:29.124Z</time></trkpt><trkpt lat="43.262532" lon="13.0963397"><ele>832.0</ele><time>2026-04-11T15:12:30.124Z</time></trkpt><trkpt lat="43.2624431" lon="13.0963998"><ele>831.9999999999999</ele><time>2026-04-11T15:12:31.124Z</time></trkpt><trkpt lat="43.2623511" lon="13.0964392"><ele>832.0</ele><time>2026-04-11T15:12:32.124Z</time></trkpt><trkpt lat="43.2622562" lon="13.0964624"><ele>832.0</ele><time>2026-04-11T15:12:33.124Z</time></trkpt><trkpt lat="43.2621656" lon="13.0964698"><ele>832.0</ele><time>2026-04-11T15:12:34.124Z</time></trkpt><trkpt lat="43.2620839" lon="13.0964623"><ele>831.9999999999999</ele><time>2026-04-11T15:12:35.124Z</time></trkpt><trkpt lat="43.2620101" lon="13.0964512"><ele>832.0</ele><time>2026-04-11T15:12:36.124Z</time></trkpt><trkpt lat="43.2619445" lon="13.0964369"><ele>837.2</ele><time>2026-04-11T15:12:37.124Z</time></trkpt><trkpt lat="43.2618339" lon="13.0963975"><ele>842.4000000000001</ele><time>2026-04-11T15:12:39.124Z</time></trkpt><trkpt lat="43.2617473" lon="13.0963425"><ele>847.5999999999999</ele><time>2026-04-11T15:12:41.124Z</time></trkpt><trkpt lat="43.2616849" lon="13.0962961"><ele>852.8</ele><time>2026-04-11T15:12:43.124Z</time></trkpt><trkpt lat="43.2617378" lon="13.096368"><ele>858.0</ele><time>2026-04-11T15:12:51.124Z</time></trkpt><trkpt lat="43.261873" lon="13.0965378"><ele>857.2</ele><time>2026-04-11T15:12:54.124Z</time></trkpt><trkpt lat="43.2619321" lon="13.0966212"><ele>856.4</ele><time>2026-04-11T15:12:55.124Z</time></trkpt><trkpt lat="43.2619987" lon="13.0967193"><ele>855.6000000000001</ele><time>2026-04-11T15:12:56.124Z</time></trkpt><trkpt lat="43.2620735" lon="13.0968344"><ele>854.8000000000001</ele><time>2026-04-11T15:12:57.124Z</time></trkpt><trkpt lat="43.2621549" lon="13.0969458"><ele>854.0</ele><time>2026-04-11T15:12:58.124Z</time></trkpt><trkpt lat="43.2622461" lon="13.0970524"><ele>854.0</ele><time>2026-04-11T15:12:59.124Z</time></trkpt><trkpt lat="43.2623376" lon="13.0971497"><ele>854.0000000000001</ele><time>2026-04-11T15:13:00.124Z</time></trkpt><trkpt lat="43.262415" lon="13.0972293"><ele>854.0000000000001</ele><time>2026-04-11T15:13:01.124Z</time></trkpt><trkpt lat="43.2624881" lon="13.0972987"><ele>854.0</ele><time>2026-04-11T15:13:02.124Z</time></trkpt><trkpt lat="43.2625659" lon="13.0973683"><ele>854.0</ele><time>2026-04-11T15:13:03.124Z</time></trkpt><trkpt lat="43.2626449" lon="13.097424"><ele>854.0</ele><time>2026-04-11T15:13:04.124Z</time></trkpt><trkpt lat="43.2627195" lon="13.0974594"><ele>854.0000000000001</ele><time>2026-04-11T15:13:05.124Z</time></trkpt><trkpt lat="43.262829" lon="13.0975017"><ele>854.0000000000001</ele><time>2026-04-11T15:13:07.124Z</time></trkpt><trkpt lat="43.2629139" lon="13.0976031"><ele>854.0</ele><time>2026-04-11T15:13:09.124Z</time></trkpt><trkpt lat="43.2629728" lon="13.0977387"><ele>854.0</ele><time>2026-04-11T15:13:11.124Z</time></trkpt><trkpt lat="43.2630167" lon="13.0978986"><ele>854.0</ele><time>2026-04-11T15:13:13.124Z</time></trkpt><trkpt lat="43.2631234" lon="13.0981238"><ele>854.0000000000001</ele><time>2026-04-11T15:13:17.124Z</time></trkpt><trkpt lat="43.2631815" lon="13.0981909"><ele>854.0000000000001</ele><time>2026-04-11T15:13:19.124Z</time></trkpt><trkpt lat="43.2632509" lon="13.0982321"><ele>854.0</ele><time>2026-04-11T15:13:22.125Z</time></trkpt><trkpt lat="43.2632317" lon="13.0981217"><ele>854.0</ele><time>2026-04-11T15:15:58.123Z</time></trkpt><trkpt lat="43.2631067" lon="13.0981033"><ele>854.0</ele><time>2026-04-11T15:16:02.123Z</time></trkpt><trkpt lat="43.26308" lon="13.0982183"><ele>854.0000000000001</ele><time>2026-04-11T15:16:05.123Z</time></trkpt><trkpt lat="43.2631167" lon="13.09841"><ele>854.0000000000001</ele><time>2026-04-11T15:16:07.123Z</time></trkpt><trkpt lat="43.2631467" lon="13.0985267"><ele>854.0</ele><time>2026-04-11T15:16:08.124Z</time></trkpt><trkpt lat="43.26318" lon="13.0986433"><ele>854.0</ele><time>2026-04-11T15:16:09.123Z</time></trkpt><trkpt lat="43.2632067" lon="13.09875"><ele>853.0000000000001</ele><time>2026-04-11T15:16:10.123Z</time></trkpt><trkpt lat="43.2632317" lon="13.0988383"><ele>852.0</ele><time>2026-04-11T15:16:11.123Z</time></trkpt><trkpt lat="43.2632667" lon="13.09899"><ele>851.0</ele><time>2026-04-11T15:16:13.123Z</time></trkpt><trkpt lat="43.2632883" lon="13.0990783"><ele>850.0</ele><time>2026-04-11T15:16:14.123Z</time></trkpt><trkpt lat="43.26331" lon="13.099175"><ele>849.0000000000001</ele><time>2026-04-11T15:16:15.123Z</time></trkpt><trkpt lat="43.26333" lon="13.0992717"><ele>848.0</ele><time>2026-04-11T15:16:16.123Z</time></trkpt><trkpt lat="43.263345" lon="13.099365"><ele>847.8333333333334</ele><time>2026-04-11T15:16:17.123Z</time></trkpt><trkpt lat="43.2633533" lon="13.099455"><ele>847.6666666666667</ele><time>2026-04-11T15:16:18.123Z</time></trkpt><trkpt lat="43.2633567" lon="13.0995483"><ele>847.5</ele><time>2026-04-11T15:16:19.123Z</time></trkpt><trkpt lat="43.2633717" lon="13.0997617"><ele>847.3333333333333</ele><time>2026-04-11T15:16:21.123Z</time></trkpt><trkpt lat="43.2633817" lon="13.099855"><ele>847.1666666666666</ele><time>2026-04-11T15:16:22.123Z</time></trkpt><trkpt lat="43.263395" lon="13.0999433"><ele>847.0</ele><time>2026-04-11T15:16:23.124Z</time></trkpt><trkpt lat="43.2634133" lon="13.1000317"><ele>846.1666666666666</ele><time>2026-04-11T15:16:24.124Z</time></trkpt><trkpt lat="43.2634333" lon="13.1001183"><ele>845.3333333333333</ele><time>2026-04-11T15:16:25.123Z</time></trkpt><trkpt lat="43.2634533" lon="13.1002117"><ele>844.5</ele><time>2026-04-11T15:16:26.123Z</time></trkpt><trkpt lat="43.2634667" lon="13.1003117"><ele>843.6666666666667</ele><time>2026-04-11T15:16:27.123Z</time></trkpt><trkpt lat="43.2634667" lon="13.1004183"><ele>842.8333333333334</ele><time>2026-04-11T15:16:28.123Z</time></trkpt><trkpt lat="43.26347" lon="13.1005267"><ele>842.0</ele><time>2026-04-11T15:16:29.123Z</time></trkpt><trkpt lat="43.2634717" lon="13.10064"><ele>841.0000000000001</ele><time>2026-04-11T15:16:30.123Z</time></trkpt><trkpt lat="43.263465" lon="13.1007517"><ele>840.0</ele><time>2026-04-11T15:16:31.123Z</time></trkpt><trkpt lat="43.2634717" lon="13.1008633"><ele>839.0</ele><time>2026-04-11T15:16:32.123Z</time></trkpt><trkpt lat="43.2634733" lon="13.1009733"><ele>838.0</ele><time>2026-04-11T15:16:33.123Z</time></trkpt><trkpt lat="43.26347" lon="13.10108"><ele>837.0000000000001</ele><time>2026-04-11T15:16:34.123Z</time></trkpt><trkpt lat="43.2634717" lon="13.1011783"><ele>836.0</ele><time>2026-04-11T15:16:35.123Z</time></trkpt><trkpt lat="43.2634683" lon="13.1012717"><ele>836.0</ele><time>2026-04-11T15:16:36.123Z</time></trkpt><trkpt lat="43.2634667" lon="13.1013617"><ele>836.0</ele><time>2026-04-11T15:16:37.123Z</time></trkpt><trkpt lat="43.2634833" lon="13.1015167"><ele>836.0</ele><time>2026-04-11T15:16:39.123Z</time></trkpt><trkpt lat="43.2634983" lon="13.1016717"><ele>836.0</ele><time>2026-04-11T15:16:41.124Z</time></trkpt><trkpt lat="43.2635067" lon="13.10193"><ele>834.4</ele><time>2026-04-11T15:16:44.123Z</time></trkpt><trkpt lat="43.2634933" lon="13.1020517"><ele>832.8</ele><time>2026-04-11T15:16:46.124Z</time></trkpt><trkpt lat="43.2634617" lon="13.10215"><ele>831.1999999999999</ele><time>2026-04-11T15:16:50.123Z</time></trkpt><trkpt lat="43.2634333" lon="13.1022383"><ele>829.5999999999999</ele><time>2026-04-11T15:16:56.123Z</time></trkpt><trkpt lat="43.2634467" lon="13.1023683"><ele>828.0</ele><time>2026-04-11T15:16:59.123Z</time></trkpt><trkpt lat="43.2635017" lon="13.102535"><ele>827.0</ele><time>2026-04-11T15:17:28.123Z</time></trkpt><trkpt lat="43.2635383" lon="13.1027467"><ele>826.0</ele><time>2026-04-11T15:17:32.123Z</time></trkpt><trkpt lat="43.2635417" lon="13.10286"><ele>825.0</ele><time>2026-04-11T15:17:35.123Z</time></trkpt><trkpt lat="43.263525" lon="13.102975"><ele>824.0</ele><time>2026-04-11T15:17:38.123Z</time></trkpt><trkpt lat="43.263485" lon="13.1030967"><ele>823.0</ele><time>2026-04-11T15:17:41.123Z</time></trkpt><trkpt lat="43.26345" lon="13.1032"><ele>820.4</ele><time>2026-04-11T15:17:54.123Z</time></trkpt><trkpt lat="43.263395" lon="13.1033917"><ele>817.8</ele><time>2026-04-11T15:17:58.123Z</time></trkpt><trkpt lat="43.2633883" lon="13.1035083"><ele>815.2</ele><time>2026-04-11T15:18:02.123Z</time></trkpt><trkpt lat="43.26339" lon="13.1036067"><ele>812.6</ele><time>2026-04-11T15:18:05.123Z</time></trkpt><trkpt lat="43.2633817" lon="13.1037217"><ele>810.0</ele><time>2026-04-11T15:18:08.123Z</time></trkpt><trkpt lat="43.2633833" lon="13.1038117"><ele>810.0</ele><time>2026-04-11T15:18:10.123Z</time></trkpt><trkpt lat="43.2633283" lon="13.1039517"><ele>810.0</ele><time>2026-04-11T15:18:13.123Z</time></trkpt><trkpt lat="43.26329" lon="13.1040333"><ele>810.0</ele><time>2026-04-11T15:18:14.124Z</time></trkpt><trkpt lat="43.2632533" lon="13.10412"><ele>810.0</ele><time>2026-04-11T15:18:15.123Z</time></trkpt><trkpt lat="43.2631833" lon="13.1042933"><ele>810.0</ele><time>2026-04-11T15:18:17.123Z</time></trkpt><trkpt lat="43.263155" lon="13.104375"><ele>807.1666666666666</ele><time>2026-04-11T15:18:18.123Z</time></trkpt><trkpt lat="43.2631217" lon="13.1044633"><ele>804.3333333333333</ele><time>2026-04-11T15:18:19.123Z</time></trkpt><trkpt lat="43.2630967" lon="13.104545"><ele>801.5</ele><time>2026-04-11T15:18:20.123Z</time></trkpt><trkpt lat="43.2630783" lon="13.1046417"><ele>798.6666666666666</ele><time>2026-04-11T15:18:21.123Z</time></trkpt><trkpt lat="43.26307" lon="13.1047417"><ele>795.8333333333333</ele><time>2026-04-11T15:18:22.123Z</time></trkpt><trkpt lat="43.2630567" lon="13.1048533"><ele>793.0</ele><time>2026-04-11T15:18:23.123Z</time></trkpt><trkpt lat="43.2630467" lon="13.1049767"><ele>803.0</ele><time>2026-04-11T15:18:24.123Z</time></trkpt><trkpt lat="43.2630383" lon="13.1050917"><ele>813.0</ele><time>2026-04-11T15:18:25.123Z</time></trkpt><trkpt lat="43.2630383" lon="13.1051883"><ele>823.0</ele><time>2026-04-11T15:18:26.123Z</time></trkpt><trkpt lat="43.2630317" lon="13.10535"><ele>833.0</ele><time>2026-04-11T15:18:28.123Z</time></trkpt><trkpt lat="43.263015" lon="13.1054817"><ele>843.0</ele><time>2026-04-11T15:18:30.123Z</time></trkpt><trkpt lat="43.26299" lon="13.1055867"><ele>842.0</ele><time>2026-04-11T15:18:32.123Z</time></trkpt><trkpt lat="43.262975" lon="13.1057483"><ele>841.0</ele><time>2026-04-11T15:18:34.123Z</time></trkpt><trkpt lat="43.2629733" lon="13.105855"><ele>840.0</ele><time>2026-04-11T15:18:35.123Z</time></trkpt><trkpt lat="43.2629733" lon="13.1059683"><ele>839.0</ele><time>2026-04-11T15:18:36.123Z</time></trkpt><trkpt lat="43.2629683" lon="13.1062117"><ele>839.0000000000001</ele><time>2026-04-11T15:18:38.123Z</time></trkpt><trkpt lat="43.2629583" lon="13.1063267"><ele>839.0</ele><time>2026-04-11T15:18:39.123Z</time></trkpt><trkpt lat="43.26296" lon="13.1064217"><ele>839.0</ele><time>2026-04-11T15:18:40.123Z</time></trkpt><trkpt lat="43.262965" lon="13.1065217"><ele>839.0</ele><time>2026-04-11T15:18:41.123Z</time></trkpt><trkpt lat="43.26297" lon="13.1066217"><ele>839.0000000000001</ele><time>2026-04-11T15:18:42.123Z</time></trkpt><trkpt lat="43.26298" lon="13.1067267"><ele>839.0</ele><time>2026-04-11T15:18:43.123Z</time></trkpt><trkpt lat="43.2629883" lon="13.1068317"><ele>836.1666666666667</ele><time>2026-04-11T15:18:44.123Z</time></trkpt><trkpt lat="43.2630067" lon="13.1069283"><ele>833.3333333333334</ele><time>2026-04-11T15:18:45.123Z</time></trkpt><trkpt lat="43.2630167" lon="13.107015"><ele>830.5</ele><time>2026-04-11T15:18:46.123Z</time></trkpt><trkpt lat="43.2630133" lon="13.10715"><ele>827.6666666666667</ele><time>2026-04-11T15:18:48.123Z</time></trkpt><trkpt lat="43.26296" lon="13.107275"><ele>824.8333333333334</ele><time>2026-04-11T15:18:50.123Z</time></trkpt><trkpt lat="43.2628817" lon="13.1073767"><ele>822.0</ele><time>2026-04-11T15:18:52.123Z</time></trkpt><trkpt lat="43.2627617" lon="13.1074367"><ele>818.6666666666666</ele><time>2026-04-11T15:18:54.123Z</time></trkpt><trkpt lat="43.2626967" lon="13.1074767"><ele>815.3333333333333</ele><time>2026-04-11T15:18:55.123Z</time></trkpt><trkpt lat="43.2626333" lon="13.1075267"><ele>812.0</ele><time>2026-04-11T15:18:56.124Z</time></trkpt><trkpt lat="43.26257" lon="13.107585"><ele>808.6666666666666</ele><time>2026-04-11T15:18:57.123Z</time></trkpt><trkpt lat="43.2624717" lon="13.1077217"><ele>805.3333333333333</ele><time>2026-04-11T15:18:59.124Z</time></trkpt><trkpt lat="43.2624267" lon="13.1077933"><ele>802.0</ele><time>2026-04-11T15:19:00.123Z</time></trkpt><trkpt lat="43.26238" lon="13.1078617"><ele>801.9999999999999</ele><time>2026-04-11T15:19:01.123Z</time></trkpt><trkpt lat="43.2623433" lon="13.1079417"><ele>802.0</ele><time>2026-04-11T15:19:02.123Z</time></trkpt><trkpt lat="43.2622917" lon="13.1080983"><ele>802.0</ele><time>2026-04-11T15:19:04.123Z</time></trkpt><trkpt lat="43.2622767" lon="13.1082"><ele>802.0</ele><time>2026-04-11T15:19:05.123Z</time></trkpt><trkpt lat="43.2622683" lon="13.1083033"><ele>801.9999999999999</ele><time>2026-04-11T15:19:06.124Z</time></trkpt><trkpt lat="43.262265" lon="13.1084033"><ele>802.0</ele><time>2026-04-11T15:19:07.123Z</time></trkpt><trkpt lat="43.262275" lon="13.1085167"><ele>797.4000000000001</ele><time>2026-04-11T15:19:08.123Z</time></trkpt><trkpt lat="43.262295" lon="13.1086383"><ele>792.8000000000001</ele><time>2026-04-11T15:19:09.123Z</time></trkpt><trkpt lat="43.2623183" lon="13.10876"><ele>788.2</ele><time>2026-04-11T15:19:10.123Z</time></trkpt><trkpt lat="43.2623233" lon="13.10889"><ele>783.6</ele><time>2026-04-11T15:19:11.123Z</time></trkpt><trkpt lat="43.2623317" lon="13.1090333"><ele>779.0</ele><time>2026-04-11T15:19:12.123Z</time></trkpt><trkpt lat="43.2623417" lon="13.10917"><ele>778.4000000000001</ele><time>2026-04-11T15:19:13.123Z</time></trkpt><trkpt lat="43.26237" lon="13.1093"><ele>777.8</ele><time>2026-04-11T15:19:14.123Z</time></trkpt><trkpt lat="43.2624033" lon="13.109415"><ele>777.2</ele><time>2026-04-11T15:19:15.123Z</time></trkpt><trkpt lat="43.262435" lon="13.1095217"><ele>776.5999999999999</ele><time>2026-04-11T15:19:16.123Z</time></trkpt><trkpt lat="43.2624667" lon="13.1096517"><ele>776.0</ele><time>2026-04-11T15:19:17.123Z</time></trkpt><trkpt lat="43.26251" lon="13.1097733"><ele>778.1999999999999</ele><time>2026-04-11T15:19:18.123Z</time></trkpt><trkpt lat="43.2625733" lon="13.10997"><ele>780.4</ele><time>2026-04-11T15:19:20.123Z</time></trkpt><trkpt lat="43.26261" lon="13.1100683"><ele>782.6</ele><time>2026-04-11T15:19:21.123Z</time></trkpt><trkpt lat="43.2626483" lon="13.110165"><ele>784.8</ele><time>2026-04-11T15:19:22.123Z</time></trkpt><trkpt lat="43.2626917" lon="13.11025"><ele>787.0</ele><time>2026-04-11T15:19:23.123Z</time></trkpt><trkpt lat="43.262735" lon="13.110345"><ele>786.9999999999999</ele><time>2026-04-11T15:19:24.123Z</time></trkpt><trkpt lat="43.2627767" lon="13.1104433"><ele>787.0</ele><time>2026-04-11T15:19:25.123Z</time></trkpt><trkpt lat="43.2628233" lon="13.1105467"><ele>787.0</ele><time>2026-04-11T15:19:26.123Z</time></trkpt><trkpt lat="43.2628617" lon="13.1106367"><ele>787.0</ele><time>2026-04-11T15:19:27.123Z</time></trkpt><trkpt lat="43.2628933" lon="13.1107183"><ele>786.9999999999999</ele><time>2026-04-11T15:19:28.123Z</time></trkpt><trkpt lat="43.26292" lon="13.1108067"><ele>787.0</ele><time>2026-04-11T15:19:29.123Z</time></trkpt><trkpt lat="43.2629583" lon="13.11091"><ele>788.0</ele><time>2026-04-11T15:19:30.123Z</time></trkpt><trkpt lat="43.2629883" lon="13.11104"><ele>789.0</ele><time>2026-04-11T15:19:31.123Z</time></trkpt><trkpt lat="43.2630183" lon="13.11119"><ele>790.0</ele><time>2026-04-11T15:19:32.123Z</time></trkpt><trkpt lat="43.2630517" lon="13.1113467"><ele>791.0</ele><time>2026-04-11T15:19:33.123Z</time></trkpt><trkpt lat="43.263085" lon="13.111495"><ele>792.0</ele><time>2026-04-11T15:19:34.123Z</time></trkpt><trkpt lat="43.2631067" lon="13.1116417"><ele>794.0</ele><time>2026-04-11T15:19:35.123Z</time></trkpt><trkpt lat="43.2631117" lon="13.1118133"><ele>796.0</ele><time>2026-04-11T15:19:36.123Z</time></trkpt><trkpt lat="43.26313" lon="13.1120117"><ele>798.0</ele><time>2026-04-11T15:19:37.123Z</time></trkpt><trkpt lat="43.2631483" lon="13.1122117"><ele>800.0</ele><time>2026-04-11T15:19:38.123Z</time></trkpt><trkpt lat="43.2631633" lon="13.1123983"><ele>779.3333333333334</ele><time>2026-04-11T15:19:39.123Z</time></trkpt><trkpt lat="43.2632083" lon="13.1127283"><ele>758.6666666666667</ele><time>2026-04-11T15:19:41.123Z</time></trkpt><trkpt lat="43.2632417" lon="13.1128817"><ele>738.0</ele><time>2026-04-11T15:19:42.124Z</time></trkpt><trkpt lat="43.2632817" lon="13.113055"><ele>741.25</ele><time>2026-04-11T15:19:43.123Z</time></trkpt><trkpt lat="43.2633317" lon="13.1132433"><ele>744.5</ele><time>2026-04-11T15:19:44.123Z</time></trkpt><trkpt lat="43.2633883" lon="13.11343"><ele>747.75</ele><time>2026-04-11T15:19:45.123Z</time></trkpt><trkpt lat="43.2634467" lon="13.11361"><ele>751.0</ele><time>2026-04-11T15:19:46.123Z</time></trkpt><trkpt lat="43.2634983" lon="13.1137867"><ele>751.0</ele><time>2026-04-11T15:19:47.123Z</time></trkpt><trkpt lat="43.2635533" lon="13.1139633"><ele>751.0</ele><time>2026-04-11T15:19:48.123Z</time></trkpt><trkpt lat="43.263605" lon="13.1141317"><ele>751.0</ele><time>2026-04-11T15:19:49.123Z</time></trkpt><trkpt lat="43.26366" lon="13.1143"><ele>751.0</ele><time>2026-04-11T15:19:50.123Z</time></trkpt><trkpt lat="43.2637167" lon="13.11446"><ele>754.5</ele><time>2026-04-11T15:19:51.123Z</time></trkpt><trkpt lat="43.2637717" lon="13.1146033"><ele>758.0</ele><time>2026-04-11T15:19:52.123Z</time></trkpt><trkpt lat="43.26383" lon="13.1147367"><ele>761.5</ele><time>2026-04-11T15:19:53.123Z</time></trkpt><trkpt lat="43.2638933" lon="13.1148883"><ele>765.0</ele><time>2026-04-11T15:19:54.123Z</time></trkpt><trkpt lat="43.26396" lon="13.1150467"><ele>753.5</ele><time>2026-04-11T15:19:55.123Z</time></trkpt><trkpt lat="43.26403" lon="13.11521"><ele>742.0</ele><time>2026-04-11T15:19:56.123Z</time></trkpt><trkpt lat="43.2640883" lon="13.1153617"><ele>730.5</ele><time>2026-04-11T15:19:57.123Z</time></trkpt><trkpt lat="43.26414" lon="13.1155083"><ele>719.0</ele><time>2026-04-11T15:19:58.123Z</time></trkpt><trkpt lat="43.2641983" lon="13.11566"><ele>723.0</ele><time>2026-04-11T15:19:59.123Z</time></trkpt><trkpt lat="43.26424" lon="13.1158267"><ele>727.0</ele><time>2026-04-11T15:20:00.123Z</time></trkpt><trkpt lat="43.264325" lon="13.1161683"><ele>731.0</ele><time>2026-04-11T15:20:02.123Z</time></trkpt><trkpt lat="43.26437" lon="13.1163517"><ele>731.0</ele><time>2026-04-11T15:20:03.123Z</time></trkpt><trkpt lat="43.2644217" lon="13.1165333"><ele>731.0</ele><time>2026-04-11T15:20:04.123Z</time></trkpt><trkpt lat="43.2644733" lon="13.11671"><ele>731.0</ele><time>2026-04-11T15:20:05.123Z</time></trkpt><trkpt lat="43.2645383" lon="13.11687"><ele>731.0</ele><time>2026-04-11T15:20:06.123Z</time></trkpt><trkpt lat="43.2645933" lon="13.11702"><ele>732.6666666666666</ele><time>2026-04-11T15:20:07.123Z</time></trkpt><trkpt lat="43.2646333" lon="13.117145"><ele>734.3333333333333</ele><time>2026-04-11T15:20:08.123Z</time></trkpt><trkpt lat="43.2646667" lon="13.1172433"><ele>736.0</ele><time>2026-04-11T15:20:09.123Z</time></trkpt><trkpt lat="43.2646867" lon="13.11733"><ele>737.6666666666666</ele><time>2026-04-11T15:20:10.123Z</time></trkpt><trkpt lat="43.2646917" lon="13.1174217"><ele>739.3333333333334</ele><time>2026-04-11T15:20:11.123Z</time></trkpt><trkpt lat="43.264675" lon="13.1175367"><ele>741.0</ele><time>2026-04-11T15:20:12.123Z</time></trkpt><trkpt lat="43.2646583" lon="13.1176817"><ele>742.75</ele><time>2026-04-11T15:20:13.123Z</time></trkpt><trkpt lat="43.2646417" lon="13.1178483"><ele>744.5</ele><time>2026-04-11T15:20:14.123Z</time></trkpt><trkpt lat="43.2646383" lon="13.1180317"><ele>746.25</ele><time>2026-04-11T15:20:15.123Z</time></trkpt><trkpt lat="43.2646283" lon="13.1182217"><ele>748.0</ele><time>2026-04-11T15:20:16.123Z</time></trkpt><trkpt lat="43.2646233" lon="13.1184283"><ele>748.25</ele><time>2026-04-11T15:20:17.124Z</time></trkpt><trkpt lat="43.2646267" lon="13.1186433"><ele>748.5</ele><time>2026-04-11T15:20:18.123Z</time></trkpt><trkpt lat="43.2646383" lon="13.1188467"><ele>748.75</ele><time>2026-04-11T15:20:19.123Z</time></trkpt><trkpt lat="43.2646633" lon="13.119015"><ele>749.0</ele><time>2026-04-11T15:20:20.123Z</time></trkpt><trkpt lat="43.264705" lon="13.1191617"><ele>733.3333333333333</ele><time>2026-04-11T15:20:21.123Z</time></trkpt><trkpt lat="43.2647917" lon="13.1194733"><ele>717.6666666666666</ele><time>2026-04-11T15:20:23.123Z</time></trkpt><trkpt lat="43.26484" lon="13.1196383"><ele>702.0</ele><time>2026-04-11T15:20:24.123Z</time></trkpt><trkpt lat="43.264885" lon="13.1197867"><ele>704.25</ele><time>2026-04-11T15:20:25.123Z</time></trkpt><trkpt lat="43.26492" lon="13.1199317"><ele>706.5</ele><time>2026-04-11T15:20:26.123Z</time></trkpt><trkpt lat="43.2649417" lon="13.1200833"><ele>708.75</ele><time>2026-04-11T15:20:27.123Z</time></trkpt><trkpt lat="43.2649417" lon="13.1202533"><ele>711.0</ele><time>2026-04-11T15:20:28.123Z</time></trkpt><trkpt lat="43.264935" lon="13.1204283"><ele>711.0</ele><time>2026-04-11T15:20:29.123Z</time></trkpt><trkpt lat="43.2649267" lon="13.1206267"><ele>711.0</ele><time>2026-04-11T15:20:30.123Z</time></trkpt><trkpt lat="43.2649117" lon="13.120805"><ele>711.0</ele><time>2026-04-11T15:20:31.123Z</time></trkpt><trkpt lat="43.2649067" lon="13.1209583"><ele>711.0</ele><time>2026-04-11T15:20:32.123Z</time></trkpt><trkpt lat="43.26488" lon="13.121095"><ele>711.1666666666666</ele><time>2026-04-11T15:20:33.123Z</time></trkpt><trkpt lat="43.2648567" lon="13.1212183"><ele>711.3333333333334</ele><time>2026-04-11T15:20:34.123Z</time></trkpt><trkpt lat="43.2648267" lon="13.1213283"><ele>711.5</ele><time>2026-04-11T15:20:35.123Z</time></trkpt><trkpt lat="43.2647783" lon="13.1214217"><ele>711.6666666666667</ele><time>2026-04-11T15:20:36.124Z</time></trkpt><trkpt lat="43.2647217" lon="13.1214983"><ele>711.8333333333334</ele><time>2026-04-11T15:20:37.123Z</time></trkpt><trkpt lat="43.2646467" lon="13.1215667"><ele>712.0</ele><time>2026-04-11T15:20:38.123Z</time></trkpt><trkpt lat="43.2645717" lon="13.12166"><ele>712.8</ele><time>2026-04-11T15:20:39.123Z</time></trkpt><trkpt lat="43.2645183" lon="13.1217633"><ele>713.6</ele><time>2026-04-11T15:20:40.123Z</time></trkpt><trkpt lat="43.26448" lon="13.1218733"><ele>714.4</ele><time>2026-04-11T15:20:41.124Z</time></trkpt><trkpt lat="43.2644667" lon="13.1219917"><ele>715.1999999999999</ele><time>2026-04-11T15:20:42.123Z</time></trkpt><trkpt lat="43.2644733" lon="13.1221983"><ele>716.0</ele><time>2026-04-11T15:20:44.123Z</time></trkpt><trkpt lat="43.2644733" lon="13.12232"><ele>713.0</ele><time>2026-04-11T15:20:45.124Z</time></trkpt><trkpt lat="43.2644617" lon="13.1224583"><ele>710.0</ele><time>2026-04-11T15:20:46.123Z</time></trkpt><trkpt lat="43.2644617" lon="13.12259"><ele>707.0</ele><time>2026-04-11T15:20:47.123Z</time></trkpt><trkpt lat="43.26446" lon="13.1226983"><ele>704.0</ele><time>2026-04-11T15:20:48.123Z</time></trkpt><trkpt lat="43.2644633" lon="13.1228117"><ele>701.0</ele><time>2026-04-11T15:20:49.123Z</time></trkpt><trkpt lat="43.2644533" lon="13.1229483"><ele>701.0</ele><time>2026-04-11T15:20:50.123Z</time></trkpt><trkpt lat="43.264435" lon="13.1230967"><ele>701.0</ele><time>2026-04-11T15:20:51.123Z</time></trkpt><trkpt lat="43.2644083" lon="13.1232483"><ele>701.0</ele><time>2026-04-11T15:20:52.123Z</time></trkpt><trkpt lat="43.2643833" lon="13.123385"><ele>701.0</ele><time>2026-04-11T15:20:53.123Z</time></trkpt><trkpt lat="43.264355" lon="13.1235183"><ele>701.0</ele><time>2026-04-11T15:20:54.123Z</time></trkpt><trkpt lat="43.264335" lon="13.1236567"><ele>698.4</ele><time>2026-04-11T15:20:55.123Z</time></trkpt><trkpt lat="43.2643233" lon="13.12379"><ele>695.8</ele><time>2026-04-11T15:20:56.123Z</time></trkpt><trkpt lat="43.2643117" lon="13.1239017"><ele>693.1999999999999</ele><time>2026-04-11T15:20:57.123Z</time></trkpt><trkpt lat="43.2642917" lon="13.1240233"><ele>690.5999999999999</ele><time>2026-04-11T15:20:58.123Z</time></trkpt><trkpt lat="43.2642633" lon="13.12416"><ele>688.0</ele><time>2026-04-11T15:20:59.123Z</time></trkpt><trkpt lat="43.2642267" lon="13.1243117"><ele>684.5</ele><time>2026-04-11T15:21:00.123Z</time></trkpt><trkpt lat="43.2641917" lon="13.1244633"><ele>681.0</ele><time>2026-04-11T15:21:01.123Z</time></trkpt><trkpt lat="43.2641533" lon="13.1246233"><ele>677.5</ele><time>2026-04-11T15:21:02.124Z</time></trkpt><trkpt lat="43.2641167" lon="13.1247833"><ele>674.0</ele><time>2026-04-11T15:21:03.123Z</time></trkpt><trkpt lat="43.2640733" lon="13.12508"><ele>670.75</ele><time>2026-04-11T15:21:05.123Z</time></trkpt><trkpt lat="43.2640667" lon="13.1252333"><ele>667.5</ele><time>2026-04-11T15:21:06.123Z</time></trkpt><trkpt lat="43.2640583" lon="13.125405"><ele>664.25</ele><time>2026-04-11T15:21:07.123Z</time></trkpt><trkpt lat="43.26406" lon="13.12557"><ele>661.0</ele><time>2026-04-11T15:21:08.123Z</time></trkpt><trkpt lat="43.2640633" lon="13.12573"><ele>658.0</ele><time>2026-04-11T15:21:09.123Z</time></trkpt><trkpt lat="43.2640667" lon="13.1258733"><ele>655.0</ele><time>2026-04-11T15:21:10.123Z</time></trkpt><trkpt lat="43.2640783" lon="13.12602"><ele>652.0</ele><time>2026-04-11T15:21:11.123Z</time></trkpt><trkpt lat="43.264085" lon="13.1261667"><ele>649.0</ele><time>2026-04-11T15:21:12.123Z</time></trkpt><trkpt lat="43.2640967" lon="13.1263017"><ele>646.0</ele><time>2026-04-11T15:21:13.123Z</time></trkpt><trkpt lat="43.264115" lon="13.1264267"><ele>646.0</ele><time>2026-04-11T15:21:14.123Z</time></trkpt><trkpt lat="43.264145" lon="13.1265533"><ele>646.0</ele><time>2026-04-11T15:21:15.123Z</time></trkpt><trkpt lat="43.2641867" lon="13.12669"><ele>646.0</ele><time>2026-04-11T15:21:16.123Z</time></trkpt><trkpt lat="43.2642367" lon="13.1268167"><ele>646.0</ele><time>2026-04-11T15:21:17.123Z</time></trkpt><trkpt lat="43.2642967" lon="13.1269583"><ele>646.0</ele><time>2026-04-11T15:21:18.123Z</time></trkpt><trkpt lat="43.2643583" lon="13.1270933"><ele>643.0</ele><time>2026-04-11T15:21:19.123Z</time></trkpt><trkpt lat="43.2644233" lon="13.1272333"><ele>640.0</ele><time>2026-04-11T15:21:20.123Z</time></trkpt><trkpt lat="43.264485" lon="13.1273867"><ele>637.0</ele><time>2026-04-11T15:21:21.123Z</time></trkpt><trkpt lat="43.2645483" lon="13.1275517"><ele>634.0</ele><time>2026-04-11T15:21:22.124Z</time></trkpt><trkpt lat="43.2646" lon="13.1277067"><ele>629.5</ele><time>2026-04-11T15:21:23.123Z</time></trkpt><trkpt lat="43.264635" lon="13.1278533"><ele>625.0</ele><time>2026-04-11T15:21:24.123Z</time></trkpt><trkpt lat="43.2646583" lon="13.1281367"><ele>620.5</ele><time>2026-04-11T15:21:26.123Z</time></trkpt><trkpt lat="43.264675" lon="13.12829"><ele>616.0</ele><time>2026-04-11T15:21:27.123Z</time></trkpt><trkpt lat="43.2647033" lon="13.1284517"><ele>616.5</ele><time>2026-04-11T15:21:28.123Z</time></trkpt><trkpt lat="43.2647383" lon="13.1286367"><ele>617.0</ele><time>2026-04-11T15:21:29.123Z</time></trkpt><trkpt lat="43.2647833" lon="13.128845"><ele>617.5</ele><time>2026-04-11T15:21:30.123Z</time></trkpt><trkpt lat="43.264825" lon="13.129035"><ele>618.0</ele><time>2026-04-11T15:21:31.123Z</time></trkpt><trkpt lat="43.2648733" lon="13.12919"><ele>618.1999999999999</ele><time>2026-04-11T15:21:32.123Z</time></trkpt><trkpt lat="43.2649133" lon="13.1293183"><ele>618.4</ele><time>2026-04-11T15:21:33.123Z</time></trkpt><trkpt lat="43.2649617" lon="13.1294383"><ele>618.5999999999999</ele><time>2026-04-11T15:21:34.124Z</time></trkpt><trkpt lat="43.2650183" lon="13.1295633"><ele>618.8</ele><time>2026-04-11T15:21:35.123Z</time></trkpt><trkpt lat="43.26507" lon="13.129685"><ele>619.0</ele><time>2026-04-11T15:21:36.123Z</time></trkpt><trkpt lat="43.2651367" lon="13.12979"><ele>619.0</ele><time>2026-04-11T15:21:37.123Z</time></trkpt><trkpt lat="43.2652117" lon="13.1298783"><ele>619.0</ele><time>2026-04-11T15:21:38.123Z</time></trkpt><trkpt lat="43.26529" lon="13.1299667"><ele>619.0</ele><time>2026-04-11T15:21:39.123Z</time></trkpt><trkpt lat="43.265365" lon="13.1300633"><ele>619.0</ele><time>2026-04-11T15:21:40.123Z</time></trkpt><trkpt lat="43.2654517" lon="13.130165"><ele>619.0</ele><time>2026-04-11T15:21:41.123Z</time></trkpt><trkpt lat="43.2655467" lon="13.1302767"><ele>619.0</ele><time>2026-04-11T15:21:42.123Z</time></trkpt><trkpt lat="43.2656333" lon="13.1303817"><ele>619.0</ele><time>2026-04-11T15:21:43.123Z</time></trkpt><trkpt lat="43.265705" lon="13.13049"><ele>619.0</ele><time>2026-04-11T15:21:44.123Z</time></trkpt><trkpt lat="43.2657567" lon="13.130595"><ele>619.0</ele><time>2026-04-11T15:21:45.123Z</time></trkpt><trkpt lat="43.2658367" lon="13.1308367"><ele>620.75</ele><time>2026-04-11T15:21:47.123Z</time></trkpt><trkpt lat="43.2658767" lon="13.1309733"><ele>622.5</ele><time>2026-04-11T15:21:48.123Z</time></trkpt><trkpt lat="43.2659233" lon="13.1311233"><ele>624.25</ele><time>2026-04-11T15:21:49.123Z</time></trkpt><trkpt lat="43.2659683" lon="13.1312867"><ele>626.0</ele><time>2026-04-11T15:21:50.124Z</time></trkpt><trkpt lat="43.2660167" lon="13.131455"><ele>627.0</ele><time>2026-04-11T15:21:51.123Z</time></trkpt><trkpt lat="43.2660567" lon="13.1316233"><ele>628.0</ele><time>2026-04-11T15:21:52.123Z</time></trkpt><trkpt lat="43.2661" lon="13.1317967"><ele>629.0</ele><time>2026-04-11T15:21:53.123Z</time></trkpt><trkpt lat="43.2661317" lon="13.1319617"><ele>630.0</ele><time>2026-04-11T15:21:54.123Z</time></trkpt><trkpt lat="43.2661683" lon="13.13212"><ele>630.0</ele><time>2026-04-11T15:21:55.123Z</time></trkpt><trkpt lat="43.266195" lon="13.1322367"><ele>630.0</ele><time>2026-04-11T15:21:56.123Z</time></trkpt><trkpt lat="43.2662283" lon="13.1323467"><ele>630.0</ele><time>2026-04-11T15:21:57.123Z</time></trkpt><trkpt lat="43.2662733" lon="13.1324583"><ele>630.0</ele><time>2026-04-11T15:21:58.123Z</time></trkpt><trkpt lat="43.2663367" lon="13.1325717"><ele>630.0</ele><time>2026-04-11T15:21:59.123Z</time></trkpt><trkpt lat="43.2664133" lon="13.1326983"><ele>630.25</ele><time>2026-04-11T15:22:00.123Z</time></trkpt><trkpt lat="43.266495" lon="13.1328217"><ele>630.5</ele><time>2026-04-11T15:22:01.123Z</time></trkpt><trkpt lat="43.26658" lon="13.1329433"><ele>630.75</ele><time>2026-04-11T15:22:02.123Z</time></trkpt><trkpt lat="43.266655" lon="13.13305"><ele>631.0</ele><time>2026-04-11T15:22:03.123Z</time></trkpt><trkpt lat="43.2667317" lon="13.1331517"><ele>630.75</ele><time>2026-04-11T15:22:04.123Z</time></trkpt><trkpt lat="43.2668067" lon="13.133235"><ele>630.5</ele><time>2026-04-11T15:22:05.123Z</time></trkpt><trkpt lat="43.2668867" lon="13.1333317"><ele>630.25</ele><time>2026-04-11T15:22:06.123Z</time></trkpt><trkpt lat="43.2670733" lon="13.1335183"><ele>630.0</ele><time>2026-04-11T15:22:08.123Z</time></trkpt><trkpt lat="43.267185" lon="13.13362"><ele>628.75</ele><time>2026-04-11T15:22:09.123Z</time></trkpt><trkpt lat="43.2672933" lon="13.1337167"><ele>627.5</ele><time>2026-04-11T15:22:10.123Z</time></trkpt><trkpt lat="43.2673933" lon="13.1338183"><ele>626.25</ele><time>2026-04-11T15:22:11.123Z</time></trkpt><trkpt lat="43.2674883" lon="13.1339183"><ele>625.0</ele><time>2026-04-11T15:22:12.123Z</time></trkpt><trkpt lat="43.2675783" lon="13.1340083"><ele>624.0</ele><time>2026-04-11T15:22:13.123Z</time></trkpt><trkpt lat="43.2676617" lon="13.1341233"><ele>623.0</ele><time>2026-04-11T15:22:14.123Z</time></trkpt><trkpt lat="43.26774" lon="13.1342433"><ele>622.0</ele><time>2026-04-11T15:22:15.123Z</time></trkpt><trkpt lat="43.2678017" lon="13.134365"><ele>621.0</ele><time>2026-04-11T15:22:16.123Z</time></trkpt><trkpt lat="43.267845" lon="13.1344867"><ele>620.0</ele><time>2026-04-11T15:22:17.123Z</time></trkpt><trkpt lat="43.26787" lon="13.1345967"><ele>620.0</ele><time>2026-04-11T15:22:18.123Z</time></trkpt><trkpt lat="43.2678867" lon="13.1347033"><ele>620.0</ele><time>2026-04-11T15:22:19.123Z</time></trkpt><trkpt lat="43.2678867" lon="13.134805"><ele>620.0</ele><time>2026-04-11T15:22:20.123Z</time></trkpt><trkpt lat="43.2678833" lon="13.1349083"><ele>620.0</ele><time>2026-04-11T15:22:21.123Z</time></trkpt><trkpt lat="43.2678817" lon="13.1350167"><ele>620.0</ele><time>2026-04-11T15:22:22.123Z</time></trkpt><trkpt lat="43.2678717" lon="13.1351267"><ele>620.0</ele><time>2026-04-11T15:22:23.123Z</time></trkpt><trkpt lat="43.26787" lon="13.135225"><ele>619.0</ele><time>2026-04-11T15:22:24.124Z</time></trkpt><trkpt lat="43.267905" lon="13.135385"><ele>618.0</ele><time>2026-04-11T15:22:26.123Z</time></trkpt><trkpt lat="43.2679883" lon="13.1355217"><ele>617.0</ele><time>2026-04-11T15:22:28.123Z</time></trkpt><trkpt lat="43.26813" lon="13.1356217"><ele>616.0</ele><time>2026-04-11T15:22:30.123Z</time></trkpt><trkpt lat="43.268205" lon="13.1356583"><ele>616.0</ele><time>2026-04-11T15:22:31.123Z</time></trkpt><trkpt lat="43.2682917" lon="13.1357067"><ele>616.0</ele><time>2026-04-11T15:22:32.123Z</time></trkpt><trkpt lat="43.2683867" lon="13.1357667"><ele>616.0</ele><time>2026-04-11T15:22:33.123Z</time></trkpt><trkpt lat="43.268475" lon="13.1358267"><ele>616.0</ele><time>2026-04-11T15:22:34.123Z</time></trkpt><trkpt lat="43.26855" lon="13.1358817"><ele>616.0</ele><time>2026-04-11T15:22:35.123Z</time></trkpt><trkpt lat="43.2686217" lon="13.1359517"><ele>618.0</ele><time>2026-04-11T15:22:36.123Z</time></trkpt><trkpt lat="43.26869" lon="13.1360233"><ele>620.0</ele><time>2026-04-11T15:22:37.123Z</time></trkpt><trkpt lat="43.2687533" lon="13.1361133"><ele>622.0</ele><time>2026-04-11T15:22:38.123Z</time></trkpt><trkpt lat="43.2688183" lon="13.1362367"><ele>624.0</ele><time>2026-04-11T15:22:39.123Z</time></trkpt><trkpt lat="43.2688817" lon="13.136375"><ele>626.0</ele><time>2026-04-11T15:22:40.123Z</time></trkpt><trkpt lat="43.2689467" lon="13.1364783"><ele>628.0</ele><time>2026-04-11T15:22:41.123Z</time></trkpt><trkpt lat="43.2690367" lon="13.13656"><ele>630.0</ele><time>2026-04-11T15:22:42.123Z</time></trkpt><trkpt lat="43.269145" lon="13.1366333"><ele>632.0</ele><time>2026-04-11T15:22:43.123Z</time></trkpt><trkpt lat="43.2692533" lon="13.136695"><ele>634.0</ele><time>2026-04-11T15:22:44.123Z</time></trkpt><trkpt lat="43.2693417" lon="13.136745"><ele>636.0</ele><time>2026-04-11T15:22:45.123Z</time></trkpt><trkpt lat="43.2694033" lon="13.1368"><ele>636.0</ele><time>2026-04-11T15:22:46.123Z</time></trkpt><trkpt lat="43.2694583" lon="13.136875"><ele>636.0</ele><time>2026-04-11T15:22:47.123Z</time></trkpt><trkpt lat="43.2695117" lon="13.1369833"><ele>636.0</ele><time>2026-04-11T15:22:48.123Z</time></trkpt><trkpt lat="43.2695467" lon="13.137105"><ele>636.0</ele><time>2026-04-11T15:22:49.123Z</time></trkpt><trkpt lat="43.2695617" lon="13.137335"><ele>636.0</ele><time>2026-04-11T15:22:52.123Z</time></trkpt><trkpt lat="43.2695383" lon="13.13743"><ele>635.3333333333334</ele><time>2026-04-11T15:22:54.123Z</time></trkpt><trkpt lat="43.2695283" lon="13.137545"><ele>634.6666666666666</ele><time>2026-04-11T15:22:56.123Z</time></trkpt><trkpt lat="43.2695417" lon="13.1376483"><ele>634.0</ele><time>2026-04-11T15:22:58.123Z</time></trkpt><trkpt lat="43.269595" lon="13.1377017"><ele>633.3333333333333</ele><time>2026-04-11T15:23:00.123Z</time></trkpt><trkpt lat="43.2696783" lon="13.1377133"><ele>632.6666666666666</ele><time>2026-04-11T15:23:02.123Z</time></trkpt><trkpt lat="43.2697717" lon="13.1377533"><ele>632.0</ele><time>2026-04-11T15:23:04.123Z</time></trkpt><trkpt lat="43.269825" lon="13.1378067"><ele>631.6666666666666</ele><time>2026-04-11T15:23:05.123Z</time></trkpt><trkpt lat="43.269875" lon="13.1378817"><ele>631.3333333333333</ele><time>2026-04-11T15:23:06.123Z</time></trkpt><trkpt lat="43.2699333" lon="13.13795"><ele>631.0</ele><time>2026-04-11T15:23:07.123Z</time></trkpt><trkpt lat="43.26999" lon="13.13801"><ele>630.6666666666666</ele><time>2026-04-11T15:23:08.123Z</time></trkpt><trkpt lat="43.2700533" lon="13.138055"><ele>630.3333333333334</ele><time>2026-04-11T15:23:09.123Z</time></trkpt><trkpt lat="43.2701217" lon="13.138075"><ele>630.0</ele><time>2026-04-11T15:23:10.123Z</time></trkpt><trkpt lat="43.270265" lon="13.138115"><ele>630.0</ele><time>2026-04-11T15:23:12.123Z</time></trkpt><trkpt lat="43.2703467" lon="13.1381417"><ele>630.0</ele><time>2026-04-11T15:23:13.123Z</time></trkpt><trkpt lat="43.2704217" lon="13.13817"><ele>630.0</ele><time>2026-04-11T15:23:14.123Z</time></trkpt><trkpt lat="43.27049" lon="13.13821"><ele>630.0</ele><time>2026-04-11T15:23:15.123Z</time></trkpt><trkpt lat="43.27055" lon="13.1382383"><ele>630.0</ele><time>2026-04-11T15:23:16.123Z</time></trkpt><trkpt lat="43.2706383" lon="13.1382767"><ele>630.0</ele><time>2026-04-11T15:23:18.123Z</time></trkpt><trkpt lat="43.2707117" lon="13.138355"><ele>625.25</ele><time>2026-04-11T15:23:20.123Z</time></trkpt><trkpt lat="43.27077" lon="13.1384717"><ele>620.5</ele><time>2026-04-11T15:23:22.123Z</time></trkpt><trkpt lat="43.2708033" lon="13.1386233"><ele>615.75</ele><time>2026-04-11T15:23:24.123Z</time></trkpt><trkpt lat="43.2708217" lon="13.1387817"><ele>611.0</ele><time>2026-04-11T15:23:26.123Z</time></trkpt><trkpt lat="43.2708517" lon="13.1389383"><ele>608.5</ele><time>2026-04-11T15:23:28.123Z</time></trkpt><trkpt lat="43.2708483" lon="13.1390567"><ele>606.0</ele><time>2026-04-11T15:23:30.123Z</time></trkpt><trkpt lat="43.27082" lon="13.139245"><ele>603.5</ele><time>2026-04-11T15:23:32.123Z</time></trkpt><trkpt lat="43.2708033" lon="13.1394683"><ele>601.0</ele><time>2026-04-11T15:23:34.123Z</time></trkpt><trkpt lat="43.2708067" lon="13.1395667"><ele>601.0</ele><time>2026-04-11T15:23:35.123Z</time></trkpt><trkpt lat="43.2708017" lon="13.1397233"><ele>601.0</ele><time>2026-04-11T15:23:37.123Z</time></trkpt><trkpt lat="43.2708" lon="13.1398817"><ele>601.0</ele><time>2026-04-11T15:23:39.123Z</time></trkpt><trkpt lat="43.2707917" lon="13.13997"><ele>601.0</ele><time>2026-04-11T15:23:40.123Z</time></trkpt><trkpt lat="43.270785" lon="13.1400733"><ele>601.0</ele><time>2026-04-11T15:23:41.123Z</time></trkpt><trkpt lat="43.2707817" lon="13.140165"><ele>601.0</ele><time>2026-04-11T15:23:42.123Z</time></trkpt><trkpt lat="43.2708017" lon="13.1402783"><ele>598.6</ele><time>2026-04-11T15:23:44.123Z</time></trkpt><trkpt lat="43.2708033" lon="13.1403767"><ele>596.2</ele><time>2026-04-11T15:23:46.123Z</time></trkpt><trkpt lat="43.27081" lon="13.1405017"><ele>593.8</ele><time>2026-04-11T15:23:48.124Z</time></trkpt><trkpt lat="43.2708333" lon="13.1406733"><ele>591.4</ele><time>2026-04-11T15:23:50.123Z</time></trkpt><trkpt lat="43.270845" lon="13.140765"><ele>589.0</ele><time>2026-04-11T15:23:51.123Z</time></trkpt><trkpt lat="43.2708183" lon="13.1409"><ele>586.6</ele><time>2026-04-11T15:23:53.123Z</time></trkpt><trkpt lat="43.27074" lon="13.1410633"><ele>584.2</ele><time>2026-04-11T15:23:55.123Z</time></trkpt><trkpt lat="43.2706883" lon="13.1412117"><ele>581.8000000000001</ele><time>2026-04-11T15:23:57.123Z</time></trkpt><trkpt lat="43.2706683" lon="13.141295"><ele>579.4</ele><time>2026-04-11T15:23:58.123Z</time></trkpt><trkpt lat="43.270615" lon="13.1414033"><ele>577.0</ele><time>2026-04-11T15:24:00.123Z</time></trkpt><trkpt lat="43.270545" lon="13.14144"><ele>576.0</ele><time>2026-04-11T15:24:02.123Z</time></trkpt><trkpt lat="43.27042" lon="13.1414733"><ele>575.0</ele><time>2026-04-11T15:25:06.123Z</time></trkpt><trkpt lat="43.27039" lon="13.1416833"><ele>574.0</ele><time>2026-04-11T15:26:48.123Z</time></trkpt><trkpt lat="43.27053" lon="13.1418467"><ele>571.6</ele><time>2026-04-11T15:26:52.123Z</time></trkpt><trkpt lat="43.2706033" lon="13.1419567"><ele>569.2</ele><time>2026-04-11T15:26:54.123Z</time></trkpt><trkpt lat="43.270655" lon="13.1420917"><ele>566.8000000000001</ele><time>2026-04-11T15:26:56.123Z</time></trkpt><trkpt lat="43.2706933" lon="13.1422167"><ele>564.4</ele><time>2026-04-11T15:26:58.123Z</time></trkpt><trkpt lat="43.2707383" lon="13.1423517"><ele>562.0</ele><time>2026-04-11T15:27:00.123Z</time></trkpt><trkpt lat="43.2707617" lon="13.142445"><ele>559.0</ele><time>2026-04-11T15:27:02.123Z</time></trkpt><trkpt lat="43.2707683" lon="13.1425483"><ele>556.0</ele><time>2026-04-11T15:27:04.123Z</time></trkpt><trkpt lat="43.2707433" lon="13.1426283"><ele>553.0</ele><time>2026-04-11T15:27:06.123Z</time></trkpt><trkpt lat="43.2706783" lon="13.1427167"><ele>550.0</ele><time>2026-04-11T15:27:08.123Z</time></trkpt><trkpt lat="43.27062" lon="13.14281"><ele>547.0</ele><time>2026-04-11T15:27:10.123Z</time></trkpt><trkpt lat="43.27059" lon="13.1430567"><ele>547.0</ele><time>2026-04-11T15:27:14.123Z</time></trkpt><trkpt lat="43.2706183" lon="13.1431633"><ele>547.0</ele><time>2026-04-11T15:27:16.123Z</time></trkpt><trkpt lat="43.2706517" lon="13.1432433"><ele>547.0</ele><time>2026-04-11T15:27:18.123Z</time></trkpt><trkpt lat="43.2707033" lon="13.1433233"><ele>547.0</ele><time>2026-04-11T15:27:21.123Z</time></trkpt><trkpt lat="43.2707517" lon="13.14339"><ele>547.0</ele><time>2026-04-11T15:27:24.123Z</time></trkpt><trkpt lat="43.2707933" lon="13.14347"><ele>547.0</ele><time>2026-04-11T15:27:28.123Z</time></trkpt><trkpt lat="43.270845" lon="13.143565"><ele>543.8000000000001</ele><time>2026-04-11T15:27:31.123Z</time></trkpt><trkpt lat="43.2710017" lon="13.1437817"><ele>540.6</ele><time>2026-04-11T15:27:35.124Z</time></trkpt><trkpt lat="43.27105" lon="13.143855"><ele>537.4000000000001</ele><time>2026-04-11T15:27:36.123Z</time></trkpt><trkpt lat="43.2710933" lon="13.1439233"><ele>534.2</ele><time>2026-04-11T15:27:37.123Z</time></trkpt><trkpt lat="43.2711433" lon="13.143985"><ele>531.0</ele><time>2026-04-11T15:27:38.123Z</time></trkpt><trkpt lat="43.2711833" lon="13.1440767"><ele>529.0</ele><time>2026-04-11T15:27:39.124Z</time></trkpt><trkpt lat="43.271215" lon="13.1441833"><ele>527.0</ele><time>2026-04-11T15:27:40.123Z</time></trkpt><trkpt lat="43.2712283" lon="13.14429"><ele>525.0</ele><time>2026-04-11T15:27:41.123Z</time></trkpt><trkpt lat="43.2712383" lon="13.1444067"><ele>523.0</ele><time>2026-04-11T15:27:42.123Z</time></trkpt><trkpt lat="43.2712467" lon="13.1445267"><ele>521.0</ele><time>2026-04-11T15:27:43.123Z</time></trkpt><trkpt lat="43.271245" lon="13.14465"><ele>519.0</ele><time>2026-04-11T15:27:44.123Z</time></trkpt><trkpt lat="43.2712467" lon="13.1447517"><ele>519.0</ele><time>2026-04-11T15:27:45.123Z</time></trkpt><trkpt lat="43.2712467" lon="13.144845"><ele>519.0</ele><time>2026-04-11T15:27:46.123Z</time></trkpt><trkpt lat="43.27124" lon="13.1449917"><ele>519.0</ele><time>2026-04-11T15:27:48.123Z</time></trkpt><trkpt lat="43.271205" lon="13.1451333"><ele>519.0</ele><time>2026-04-11T15:27:50.123Z</time></trkpt><trkpt lat="43.2711933" lon="13.1452983"><ele>519.0</ele><time>2026-04-11T15:27:52.123Z</time></trkpt><trkpt lat="43.2712517" lon="13.1455167"><ele>517.75</ele><time>2026-04-11T15:27:54.123Z</time></trkpt><trkpt lat="43.2712917" lon="13.1456533"><ele>516.5</ele><time>2026-04-11T15:27:55.123Z</time></trkpt><trkpt lat="43.2713333" lon="13.145795"><ele>515.25</ele><time>2026-04-11T15:27:56.123Z</time></trkpt><trkpt lat="43.2713817" lon="13.1459483"><ele>514.0</ele><time>2026-04-11T15:27:57.123Z</time></trkpt><trkpt lat="43.2714383" lon="13.14609"><ele>514.2</ele><time>2026-04-11T15:27:58.123Z</time></trkpt><trkpt lat="43.2714917" lon="13.1462283"><ele>514.4</ele><time>2026-04-11T15:27:59.123Z</time></trkpt><trkpt lat="43.2715383" lon="13.1463583"><ele>514.6</ele><time>2026-04-11T15:28:00.123Z</time></trkpt><trkpt lat="43.2716033" lon="13.1464867"><ele>514.8</ele><time>2026-04-11T15:28:01.123Z</time></trkpt><trkpt lat="43.2716733" lon="13.1466017"><ele>515.0</ele><time>2026-04-11T15:28:02.123Z</time></trkpt><trkpt lat="43.2717533" lon="13.1467267"><ele>515.4</ele><time>2026-04-11T15:28:03.123Z</time></trkpt><trkpt lat="43.27183" lon="13.1468517"><ele>515.8</ele><time>2026-04-11T15:28:04.123Z</time></trkpt><trkpt lat="43.2718917" lon="13.14697"><ele>516.2</ele><time>2026-04-11T15:28:05.123Z</time></trkpt><trkpt lat="43.2719567" lon="13.1470717"><ele>516.6</ele><time>2026-04-11T15:28:06.123Z</time></trkpt><trkpt lat="43.2720267" lon="13.147165"><ele>517.0</ele><time>2026-04-11T15:28:07.123Z</time></trkpt><trkpt lat="43.2720917" lon="13.1472483"><ele>517.0</ele><time>2026-04-11T15:28:08.123Z</time></trkpt><trkpt lat="43.2721517" lon="13.1473367"><ele>517.0</ele><time>2026-04-11T15:28:09.123Z</time></trkpt><trkpt lat="43.272215" lon="13.1474233"><ele>517.0</ele><time>2026-04-11T15:28:10.123Z</time></trkpt><trkpt lat="43.272285" lon="13.1474967"><ele>517.0</ele><time>2026-04-11T15:28:11.123Z</time></trkpt><trkpt lat="43.2723583" lon="13.14757"><ele>517.0</ele><time>2026-04-11T15:28:12.123Z</time></trkpt><trkpt lat="43.2724267" lon="13.1476283"><ele>517.0</ele><time>2026-04-11T15:28:13.123Z</time></trkpt><trkpt lat="43.2725467" lon="13.1477783"><ele>518.25</ele><time>2026-04-11T15:28:15.123Z</time></trkpt><trkpt lat="43.2726067" lon="13.1479083"><ele>519.5</ele><time>2026-04-11T15:28:16.123Z</time></trkpt><trkpt lat="43.27266" lon="13.14806"><ele>520.75</ele><time>2026-04-11T15:28:17.123Z</time></trkpt><trkpt lat="43.2726983" lon="13.1482083"><ele>522.0</ele><time>2026-04-11T15:28:18.123Z</time></trkpt><trkpt lat="43.2727183" lon="13.1483717"><ele>519.25</ele><time>2026-04-11T15:28:19.123Z</time></trkpt><trkpt lat="43.2727267" lon="13.1485383"><ele>516.5</ele><time>2026-04-11T15:28:20.123Z</time></trkpt><trkpt lat="43.2727433" lon="13.148695"><ele>513.75</ele><time>2026-04-11T15:28:21.123Z</time></trkpt><trkpt lat="43.2727733" lon="13.148835"><ele>511.0</ele><time>2026-04-11T15:28:22.123Z</time></trkpt><trkpt lat="43.2728183" lon="13.1489783"><ele>508.8</ele><time>2026-04-11T15:28:23.123Z</time></trkpt><trkpt lat="43.272865" lon="13.1491233"><ele>506.6</ele><time>2026-04-11T15:28:24.123Z</time></trkpt><trkpt lat="43.27291" lon="13.1492583"><ele>504.4</ele><time>2026-04-11T15:28:25.123Z</time></trkpt><trkpt lat="43.2729433" lon="13.149405"><ele>502.2</ele><time>2026-04-11T15:28:26.123Z</time></trkpt><trkpt lat="43.2729733" lon="13.1495383"><ele>500.0</ele><time>2026-04-11T15:28:27.123Z</time></trkpt><trkpt lat="43.27299" lon="13.1496633"><ele>500.0</ele><time>2026-04-11T15:28:28.123Z</time></trkpt><trkpt lat="43.2730117" lon="13.1497917"><ele>500.0</ele><time>2026-04-11T15:28:29.123Z</time></trkpt><trkpt lat="43.2730317" lon="13.149935"><ele>500.0</ele><time>2026-04-11T15:28:30.123Z</time></trkpt><trkpt lat="43.2730517" lon="13.1501017"><ele>500.0</ele><time>2026-04-11T15:28:31.123Z</time></trkpt><trkpt lat="43.273065" lon="13.1502617"><ele>500.0</ele><time>2026-04-11T15:28:32.123Z</time></trkpt><trkpt lat="43.27308" lon="13.1504217"><ele>499.66666666666663</ele><time>2026-04-11T15:28:33.123Z</time></trkpt><trkpt lat="43.2731033" lon="13.1505917"><ele>499.33333333333337</ele><time>2026-04-11T15:28:34.123Z</time></trkpt><trkpt lat="43.2731867" lon="13.1509183"><ele>499.0</ele><time>2026-04-11T15:28:36.123Z</time></trkpt><trkpt lat="43.273225" lon="13.151065"><ele>499.0</ele><time>2026-04-11T15:28:37.123Z</time></trkpt><trkpt lat="43.273275" lon="13.1511883"><ele>499.0</ele><time>2026-04-11T15:28:38.123Z</time></trkpt><trkpt lat="43.2733417" lon="13.151305"><ele>499.0</ele><time>2026-04-11T15:28:39.123Z</time></trkpt><trkpt lat="43.2734217" lon="13.151405"><ele>499.0</ele><time>2026-04-11T15:28:40.123Z</time></trkpt><trkpt lat="43.273515" lon="13.1514933"><ele>499.0</ele><time>2026-04-11T15:28:41.123Z</time></trkpt><trkpt lat="43.2736283" lon="13.1515733"><ele>497.0</ele><time>2026-04-11T15:28:42.123Z</time></trkpt><trkpt lat="43.2737383" lon="13.151645"><ele>495.0</ele><time>2026-04-11T15:28:43.123Z</time></trkpt><trkpt lat="43.2738367" lon="13.151715"><ele>493.0</ele><time>2026-04-11T15:28:44.123Z</time></trkpt><trkpt lat="43.273925" lon="13.151785"><ele>491.0</ele><time>2026-04-11T15:28:45.123Z</time></trkpt><trkpt lat="43.2740033" lon="13.1518617"><ele>489.0</ele><time>2026-04-11T15:28:46.123Z</time></trkpt><trkpt lat="43.27409" lon="13.151925"><ele>489.0</ele><time>2026-04-11T15:28:47.123Z</time></trkpt><trkpt lat="43.2741883" lon="13.1519633"><ele>489.0</ele><time>2026-04-11T15:28:48.123Z</time></trkpt><trkpt lat="43.2743" lon="13.1519817"><ele>489.0</ele><time>2026-04-11T15:28:49.123Z</time></trkpt><trkpt lat="43.2744267" lon="13.1519917"><ele>489.0</ele><time>2026-04-11T15:28:50.123Z</time></trkpt><trkpt lat="43.274535" lon="13.1520217"><ele>489.0</ele><time>2026-04-11T15:28:51.123Z</time></trkpt><trkpt lat="43.27465" lon="13.1520733"><ele>489.0</ele><time>2026-04-11T15:28:52.123Z</time></trkpt><trkpt lat="43.2747617" lon="13.152165"><ele>489.0</ele><time>2026-04-11T15:28:53.123Z</time></trkpt><trkpt lat="43.2748683" lon="13.1522633"><ele>489.0</ele><time>2026-04-11T15:28:54.123Z</time></trkpt><trkpt lat="43.274975" lon="13.1523667"><ele>488.33333333333337</ele><time>2026-04-11T15:28:55.123Z</time></trkpt><trkpt lat="43.2751883" lon="13.1525217"><ele>487.6666666666667</ele><time>2026-04-11T15:28:57.123Z</time></trkpt><trkpt lat="43.2752933" lon="13.152575"><ele>487.0</ele><time>2026-04-11T15:28:58.123Z</time></trkpt><trkpt lat="43.2753967" lon="13.15264"><ele>487.0</ele><time>2026-04-11T15:28:59.123Z</time></trkpt><trkpt lat="43.27549" lon="13.1527133"><ele>487.00000000000006</ele><time>2026-04-11T15:29:00.123Z</time></trkpt><trkpt lat="43.2755617" lon="13.1528233"><ele>487.00000000000006</ele><time>2026-04-11T15:29:01.123Z</time></trkpt><trkpt lat="43.2756217" lon="13.1529517"><ele>487.0</ele><time>2026-04-11T15:29:02.123Z</time></trkpt><trkpt lat="43.2756533" lon="13.1531117"><ele>487.0</ele><time>2026-04-11T15:29:03.123Z</time></trkpt><trkpt lat="43.2756667" lon="13.153305"><ele>489.25</ele><time>2026-04-11T15:29:04.123Z</time></trkpt><trkpt lat="43.2756533" lon="13.153485"><ele>491.5</ele><time>2026-04-11T15:29:05.123Z</time></trkpt><trkpt lat="43.2756333" lon="13.1536617"><ele>493.75</ele><time>2026-04-11T15:29:06.123Z</time></trkpt><trkpt lat="43.2756167" lon="13.1538383"><ele>496.0</ele><time>2026-04-11T15:29:07.123Z</time></trkpt><trkpt lat="43.2756" lon="13.15401"><ele>493.25</ele><time>2026-04-11T15:29:08.123Z</time></trkpt><trkpt lat="43.2756017" lon="13.1541917"><ele>490.5</ele><time>2026-04-11T15:29:09.123Z</time></trkpt><trkpt lat="43.2756" lon="13.1543633"><ele>487.75</ele><time>2026-04-11T15:29:10.123Z</time></trkpt><trkpt lat="43.27559" lon="13.1545267"><ele>485.0</ele><time>2026-04-11T15:29:11.123Z</time></trkpt><trkpt lat="43.2755617" lon="13.1546967"><ele>485.0</ele><time>2026-04-11T15:29:12.123Z</time></trkpt><trkpt lat="43.2755167" lon="13.1548617"><ele>485.0</ele><time>2026-04-11T15:29:13.123Z</time></trkpt><trkpt lat="43.2754583" lon="13.1550217"><ele>485.0</ele><time>2026-04-11T15:29:14.123Z</time></trkpt><trkpt lat="43.2753833" lon="13.1551883"><ele>485.0</ele><time>2026-04-11T15:29:15.123Z</time></trkpt><trkpt lat="43.2753217" lon="13.1553333"><ele>481.25</ele><time>2026-04-11T15:29:16.123Z</time></trkpt><trkpt lat="43.2751917" lon="13.1556117"><ele>477.5</ele><time>2026-04-11T15:29:18.123Z</time></trkpt><trkpt lat="43.2751367" lon="13.1557383"><ele>473.75</ele><time>2026-04-11T15:29:19.123Z</time></trkpt><trkpt lat="43.27509" lon="13.1558433"><ele>470.0</ele><time>2026-04-11T15:29:20.123Z</time></trkpt><trkpt lat="43.2750633" lon="13.155945"><ele>468.66666666666663</ele><time>2026-04-11T15:29:21.123Z</time></trkpt><trkpt lat="43.2750633" lon="13.1560417"><ele>467.3333333333333</ele><time>2026-04-11T15:29:22.123Z</time></trkpt><trkpt lat="43.2750883" lon="13.1561317"><ele>466.0</ele><time>2026-04-11T15:29:23.123Z</time></trkpt><trkpt lat="43.2751383" lon="13.156205"><ele>464.66666666666663</ele><time>2026-04-11T15:29:24.123Z</time></trkpt><trkpt lat="43.2752117" lon="13.1562583"><ele>463.3333333333333</ele><time>2026-04-11T15:29:25.123Z</time></trkpt><trkpt lat="43.2753033" lon="13.1562867"><ele>462.0</ele><time>2026-04-11T15:29:26.123Z</time></trkpt><trkpt lat="43.275405" lon="13.156295"><ele>462.0</ele><time>2026-04-11T15:29:27.123Z</time></trkpt><trkpt lat="43.27554" lon="13.156305"><ele>462.0</ele><time>2026-04-11T15:29:28.123Z</time></trkpt><trkpt lat="43.2757167" lon="13.156305"><ele>462.0</ele><time>2026-04-11T15:29:29.123Z</time></trkpt><trkpt lat="43.2758733" lon="13.15631"><ele>460.75</ele><time>2026-04-11T15:29:30.123Z</time></trkpt><trkpt lat="43.27602" lon="13.1563133"><ele>459.5</ele><time>2026-04-11T15:29:31.123Z</time></trkpt><trkpt lat="43.276155" lon="13.1563267"><ele>458.25</ele><time>2026-04-11T15:29:32.123Z</time></trkpt><trkpt lat="43.2762717" lon="13.156365"><ele>457.0</ele><time>2026-04-11T15:29:33.123Z</time></trkpt><trkpt lat="43.276375" lon="13.1564233"><ele>455.75</ele><time>2026-04-11T15:29:34.123Z</time></trkpt><trkpt lat="43.2764683" lon="13.1565033"><ele>454.5</ele><time>2026-04-11T15:29:35.123Z</time></trkpt><trkpt lat="43.2765483" lon="13.1566167"><ele>453.25</ele><time>2026-04-11T15:29:36.123Z</time></trkpt><trkpt lat="43.27662" lon="13.1567383"><ele>452.0</ele><time>2026-04-11T15:29:37.123Z</time></trkpt><trkpt lat="43.2767483" lon="13.157025"><ele>455.25</ele><time>2026-04-11T15:29:39.123Z</time></trkpt><trkpt lat="43.2767983" lon="13.1571767"><ele>458.5</ele><time>2026-04-11T15:29:40.123Z</time></trkpt><trkpt lat="43.2768417" lon="13.157325"><ele>461.75</ele><time>2026-04-11T15:29:41.123Z</time></trkpt><trkpt lat="43.276885" lon="13.1574817"><ele>465.0</ele><time>2026-04-11T15:29:42.123Z</time></trkpt><trkpt lat="43.2769217" lon="13.1576367"><ele>466.5</ele><time>2026-04-11T15:29:43.123Z</time></trkpt><trkpt lat="43.276955" lon="13.1577967"><ele>468.0</ele><time>2026-04-11T15:29:44.123Z</time></trkpt><trkpt lat="43.276995" lon="13.157975"><ele>469.5</ele><time>2026-04-11T15:29:45.123Z</time></trkpt><trkpt lat="43.2770317" lon="13.1581667"><ele>471.0</ele><time>2026-04-11T15:29:46.123Z</time></trkpt><trkpt lat="43.2770667" lon="13.1583417"><ele>471.0</ele><time>2026-04-11T15:29:47.123Z</time></trkpt><trkpt lat="43.2771083" lon="13.1585233"><ele>471.0</ele><time>2026-04-11T15:29:48.123Z</time></trkpt><trkpt lat="43.2771417" lon="13.1586983"><ele>471.0</ele><time>2026-04-11T15:29:49.123Z</time></trkpt><trkpt lat="43.2771733" lon="13.1588717"><ele>471.0</ele><time>2026-04-11T15:29:50.123Z</time></trkpt><trkpt lat="43.2772017" lon="13.1590367"><ele>471.0</ele><time>2026-04-11T15:29:51.123Z</time></trkpt><trkpt lat="43.2772517" lon="13.159205"><ele>471.0</ele><time>2026-04-11T15:29:52.123Z</time></trkpt><trkpt lat="43.27731" lon="13.159365"><ele>471.0</ele><time>2026-04-11T15:29:53.123Z</time></trkpt><trkpt lat="43.27739" lon="13.1595033"><ele>471.0</ele><time>2026-04-11T15:29:54.123Z</time></trkpt><trkpt lat="43.2774717" lon="13.1596267"><ele>466.25</ele><time>2026-04-11T15:29:55.123Z</time></trkpt><trkpt lat="43.27755" lon="13.15975"><ele>461.5</ele><time>2026-04-11T15:29:56.123Z</time></trkpt><trkpt lat="43.2776417" lon="13.159875"><ele>456.75</ele><time>2026-04-11T15:29:57.123Z</time></trkpt><trkpt lat="43.2777233" lon="13.1600117"><ele>452.0</ele><time>2026-04-11T15:29:58.123Z</time></trkpt><trkpt lat="43.2778683" lon="13.16027"><ele>452.0</ele><time>2026-04-11T15:30:00.123Z</time></trkpt><trkpt lat="43.27793" lon="13.16039"><ele>452.00000000000006</ele><time>2026-04-11T15:30:01.123Z</time></trkpt><trkpt lat="43.2779783" lon="13.16051"><ele>452.00000000000006</ele><time>2026-04-11T15:30:02.123Z</time></trkpt><trkpt lat="43.2780167" lon="13.1606383"><ele>452.0</ele><time>2026-04-11T15:30:03.123Z</time></trkpt><trkpt lat="43.2780417" lon="13.1607733"><ele>452.0</ele><time>2026-04-11T15:30:04.123Z</time></trkpt><trkpt lat="43.2780567" lon="13.16092"><ele>451.75</ele><time>2026-04-11T15:30:05.123Z</time></trkpt><trkpt lat="43.278065" lon="13.161085"><ele>451.5</ele><time>2026-04-11T15:30:06.123Z</time></trkpt><trkpt lat="43.27806" lon="13.161265"><ele>451.25</ele><time>2026-04-11T15:30:07.123Z</time></trkpt><trkpt lat="43.27806" lon="13.1614667"><ele>451.0</ele><time>2026-04-11T15:30:08.124Z</time></trkpt><trkpt lat="43.2780517" lon="13.1616517"><ele>449.25</ele><time>2026-04-11T15:30:09.123Z</time></trkpt><trkpt lat="43.2780583" lon="13.1618233"><ele>447.5</ele><time>2026-04-11T15:30:10.123Z</time></trkpt><trkpt lat="43.278085" lon="13.1619833"><ele>445.75</ele><time>2026-04-11T15:30:11.123Z</time></trkpt><trkpt lat="43.27814" lon="13.1621417"><ele>444.0</ele><time>2026-04-11T15:30:12.123Z</time></trkpt><trkpt lat="43.27821" lon="13.162285"><ele>439.5</ele><time>2026-04-11T15:30:13.123Z</time></trkpt><trkpt lat="43.2782917" lon="13.1624033"><ele>435.0</ele><time>2026-04-11T15:30:14.123Z</time></trkpt><trkpt lat="43.278365" lon="13.1625033"><ele>430.5</ele><time>2026-04-11T15:30:15.123Z</time></trkpt><trkpt lat="43.2784467" lon="13.1626217"><ele>426.0</ele><time>2026-04-11T15:30:16.123Z</time></trkpt><trkpt lat="43.2785167" lon="13.16276"><ele>426.0</ele><time>2026-04-11T15:30:17.123Z</time></trkpt><trkpt lat="43.2785883" lon="13.1628983"><ele>426.0</ele><time>2026-04-11T15:30:18.123Z</time></trkpt><trkpt lat="43.27865" lon="13.1630433"><ele>426.0</ele><time>2026-04-11T15:30:19.123Z</time></trkpt><trkpt lat="43.27871" lon="13.1633233"><ele>425.8</ele><time>2026-04-11T15:30:21.123Z</time></trkpt><trkpt lat="43.2786883" lon="13.1634717"><ele>425.6</ele><time>2026-04-11T15:30:22.123Z</time></trkpt><trkpt lat="43.2786433" lon="13.1636267"><ele>425.4</ele><time>2026-04-11T15:30:23.123Z</time></trkpt><trkpt lat="43.2786017" lon="13.163775"><ele>425.2</ele><time>2026-04-11T15:30:24.123Z</time></trkpt><trkpt lat="43.2785583" lon="13.1639"><ele>425.0</ele><time>2026-04-11T15:30:25.123Z</time></trkpt><trkpt lat="43.2785183" lon="13.1639983"><ele>423.8</ele><time>2026-04-11T15:30:26.123Z</time></trkpt><trkpt lat="43.278475" lon="13.1640967"><ele>422.6</ele><time>2026-04-11T15:30:27.123Z</time></trkpt><trkpt lat="43.278415" lon="13.1641983"><ele>421.4</ele><time>2026-04-11T15:30:28.123Z</time></trkpt><trkpt lat="43.2783583" lon="13.1643017"><ele>420.2</ele><time>2026-04-11T15:30:29.123Z</time></trkpt><trkpt lat="43.2782867" lon="13.1644183"><ele>419.0</ele><time>2026-04-11T15:30:30.123Z</time></trkpt><trkpt lat="43.278215" lon="13.16454"><ele>419.0</ele><time>2026-04-11T15:30:31.123Z</time></trkpt><trkpt lat="43.2781383" lon="13.164675"><ele>419.0</ele><time>2026-04-11T15:30:32.123Z</time></trkpt><trkpt lat="43.278055" lon="13.1648117"><ele>419.0</ele><time>2026-04-11T15:30:33.123Z</time></trkpt><trkpt lat="43.27798" lon="13.16495"><ele>419.0</ele><time>2026-04-11T15:30:34.123Z</time></trkpt><trkpt lat="43.2779083" lon="13.165095"><ele>419.75</ele><time>2026-04-11T15:30:35.123Z</time></trkpt><trkpt lat="43.2778517" lon="13.1652483"><ele>420.5</ele><time>2026-04-11T15:30:36.123Z</time></trkpt><trkpt lat="43.2778083" lon="13.1654"><ele>421.25</ele><time>2026-04-11T15:30:37.123Z</time></trkpt><trkpt lat="43.2777717" lon="13.16556"><ele>422.0</ele><time>2026-04-11T15:30:38.123Z</time></trkpt><trkpt lat="43.2777483" lon="13.1657317"><ele>419.0</ele><time>2026-04-11T15:30:39.123Z</time></trkpt><trkpt lat="43.27774" lon="13.16591"><ele>416.0</ele><time>2026-04-11T15:30:40.123Z</time></trkpt><trkpt lat="43.2777417" lon="13.1663033"><ele>413.0</ele><time>2026-04-11T15:30:42.123Z</time></trkpt><trkpt lat="43.27774" lon="13.1665117"><ele>411.3333333333333</ele><time>2026-04-11T15:30:43.123Z</time></trkpt><trkpt lat="43.2777333" lon="13.166725"><ele>409.66666666666663</ele><time>2026-04-11T15:30:44.124Z</time></trkpt><trkpt lat="43.2777283" lon="13.1669317"><ele>408.0</ele><time>2026-04-11T15:30:45.123Z</time></trkpt><trkpt lat="43.2777217" lon="13.16713"><ele>408.0</ele><time>2026-04-11T15:30:46.123Z</time></trkpt><trkpt lat="43.2777133" lon="13.1673283"><ele>408.0</ele><time>2026-04-11T15:30:47.123Z</time></trkpt><trkpt lat="43.2776817" lon="13.1675233"><ele>408.0</ele><time>2026-04-11T15:30:48.123Z</time></trkpt><trkpt lat="43.2776533" lon="13.16772"><ele>408.0</ele><time>2026-04-11T15:30:49.123Z</time></trkpt><trkpt lat="43.2776183" lon="13.1679117"><ele>406.5</ele><time>2026-04-11T15:30:50.123Z</time></trkpt><trkpt lat="43.277575" lon="13.1680917"><ele>405.0</ele><time>2026-04-11T15:30:51.123Z</time></trkpt><trkpt lat="43.2775117" lon="13.168275"><ele>403.5</ele><time>2026-04-11T15:30:52.123Z</time></trkpt><trkpt lat="43.277435" lon="13.1684533"><ele>402.0</ele><time>2026-04-11T15:30:53.123Z</time></trkpt><trkpt lat="43.2773417" lon="13.16863"><ele>398.66666666666663</ele><time>2026-04-11T15:30:54.123Z</time></trkpt><trkpt lat="43.27724" lon="13.1688133"><ele>395.3333333333333</ele><time>2026-04-11T15:30:55.123Z</time></trkpt><trkpt lat="43.27713" lon="13.1690067"><ele>392.0</ele><time>2026-04-11T15:30:56.123Z</time></trkpt><trkpt lat="43.2770283" lon="13.1691833"><ele>391.66666666666663</ele><time>2026-04-11T15:30:57.123Z</time></trkpt><trkpt lat="43.2769383" lon="13.1693633"><ele>391.33333333333337</ele><time>2026-04-11T15:30:58.123Z</time></trkpt><trkpt lat="43.276865" lon="13.1695617"><ele>391.0</ele><time>2026-04-11T15:30:59.123Z</time></trkpt><trkpt lat="43.2767967" lon="13.1697633"><ele>391.0</ele><time>2026-04-11T15:31:00.123Z</time></trkpt><trkpt lat="43.27675" lon="13.1699817"><ele>391.0</ele><time>2026-04-11T15:31:01.123Z</time></trkpt><trkpt lat="43.2767383" lon="13.1703933"><ele>391.0</ele><time>2026-04-11T15:31:03.123Z</time></trkpt><trkpt lat="43.276755" lon="13.1706"><ele>391.0</ele><time>2026-04-11T15:31:04.123Z</time></trkpt><trkpt lat="43.276785" lon="13.1708033"><ele>391.0</ele><time>2026-04-11T15:31:05.123Z</time></trkpt><trkpt lat="43.27681" lon="13.1710117"><ele>390.6666666666667</ele><time>2026-04-11T15:31:06.123Z</time></trkpt><trkpt lat="43.27684" lon="13.17123"><ele>390.33333333333337</ele><time>2026-04-11T15:31:07.123Z</time></trkpt><trkpt lat="43.2768683" lon="13.171445"><ele>390.0</ele><time>2026-04-11T15:31:08.123Z</time></trkpt><trkpt lat="43.2768933" lon="13.1716283"><ele>390.0</ele><time>2026-04-11T15:31:09.123Z</time></trkpt><trkpt lat="43.276915" lon="13.171795"><ele>390.0</ele><time>2026-04-11T15:31:10.123Z</time></trkpt><trkpt lat="43.27694" lon="13.171955"><ele>390.0</ele><time>2026-04-11T15:31:11.123Z</time></trkpt><trkpt lat="43.276945" lon="13.1721017"><ele>390.0</ele><time>2026-04-11T15:31:12.123Z</time></trkpt><trkpt lat="43.276915" lon="13.1722233"><ele>390.0</ele><time>2026-04-11T15:31:13.123Z</time></trkpt><trkpt lat="43.276855" lon="13.1723317"><ele>389.75</ele><time>2026-04-11T15:31:14.123Z</time></trkpt><trkpt lat="43.2767633" lon="13.172425"><ele>389.5</ele><time>2026-04-11T15:31:15.123Z</time></trkpt><trkpt lat="43.27664" lon="13.1725083"><ele>389.25</ele><time>2026-04-11T15:31:16.123Z</time></trkpt><trkpt lat="43.276505" lon="13.1726083"><ele>389.0</ele><time>2026-04-11T15:31:17.123Z</time></trkpt><trkpt lat="43.2763667" lon="13.1726967"><ele>386.5</ele><time>2026-04-11T15:31:18.123Z</time></trkpt><trkpt lat="43.2762433" lon="13.1727933"><ele>384.0</ele><time>2026-04-11T15:31:19.124Z</time></trkpt><trkpt lat="43.27611" lon="13.1728767"><ele>381.5</ele><time>2026-04-11T15:31:20.123Z</time></trkpt><trkpt lat="43.2759917" lon="13.1729583"><ele>379.0</ele><time>2026-04-11T15:31:21.123Z</time></trkpt><trkpt lat="43.275865" lon="13.173015"><ele>379.0</ele><time>2026-04-11T15:31:22.123Z</time></trkpt><trkpt lat="43.27564" lon="13.1731317"><ele>379.0</ele><time>2026-04-11T15:31:24.123Z</time></trkpt><trkpt lat="43.2755383" lon="13.1732133"><ele>379.0</ele><time>2026-04-11T15:31:25.123Z</time></trkpt><trkpt lat="43.2754467" lon="13.1733133"><ele>378.25</ele><time>2026-04-11T15:31:26.123Z</time></trkpt><trkpt lat="43.2753767" lon="13.1734383"><ele>377.5</ele><time>2026-04-11T15:31:27.123Z</time></trkpt><trkpt lat="43.27531" lon="13.1736017"><ele>376.75</ele><time>2026-04-11T15:31:28.123Z</time></trkpt><trkpt lat="43.2752467" lon="13.1737883"><ele>376.0</ele><time>2026-04-11T15:31:29.123Z</time></trkpt><trkpt lat="43.275175" lon="13.17394"><ele>376.0</ele><time>2026-04-11T15:31:30.123Z</time></trkpt><trkpt lat="43.2750933" lon="13.1740617"><ele>376.0</ele><time>2026-04-11T15:31:31.123Z</time></trkpt><trkpt lat="43.2749933" lon="13.1741433"><ele>376.0</ele><time>2026-04-11T15:31:32.123Z</time></trkpt><trkpt lat="43.2748717" lon="13.1742117"><ele>376.0</ele><time>2026-04-11T15:31:33.123Z</time></trkpt><trkpt lat="43.2747467" lon="13.1742767"><ele>376.0</ele><time>2026-04-11T15:31:34.123Z</time></trkpt><trkpt lat="43.2746167" lon="13.174335"><ele>376.0</ele><time>2026-04-11T15:31:35.123Z</time></trkpt><trkpt lat="43.2744783" lon="13.17438"><ele>376.0</ele><time>2026-04-11T15:31:36.123Z</time></trkpt><trkpt lat="43.2743417" lon="13.17442"><ele>376.0</ele><time>2026-04-11T15:31:37.123Z</time></trkpt><trkpt lat="43.274215" lon="13.1744633"><ele>376.0</ele><time>2026-04-11T15:31:38.123Z</time></trkpt><trkpt lat="43.2741017" lon="13.1744883"><ele>376.0</ele><time>2026-04-11T15:31:39.123Z</time></trkpt><trkpt lat="43.274" lon="13.1745083"><ele>376.0</ele><time>2026-04-11T15:31:40.123Z</time></trkpt><trkpt lat="43.2738983" lon="13.17454"><ele>376.0</ele><time>2026-04-11T15:31:41.123Z</time></trkpt><trkpt lat="43.2738017" lon="13.1745733"><ele>376.0</ele><time>2026-04-11T15:31:42.123Z</time></trkpt><trkpt lat="43.2737017" lon="13.1746317"><ele>373.6</ele><time>2026-04-11T15:31:43.123Z</time></trkpt><trkpt lat="43.27356" lon="13.17479"><ele>371.20000000000005</ele><time>2026-04-11T15:31:45.123Z</time></trkpt><trkpt lat="43.2735267" lon="13.17489"><ele>368.79999999999995</ele><time>2026-04-11T15:31:46.123Z</time></trkpt><trkpt lat="43.2735133" lon="13.1749767"><ele>366.4</ele><time>2026-04-11T15:31:47.124Z</time></trkpt><trkpt lat="43.2735433" lon="13.1750833"><ele>364.0</ele><time>2026-04-11T15:31:48.123Z</time></trkpt><trkpt lat="43.2735967" lon="13.175215"><ele>364.0</ele><time>2026-04-11T15:31:49.123Z</time></trkpt><trkpt lat="43.2736717" lon="13.1753833"><ele>364.0</ele><time>2026-04-11T15:31:50.123Z</time></trkpt><trkpt lat="43.27374" lon="13.1755933"><ele>364.0</ele><time>2026-04-11T15:31:51.123Z</time></trkpt><trkpt lat="43.2737833" lon="13.1758017"><ele>362.3333333333333</ele><time>2026-04-11T15:31:52.123Z</time></trkpt><trkpt lat="43.2737933" lon="13.1760183"><ele>360.6666666666667</ele><time>2026-04-11T15:31:53.123Z</time></trkpt><trkpt lat="43.27379" lon="13.17625"><ele>359.0</ele><time>2026-04-11T15:31:54.123Z</time></trkpt><trkpt lat="43.2737683" lon="13.1764533"><ele>359.0</ele><time>2026-04-11T15:31:55.123Z</time></trkpt><trkpt lat="43.2737367" lon="13.1766483"><ele>359.0</ele><time>2026-04-11T15:31:56.123Z</time></trkpt><trkpt lat="43.2737" lon="13.1768417"><ele>359.0</ele><time>2026-04-11T15:31:57.123Z</time></trkpt><trkpt lat="43.2736583" lon="13.1769983"><ele>359.0</ele><time>2026-04-11T15:31:58.123Z</time></trkpt><trkpt lat="43.27361" lon="13.1771167"><ele>359.0</ele><time>2026-04-11T15:31:59.123Z</time></trkpt><trkpt lat="43.2735533" lon="13.1772133"><ele>359.0</ele><time>2026-04-11T15:32:00.123Z</time></trkpt><trkpt lat="43.2734783" lon="13.1772867"><ele>359.0</ele><time>2026-04-11T15:32:01.123Z</time></trkpt><trkpt lat="43.2733783" lon="13.1773533"><ele>359.0</ele><time>2026-04-11T15:32:02.123Z</time></trkpt><trkpt lat="43.27325" lon="13.1773833"><ele>359.0</ele><time>2026-04-11T15:32:03.123Z</time></trkpt><trkpt lat="43.2731167" lon="13.177415"><ele>357.6666666666667</ele><time>2026-04-11T15:32:04.123Z</time></trkpt><trkpt lat="43.2728383" lon="13.177515"><ele>356.3333333333333</ele><time>2026-04-11T15:32:06.123Z</time></trkpt><trkpt lat="43.2726883" lon="13.1775783"><ele>355.0</ele><time>2026-04-11T15:32:07.123Z</time></trkpt><trkpt lat="43.2725333" lon="13.1776283"><ele>355.0</ele><time>2026-04-11T15:32:08.123Z</time></trkpt><trkpt lat="43.2723733" lon="13.1776833"><ele>355.0</ele><time>2026-04-11T15:32:09.123Z</time></trkpt><trkpt lat="43.2722283" lon="13.1777133"><ele>355.0</ele><time>2026-04-11T15:32:10.123Z</time></trkpt><trkpt lat="43.272085" lon="13.1777283"><ele>354.25</ele><time>2026-04-11T15:32:11.123Z</time></trkpt><trkpt lat="43.2719417" lon="13.1777467"><ele>353.5</ele><time>2026-04-11T15:32:12.123Z</time></trkpt><trkpt lat="43.271805" lon="13.1777567"><ele>352.75</ele><time>2026-04-11T15:32:13.124Z</time></trkpt><trkpt lat="43.2716717" lon="13.1777583"><ele>352.0</ele><time>2026-04-11T15:32:14.123Z</time></trkpt><trkpt lat="43.2715417" lon="13.1777633"><ele>351.5</ele><time>2026-04-11T15:32:15.123Z</time></trkpt><trkpt lat="43.271415" lon="13.17777"><ele>351.0</ele><time>2026-04-11T15:32:16.123Z</time></trkpt><trkpt lat="43.2712917" lon="13.1777917"><ele>350.5</ele><time>2026-04-11T15:32:17.123Z</time></trkpt><trkpt lat="43.2711567" lon="13.1778367"><ele>350.0</ele><time>2026-04-11T15:32:18.123Z</time></trkpt><trkpt lat="43.2710217" lon="13.1779167"><ele>350.0</ele><time>2026-04-11T15:32:19.123Z</time></trkpt><trkpt lat="43.2708917" lon="13.17802"><ele>350.0</ele><time>2026-04-11T15:32:20.123Z</time></trkpt><trkpt lat="43.2707633" lon="13.17814"><ele>350.0</ele><time>2026-04-11T15:32:21.123Z</time></trkpt><trkpt lat="43.2706667" lon="13.17827"><ele>350.0</ele><time>2026-04-11T15:32:22.123Z</time></trkpt><trkpt lat="43.2705917" lon="13.178415"><ele>349.6666666666667</ele><time>2026-04-11T15:32:23.123Z</time></trkpt><trkpt lat="43.2705367" lon="13.178575"><ele>349.3333333333333</ele><time>2026-04-11T15:32:24.123Z</time></trkpt><trkpt lat="43.2704967" lon="13.17875"><ele>349.0</ele><time>2026-04-11T15:32:25.123Z</time></trkpt><trkpt lat="43.27047" lon="13.17909"><ele>348.75</ele><time>2026-04-11T15:32:27.123Z</time></trkpt><trkpt lat="43.2704967" lon="13.1792467"><ele>348.5</ele><time>2026-04-11T15:32:28.123Z</time></trkpt><trkpt lat="43.27055" lon="13.179405"><ele>348.25</ele><time>2026-04-11T15:32:29.122Z</time></trkpt><trkpt lat="43.270625" lon="13.179545"><ele>348.0</ele><time>2026-04-11T15:32:30.122Z</time></trkpt><trkpt lat="43.270725" lon="13.1797117"><ele>349.0</ele><time>2026-04-11T15:32:31.122Z</time></trkpt><trkpt lat="43.2708333" lon="13.1798583"><ele>350.0</ele><time>2026-04-11T15:32:32.122Z</time></trkpt><trkpt lat="43.270925" lon="13.180005"><ele>351.0</ele><time>2026-04-11T15:32:33.122Z</time></trkpt><trkpt lat="43.2710133" lon="13.1801583"><ele>352.0</ele><time>2026-04-11T15:32:34.122Z</time></trkpt><trkpt lat="43.271095" lon="13.1803017"><ele>352.0</ele><time>2026-04-11T15:32:35.122Z</time></trkpt><trkpt lat="43.27115" lon="13.1804533"><ele>352.0</ele><time>2026-04-11T15:32:36.122Z</time></trkpt><trkpt lat="43.2712033" lon="13.1805967"><ele>352.0</ele><time>2026-04-11T15:32:37.122Z</time></trkpt><trkpt lat="43.27125" lon="13.1807217"><ele>352.0</ele><time>2026-04-11T15:32:38.122Z</time></trkpt><trkpt lat="43.2712967" lon="13.1808533"><ele>352.0</ele><time>2026-04-11T15:32:39.122Z</time></trkpt><trkpt lat="43.271335" lon="13.181005"><ele>352.40000000000003</ele><time>2026-04-11T15:32:40.122Z</time></trkpt><trkpt lat="43.2713783" lon="13.181145"><ele>352.8</ele><time>2026-04-11T15:32:41.122Z</time></trkpt><trkpt lat="43.271405" lon="13.1812783"><ele>353.2</ele><time>2026-04-11T15:32:42.122Z</time></trkpt><trkpt lat="43.271415" lon="13.1814233"><ele>353.6</ele><time>2026-04-11T15:32:43.122Z</time></trkpt><trkpt lat="43.2714" lon="13.181565"><ele>354.0</ele><time>2026-04-11T15:32:44.122Z</time></trkpt><trkpt lat="43.2713667" lon="13.1816933"><ele>350.25</ele><time>2026-04-11T15:32:45.122Z</time></trkpt><trkpt lat="43.2713367" lon="13.1818117"><ele>346.5</ele><time>2026-04-11T15:32:46.122Z</time></trkpt><trkpt lat="43.2712567" lon="13.182015"><ele>342.75</ele><time>2026-04-11T15:32:48.122Z</time></trkpt><trkpt lat="43.271185" lon="13.182085"><ele>339.0</ele><time>2026-04-11T15:32:49.122Z</time></trkpt><trkpt lat="43.2710833" lon="13.1821633"><ele>339.0</ele><time>2026-04-11T15:32:50.122Z</time></trkpt><trkpt lat="43.27097" lon="13.1822833"><ele>339.0</ele><time>2026-04-11T15:32:51.122Z</time></trkpt><trkpt lat="43.2708433" lon="13.18241"><ele>339.0</ele><time>2026-04-11T15:32:52.122Z</time></trkpt><trkpt lat="43.27073" lon="13.182525"><ele>339.0</ele><time>2026-04-11T15:32:53.122Z</time></trkpt><trkpt lat="43.270595" lon="13.18263"><ele>333.0</ele><time>2026-04-11T15:32:54.122Z</time></trkpt><trkpt lat="43.2704583" lon="13.1827217"><ele>327.0</ele><time>2026-04-11T15:32:55.122Z</time></trkpt><trkpt lat="43.270315" lon="13.1828"><ele>321.0</ele><time>2026-04-11T15:32:56.122Z</time></trkpt><trkpt lat="43.270175" lon="13.18287"><ele>321.0</ele><time>2026-04-11T15:32:57.122Z</time></trkpt><trkpt lat="43.27003" lon="13.1829583"><ele>321.0</ele><time>2026-04-11T15:32:58.122Z</time></trkpt><trkpt lat="43.2698933" lon="13.1830633"><ele>321.0</ele><time>2026-04-11T15:32:59.123Z</time></trkpt><trkpt lat="43.2697617" lon="13.1831567"><ele>320.5</ele><time>2026-04-11T15:33:00.122Z</time></trkpt><trkpt lat="43.2696417" lon="13.183255"><ele>320.0</ele><time>2026-04-11T15:33:01.122Z</time></trkpt><trkpt lat="43.26953" lon="13.1833667"><ele>319.5</ele><time>2026-04-11T15:33:02.122Z</time></trkpt><trkpt lat="43.2694233" lon="13.1834917"><ele>319.0</ele><time>2026-04-11T15:33:03.122Z</time></trkpt><trkpt lat="43.2693317" lon="13.1836183"><ele>319.0</ele><time>2026-04-11T15:33:04.122Z</time></trkpt><trkpt lat="43.2692517" lon="13.183715"><ele>319.0</ele><time>2026-04-11T15:33:05.122Z</time></trkpt><trkpt lat="43.2691933" lon="13.1838233"><ele>319.0</ele><time>2026-04-11T15:33:06.122Z</time></trkpt><trkpt lat="43.2691533" lon="13.1839217"><ele>319.0</ele><time>2026-04-11T15:33:07.122Z</time></trkpt><trkpt lat="43.2691283" lon="13.1841567"><ele>318.8</ele><time>2026-04-11T15:33:10.122Z</time></trkpt><trkpt lat="43.2692033" lon="13.1842567"><ele>318.59999999999997</ele><time>2026-04-11T15:33:12.122Z</time></trkpt><trkpt lat="43.269275" lon="13.1842667"><ele>318.4</ele><time>2026-04-11T15:33:13.122Z</time></trkpt><trkpt lat="43.269365" lon="13.184255"><ele>318.2</ele><time>2026-04-11T15:33:14.122Z</time></trkpt><trkpt lat="43.2694817" lon="13.18423"><ele>318.0</ele><time>2026-04-11T15:33:15.122Z</time></trkpt><trkpt lat="43.2696167" lon="13.1841817"><ele>318.0</ele><time>2026-04-11T15:33:16.122Z</time></trkpt><trkpt lat="43.2697617" lon="13.1841233"><ele>318.0</ele><time>2026-04-11T15:33:17.122Z</time></trkpt><trkpt lat="43.2699117" lon="13.1840617"><ele>318.0</ele><time>2026-04-11T15:33:18.122Z</time></trkpt><trkpt lat="43.2700683" lon="13.1840033"><ele>318.3333333333333</ele><time>2026-04-11T15:33:19.122Z</time></trkpt><trkpt lat="43.270225" lon="13.1839533"><ele>318.66666666666663</ele><time>2026-04-11T15:33:20.122Z</time></trkpt><trkpt lat="43.270385" lon="13.1839233"><ele>319.0</ele><time>2026-04-11T15:33:21.122Z</time></trkpt><trkpt lat="43.2705483" lon="13.1839117"><ele>319.0</ele><time>2026-04-11T15:33:22.122Z</time></trkpt><trkpt lat="43.270715" lon="13.183905"><ele>319.0</ele><time>2026-04-11T15:33:23.123Z</time></trkpt><trkpt lat="43.2708783" lon="13.1839033"><ele>319.0</ele><time>2026-04-11T15:33:24.123Z</time></trkpt><trkpt lat="43.2710567" lon="13.1839033"><ele>319.0</ele><time>2026-04-11T15:33:25.122Z</time></trkpt><trkpt lat="43.271215" lon="13.1839067"><ele>319.0</ele><time>2026-04-11T15:33:26.122Z</time></trkpt><trkpt lat="43.27137" lon="13.1839133"><ele>319.0</ele><time>2026-04-11T15:33:27.122Z</time></trkpt><trkpt lat="43.2715433" lon="13.183925"><ele>319.0</ele><time>2026-04-11T15:33:28.122Z</time></trkpt><trkpt lat="43.2718717" lon="13.183945"><ele>319.0</ele><time>2026-04-11T15:33:30.122Z</time></trkpt><trkpt lat="43.27203" lon="13.1839583"><ele>319.0</ele><time>2026-04-11T15:33:31.122Z</time></trkpt><trkpt lat="43.27219" lon="13.1840083"><ele>319.0</ele><time>2026-04-11T15:33:32.122Z</time></trkpt><trkpt lat="43.2723683" lon="13.1840583"><ele>319.0</ele><time>2026-04-11T15:33:33.122Z</time></trkpt><trkpt lat="43.2725483" lon="13.1840933"><ele>318.66666666666663</ele><time>2026-04-11T15:33:34.122Z</time></trkpt><trkpt lat="43.27273" lon="13.1841267"><ele>318.3333333333333</ele><time>2026-04-11T15:33:35.123Z</time></trkpt><trkpt lat="43.2728883" lon="13.18413"><ele>318.0</ele><time>2026-04-11T15:33:36.123Z</time></trkpt><trkpt lat="43.2730533" lon="13.1841167"><ele>317.0</ele><time>2026-04-11T15:33:37.122Z</time></trkpt><trkpt lat="43.2732267" lon="13.1840867"><ele>316.0</ele><time>2026-04-11T15:33:38.122Z</time></trkpt><trkpt lat="43.2733917" lon="13.1840467"><ele>315.0</ele><time>2026-04-11T15:33:39.122Z</time></trkpt><trkpt lat="43.2735567" lon="13.1839983"><ele>313.5</ele><time>2026-04-11T15:33:40.122Z</time></trkpt><trkpt lat="43.2737017" lon="13.183945"><ele>312.0</ele><time>2026-04-11T15:33:41.122Z</time></trkpt><trkpt lat="43.273825" lon="13.1839033"><ele>310.5</ele><time>2026-04-11T15:33:42.122Z</time></trkpt><trkpt lat="43.2739433" lon="13.1838867"><ele>309.0</ele><time>2026-04-11T15:33:43.122Z</time></trkpt><trkpt lat="43.274055" lon="13.1838883"><ele>308.59999999999997</ele><time>2026-04-11T15:33:44.122Z</time></trkpt><trkpt lat="43.274145" lon="13.18391"><ele>308.2</ele><time>2026-04-11T15:33:45.122Z</time></trkpt><trkpt lat="43.2742217" lon="13.1839683"><ele>307.79999999999995</ele><time>2026-04-11T15:33:46.122Z</time></trkpt><trkpt lat="43.274295" lon="13.18408"><ele>307.4</ele><time>2026-04-11T15:33:47.122Z</time></trkpt><trkpt lat="43.27434" lon="13.1842067"><ele>307.0</ele><time>2026-04-11T15:33:48.122Z</time></trkpt><trkpt lat="43.2743933" lon="13.184345"><ele>307.0</ele><time>2026-04-11T15:33:49.122Z</time></trkpt><trkpt lat="43.2744767" lon="13.1846083"><ele>307.0</ele><time>2026-04-11T15:33:51.122Z</time></trkpt><trkpt lat="43.2745233" lon="13.1847367"><ele>307.0</ele><time>2026-04-11T15:33:52.122Z</time></trkpt><trkpt lat="43.274575" lon="13.1848533"><ele>307.0</ele><time>2026-04-11T15:33:53.123Z</time></trkpt><trkpt lat="43.2746267" lon="13.1849617"><ele>306.5</ele><time>2026-04-11T15:33:54.122Z</time></trkpt><trkpt lat="43.2746733" lon="13.1850483"><ele>306.0</ele><time>2026-04-11T15:33:55.122Z</time></trkpt><trkpt lat="43.2747117" lon="13.1851233"><ele>305.5</ele><time>2026-04-11T15:33:56.122Z</time></trkpt><trkpt lat="43.2747683" lon="13.18522"><ele>305.0</ele><time>2026-04-11T15:33:58.122Z</time></trkpt><trkpt lat="43.2747983" lon="13.1853033"><ele>304.5</ele><time>2026-04-11T15:34:01.122Z</time></trkpt><trkpt lat="43.274865" lon="13.1852967"><ele>304.0</ele><time>2026-04-11T15:34:04.122Z</time></trkpt><trkpt lat="43.274975" lon="13.1851983"><ele>304.0</ele><time>2026-04-11T15:34:06.122Z</time></trkpt><trkpt lat="43.275045" lon="13.1851333"><ele>304.0</ele><time>2026-04-11T15:34:07.122Z</time></trkpt><trkpt lat="43.2751333" lon="13.185055"><ele>304.0</ele><time>2026-04-11T15:34:08.122Z</time></trkpt><trkpt lat="43.27524" lon="13.184975"><ele>304.0</ele><time>2026-04-11T15:34:09.123Z</time></trkpt><trkpt lat="43.27535" lon="13.1848967"><ele>304.0</ele><time>2026-04-11T15:34:10.122Z</time></trkpt><trkpt lat="43.275585" lon="13.1846933"><ele>304.5</ele><time>2026-04-11T15:34:12.122Z</time></trkpt><trkpt lat="43.2757067" lon="13.1845933"><ele>305.0</ele><time>2026-04-11T15:34:13.122Z</time></trkpt><trkpt lat="43.2758283" lon="13.1845367"><ele>305.5</ele><time>2026-04-11T15:34:14.122Z</time></trkpt><trkpt lat="43.2759533" lon="13.1845183"><ele>306.0</ele><time>2026-04-11T15:34:15.122Z</time></trkpt><trkpt lat="43.2760717" lon="13.1845267"><ele>306.0</ele><time>2026-04-11T15:34:16.123Z</time></trkpt><trkpt lat="43.276195" lon="13.1845817"><ele>306.0</ele><time>2026-04-11T15:34:17.122Z</time></trkpt><trkpt lat="43.2763283" lon="13.184645"><ele>306.0</ele><time>2026-04-11T15:34:18.122Z</time></trkpt><trkpt lat="43.27647" lon="13.1847117"><ele>306.0</ele><time>2026-04-11T15:34:19.122Z</time></trkpt><trkpt lat="43.2766433" lon="13.184805"><ele>302.6666666666667</ele><time>2026-04-11T15:34:20.122Z</time></trkpt><trkpt lat="43.2767967" lon="13.1848633"><ele>299.33333333333337</ele><time>2026-04-11T15:34:21.122Z</time></trkpt><trkpt lat="43.2769483" lon="13.184915"><ele>296.0</ele><time>2026-04-11T15:34:22.122Z</time></trkpt><trkpt lat="43.2770983" lon="13.1849633"><ele>296.0</ele><time>2026-04-11T15:34:23.122Z</time></trkpt><trkpt lat="43.277255" lon="13.18501"><ele>296.0</ele><time>2026-04-11T15:34:24.122Z</time></trkpt><trkpt lat="43.2774167" lon="13.1850383"><ele>296.0</ele><time>2026-04-11T15:34:25.122Z</time></trkpt><trkpt lat="43.27758" lon="13.1850467"><ele>298.0</ele><time>2026-04-11T15:34:26.122Z</time></trkpt><trkpt lat="43.27776" lon="13.1850383"><ele>300.0</ele><time>2026-04-11T15:34:27.122Z</time></trkpt><trkpt lat="43.277925" lon="13.1850367"><ele>302.0</ele><time>2026-04-11T15:34:28.122Z</time></trkpt><trkpt lat="43.27809" lon="13.1850233"><ele>300.0</ele><time>2026-04-11T15:34:29.122Z</time></trkpt><trkpt lat="43.278235" lon="13.1850217"><ele>298.0</ele><time>2026-04-11T15:34:30.122Z</time></trkpt><trkpt lat="43.2783867" lon="13.1849767"><ele>296.0</ele><time>2026-04-11T15:34:31.122Z</time></trkpt><trkpt lat="43.2787117" lon="13.1848683"><ele>297.5</ele><time>2026-04-11T15:34:33.122Z</time></trkpt><trkpt lat="43.2788533" lon="13.184775"><ele>299.0</ele><time>2026-04-11T15:34:34.122Z</time></trkpt><trkpt lat="43.278985" lon="13.18469"><ele>300.5</ele><time>2026-04-11T15:34:35.122Z</time></trkpt><trkpt lat="43.2791017" lon="13.1846267"><ele>302.0</ele><time>2026-04-11T15:34:36.122Z</time></trkpt><trkpt lat="43.2792083" lon="13.1845867"><ele>302.0</ele><time>2026-04-11T15:34:37.122Z</time></trkpt><trkpt lat="43.2793083" lon="13.1845783"><ele>302.0</ele><time>2026-04-11T15:34:38.122Z</time></trkpt><trkpt lat="43.2794117" lon="13.1846067"><ele>302.0</ele><time>2026-04-11T15:34:39.122Z</time></trkpt><trkpt lat="43.2795133" lon="13.184655"><ele>302.0</ele><time>2026-04-11T15:34:40.122Z</time></trkpt><trkpt lat="43.2796133" lon="13.1847083"><ele>302.0</ele><time>2026-04-11T15:34:41.122Z</time></trkpt><trkpt lat="43.2796967" lon="13.1847767"><ele>299.4</ele><time>2026-04-11T15:34:42.122Z</time></trkpt><trkpt lat="43.2797667" lon="13.1848483"><ele>296.79999999999995</ele><time>2026-04-11T15:34:43.122Z</time></trkpt><trkpt lat="43.2798183" lon="13.1849583"><ele>294.2</ele><time>2026-04-11T15:34:45.122Z</time></trkpt><trkpt lat="43.2797917" lon="13.1850783"><ele>291.59999999999997</ele><time>2026-04-11T15:34:47.122Z</time></trkpt><trkpt lat="43.2797683" lon="13.1852017"><ele>289.0</ele><time>2026-04-11T15:35:02.122Z</time></trkpt><trkpt lat="43.2797983" lon="13.185465"><ele>289.0</ele><time>2026-04-11T15:35:06.122Z</time></trkpt><trkpt lat="43.2798483" lon="13.1855583"><ele>289.0</ele><time>2026-04-11T15:35:07.122Z</time></trkpt><trkpt lat="43.2799217" lon="13.18564"><ele>289.0</ele><time>2026-04-11T15:35:08.122Z</time></trkpt><trkpt lat="43.280005" lon="13.185705"><ele>289.0</ele><time>2026-04-11T15:35:09.122Z</time></trkpt><trkpt lat="43.2800967" lon="13.1857817"><ele>289.0</ele><time>2026-04-11T15:35:10.122Z</time></trkpt><trkpt lat="43.2801733" lon="13.1858667"><ele>288.0</ele><time>2026-04-11T15:35:11.122Z</time></trkpt><trkpt lat="43.2802333" lon="13.185985"><ele>287.0</ele><time>2026-04-11T15:35:12.122Z</time></trkpt><trkpt lat="43.2802867" lon="13.1860967"><ele>286.0</ele><time>2026-04-11T15:35:13.122Z</time></trkpt><trkpt lat="43.2803383" lon="13.1861933"><ele>285.0</ele><time>2026-04-11T15:35:14.122Z</time></trkpt><trkpt lat="43.2804017" lon="13.1862783"><ele>284.0</ele><time>2026-04-11T15:35:15.122Z</time></trkpt><trkpt lat="43.28047" lon="13.18636"><ele>284.0</ele><time>2026-04-11T15:35:16.122Z</time></trkpt><trkpt lat="43.28054" lon="13.1864333"><ele>284.0</ele><time>2026-04-11T15:35:17.122Z</time></trkpt><trkpt lat="43.2806167" lon="13.1865017"><ele>284.0</ele><time>2026-04-11T15:35:18.122Z</time></trkpt><trkpt lat="43.280705" lon="13.186545"><ele>284.0</ele><time>2026-04-11T15:35:19.122Z</time></trkpt><trkpt lat="43.2807883" lon="13.186575"><ele>284.0</ele><time>2026-04-11T15:35:20.122Z</time></trkpt><trkpt lat="43.2808817" lon="13.186615"><ele>286.33333333333337</ele><time>2026-04-11T15:35:21.122Z</time></trkpt><trkpt lat="43.2809883" lon="13.1866533"><ele>288.6666666666667</ele><time>2026-04-11T15:35:22.123Z</time></trkpt><trkpt lat="43.2811" lon="13.1866983"><ele>291.0</ele><time>2026-04-11T15:35:23.122Z</time></trkpt><trkpt lat="43.281315" lon="13.1868267"><ele>291.0</ele><time>2026-04-11T15:35:25.122Z</time></trkpt><trkpt lat="43.281405" lon="13.186895"><ele>291.0</ele><time>2026-04-11T15:35:26.122Z</time></trkpt><trkpt lat="43.2814883" lon="13.1869717"><ele>291.0</ele><time>2026-04-11T15:35:27.122Z</time></trkpt><trkpt lat="43.2815733" lon="13.1870467"><ele>291.0</ele><time>2026-04-11T15:35:28.122Z</time></trkpt><trkpt lat="43.28166" lon="13.1871133"><ele>291.0</ele><time>2026-04-11T15:35:29.122Z</time></trkpt><trkpt lat="43.2817367" lon="13.1871867"><ele>291.0</ele><time>2026-04-11T15:35:30.122Z</time></trkpt><trkpt lat="43.2818033" lon="13.18725"><ele>291.0</ele><time>2026-04-11T15:35:31.122Z</time></trkpt><trkpt lat="43.2818633" lon="13.1873367"><ele>291.0</ele><time>2026-04-11T15:35:32.122Z</time></trkpt><trkpt lat="43.2819067" lon="13.1874633"><ele>291.0</ele><time>2026-04-11T15:35:33.122Z</time></trkpt><trkpt lat="43.2819183" lon="13.1875833"><ele>291.0</ele><time>2026-04-11T15:35:34.122Z</time></trkpt><trkpt lat="43.2818933" lon="13.1877117"><ele>293.1666666666667</ele><time>2026-04-11T15:35:35.123Z</time></trkpt><trkpt lat="43.2818533" lon="13.1878217"><ele>295.3333333333333</ele><time>2026-04-11T15:35:36.122Z</time></trkpt><trkpt lat="43.2817867" lon="13.1879067"><ele>297.5</ele><time>2026-04-11T15:35:37.122Z</time></trkpt><trkpt lat="43.281705" lon="13.1879483"><ele>299.66666666666663</ele><time>2026-04-11T15:35:38.122Z</time></trkpt><trkpt lat="43.2816317" lon="13.18798"><ele>301.8333333333333</ele><time>2026-04-11T15:35:39.122Z</time></trkpt><trkpt lat="43.2815783" lon="13.188035"><ele>304.0</ele><time>2026-04-11T15:35:40.122Z</time></trkpt><trkpt lat="43.281535" lon="13.18813"><ele>303.25</ele><time>2026-04-11T15:35:41.123Z</time></trkpt><trkpt lat="43.2814883" lon="13.1882217"><ele>302.5</ele><time>2026-04-11T15:35:42.122Z</time></trkpt><trkpt lat="43.2814417" lon="13.188335"><ele>301.75</ele><time>2026-04-11T15:35:43.122Z</time></trkpt><trkpt lat="43.2813867" lon="13.1884567"><ele>301.0</ele><time>2026-04-11T15:35:44.122Z</time></trkpt><trkpt lat="43.2812583" lon="13.188685"><ele>301.0</ele><time>2026-04-11T15:35:46.122Z</time></trkpt><trkpt lat="43.281185" lon="13.1887817"><ele>301.0</ele><time>2026-04-11T15:35:47.122Z</time></trkpt><trkpt lat="43.2810983" lon="13.1888517"><ele>301.0</ele><time>2026-04-11T15:35:48.122Z</time></trkpt><trkpt lat="43.2810133" lon="13.1889067"><ele>301.0</ele><time>2026-04-11T15:35:49.122Z</time></trkpt><trkpt lat="43.2809467" lon="13.1889983"><ele>301.0</ele><time>2026-04-11T15:35:50.122Z</time></trkpt><trkpt lat="43.2808917" lon="13.1890983"><ele>303.25</ele><time>2026-04-11T15:35:51.122Z</time></trkpt><trkpt lat="43.2808567" lon="13.1892367"><ele>305.5</ele><time>2026-04-11T15:35:52.122Z</time></trkpt><trkpt lat="43.2808267" lon="13.1893917"><ele>307.75</ele><time>2026-04-11T15:35:53.122Z</time></trkpt><trkpt lat="43.2807883" lon="13.1895617"><ele>310.0</ele><time>2026-04-11T15:35:54.122Z</time></trkpt><trkpt lat="43.28075" lon="13.189735"><ele>311.25</ele><time>2026-04-11T15:35:55.122Z</time></trkpt><trkpt lat="43.280715" lon="13.1899067"><ele>312.5</ele><time>2026-04-11T15:35:56.122Z</time></trkpt><trkpt lat="43.2807" lon="13.190085"><ele>313.75</ele><time>2026-04-11T15:35:57.122Z</time></trkpt><trkpt lat="43.2807067" lon="13.1902633"><ele>315.0</ele><time>2026-04-11T15:35:58.122Z</time></trkpt><trkpt lat="43.2807367" lon="13.19044"><ele>315.0</ele><time>2026-04-11T15:35:59.122Z</time></trkpt><trkpt lat="43.2807767" lon="13.1906317"><ele>315.0</ele><time>2026-04-11T15:36:00.122Z</time></trkpt><trkpt lat="43.280815" lon="13.1908"><ele>315.0</ele><time>2026-04-11T15:36:01.122Z</time></trkpt><trkpt lat="43.28085" lon="13.19098"><ele>315.0</ele><time>2026-04-11T15:36:02.123Z</time></trkpt><trkpt lat="43.28089" lon="13.1911733"><ele>319.3333333333333</ele><time>2026-04-11T15:36:03.122Z</time></trkpt><trkpt lat="43.2809283" lon="13.1913567"><ele>323.66666666666663</ele><time>2026-04-11T15:36:04.122Z</time></trkpt><trkpt lat="43.2809617" lon="13.1915467"><ele>328.0</ele><time>2026-04-11T15:36:05.122Z</time></trkpt><trkpt lat="43.28101" lon="13.1919483"><ele>332.3333333333333</ele><time>2026-04-11T15:36:07.122Z</time></trkpt><trkpt lat="43.2810267" lon="13.1921617"><ele>336.6666666666667</ele><time>2026-04-11T15:36:08.122Z</time></trkpt><trkpt lat="43.2810283" lon="13.192375"><ele>341.0</ele><time>2026-04-11T15:36:09.122Z</time></trkpt><trkpt lat="43.2810267" lon="13.1925733"><ele>344.33333333333337</ele><time>2026-04-11T15:36:10.122Z</time></trkpt><trkpt lat="43.281025" lon="13.1927967"><ele>347.6666666666667</ele><time>2026-04-11T15:36:11.122Z</time></trkpt><trkpt lat="43.2809983" lon="13.192995"><ele>351.0</ele><time>2026-04-11T15:36:12.122Z</time></trkpt><trkpt lat="43.2809533" lon="13.1932"><ele>353.6666666666667</ele><time>2026-04-11T15:36:13.122Z</time></trkpt><trkpt lat="43.2808983" lon="13.1934"><ele>356.33333333333337</ele><time>2026-04-11T15:36:14.122Z</time></trkpt><trkpt lat="43.2808431" lon="13.1936071"><ele>359.0</ele><time>2026-04-11T15:36:15.122Z</time></trkpt><trkpt lat="43.2807984" lon="13.1938248"><ele>360.33333333333337</ele><time>2026-04-11T15:36:16.122Z</time></trkpt><trkpt lat="43.2807494" lon="13.1940545"><ele>361.6666666666667</ele><time>2026-04-11T15:36:17.122Z</time></trkpt><trkpt lat="43.2807078" lon="13.1942964"><ele>363.0</ele><time>2026-04-11T15:36:18.122Z</time></trkpt><trkpt lat="43.2806678" lon="13.1945459"><ele>363.0</ele><time>2026-04-11T15:36:19.122Z</time></trkpt><trkpt lat="43.2806356" lon="13.1947977"><ele>363.0</ele><time>2026-04-11T15:36:20.122Z</time></trkpt><trkpt lat="43.2806099" lon="13.195008"><ele>363.0</ele><time>2026-04-11T15:36:21.122Z</time></trkpt><trkpt lat="43.2805854" lon="13.1951814"><ele>367.2</ele><time>2026-04-11T15:36:22.122Z</time></trkpt><trkpt lat="43.2805599" lon="13.1953296"><ele>371.4</ele><time>2026-04-11T15:36:23.122Z</time></trkpt><trkpt lat="43.2805264" lon="13.1954532"><ele>375.59999999999997</ele><time>2026-04-11T15:36:24.122Z</time></trkpt><trkpt lat="43.2804713" lon="13.195554"><ele>379.79999999999995</ele><time>2026-04-11T15:36:25.122Z</time></trkpt><trkpt lat="43.2803944" lon="13.1956429"><ele>384.0</ele><time>2026-04-11T15:36:26.122Z</time></trkpt><trkpt lat="43.2802204" lon="13.1957477"><ele>384.0</ele><time>2026-04-11T15:36:28.122Z</time></trkpt><trkpt lat="43.2801402" lon="13.195749"><ele>384.0</ele><time>2026-04-11T15:36:29.122Z</time></trkpt><trkpt lat="43.2800759" lon="13.1957566"><ele>384.0</ele><time>2026-04-11T15:36:30.122Z</time></trkpt><trkpt lat="43.2799862" lon="13.195842"><ele>384.0</ele><time>2026-04-11T15:36:32.122Z</time></trkpt><trkpt lat="43.2799369" lon="13.1959199"><ele>384.0</ele><time>2026-04-11T15:36:33.122Z</time></trkpt><trkpt lat="43.279874" lon="13.1960357"><ele>384.0</ele><time>2026-04-11T15:36:34.122Z</time></trkpt><trkpt lat="43.279808" lon="13.1961834"><ele>381.2</ele><time>2026-04-11T15:36:35.122Z</time></trkpt><trkpt lat="43.279744" lon="13.1963314"><ele>378.4</ele><time>2026-04-11T15:36:36.122Z</time></trkpt><trkpt lat="43.2796874" lon="13.1964597"><ele>375.6</ele><time>2026-04-11T15:36:37.122Z</time></trkpt><trkpt lat="43.2796436" lon="13.1965627"><ele>372.8</ele><time>2026-04-11T15:36:38.122Z</time></trkpt><trkpt lat="43.2796247" lon="13.1966525"><ele>370.0</ele><time>2026-04-11T15:36:39.122Z</time></trkpt><trkpt lat="43.2796327" lon="13.1967449"><ele>369.5</ele><time>2026-04-11T15:36:40.122Z</time></trkpt><trkpt lat="43.2796655" lon="13.1968451"><ele>369.0</ele><time>2026-04-11T15:36:41.122Z</time></trkpt><trkpt lat="43.2797252" lon="13.1969576"><ele>368.5</ele><time>2026-04-11T15:36:42.123Z</time></trkpt><trkpt lat="43.279819" lon="13.1971029"><ele>368.0</ele><time>2026-04-11T15:36:43.122Z</time></trkpt><trkpt lat="43.2799408" lon="13.1972876"><ele>371.0</ele><time>2026-04-11T15:36:44.122Z</time></trkpt><trkpt lat="43.2800589" lon="13.1974744"><ele>374.0</ele><time>2026-04-11T15:36:45.122Z</time></trkpt><trkpt lat="43.2801611" lon="13.1976504"><ele>377.0</ele><time>2026-04-11T15:36:46.122Z</time></trkpt><trkpt lat="43.2802446" lon="13.1978032"><ele>377.0</ele><time>2026-04-11T15:36:47.122Z</time></trkpt><trkpt lat="43.2803352" lon="13.1980727"><ele>377.0</ele><time>2026-04-11T15:36:49.122Z</time></trkpt><trkpt lat="43.2803506" lon="13.1982366"><ele>377.0</ele><time>2026-04-11T15:36:50.122Z</time></trkpt><trkpt lat="43.2803464" lon="13.1984097"><ele>373.33333333333337</ele><time>2026-04-11T15:36:51.122Z</time></trkpt><trkpt lat="43.2803282" lon="13.1986058"><ele>369.6666666666667</ele><time>2026-04-11T15:36:52.122Z</time></trkpt><trkpt lat="43.2803065" lon="13.1988205"><ele>366.0</ele><time>2026-04-11T15:36:53.122Z</time></trkpt><trkpt lat="43.2802787" lon="13.1990386"><ele>366.0</ele><time>2026-04-11T15:36:54.122Z</time></trkpt><trkpt lat="43.280249" lon="13.1992553"><ele>366.0</ele><time>2026-04-11T15:36:55.122Z</time></trkpt><trkpt lat="43.2802241" lon="13.1994574"><ele>366.0</ele><time>2026-04-11T15:36:56.122Z</time></trkpt><trkpt lat="43.2801945" lon="13.1996247"><ele>366.0</ele><time>2026-04-11T15:36:57.122Z</time></trkpt><trkpt lat="43.2801496" lon="13.1997673"><ele>366.8</ele><time>2026-04-11T15:36:58.122Z</time></trkpt><trkpt lat="43.2800966" lon="13.1998592"><ele>367.6</ele><time>2026-04-11T15:36:59.122Z</time></trkpt><trkpt lat="43.2800327" lon="13.1999323"><ele>368.4</ele><time>2026-04-11T15:37:00.122Z</time></trkpt><trkpt lat="43.2799616" lon="13.2000134"><ele>369.2</ele><time>2026-04-11T15:37:01.122Z</time></trkpt><trkpt lat="43.2798881" lon="13.200107"><ele>370.0</ele><time>2026-04-11T15:37:02.122Z</time></trkpt><trkpt lat="43.2798046" lon="13.2002219"><ele>368.0</ele><time>2026-04-11T15:37:03.122Z</time></trkpt><trkpt lat="43.2797243" lon="13.200341"><ele>366.0</ele><time>2026-04-11T15:37:04.122Z</time></trkpt><trkpt lat="43.2796439" lon="13.2004532"><ele>364.0</ele><time>2026-04-11T15:37:05.122Z</time></trkpt><trkpt lat="43.2795632" lon="13.2005453"><ele>362.0</ele><time>2026-04-11T15:37:06.122Z</time></trkpt><trkpt lat="43.2794879" lon="13.2006077"><ele>360.0</ele><time>2026-04-11T15:37:07.122Z</time></trkpt><trkpt lat="43.2794065" lon="13.2006348"><ele>360.0</ele><time>2026-04-11T15:37:08.122Z</time></trkpt><trkpt lat="43.2791915" lon="13.2006335"><ele>360.0</ele><time>2026-04-11T15:37:10.122Z</time></trkpt><trkpt lat="43.2790702" lon="13.2006285"><ele>360.0</ele><time>2026-04-11T15:37:11.122Z</time></trkpt><trkpt lat="43.2789665" lon="13.2006287"><ele>360.0</ele><time>2026-04-11T15:37:12.122Z</time></trkpt><trkpt lat="43.2788783" lon="13.2006734"><ele>362.0</ele><time>2026-04-11T15:37:13.122Z</time></trkpt><trkpt lat="43.2788051" lon="13.2007563"><ele>364.0</ele><time>2026-04-11T15:37:14.122Z</time></trkpt><trkpt lat="43.2787448" lon="13.2008688"><ele>366.0</ele><time>2026-04-11T15:37:15.122Z</time></trkpt><trkpt lat="43.2787063" lon="13.2009943"><ele>368.0</ele><time>2026-04-11T15:37:16.122Z</time></trkpt><trkpt lat="43.278685" lon="13.2011101"><ele>370.0</ele><time>2026-04-11T15:37:17.122Z</time></trkpt><trkpt lat="43.2786807" lon="13.2012252"><ele>370.0</ele><time>2026-04-11T15:37:18.122Z</time></trkpt><trkpt lat="43.2787132" lon="13.2013681"><ele>370.0</ele><time>2026-04-11T15:37:19.122Z</time></trkpt><trkpt lat="43.2787747" lon="13.2015636"><ele>370.0</ele><time>2026-04-11T15:37:20.122Z</time></trkpt><trkpt lat="43.2788522" lon="13.2017596"><ele>370.0</ele><time>2026-04-11T15:37:21.122Z</time></trkpt><trkpt lat="43.27893" lon="13.201915"><ele>369.6</ele><time>2026-04-11T15:37:22.122Z</time></trkpt><trkpt lat="43.27899" lon="13.2020517"><ele>369.2</ele><time>2026-04-11T15:37:23.122Z</time></trkpt><trkpt lat="43.2790367" lon="13.20218"><ele>368.79999999999995</ele><time>2026-04-11T15:37:24.122Z</time></trkpt><trkpt lat="43.2790717" lon="13.2022883"><ele>368.4</ele><time>2026-04-11T15:37:25.122Z</time></trkpt><trkpt lat="43.2790933" lon="13.20239"><ele>368.0</ele><time>2026-04-11T15:37:26.122Z</time></trkpt><trkpt lat="43.2791" lon="13.2024933"><ele>368.0</ele><time>2026-04-11T15:37:27.122Z</time></trkpt><trkpt lat="43.279085" lon="13.2026017"><ele>368.0</ele><time>2026-04-11T15:37:28.122Z</time></trkpt><trkpt lat="43.2790717" lon="13.2027317"><ele>368.0</ele><time>2026-04-11T15:37:29.122Z</time></trkpt><trkpt lat="43.2790383" lon="13.203085"><ele>368.0</ele><time>2026-04-11T15:37:31.122Z</time></trkpt><trkpt lat="43.2790067" lon="13.2032983"><ele>369.33333333333337</ele><time>2026-04-11T15:37:32.122Z</time></trkpt><trkpt lat="43.2789717" lon="13.203535"><ele>370.6666666666667</ele><time>2026-04-11T15:37:33.122Z</time></trkpt><trkpt lat="43.2789333" lon="13.2037867"><ele>372.0</ele><time>2026-04-11T15:37:34.122Z</time></trkpt><trkpt lat="43.27889" lon="13.2040583"><ele>381.0</ele><time>2026-04-11T15:37:35.122Z</time></trkpt><trkpt lat="43.278855" lon="13.2043383"><ele>390.0</ele><time>2026-04-11T15:37:36.122Z</time></trkpt><trkpt lat="43.2788283" lon="13.204595"><ele>399.0</ele><time>2026-04-11T15:37:37.122Z</time></trkpt><trkpt lat="43.278805" lon="13.2047883"><ele>399.25</ele><time>2026-04-11T15:37:38.122Z</time></trkpt><trkpt lat="43.2787783" lon="13.2049567"><ele>399.5</ele><time>2026-04-11T15:37:39.122Z</time></trkpt><trkpt lat="43.2787583" lon="13.20513"><ele>399.75</ele><time>2026-04-11T15:37:40.122Z</time></trkpt><trkpt lat="43.2787583" lon="13.20531"><ele>400.0</ele><time>2026-04-11T15:37:41.122Z</time></trkpt><trkpt lat="43.2787667" lon="13.205485"><ele>400.0</ele><time>2026-04-11T15:37:42.122Z</time></trkpt><trkpt lat="43.2787817" lon="13.2056183"><ele>400.0</ele><time>2026-04-11T15:37:43.122Z</time></trkpt><trkpt lat="43.2787917" lon="13.2057417"><ele>400.0</ele><time>2026-04-11T15:37:44.122Z</time></trkpt><trkpt lat="43.2787917" lon="13.2058567"><ele>400.0</ele><time>2026-04-11T15:37:45.122Z</time></trkpt><trkpt lat="43.27877" lon="13.2059733"><ele>400.0</ele><time>2026-04-11T15:37:46.122Z</time></trkpt><trkpt lat="43.27875" lon="13.2061267"><ele>400.25</ele><time>2026-04-11T15:37:47.122Z</time></trkpt><trkpt lat="43.278735" lon="13.20629"><ele>400.5</ele><time>2026-04-11T15:37:48.122Z</time></trkpt><trkpt lat="43.2787383" lon="13.206455"><ele>400.75</ele><time>2026-04-11T15:37:49.122Z</time></trkpt><trkpt lat="43.27876" lon="13.2066167"><ele>401.0</ele><time>2026-04-11T15:37:50.122Z</time></trkpt><trkpt lat="43.278835" lon="13.2069283"><ele>401.4</ele><time>2026-04-11T15:37:52.122Z</time></trkpt><trkpt lat="43.2788733" lon="13.2070733"><ele>401.8</ele><time>2026-04-11T15:37:53.122Z</time></trkpt><trkpt lat="43.278885" lon="13.2071883"><ele>402.2</ele><time>2026-04-11T15:37:54.122Z</time></trkpt><trkpt lat="43.2789" lon="13.207305"><ele>402.59999999999997</ele><time>2026-04-11T15:37:56.122Z</time></trkpt><trkpt lat="43.2789917" lon="13.2073817"><ele>403.0</ele><time>2026-04-11T15:38:05.122Z</time></trkpt><trkpt lat="43.279095" lon="13.2074933"><ele>403.0</ele><time>2026-04-11T15:38:07.122Z</time></trkpt><trkpt lat="43.2791567" lon="13.2075683"><ele>403.0</ele><time>2026-04-11T15:38:08.122Z</time></trkpt><trkpt lat="43.27923" lon="13.2076733"><ele>403.0</ele><time>2026-04-11T15:38:09.122Z</time></trkpt><trkpt lat="43.2792967" lon="13.2077733"><ele>403.0</ele><time>2026-04-11T15:38:10.122Z</time></trkpt><trkpt lat="43.279365" lon="13.2078717"><ele>403.0</ele><time>2026-04-11T15:38:11.122Z</time></trkpt><trkpt lat="43.279515" lon="13.2080583"><ele>403.0</ele><time>2026-04-11T15:38:13.122Z</time></trkpt><trkpt lat="43.2796067" lon="13.2081517"><ele>403.0</ele><time>2026-04-11T15:38:14.123Z</time></trkpt><trkpt lat="43.2797083" lon="13.208255"><ele>403.0</ele><time>2026-04-11T15:38:15.122Z</time></trkpt><trkpt lat="43.2798033" lon="13.20835"><ele>403.0</ele><time>2026-04-11T15:38:16.122Z</time></trkpt><trkpt lat="43.2798933" lon="13.2084367"><ele>404.59999999999997</ele><time>2026-04-11T15:38:17.122Z</time></trkpt><trkpt lat="43.2799783" lon="13.208515"><ele>406.2</ele><time>2026-04-11T15:38:18.122Z</time></trkpt><trkpt lat="43.280065" lon="13.2086017"><ele>407.8</ele><time>2026-04-11T15:38:19.122Z</time></trkpt><trkpt lat="43.2801417" lon="13.2087"><ele>409.4</ele><time>2026-04-11T15:38:20.122Z</time></trkpt><trkpt lat="43.28022" lon="13.208825"><ele>411.0</ele><time>2026-04-11T15:38:21.122Z</time></trkpt><trkpt lat="43.2802867" lon="13.2089467"><ele>411.25</ele><time>2026-04-11T15:38:22.122Z</time></trkpt><trkpt lat="43.2803517" lon="13.209105"><ele>411.5</ele><time>2026-04-11T15:38:23.122Z</time></trkpt><trkpt lat="43.2804233" lon="13.2092683"><ele>411.75</ele><time>2026-04-11T15:38:24.122Z</time></trkpt><trkpt lat="43.2805117" lon="13.2094217"><ele>412.0</ele><time>2026-04-11T15:38:25.122Z</time></trkpt><trkpt lat="43.2806217" lon="13.209555"><ele>412.0</ele><time>2026-04-11T15:38:26.122Z</time></trkpt><trkpt lat="43.2807483" lon="13.209675"><ele>412.0</ele><time>2026-04-11T15:38:27.122Z</time></trkpt><trkpt lat="43.2808767" lon="13.2097767"><ele>412.0</ele><time>2026-04-11T15:38:28.122Z</time></trkpt><trkpt lat="43.2810233" lon="13.209865"><ele>413.25</ele><time>2026-04-11T15:38:29.122Z</time></trkpt><trkpt lat="43.281165" lon="13.209935"><ele>414.5</ele><time>2026-04-11T15:38:30.122Z</time></trkpt><trkpt lat="43.2813084" lon="13.2099824"><ele>415.75</ele><time>2026-04-11T15:38:31.122Z</time></trkpt><trkpt lat="43.281451" lon="13.2100199"><ele>417.0</ele><time>2026-04-11T15:38:32.122Z</time></trkpt><trkpt lat="43.2817508" lon="13.2101128"><ele>417.8</ele><time>2026-04-11T15:38:34.122Z</time></trkpt><trkpt lat="43.2818832" lon="13.210181"><ele>418.6</ele><time>2026-04-11T15:38:35.122Z</time></trkpt><trkpt lat="43.2819936" lon="13.2102501"><ele>419.40000000000003</ele><time>2026-04-11T15:38:36.122Z</time></trkpt><trkpt lat="43.2820852" lon="13.210306"><ele>420.20000000000005</ele><time>2026-04-11T15:38:37.122Z</time></trkpt><trkpt lat="43.2821587" lon="13.2103577"><ele>421.0</ele><time>2026-04-11T15:38:38.122Z</time></trkpt><trkpt lat="43.2822343" lon="13.210459"><ele>421.00000000000006</ele><time>2026-04-11T15:38:40.122Z</time></trkpt><trkpt lat="43.2822639" lon="13.2105975"><ele>421.0</ele><time>2026-04-11T15:38:42.122Z</time></trkpt><trkpt lat="43.2822529" lon="13.2106828"><ele>421.0</ele><time>2026-04-11T15:38:43.122Z</time></trkpt><trkpt lat="43.2822148" lon="13.2107805"><ele>421.0</ele><time>2026-04-11T15:38:44.122Z</time></trkpt><trkpt lat="43.282161" lon="13.210885"><ele>421.00000000000006</ele><time>2026-04-11T15:38:45.122Z</time></trkpt><trkpt lat="43.2821172" lon="13.2109801"><ele>421.0</ele><time>2026-04-11T15:38:46.122Z</time></trkpt><trkpt lat="43.2820839" lon="13.2110545"><ele>421.75</ele><time>2026-04-11T15:38:47.122Z</time></trkpt><trkpt lat="43.2820494" lon="13.2111655"><ele>422.5</ele><time>2026-04-11T15:38:49.122Z</time></trkpt><trkpt lat="43.2819809" lon="13.2112583"><ele>423.25</ele><time>2026-04-11T15:41:55.122Z</time></trkpt><trkpt lat="43.281928" lon="13.2114903"><ele>424.0</ele><time>2026-04-11T15:41:57.122Z</time></trkpt><trkpt lat="43.2819003" lon="13.2116622"><ele>424.0</ele><time>2026-04-11T15:41:58.122Z</time></trkpt><trkpt lat="43.2818674" lon="13.2118386"><ele>424.0</ele><time>2026-04-11T15:41:59.122Z</time></trkpt><trkpt lat="43.2818486" lon="13.2120175"><ele>424.0</ele><time>2026-04-11T15:42:00.122Z</time></trkpt><trkpt lat="43.2818335" lon="13.2121916"><ele>424.0</ele><time>2026-04-11T15:42:01.122Z</time></trkpt><trkpt lat="43.2818162" lon="13.2123819"><ele>424.33333333333337</ele><time>2026-04-11T15:42:02.122Z</time></trkpt><trkpt lat="43.281798" lon="13.2125924"><ele>424.66666666666663</ele><time>2026-04-11T15:42:03.122Z</time></trkpt><trkpt lat="43.2817824" lon="13.2128291"><ele>425.0</ele><time>2026-04-11T15:42:04.122Z</time></trkpt><trkpt lat="43.2817687" lon="13.2130763"><ele>425.0</ele><time>2026-04-11T15:42:05.122Z</time></trkpt><trkpt lat="43.2817551" lon="13.2133139"><ele>425.0</ele><time>2026-04-11T15:42:06.122Z</time></trkpt><trkpt lat="43.2817401" lon="13.2135281"><ele>425.0</ele><time>2026-04-11T15:42:07.122Z</time></trkpt><trkpt lat="43.2817203" lon="13.2137063"><ele>425.0</ele><time>2026-04-11T15:42:08.122Z</time></trkpt><trkpt lat="43.281695" lon="13.2138645"><ele>425.0</ele><time>2026-04-11T15:42:09.122Z</time></trkpt><trkpt lat="43.2816696" lon="13.2140127"><ele>425.0</ele><time>2026-04-11T15:42:10.122Z</time></trkpt><trkpt lat="43.281643" lon="13.2141566"><ele>425.0</ele><time>2026-04-11T15:42:11.122Z</time></trkpt><trkpt lat="43.2816197" lon="13.2143031"><ele>425.0</ele><time>2026-04-11T15:42:12.122Z</time></trkpt><trkpt lat="43.2815929" lon="13.2144532"><ele>425.5</ele><time>2026-04-11T15:42:13.122Z</time></trkpt><trkpt lat="43.2815671" lon="13.2146056"><ele>426.0</ele><time>2026-04-11T15:42:14.122Z</time></trkpt><trkpt lat="43.2815399" lon="13.2147569"><ele>426.5</ele><time>2026-04-11T15:42:15.122Z</time></trkpt><trkpt lat="43.2815172" lon="13.2148941"><ele>427.0</ele><time>2026-04-11T15:42:16.122Z</time></trkpt><trkpt lat="43.2814733" lon="13.2151311"><ele>427.00000000000006</ele><time>2026-04-11T15:42:18.122Z</time></trkpt><trkpt lat="43.281453" lon="13.2152298"><ele>427.0</ele><time>2026-04-11T15:42:19.122Z</time></trkpt><trkpt lat="43.2814362" lon="13.2153198"><ele>427.0</ele><time>2026-04-11T15:42:20.122Z</time></trkpt><trkpt lat="43.2814308" lon="13.2154628"><ele>427.0</ele><time>2026-04-11T15:42:22.122Z</time></trkpt><trkpt lat="43.2815061" lon="13.2154661"><ele>427.00000000000006</ele><time>2026-04-11T15:42:25.122Z</time></trkpt><trkpt lat="43.2815989" lon="13.2153617"><ele>427.0</ele><time>2026-04-11T15:42:27.122Z</time></trkpt><trkpt lat="43.2816488" lon="13.2152943"><ele>427.0</ele><time>2026-04-11T15:42:28.122Z</time></trkpt><trkpt lat="43.2817166" lon="13.2152007"><ele>427.00000000000006</ele><time>2026-04-11T15:42:30.122Z</time></trkpt><trkpt lat="43.2817846" lon="13.2151875"><ele>427.00000000000006</ele><time>2026-04-11T15:42:42.123Z</time></trkpt><trkpt lat="43.2818409" lon="13.2153425"><ele>427.0</ele><time>2026-04-11T15:42:48.122Z</time></trkpt><trkpt lat="43.2818295" lon="13.2155"><ele>427.0</ele><time>2026-04-11T15:42:50.122Z</time></trkpt><trkpt lat="43.2818291" lon="13.215597"><ele>427.00000000000006</ele><time>2026-04-11T15:42:51.122Z</time></trkpt><trkpt lat="43.2818299" lon="13.2157039"><ele>427.0</ele><time>2026-04-11T15:42:52.122Z</time></trkpt><trkpt lat="43.2818387" lon="13.2158076"><ele>427.0</ele><time>2026-04-11T15:42:53.122Z</time></trkpt><trkpt lat="43.2818595" lon="13.2158959"><ele>427.0</ele><time>2026-04-11T15:42:54.122Z</time></trkpt><trkpt lat="43.2819375" lon="13.2160136"><ele>427.00000000000006</ele><time>2026-04-11T15:42:56.122Z</time></trkpt><trkpt lat="43.282013" lon="13.2161068"><ele>427.0</ele><time>2026-04-11T15:42:58.122Z</time></trkpt><trkpt lat="43.2820618" lon="13.2162285"><ele>427.0</ele><time>2026-04-11T15:43:00.122Z</time></trkpt><trkpt lat="43.2821275" lon="13.2163316"><ele>427.0</ele><time>2026-04-11T15:43:02.122Z</time></trkpt><trkpt lat="43.2822174" lon="13.2164479"><ele>427.0</ele><time>2026-04-11T15:43:04.122Z</time></trkpt><trkpt lat="43.2823106" lon="13.2166268"><ele>427.0</ele><time>2026-04-11T15:43:06.123Z</time></trkpt><trkpt lat="43.2823559" lon="13.2167228"><ele>426.83333333333337</ele><time>2026-04-11T15:43:07.122Z</time></trkpt><trkpt lat="43.2823986" lon="13.2168153"><ele>426.6666666666667</ele><time>2026-04-11T15:43:08.123Z</time></trkpt><trkpt lat="43.2824364" lon="13.2168986"><ele>426.5</ele><time>2026-04-11T15:43:09.122Z</time></trkpt><trkpt lat="43.2824703" lon="13.2169789"><ele>426.33333333333337</ele><time>2026-04-11T15:43:10.122Z</time></trkpt><trkpt lat="43.2825152" lon="13.2171524"><ele>426.1666666666667</ele><time>2026-04-11T15:43:12.122Z</time></trkpt><trkpt lat="43.2825324" lon="13.2172616"><ele>426.0</ele><time>2026-04-11T15:43:13.122Z</time></trkpt><trkpt lat="43.2825552" lon="13.2173709"><ele>426.0</ele><time>2026-04-11T15:43:14.122Z</time></trkpt><trkpt lat="43.2825867" lon="13.2174705"><ele>426.0</ele><time>2026-04-11T15:43:15.122Z</time></trkpt><trkpt lat="43.2826293" lon="13.2175618"><ele>426.0</ele><time>2026-04-11T15:43:16.122Z</time></trkpt><trkpt lat="43.282671" lon="13.2176341"><ele>426.0</ele><time>2026-04-11T15:43:17.122Z</time></trkpt><trkpt lat="43.2827582" lon="13.2177114"><ele>426.0</ele><time>2026-04-11T15:43:19.122Z</time></trkpt><trkpt lat="43.2828599" lon="13.2177213"><ele>426.0</ele><time>2026-04-11T15:43:21.122Z</time></trkpt><trkpt lat="43.2829659" lon="13.2177763"><ele>426.0</ele><time>2026-04-11T15:43:23.122Z</time></trkpt><trkpt lat="43.2830617" lon="13.2178867"><ele>426.0</ele><time>2026-04-11T15:43:25.122Z</time></trkpt><trkpt lat="43.2831783" lon="13.21815"><ele>426.0</ele><time>2026-04-11T15:43:29.122Z</time></trkpt><trkpt lat="43.283215" lon="13.2182283"><ele>426.0</ele><time>2026-04-11T15:43:30.122Z</time></trkpt><trkpt lat="43.2832533" lon="13.2183083"><ele>424.3333333333333</ele><time>2026-04-11T15:43:31.122Z</time></trkpt><trkpt lat="43.28329" lon="13.2183917"><ele>422.66666666666663</ele><time>2026-04-11T15:43:32.122Z</time></trkpt><trkpt lat="43.2833217" lon="13.2184667"><ele>421.0</ele><time>2026-04-11T15:43:33.122Z</time></trkpt><trkpt lat="43.2833833" lon="13.2185833"><ele>419.3333333333333</ele><time>2026-04-11T15:43:35.122Z</time></trkpt><trkpt lat="43.2834367" lon="13.2187"><ele>417.66666666666663</ele><time>2026-04-11T15:43:37.122Z</time></trkpt><trkpt lat="43.2834767" lon="13.218775"><ele>416.0</ele><time>2026-04-11T15:43:38.122Z</time></trkpt><trkpt lat="43.2835183" lon="13.2188617"><ele>415.99999999999994</ele><time>2026-04-11T15:43:39.122Z</time></trkpt><trkpt lat="43.2835567" lon="13.2189433"><ele>416.0</ele><time>2026-04-11T15:43:40.122Z</time></trkpt><trkpt lat="43.2835967" lon="13.2190333"><ele>416.0</ele><time>2026-04-11T15:43:41.122Z</time></trkpt><trkpt lat="43.2836433" lon="13.2191217"><ele>416.0</ele><time>2026-04-11T15:43:42.122Z</time></trkpt><trkpt lat="43.2836833" lon="13.2191933"><ele>415.99999999999994</ele><time>2026-04-11T15:43:43.122Z</time></trkpt><trkpt lat="43.2837667" lon="13.21932"><ele>416.0</ele><time>2026-04-11T15:43:45.122Z</time></trkpt><trkpt lat="43.28383" lon="13.2194517"><ele>418.6</ele><time>2026-04-11T15:43:47.122Z</time></trkpt><trkpt lat="43.2839167" lon="13.2196"><ele>421.20000000000005</ele><time>2026-04-11T15:43:51.122Z</time></trkpt><trkpt lat="43.283945" lon="13.21971"><ele>423.79999999999995</ele><time>2026-04-11T15:43:53.122Z</time></trkpt><trkpt lat="43.28399" lon="13.219855"><ele>426.4</ele><time>2026-04-11T15:43:55.122Z</time></trkpt><trkpt lat="43.2840317" lon="13.21994"><ele>429.0</ele><time>2026-04-11T15:43:57.123Z</time></trkpt><trkpt lat="43.2840767" lon="13.220045"><ele>425.6</ele><time>2026-04-11T15:44:00.122Z</time></trkpt><trkpt lat="43.2841367" lon="13.22018"><ele>422.2</ele><time>2026-04-11T15:44:02.122Z</time></trkpt><trkpt lat="43.284195" lon="13.2203067"><ele>418.8</ele><time>2026-04-11T15:44:04.122Z</time></trkpt><trkpt lat="43.284245" lon="13.2204133"><ele>415.40000000000003</ele><time>2026-04-11T15:44:06.122Z</time></trkpt><trkpt lat="43.2842883" lon="13.2205167"><ele>412.0</ele><time>2026-04-11T15:44:08.122Z</time></trkpt><trkpt lat="43.2843667" lon="13.2206983"><ele>412.0</ele><time>2026-04-11T15:44:12.122Z</time></trkpt><trkpt lat="43.2844067" lon="13.2207933"><ele>412.0</ele><time>2026-04-11T15:44:14.122Z</time></trkpt><trkpt lat="43.2844317" lon="13.2208933"><ele>412.0</ele><time>2026-04-11T15:44:18.122Z</time></trkpt><trkpt lat="43.28445" lon="13.2209917"><ele>412.0</ele><time>2026-04-11T15:44:20.122Z</time></trkpt><trkpt lat="43.2844833" lon="13.2211317"><ele>412.0</ele><time>2026-04-11T15:44:22.122Z</time></trkpt><trkpt lat="43.284505" lon="13.221305"><ele>412.0</ele><time>2026-04-11T15:44:24.122Z</time></trkpt><trkpt lat="43.2845117" lon="13.22144"><ele>412.0</ele><time>2026-04-11T15:44:26.122Z</time></trkpt><trkpt lat="43.2845267" lon="13.22159"><ele>412.0</ele><time>2026-04-11T15:44:28.122Z</time></trkpt><trkpt lat="43.284545" lon="13.2216833"><ele>412.0</ele><time>2026-04-11T15:44:29.122Z</time></trkpt><trkpt lat="43.2846067" lon="13.22191"><ele>410.1666666666667</ele><time>2026-04-11T15:44:31.122Z</time></trkpt><trkpt lat="43.2846317" lon="13.2220283"><ele>408.33333333333337</ele><time>2026-04-11T15:44:32.122Z</time></trkpt><trkpt lat="43.2846567" lon="13.2221467"><ele>406.5</ele><time>2026-04-11T15:44:33.122Z</time></trkpt><trkpt lat="43.2846817" lon="13.22225"><ele>404.66666666666663</ele><time>2026-04-11T15:44:34.122Z</time></trkpt><trkpt lat="43.284715" lon="13.22234"><ele>402.8333333333333</ele><time>2026-04-11T15:44:35.122Z</time></trkpt><trkpt lat="43.28475" lon="13.2224833"><ele>401.0</ele><time>2026-04-11T15:44:37.122Z</time></trkpt><trkpt lat="43.2847683" lon="13.2225667"><ele>401.0</ele><time>2026-04-11T15:44:38.122Z</time></trkpt><trkpt lat="43.2847967" lon="13.2226533"><ele>401.0</ele><time>2026-04-11T15:44:39.122Z</time></trkpt><trkpt lat="43.2848167" lon="13.2227517"><ele>401.0</ele><time>2026-04-11T15:44:40.122Z</time></trkpt><trkpt lat="43.2848317" lon="13.22284"><ele>401.0</ele><time>2026-04-11T15:44:41.122Z</time></trkpt><trkpt lat="43.2848417" lon="13.22294"><ele>401.0</ele><time>2026-04-11T15:44:42.122Z</time></trkpt><trkpt lat="43.284855" lon="13.2230367"><ele>401.0</ele><time>2026-04-11T15:44:43.122Z</time></trkpt><trkpt lat="43.2848717" lon="13.2231283"><ele>401.0</ele><time>2026-04-11T15:44:44.122Z</time></trkpt><trkpt lat="43.284885" lon="13.2232383"><ele>402.99999999999994</ele><time>2026-04-11T15:44:45.122Z</time></trkpt><trkpt lat="43.2849033" lon="13.22334"><ele>405.0</ele><time>2026-04-11T15:44:46.122Z</time></trkpt><trkpt lat="43.28492" lon="13.2234417"><ele>407.0</ele><time>2026-04-11T15:44:47.122Z</time></trkpt><trkpt lat="43.2849333" lon="13.2235317"><ele>409.0</ele><time>2026-04-11T15:44:48.122Z</time></trkpt><trkpt lat="43.28495" lon="13.2236367"><ele>410.99999999999994</ele><time>2026-04-11T15:44:49.122Z</time></trkpt><trkpt lat="43.284965" lon="13.223725"><ele>413.0</ele><time>2026-04-11T15:44:50.122Z</time></trkpt><trkpt lat="43.2849883" lon="13.22391"><ele>414.42857142857144</ele><time>2026-04-11T15:44:52.122Z</time></trkpt><trkpt lat="43.2850033" lon="13.2239983"><ele>415.8571428571429</ele><time>2026-04-11T15:44:53.122Z</time></trkpt><trkpt lat="43.28502" lon="13.2240867"><ele>417.2857142857143</ele><time>2026-04-11T15:44:54.122Z</time></trkpt><trkpt lat="43.2850367" lon="13.2241717"><ele>418.7142857142857</ele><time>2026-04-11T15:44:55.122Z</time></trkpt><trkpt lat="43.2850583" lon="13.2242583"><ele>420.14285714285717</ele><time>2026-04-11T15:44:56.122Z</time></trkpt><trkpt lat="43.2850767" lon="13.2243483"><ele>421.57142857142856</ele><time>2026-04-11T15:44:57.122Z</time></trkpt><trkpt lat="43.2850933" lon="13.2244467"><ele>423.0</ele><time>2026-04-11T15:44:58.122Z</time></trkpt><trkpt lat="43.2851183" lon="13.2245883"><ele>423.0</ele><time>2026-04-11T15:45:00.122Z</time></trkpt><trkpt lat="43.2851433" lon="13.2247267"><ele>423.0</ele><time>2026-04-11T15:45:02.122Z</time></trkpt><trkpt lat="43.2852033" lon="13.2248767"><ele>423.0</ele><time>2026-04-11T15:45:04.122Z</time></trkpt><trkpt lat="43.2852683" lon="13.2249933"><ele>423.0</ele><time>2026-04-11T15:45:06.122Z</time></trkpt><trkpt lat="43.28532" lon="13.2251067"><ele>423.0</ele><time>2026-04-11T15:45:08.122Z</time></trkpt><trkpt lat="43.2853917" lon="13.2252517"><ele>425.79999999999995</ele><time>2026-04-11T15:45:10.122Z</time></trkpt><trkpt lat="43.28544" lon="13.22535"><ele>428.6</ele><time>2026-04-11T15:45:11.122Z</time></trkpt><trkpt lat="43.285535" lon="13.22554"><ele>431.40000000000003</ele><time>2026-04-11T15:45:13.122Z</time></trkpt><trkpt lat="43.2855783" lon="13.2256517"><ele>434.20000000000005</ele><time>2026-04-11T15:45:14.122Z</time></trkpt><trkpt lat="43.28562" lon="13.2257517"><ele>437.0</ele><time>2026-04-11T15:45:15.122Z</time></trkpt><trkpt lat="43.28566" lon="13.2258483"><ele>433.0</ele><time>2026-04-11T15:45:16.122Z</time></trkpt><trkpt lat="43.2856917" lon="13.2259483"><ele>429.0</ele><time>2026-04-11T15:45:17.122Z</time></trkpt><trkpt lat="43.2857267" lon="13.2260467"><ele>425.0</ele><time>2026-04-11T15:45:18.122Z</time></trkpt><trkpt lat="43.28576" lon="13.2261417"><ele>421.0</ele><time>2026-04-11T15:45:19.122Z</time></trkpt><trkpt lat="43.2857967" lon="13.2262217"><ele>417.0</ele><time>2026-04-11T15:45:20.122Z</time></trkpt><trkpt lat="43.2858333" lon="13.2263033"><ele>413.0</ele><time>2026-04-11T15:45:21.122Z</time></trkpt><trkpt lat="43.2858683" lon="13.2263833"><ele>409.0</ele><time>2026-04-11T15:45:22.122Z</time></trkpt><trkpt lat="43.2859033" lon="13.2264667"><ele>409.6666666666667</ele><time>2026-04-11T15:45:23.122Z</time></trkpt><trkpt lat="43.2859367" lon="13.2265667"><ele>410.33333333333337</ele><time>2026-04-11T15:45:24.122Z</time></trkpt><trkpt lat="43.2859617" lon="13.22666"><ele>411.0</ele><time>2026-04-11T15:45:25.122Z</time></trkpt><trkpt lat="43.28598" lon="13.226765"><ele>411.66666666666663</ele><time>2026-04-11T15:45:26.122Z</time></trkpt><trkpt lat="43.285995" lon="13.2268783"><ele>412.3333333333333</ele><time>2026-04-11T15:45:27.122Z</time></trkpt><trkpt lat="43.28601" lon="13.2269833"><ele>413.0</ele><time>2026-04-11T15:45:28.122Z</time></trkpt><trkpt lat="43.2860217" lon="13.227085"><ele>413.0</ele><time>2026-04-11T15:45:29.123Z</time></trkpt><trkpt lat="43.2860267" lon="13.2271833"><ele>413.0</ele><time>2026-04-11T15:45:30.122Z</time></trkpt><trkpt lat="43.28603" lon="13.227355"><ele>413.0</ele><time>2026-04-11T15:45:32.122Z</time></trkpt><trkpt lat="43.2860233" lon="13.2275417"><ele>413.0</ele><time>2026-04-11T15:45:34.122Z</time></trkpt><trkpt lat="43.2860117" lon="13.2276383"><ele>413.0</ele><time>2026-04-11T15:45:35.122Z</time></trkpt><trkpt lat="43.2860017" lon="13.2277267"><ele>412.2</ele><time>2026-04-11T15:45:36.122Z</time></trkpt><trkpt lat="43.2859683" lon="13.2278483"><ele>411.4</ele><time>2026-04-11T15:45:38.122Z</time></trkpt><trkpt lat="43.2858883" lon="13.227935"><ele>410.59999999999997</ele><time>2026-04-11T15:45:40.122Z</time></trkpt><trkpt lat="43.2858217" lon="13.2279733"><ele>409.79999999999995</ele><time>2026-04-11T15:45:41.122Z</time></trkpt><trkpt lat="43.285735" lon="13.2280167"><ele>409.0</ele><time>2026-04-11T15:45:42.122Z</time></trkpt><trkpt lat="43.2856383" lon="13.2280633"><ele>411.2</ele><time>2026-04-11T15:45:43.122Z</time></trkpt><trkpt lat="43.28554" lon="13.2281167"><ele>413.4</ele><time>2026-04-11T15:45:44.122Z</time></trkpt><trkpt lat="43.28545" lon="13.2281683"><ele>415.6</ele><time>2026-04-11T15:45:45.122Z</time></trkpt><trkpt lat="43.28538" lon="13.22823"><ele>417.8</ele><time>2026-04-11T15:45:46.122Z</time></trkpt><trkpt lat="43.2852817" lon="13.228295"><ele>420.0</ele><time>2026-04-11T15:45:48.122Z</time></trkpt><trkpt lat="43.2851567" lon="13.22833"><ele>415.0</ele><time>2026-04-11T15:45:50.122Z</time></trkpt><trkpt lat="43.2850833" lon="13.228365"><ele>410.0</ele><time>2026-04-11T15:45:51.122Z</time></trkpt><trkpt lat="43.2850217" lon="13.2283917"><ele>405.0</ele><time>2026-04-11T15:45:52.122Z</time></trkpt><trkpt lat="43.2849233" lon="13.2284867"><ele>400.0</ele><time>2026-04-11T15:45:54.122Z</time></trkpt><trkpt lat="43.284855" lon="13.22872"><ele>395.0</ele><time>2026-04-11T15:45:57.122Z</time></trkpt><trkpt lat="43.2848533" lon="13.2288117"><ele>395.0</ele><time>2026-04-11T15:45:58.122Z</time></trkpt><trkpt lat="43.2848617" lon="13.2288983"><ele>395.0</ele><time>2026-04-11T15:45:59.122Z</time></trkpt><trkpt lat="43.2848817" lon="13.2289833"><ele>395.0</ele><time>2026-04-11T15:46:00.122Z</time></trkpt><trkpt lat="43.2849083" lon="13.2290867"><ele>395.0</ele><time>2026-04-11T15:46:01.122Z</time></trkpt><trkpt lat="43.2849217" lon="13.22919"><ele>395.0</ele><time>2026-04-11T15:46:02.122Z</time></trkpt><trkpt lat="43.284935" lon="13.229295"><ele>395.0</ele><time>2026-04-11T15:46:03.122Z</time></trkpt><trkpt lat="43.284945" lon="13.2293983"><ele>395.0</ele><time>2026-04-11T15:46:04.122Z</time></trkpt><trkpt lat="43.2849617" lon="13.2294933"><ele>395.16666666666663</ele><time>2026-04-11T15:46:05.122Z</time></trkpt><trkpt lat="43.2849917" lon="13.2295783"><ele>395.3333333333333</ele><time>2026-04-11T15:46:06.122Z</time></trkpt><trkpt lat="43.2850333" lon="13.2296517"><ele>395.5</ele><time>2026-04-11T15:46:07.122Z</time></trkpt><trkpt lat="43.285085" lon="13.2297183"><ele>395.66666666666663</ele><time>2026-04-11T15:46:08.122Z</time></trkpt><trkpt lat="43.2851367" lon="13.2297833"><ele>395.8333333333333</ele><time>2026-04-11T15:46:09.122Z</time></trkpt><trkpt lat="43.2851883" lon="13.2298717"><ele>396.0</ele><time>2026-04-11T15:46:10.122Z</time></trkpt><trkpt lat="43.285245" lon="13.2299733"><ele>396.0</ele><time>2026-04-11T15:46:11.122Z</time></trkpt><trkpt lat="43.2853067" lon="13.230075"><ele>396.0</ele><time>2026-04-11T15:46:12.122Z</time></trkpt><trkpt lat="43.285375" lon="13.2301867"><ele>396.0</ele><time>2026-04-11T15:46:13.122Z</time></trkpt><trkpt lat="43.2854333" lon="13.2302833"><ele>396.0</ele><time>2026-04-11T15:46:14.122Z</time></trkpt><trkpt lat="43.28549" lon="13.2303767"><ele>396.0</ele><time>2026-04-11T15:46:15.122Z</time></trkpt><trkpt lat="43.28558" lon="13.2305667"><ele>398.6</ele><time>2026-04-11T15:46:18.122Z</time></trkpt><trkpt lat="43.2854983" lon="13.23067"><ele>401.20000000000005</ele><time>2026-04-11T15:46:20.122Z</time></trkpt><trkpt lat="43.285425" lon="13.2306917"><ele>403.79999999999995</ele><time>2026-04-11T15:46:21.122Z</time></trkpt><trkpt lat="43.28533" lon="13.2307067"><ele>406.4</ele><time>2026-04-11T15:46:22.122Z</time></trkpt><trkpt lat="43.2852083" lon="13.230725"><ele>409.0</ele><time>2026-04-11T15:46:23.122Z</time></trkpt><trkpt lat="43.2850917" lon="13.2307517"><ele>409.0</ele><time>2026-04-11T15:46:24.122Z</time></trkpt><trkpt lat="43.2849817" lon="13.2307683"><ele>409.0</ele><time>2026-04-11T15:46:25.121Z</time></trkpt><trkpt lat="43.2848717" lon="13.2307667"><ele>409.0</ele><time>2026-04-11T15:46:26.121Z</time></trkpt><trkpt lat="43.2847667" lon="13.2307383"><ele>409.0</ele><time>2026-04-11T15:46:27.121Z</time></trkpt><trkpt lat="43.2846633" lon="13.2306917"><ele>409.0</ele><time>2026-04-11T15:46:28.121Z</time></trkpt><trkpt lat="43.2845683" lon="13.2306483"><ele>410.0</ele><time>2026-04-11T15:46:29.121Z</time></trkpt><trkpt lat="43.2844717" lon="13.2306133"><ele>411.0</ele><time>2026-04-11T15:46:30.121Z</time></trkpt><trkpt lat="43.2843683" lon="13.230575"><ele>412.0</ele><time>2026-04-11T15:46:31.121Z</time></trkpt><trkpt lat="43.2842683" lon="13.2305317"><ele>413.0</ele><time>2026-04-11T15:46:32.121Z</time></trkpt><trkpt lat="43.28417" lon="13.2304883"><ele>414.0</ele><time>2026-04-11T15:46:33.121Z</time></trkpt><trkpt lat="43.2840633" lon="13.2304433"><ele>414.0</ele><time>2026-04-11T15:46:34.121Z</time></trkpt><trkpt lat="43.2839583" lon="13.230385"><ele>414.0</ele><time>2026-04-11T15:46:35.121Z</time></trkpt><trkpt lat="43.2838483" lon="13.230325"><ele>414.0</ele><time>2026-04-11T15:46:36.121Z</time></trkpt><trkpt lat="43.2836267" lon="13.2301833"><ele>418.0</ele><time>2026-04-11T15:46:38.121Z</time></trkpt><trkpt lat="43.2835133" lon="13.2301117"><ele>422.0</ele><time>2026-04-11T15:46:39.121Z</time></trkpt><trkpt lat="43.283415" lon="13.2300583"><ele>426.0</ele><time>2026-04-11T15:46:40.121Z</time></trkpt><trkpt lat="43.283325" lon="13.2300267"><ele>430.0</ele><time>2026-04-11T15:46:41.121Z</time></trkpt><trkpt lat="43.28324" lon="13.23002"><ele>434.0</ele><time>2026-04-11T15:46:42.121Z</time></trkpt><trkpt lat="43.283165" lon="13.2300267"><ele>435.16666666666663</ele><time>2026-04-11T15:46:43.121Z</time></trkpt><trkpt lat="43.2830883" lon="13.2300667"><ele>436.3333333333333</ele><time>2026-04-11T15:46:44.121Z</time></trkpt><trkpt lat="43.28302" lon="13.23012"><ele>437.5</ele><time>2026-04-11T15:46:45.121Z</time></trkpt><trkpt lat="43.2829383" lon="13.230195"><ele>438.66666666666663</ele><time>2026-04-11T15:46:46.121Z</time></trkpt><trkpt lat="43.2828667" lon="13.2302433"><ele>439.8333333333333</ele><time>2026-04-11T15:46:47.121Z</time></trkpt><trkpt lat="43.28281" lon="13.230285"><ele>441.0</ele><time>2026-04-11T15:46:48.121Z</time></trkpt><trkpt lat="43.2827421" lon="13.2303331"><ele>441.0</ele><time>2026-04-11T15:46:50.121Z</time></trkpt><trkpt lat="43.2828172" lon="13.2304123"><ele>441.0</ele><time>2026-04-11T15:46:56.121Z</time></trkpt><trkpt lat="43.2828727" lon="13.2304604"><ele>441.0</ele><time>2026-04-11T15:46:57.121Z</time></trkpt><trkpt lat="43.2829944" lon="13.2305882"><ele>441.0</ele><time>2026-04-11T15:46:59.121Z</time></trkpt><trkpt lat="43.2830565" lon="13.230664"><ele>441.0</ele><time>2026-04-11T15:47:00.121Z</time></trkpt><trkpt lat="43.2831165" lon="13.2307624"><ele>442.0</ele><time>2026-04-11T15:47:01.121Z</time></trkpt><trkpt lat="43.2831682" lon="13.2308856"><ele>443.0</ele><time>2026-04-11T15:47:02.121Z</time></trkpt><trkpt lat="43.2832088" lon="13.231029"><ele>444.0</ele><time>2026-04-11T15:47:03.121Z</time></trkpt><trkpt lat="43.2832413" lon="13.2311845"><ele>445.0</ele><time>2026-04-11T15:47:04.121Z</time></trkpt><trkpt lat="43.2832742" lon="13.2313505"><ele>446.5</ele><time>2026-04-11T15:47:05.121Z</time></trkpt><trkpt lat="43.2833071" lon="13.2315228"><ele>448.0</ele><time>2026-04-11T15:47:06.121Z</time></trkpt><trkpt lat="43.2833411" lon="13.231699"><ele>449.5</ele><time>2026-04-11T15:47:07.121Z</time></trkpt><trkpt lat="43.2833726" lon="13.2318808"><ele>451.0</ele><time>2026-04-11T15:47:08.121Z</time></trkpt><trkpt lat="43.2834026" lon="13.2320639"><ele>451.0</ele><time>2026-04-11T15:47:09.121Z</time></trkpt><trkpt lat="43.2834253" lon="13.2322509"><ele>451.0</ele><time>2026-04-11T15:47:10.121Z</time></trkpt><trkpt lat="43.2834515" lon="13.2324249"><ele>451.0</ele><time>2026-04-11T15:47:11.121Z</time></trkpt><trkpt lat="43.2834835" lon="13.2325934"><ele>451.0</ele><time>2026-04-11T15:47:12.121Z</time></trkpt><trkpt lat="43.283516" lon="13.2327617"><ele>452.25</ele><time>2026-04-11T15:47:13.122Z</time></trkpt><trkpt lat="43.2835494" lon="13.2329313"><ele>453.5</ele><time>2026-04-11T15:47:14.121Z</time></trkpt><trkpt lat="43.2835832" lon="13.2331144"><ele>454.75</ele><time>2026-04-11T15:47:15.121Z</time></trkpt><trkpt lat="43.2836198" lon="13.2332977"><ele>456.0</ele><time>2026-04-11T15:47:16.121Z</time></trkpt><trkpt lat="43.2836504" lon="13.2334648"><ele>456.0</ele><time>2026-04-11T15:47:17.121Z</time></trkpt><trkpt lat="43.2836792" lon="13.2336226"><ele>456.0</ele><time>2026-04-11T15:47:18.121Z</time></trkpt><trkpt lat="43.2837302" lon="13.2339574"><ele>456.0</ele><time>2026-04-11T15:47:20.121Z</time></trkpt><trkpt lat="43.2837593" lon="13.2341378"><ele>457.5</ele><time>2026-04-11T15:47:21.121Z</time></trkpt><trkpt lat="43.2837922" lon="13.2343225"><ele>459.0</ele><time>2026-04-11T15:47:22.121Z</time></trkpt><trkpt lat="43.2838262" lon="13.2345134"><ele>460.5</ele><time>2026-04-11T15:47:23.121Z</time></trkpt><trkpt lat="43.2838616" lon="13.2347028"><ele>462.0</ele><time>2026-04-11T15:47:24.121Z</time></trkpt><trkpt lat="43.2838952" lon="13.2348881"><ele>462.75</ele><time>2026-04-11T15:47:25.121Z</time></trkpt><trkpt lat="43.2839286" lon="13.2350775"><ele>463.5</ele><time>2026-04-11T15:47:26.121Z</time></trkpt><trkpt lat="43.2839606" lon="13.2352731"><ele>464.25</ele><time>2026-04-11T15:47:27.121Z</time></trkpt><trkpt lat="43.2839913" lon="13.2354722"><ele>465.0</ele><time>2026-04-11T15:47:28.121Z</time></trkpt><trkpt lat="43.284024" lon="13.2356676"><ele>460.0</ele><time>2026-04-11T15:47:29.121Z</time></trkpt><trkpt lat="43.2840544" lon="13.2358571"><ele>455.0</ele><time>2026-04-11T15:47:30.121Z</time></trkpt><trkpt lat="43.2840831" lon="13.2360471"><ele>450.0</ele><time>2026-04-11T15:47:31.121Z</time></trkpt><trkpt lat="43.2841055" lon="13.2362346"><ele>445.0</ele><time>2026-04-11T15:47:32.121Z</time></trkpt><trkpt lat="43.2841383" lon="13.2364162"><ele>444.75</ele><time>2026-04-11T15:47:33.121Z</time></trkpt><trkpt lat="43.284179" lon="13.2365868"><ele>444.5</ele><time>2026-04-11T15:47:34.121Z</time></trkpt><trkpt lat="43.2842347" lon="13.236753"><ele>444.25</ele><time>2026-04-11T15:47:35.121Z</time></trkpt><trkpt lat="43.2843135" lon="13.236923"><ele>444.0</ele><time>2026-04-11T15:47:36.121Z</time></trkpt><trkpt lat="43.2844098" lon="13.237079"><ele>444.0</ele><time>2026-04-11T15:47:37.121Z</time></trkpt><trkpt lat="43.2845154" lon="13.2372208"><ele>444.0</ele><time>2026-04-11T15:47:38.121Z</time></trkpt><trkpt lat="43.2846155" lon="13.2373603"><ele>444.0</ele><time>2026-04-11T15:47:39.121Z</time></trkpt><trkpt lat="43.2847675" lon="13.2376432"><ele>441.5</ele><time>2026-04-11T15:47:41.121Z</time></trkpt><trkpt lat="43.2848184" lon="13.2377954"><ele>439.0</ele><time>2026-04-11T15:47:42.121Z</time></trkpt><trkpt lat="43.2848523" lon="13.2379644"><ele>436.5</ele><time>2026-04-11T15:47:43.121Z</time></trkpt><trkpt lat="43.28487" lon="13.2381418"><ele>434.0</ele><time>2026-04-11T15:47:44.121Z</time></trkpt><trkpt lat="43.2848833" lon="13.2383188"><ele>434.0</ele><time>2026-04-11T15:47:45.121Z</time></trkpt><trkpt lat="43.2848936" lon="13.2384993"><ele>434.0</ele><time>2026-04-11T15:47:46.121Z</time></trkpt><trkpt lat="43.2848963" lon="13.2386831"><ele>434.0</ele><time>2026-04-11T15:47:47.121Z</time></trkpt><trkpt lat="43.2848966" lon="13.238866"><ele>434.0</ele><time>2026-04-11T15:47:48.121Z</time></trkpt><trkpt lat="43.2849019" lon="13.2390437"><ele>433.5</ele><time>2026-04-11T15:47:49.121Z</time></trkpt><trkpt lat="43.2849251" lon="13.2392125"><ele>433.0</ele><time>2026-04-11T15:47:50.121Z</time></trkpt><trkpt lat="43.2849543" lon="13.2393776"><ele>432.5</ele><time>2026-04-11T15:47:51.121Z</time></trkpt><trkpt lat="43.2849843" lon="13.2395425"><ele>432.0</ele><time>2026-04-11T15:47:52.121Z</time></trkpt><trkpt lat="43.2850226" lon="13.2396995"><ele>430.0</ele><time>2026-04-11T15:47:53.121Z</time></trkpt><trkpt lat="43.2850777" lon="13.2398696"><ele>428.0</ele><time>2026-04-11T15:47:54.121Z</time></trkpt><trkpt lat="43.2851482" lon="13.2400503"><ele>426.0</ele><time>2026-04-11T15:47:55.121Z</time></trkpt><trkpt lat="43.2852231" lon="13.2402338"><ele>424.0</ele><time>2026-04-11T15:47:56.121Z</time></trkpt><trkpt lat="43.2852956" lon="13.2404071"><ele>424.0</ele><time>2026-04-11T15:47:57.121Z</time></trkpt><trkpt lat="43.2853688" lon="13.2405792"><ele>424.0</ele><time>2026-04-11T15:47:58.121Z</time></trkpt><trkpt lat="43.2854338" lon="13.2407538"><ele>424.0</ele><time>2026-04-11T15:47:59.121Z</time></trkpt><trkpt lat="43.2854894" lon="13.2409218"><ele>424.0</ele><time>2026-04-11T15:48:00.121Z</time></trkpt><trkpt lat="43.2855732" lon="13.2412734"><ele>420.33333333333337</ele><time>2026-04-11T15:48:02.121Z</time></trkpt><trkpt lat="43.2855918" lon="13.2414662"><ele>416.66666666666663</ele><time>2026-04-11T15:48:03.121Z</time></trkpt><trkpt lat="43.2855928" lon="13.2416849"><ele>413.0</ele><time>2026-04-11T15:48:04.121Z</time></trkpt><trkpt lat="43.2855857" lon="13.2418936"><ele>413.0</ele><time>2026-04-11T15:48:05.121Z</time></trkpt><trkpt lat="43.2855703" lon="13.2420946"><ele>413.0</ele><time>2026-04-11T15:48:06.121Z</time></trkpt><trkpt lat="43.2855702" lon="13.2422979"><ele>413.0</ele><time>2026-04-11T15:48:07.121Z</time></trkpt><trkpt lat="43.2855951" lon="13.2425136"><ele>407.0</ele><time>2026-04-11T15:48:08.121Z</time></trkpt><trkpt lat="43.2856161" lon="13.2427192"><ele>401.0</ele><time>2026-04-11T15:48:09.121Z</time></trkpt><trkpt lat="43.2856331" lon="13.2429309"><ele>395.0</ele><time>2026-04-11T15:48:10.121Z</time></trkpt><trkpt lat="43.2856467" lon="13.2431518"><ele>395.0</ele><time>2026-04-11T15:48:11.121Z</time></trkpt><trkpt lat="43.2856543" lon="13.2433593"><ele>395.0</ele><time>2026-04-11T15:48:12.121Z</time></trkpt><trkpt lat="43.2856673" lon="13.2435672"><ele>395.0</ele><time>2026-04-11T15:48:13.121Z</time></trkpt><trkpt lat="43.2856778" lon="13.2437634"><ele>395.0</ele><time>2026-04-11T15:48:14.121Z</time></trkpt><trkpt lat="43.2856862" lon="13.2439389"><ele>394.75</ele><time>2026-04-11T15:48:15.121Z</time></trkpt><trkpt lat="43.2856907" lon="13.2441119"><ele>394.5</ele><time>2026-04-11T15:48:16.121Z</time></trkpt><trkpt lat="43.2856967" lon="13.2442944"><ele>394.25</ele><time>2026-04-11T15:48:17.121Z</time></trkpt><trkpt lat="43.2856994" lon="13.2444886"><ele>394.0</ele><time>2026-04-11T15:48:18.121Z</time></trkpt><trkpt lat="43.2857039" lon="13.2446941"><ele>394.0</ele><time>2026-04-11T15:48:19.121Z</time></trkpt><trkpt lat="43.2857131" lon="13.2449058"><ele>394.0</ele><time>2026-04-11T15:48:20.122Z</time></trkpt><trkpt lat="43.2857216" lon="13.2451444"><ele>394.0</ele><time>2026-04-11T15:48:21.121Z</time></trkpt><trkpt lat="43.2857556" lon="13.2456304"><ele>393.5</ele><time>2026-04-11T15:48:23.121Z</time></trkpt><trkpt lat="43.285775" lon="13.2458405"><ele>393.0</ele><time>2026-04-11T15:48:24.121Z</time></trkpt><trkpt lat="43.2857871" lon="13.2460377"><ele>392.5</ele><time>2026-04-11T15:48:25.121Z</time></trkpt><trkpt lat="43.2857906" lon="13.2462371"><ele>392.0</ele><time>2026-04-11T15:48:26.121Z</time></trkpt><trkpt lat="43.2857936" lon="13.246446"><ele>391.75</ele><time>2026-04-11T15:48:27.121Z</time></trkpt><trkpt lat="43.2857886" lon="13.2466516"><ele>391.5</ele><time>2026-04-11T15:48:28.121Z</time></trkpt><trkpt lat="43.2857766" lon="13.246856"><ele>391.25</ele><time>2026-04-11T15:48:29.121Z</time></trkpt><trkpt lat="43.2857527" lon="13.2470467"><ele>391.0</ele><time>2026-04-11T15:48:30.121Z</time></trkpt><trkpt lat="43.2857308" lon="13.2472355"><ele>390.75</ele><time>2026-04-11T15:48:31.121Z</time></trkpt><trkpt lat="43.2857045" lon="13.2474198"><ele>390.5</ele><time>2026-04-11T15:48:32.121Z</time></trkpt><trkpt lat="43.2856689" lon="13.2476085"><ele>390.25</ele><time>2026-04-11T15:48:33.121Z</time></trkpt><trkpt lat="43.2856353" lon="13.2477945"><ele>390.0</ele><time>2026-04-11T15:48:34.121Z</time></trkpt><trkpt lat="43.2856157" lon="13.2479878"><ele>389.5</ele><time>2026-04-11T15:48:35.121Z</time></trkpt><trkpt lat="43.2855991" lon="13.2481772"><ele>389.0</ele><time>2026-04-11T15:48:36.121Z</time></trkpt><trkpt lat="43.285586" lon="13.2483529"><ele>388.5</ele><time>2026-04-11T15:48:37.121Z</time></trkpt><trkpt lat="43.2855685" lon="13.2485288"><ele>388.0</ele><time>2026-04-11T15:48:38.121Z</time></trkpt><trkpt lat="43.2855356" lon="13.2486877"><ele>389.5</ele><time>2026-04-11T15:48:39.121Z</time></trkpt><trkpt lat="43.285492" lon="13.2488274"><ele>391.0</ele><time>2026-04-11T15:48:40.121Z</time></trkpt><trkpt lat="43.2854491" lon="13.2489598"><ele>392.5</ele><time>2026-04-11T15:48:41.121Z</time></trkpt><trkpt lat="43.2854031" lon="13.2490991"><ele>394.0</ele><time>2026-04-11T15:48:42.121Z</time></trkpt><trkpt lat="43.2852851" lon="13.2493556"><ele>394.0</ele><time>2026-04-11T15:48:44.121Z</time></trkpt><trkpt lat="43.2851981" lon="13.2494649"><ele>394.0</ele><time>2026-04-11T15:48:45.121Z</time></trkpt><trkpt lat="43.2850772" lon="13.2495682"><ele>394.0</ele><time>2026-04-11T15:48:46.121Z</time></trkpt><trkpt lat="43.2849349" lon="13.249664"><ele>394.0</ele><time>2026-04-11T15:48:47.121Z</time></trkpt><trkpt lat="43.2847943" lon="13.2497555"><ele>392.75</ele><time>2026-04-11T15:48:48.121Z</time></trkpt><trkpt lat="43.2846699" lon="13.249835"><ele>391.5</ele><time>2026-04-11T15:48:49.121Z</time></trkpt><trkpt lat="43.2845528" lon="13.2499132"><ele>390.25</ele><time>2026-04-11T15:48:50.121Z</time></trkpt><trkpt lat="43.2844427" lon="13.2499967"><ele>389.0</ele><time>2026-04-11T15:48:51.121Z</time></trkpt><trkpt lat="43.2843367" lon="13.250075"><ele>389.0</ele><time>2026-04-11T15:48:52.121Z</time></trkpt><trkpt lat="43.284236" lon="13.2501449"><ele>389.0</ele><time>2026-04-11T15:48:53.121Z</time></trkpt><trkpt lat="43.2841413" lon="13.2501976"><ele>389.0</ele><time>2026-04-11T15:48:54.121Z</time></trkpt><trkpt lat="43.2840492" lon="13.2502329"><ele>389.0</ele><time>2026-04-11T15:48:55.121Z</time></trkpt><trkpt lat="43.2839606" lon="13.2502616"><ele>389.0</ele><time>2026-04-11T15:48:56.121Z</time></trkpt><trkpt lat="43.2838767" lon="13.250299"><ele>388.99999999999994</ele><time>2026-04-11T15:48:57.121Z</time></trkpt><trkpt lat="43.2837966" lon="13.2503476"><ele>389.0</ele><time>2026-04-11T15:48:58.121Z</time></trkpt><trkpt lat="43.2837256" lon="13.250401"><ele>389.0</ele><time>2026-04-11T15:48:59.121Z</time></trkpt><trkpt lat="43.2836694" lon="13.2504534"><ele>389.0</ele><time>2026-04-11T15:49:00.121Z</time></trkpt><trkpt lat="43.2835884" lon="13.2505666"><ele>388.99999999999994</ele><time>2026-04-11T15:49:02.121Z</time></trkpt><trkpt lat="43.2835547" lon="13.2506426"><ele>389.0</ele><time>2026-04-11T15:49:03.121Z</time></trkpt><trkpt lat="43.2835063" lon="13.2508685"><ele>385.25</ele><time>2026-04-11T15:49:05.121Z</time></trkpt><trkpt lat="43.2834842" lon="13.2510233"><ele>381.5</ele><time>2026-04-11T15:49:06.121Z</time></trkpt><trkpt lat="43.2834632" lon="13.2511867"><ele>377.75</ele><time>2026-04-11T15:49:07.121Z</time></trkpt><trkpt lat="43.2834459" lon="13.2513428"><ele>374.0</ele><time>2026-04-11T15:49:08.121Z</time></trkpt><trkpt lat="43.2834398" lon="13.2515255"><ele>371.0</ele><time>2026-04-11T15:49:09.121Z</time></trkpt><trkpt lat="43.2834167" lon="13.251718"><ele>368.0</ele><time>2026-04-11T15:49:10.121Z</time></trkpt><trkpt lat="43.2833917" lon="13.2519153"><ele>365.0</ele><time>2026-04-11T15:49:11.121Z</time></trkpt><trkpt lat="43.2833684" lon="13.252107"><ele>362.0</ele><time>2026-04-11T15:49:12.121Z</time></trkpt><trkpt lat="43.2833428" lon="13.2523065"><ele>358.0</ele><time>2026-04-11T15:49:13.121Z</time></trkpt><trkpt lat="43.2833124" lon="13.2524935"><ele>354.0</ele><time>2026-04-11T15:49:14.121Z</time></trkpt><trkpt lat="43.2832787" lon="13.2526936"><ele>350.0</ele><time>2026-04-11T15:49:15.121Z</time></trkpt><trkpt lat="43.2832479" lon="13.2529156"><ele>345.6666666666667</ele><time>2026-04-11T15:49:16.121Z</time></trkpt><trkpt lat="43.2832246" lon="13.2531486"><ele>341.3333333333333</ele><time>2026-04-11T15:49:17.121Z</time></trkpt><trkpt lat="43.2831972" lon="13.2533798"><ele>337.0</ele><time>2026-04-11T15:49:18.121Z</time></trkpt><trkpt lat="43.2831676" lon="13.2535968"><ele>337.0</ele><time>2026-04-11T15:49:19.121Z</time></trkpt><trkpt lat="43.283133" lon="13.2538031"><ele>337.0</ele><time>2026-04-11T15:49:20.121Z</time></trkpt><trkpt lat="43.2831033" lon="13.2539989"><ele>337.0</ele><time>2026-04-11T15:49:21.121Z</time></trkpt><trkpt lat="43.2830761" lon="13.2541808"><ele>337.0</ele><time>2026-04-11T15:49:22.121Z</time></trkpt><trkpt lat="43.2830536" lon="13.2543519"><ele>331.3333333333333</ele><time>2026-04-11T15:49:23.121Z</time></trkpt><trkpt lat="43.2830269" lon="13.2545162"><ele>325.6666666666667</ele><time>2026-04-11T15:49:24.121Z</time></trkpt><trkpt lat="43.2829648" lon="13.2548636"><ele>320.0</ele><time>2026-04-11T15:49:26.121Z</time></trkpt><trkpt lat="43.2829402" lon="13.2550437"><ele>317.75</ele><time>2026-04-11T15:49:27.121Z</time></trkpt><trkpt lat="43.2829197" lon="13.2552211"><ele>315.5</ele><time>2026-04-11T15:49:28.121Z</time></trkpt><trkpt lat="43.2828937" lon="13.2553907"><ele>313.25</ele><time>2026-04-11T15:49:29.121Z</time></trkpt><trkpt lat="43.2828641" lon="13.255574"><ele>311.0</ele><time>2026-04-11T15:49:30.121Z</time></trkpt><trkpt lat="43.2828373" lon="13.2557554"><ele>308.25</ele><time>2026-04-11T15:49:31.121Z</time></trkpt><trkpt lat="43.2828135" lon="13.2559228"><ele>305.5</ele><time>2026-04-11T15:49:32.121Z</time></trkpt><trkpt lat="43.282789" lon="13.2560896"><ele>302.75</ele><time>2026-04-11T15:49:33.121Z</time></trkpt><trkpt lat="43.2827628" lon="13.2562646"><ele>300.0</ele><time>2026-04-11T15:49:34.121Z</time></trkpt><trkpt lat="43.2827358" lon="13.2564499"><ele>296.0</ele><time>2026-04-11T15:49:35.121Z</time></trkpt><trkpt lat="43.2827135" lon="13.2566526"><ele>292.0</ele><time>2026-04-11T15:49:36.121Z</time></trkpt><trkpt lat="43.282679" lon="13.2568666"><ele>288.0</ele><time>2026-04-11T15:49:37.121Z</time></trkpt><trkpt lat="43.282645" lon="13.2570733"><ele>288.0</ele><time>2026-04-11T15:49:38.121Z</time></trkpt><trkpt lat="43.2826183" lon="13.2572633"><ele>288.0</ele><time>2026-04-11T15:49:39.121Z</time></trkpt><trkpt lat="43.2825933" lon="13.2574433"><ele>288.0</ele><time>2026-04-11T15:49:40.121Z</time></trkpt><trkpt lat="43.282565" lon="13.2576317"><ele>288.0</ele><time>2026-04-11T15:49:41.121Z</time></trkpt><trkpt lat="43.2825317" lon="13.257815"><ele>285.25</ele><time>2026-04-11T15:49:42.121Z</time></trkpt><trkpt lat="43.282505" lon="13.257985"><ele>282.5</ele><time>2026-04-11T15:49:43.121Z</time></trkpt><trkpt lat="43.28248" lon="13.258135"><ele>279.75</ele><time>2026-04-11T15:49:44.121Z</time></trkpt><trkpt lat="43.282465" lon="13.2582883"><ele>277.0</ele><time>2026-04-11T15:49:45.121Z</time></trkpt><trkpt lat="43.282435" lon="13.2586"><ele>274.75</ele><time>2026-04-11T15:49:47.121Z</time></trkpt><trkpt lat="43.28241" lon="13.2587617"><ele>272.5</ele><time>2026-04-11T15:49:48.121Z</time></trkpt><trkpt lat="43.282385" lon="13.2589283"><ele>270.25</ele><time>2026-04-11T15:49:49.121Z</time></trkpt><trkpt lat="43.2823617" lon="13.259075"><ele>268.0</ele><time>2026-04-11T15:49:50.121Z</time></trkpt><trkpt lat="43.28234" lon="13.259205"><ele>266.5</ele><time>2026-04-11T15:49:51.121Z</time></trkpt><trkpt lat="43.2823167" lon="13.259325"><ele>265.0</ele><time>2026-04-11T15:49:52.121Z</time></trkpt><trkpt lat="43.2822983" lon="13.2594283"><ele>263.5</ele><time>2026-04-11T15:49:53.121Z</time></trkpt><trkpt lat="43.2822867" lon="13.2595317"><ele>262.0</ele><time>2026-04-11T15:49:54.121Z</time></trkpt><trkpt lat="43.28227" lon="13.2596383"><ele>260.5</ele><time>2026-04-11T15:49:55.121Z</time></trkpt><trkpt lat="43.2822517" lon="13.2597683"><ele>259.0</ele><time>2026-04-11T15:49:56.121Z</time></trkpt><trkpt lat="43.28223" lon="13.2599117"><ele>256.5</ele><time>2026-04-11T15:49:57.121Z</time></trkpt><trkpt lat="43.2822" lon="13.2600717"><ele>254.0</ele><time>2026-04-11T15:49:58.121Z</time></trkpt><trkpt lat="43.2821633" lon="13.260235"><ele>251.5</ele><time>2026-04-11T15:49:59.121Z</time></trkpt><trkpt lat="43.2821233" lon="13.2604033"><ele>249.0</ele><time>2026-04-11T15:50:00.121Z</time></trkpt><trkpt lat="43.282095" lon="13.2605667"><ele>248.0</ele><time>2026-04-11T15:50:01.121Z</time></trkpt><trkpt lat="43.2820683" lon="13.2607283"><ele>246.99999999999997</ele><time>2026-04-11T15:50:02.121Z</time></trkpt><trkpt lat="43.2820483" lon="13.2608767"><ele>245.99999999999997</ele><time>2026-04-11T15:50:03.121Z</time></trkpt><trkpt lat="43.2820317" lon="13.26102"><ele>245.0</ele><time>2026-04-11T15:50:04.121Z</time></trkpt><trkpt lat="43.2820167" lon="13.2611583"><ele>244.0</ele><time>2026-04-11T15:50:05.121Z</time></trkpt><trkpt lat="43.2819967" lon="13.261295"><ele>241.75</ele><time>2026-04-11T15:50:06.121Z</time></trkpt><trkpt lat="43.2819367" lon="13.2615633"><ele>239.5</ele><time>2026-04-11T15:50:08.121Z</time></trkpt><trkpt lat="43.2818983" lon="13.261685"><ele>237.25</ele><time>2026-04-11T15:50:09.121Z</time></trkpt><trkpt lat="43.28186" lon="13.2617983"><ele>235.0</ele><time>2026-04-11T15:50:10.121Z</time></trkpt><trkpt lat="43.2818167" lon="13.2619117"><ele>234.99999999999997</ele><time>2026-04-11T15:50:11.121Z</time></trkpt><trkpt lat="43.2817783" lon="13.26202"><ele>235.0</ele><time>2026-04-11T15:50:12.121Z</time></trkpt><trkpt lat="43.28175" lon="13.2621217"><ele>235.0</ele><time>2026-04-11T15:50:13.121Z</time></trkpt><trkpt lat="43.28173" lon="13.2622233"><ele>235.0</ele><time>2026-04-11T15:50:14.121Z</time></trkpt><trkpt lat="43.2817167" lon="13.26233"><ele>234.99999999999997</ele><time>2026-04-11T15:50:15.121Z</time></trkpt><trkpt lat="43.28171" lon="13.262455"><ele>235.0</ele><time>2026-04-11T15:50:16.121Z</time></trkpt><trkpt lat="43.2817033" lon="13.2626"><ele>233.2</ele><time>2026-04-11T15:50:17.121Z</time></trkpt><trkpt lat="43.2816933" lon="13.26275"><ele>231.4</ele><time>2026-04-11T15:50:18.121Z</time></trkpt><trkpt lat="43.2816733" lon="13.262905"><ele>229.60000000000002</ele><time>2026-04-11T15:50:19.121Z</time></trkpt><trkpt lat="43.281655" lon="13.2630217"><ele>227.8</ele><time>2026-04-11T15:50:20.121Z</time></trkpt><trkpt lat="43.2816383" lon="13.26312"><ele>226.0</ele><time>2026-04-11T15:50:21.121Z</time></trkpt><trkpt lat="43.2816217" lon="13.26322"><ele>223.8</ele><time>2026-04-11T15:50:22.121Z</time></trkpt><trkpt lat="43.281595" lon="13.263325"><ele>221.60000000000002</ele><time>2026-04-11T15:50:23.121Z</time></trkpt><trkpt lat="43.281575" lon="13.263445"><ele>219.4</ele><time>2026-04-11T15:50:24.121Z</time></trkpt><trkpt lat="43.281555" lon="13.2635867"><ele>217.2</ele><time>2026-04-11T15:50:25.121Z</time></trkpt><trkpt lat="43.2815417" lon="13.2637333"><ele>215.0</ele><time>2026-04-11T15:50:26.121Z</time></trkpt><trkpt lat="43.28153" lon="13.2638883"><ele>213.5</ele><time>2026-04-11T15:50:27.121Z</time></trkpt><trkpt lat="43.2815017" lon="13.2641733"><ele>212.0</ele><time>2026-04-11T15:50:29.121Z</time></trkpt><trkpt lat="43.2814933" lon="13.2642817"><ele>210.5</ele><time>2026-04-11T15:50:30.121Z</time></trkpt><trkpt lat="43.28154" lon="13.2643667"><ele>209.0</ele><time>2026-04-11T15:50:32.121Z</time></trkpt><trkpt lat="43.2816367" lon="13.264345"><ele>209.00000000000003</ele><time>2026-04-11T15:50:34.121Z</time></trkpt><trkpt lat="43.2817033" lon="13.2643033"><ele>209.0</ele><time>2026-04-11T15:50:35.121Z</time></trkpt><trkpt lat="43.281785" lon="13.26425"><ele>209.0</ele><time>2026-04-11T15:50:36.121Z</time></trkpt><trkpt lat="43.28187" lon="13.26419"><ele>209.0</ele><time>2026-04-11T15:50:37.121Z</time></trkpt><trkpt lat="43.2819417" lon="13.2641417"><ele>209.00000000000003</ele><time>2026-04-11T15:50:38.121Z</time></trkpt><trkpt lat="43.2820467" lon="13.2641067"><ele>209.0</ele><time>2026-04-11T15:50:40.121Z</time></trkpt><trkpt lat="43.282105" lon="13.264185"><ele>209.00000000000003</ele><time>2026-04-11T15:50:42.121Z</time></trkpt><trkpt lat="43.28213" lon="13.2642817"><ele>209.0</ele><time>2026-04-11T15:50:43.121Z</time></trkpt><trkpt lat="43.2821517" lon="13.2644067"><ele>209.0</ele><time>2026-04-11T15:50:44.121Z</time></trkpt><trkpt lat="43.2821683" lon="13.2645383"><ele>209.0</ele><time>2026-04-11T15:50:45.121Z</time></trkpt><trkpt lat="43.2821767" lon="13.2646617"><ele>209.00000000000003</ele><time>2026-04-11T15:50:46.121Z</time></trkpt><trkpt lat="43.2821767" lon="13.2647883"><ele>209.0</ele><time>2026-04-11T15:50:47.121Z</time></trkpt><trkpt lat="43.2821733" lon="13.2649083"><ele>207.5</ele><time>2026-04-11T15:50:48.121Z</time></trkpt><trkpt lat="43.282165" lon="13.26516"><ele>206.0</ele><time>2026-04-11T15:50:50.121Z</time></trkpt><trkpt lat="43.2821567" lon="13.265295"><ele>204.5</ele><time>2026-04-11T15:50:51.121Z</time></trkpt><trkpt lat="43.2821517" lon="13.2654267"><ele>203.0</ele><time>2026-04-11T15:50:52.121Z</time></trkpt><trkpt lat="43.28215" lon="13.2655367"><ele>203.0</ele><time>2026-04-11T15:50:53.121Z</time></trkpt><trkpt lat="43.2821867" lon="13.265685"><ele>203.0</ele><time>2026-04-11T15:50:55.121Z</time></trkpt><trkpt lat="43.2822333" lon="13.2657483"><ele>203.0</ele><time>2026-04-11T15:50:56.121Z</time></trkpt><trkpt lat="43.2823017" lon="13.265825"><ele>203.0</ele><time>2026-04-11T15:50:57.121Z</time></trkpt><trkpt lat="43.2823733" lon="13.2659117"><ele>203.0</ele><time>2026-04-11T15:50:58.121Z</time></trkpt><trkpt lat="43.282435" lon="13.266015"><ele>203.0</ele><time>2026-04-11T15:50:59.121Z</time></trkpt><trkpt lat="43.2824883" lon="13.2661333"><ele>203.0</ele><time>2026-04-11T15:51:00.121Z</time></trkpt><trkpt lat="43.282525" lon="13.2662483"><ele>203.0</ele><time>2026-04-11T15:51:01.121Z</time></trkpt><trkpt lat="43.28255" lon="13.2663583"><ele>203.0</ele><time>2026-04-11T15:51:02.121Z</time></trkpt><trkpt lat="43.2825717" lon="13.2664783"><ele>203.0</ele><time>2026-04-11T15:51:03.121Z</time></trkpt><trkpt lat="43.2825867" lon="13.26661"><ele>204.50000000000003</ele><time>2026-04-11T15:51:04.121Z</time></trkpt><trkpt lat="43.2826033" lon="13.2667033"><ele>206.0</ele><time>2026-04-11T15:51:05.121Z</time></trkpt><trkpt lat="43.2826083" lon="13.26679"><ele>207.5</ele><time>2026-04-11T15:51:06.121Z</time></trkpt><trkpt lat="43.2825933" lon="13.2668917"><ele>209.0</ele><time>2026-04-11T15:51:07.121Z</time></trkpt><trkpt lat="43.2825733" lon="13.2670067"><ele>210.50000000000003</ele><time>2026-04-11T15:51:08.121Z</time></trkpt><trkpt lat="43.2825467" lon="13.2671283"><ele>212.0</ele><time>2026-04-11T15:51:09.121Z</time></trkpt><trkpt lat="43.2824767" lon="13.2673733"><ele>213.8</ele><time>2026-04-11T15:51:11.121Z</time></trkpt><trkpt lat="43.2824367" lon="13.2674867"><ele>215.6</ele><time>2026-04-11T15:51:12.121Z</time></trkpt><trkpt lat="43.28239" lon="13.2676117"><ele>217.40000000000003</ele><time>2026-04-11T15:51:13.121Z</time></trkpt><trkpt lat="43.282335" lon="13.26776"><ele>219.20000000000002</ele><time>2026-04-11T15:51:14.121Z</time></trkpt><trkpt lat="43.2822733" lon="13.2679167"><ele>221.0</ele><time>2026-04-11T15:51:15.121Z</time></trkpt><trkpt lat="43.28221" lon="13.2680717"><ele>223.4</ele><time>2026-04-11T15:51:16.121Z</time></trkpt><trkpt lat="43.28215" lon="13.2682083"><ele>225.8</ele><time>2026-04-11T15:51:17.121Z</time></trkpt><trkpt lat="43.2820883" lon="13.26833"><ele>228.20000000000002</ele><time>2026-04-11T15:51:18.121Z</time></trkpt><trkpt lat="43.282045" lon="13.2684433"><ele>230.60000000000002</ele><time>2026-04-11T15:51:19.121Z</time></trkpt><trkpt lat="43.2820017" lon="13.2685533"><ele>233.0</ele><time>2026-04-11T15:51:20.121Z</time></trkpt><trkpt lat="43.281955" lon="13.2686667"><ele>233.00000000000003</ele><time>2026-04-11T15:51:21.121Z</time></trkpt><trkpt lat="43.2819067" lon="13.2687883"><ele>233.0</ele><time>2026-04-11T15:51:22.122Z</time></trkpt><trkpt lat="43.2818783" lon="13.2688833"><ele>233.0</ele><time>2026-04-11T15:51:23.121Z</time></trkpt><trkpt lat="43.28186" lon="13.269"><ele>233.0</ele><time>2026-04-11T15:51:25.121Z</time></trkpt><trkpt lat="43.281825" lon="13.269085"><ele>233.00000000000003</ele><time>2026-04-11T15:51:29.121Z</time></trkpt><trkpt lat="43.2818067" lon="13.2692167"><ele>233.0</ele><time>2026-04-11T15:51:58.121Z</time></trkpt><trkpt lat="43.2818467" lon="13.26952"><ele>233.60000000000002</ele><time>2026-04-11T15:52:02.121Z</time></trkpt><trkpt lat="43.2818217" lon="13.2696"><ele>234.20000000000002</ele><time>2026-04-11T15:52:03.121Z</time></trkpt><trkpt lat="43.2817633" lon="13.2696883"><ele>234.8</ele><time>2026-04-11T15:52:04.121Z</time></trkpt><trkpt lat="43.2816867" lon="13.2698"><ele>235.4</ele><time>2026-04-11T15:52:05.121Z</time></trkpt><trkpt lat="43.2815817" lon="13.26993"><ele>236.0</ele><time>2026-04-11T15:52:06.121Z</time></trkpt><trkpt lat="43.2814717" lon="13.2700517"><ele>236.0</ele><time>2026-04-11T15:52:07.121Z</time></trkpt><trkpt lat="43.2813683" lon="13.2701517"><ele>236.0</ele><time>2026-04-11T15:52:08.121Z</time></trkpt><trkpt lat="43.2812667" lon="13.27024"><ele>236.0</ele><time>2026-04-11T15:52:09.121Z</time></trkpt><trkpt lat="43.2811683" lon="13.2703233"><ele>236.0</ele><time>2026-04-11T15:52:10.121Z</time></trkpt><trkpt lat="43.28108" lon="13.2704"><ele>236.00000000000003</ele><time>2026-04-11T15:52:11.121Z</time></trkpt><trkpt lat="43.2810083" lon="13.270465"><ele>236.0</ele><time>2026-04-11T15:52:12.121Z</time></trkpt><trkpt lat="43.280945" lon="13.27053"><ele>236.0</ele><time>2026-04-11T15:52:13.121Z</time></trkpt><trkpt lat="43.2808967" lon="13.27061"><ele>236.0</ele><time>2026-04-11T15:52:14.121Z</time></trkpt><trkpt lat="43.28086" lon="13.2707017"><ele>236.00000000000003</ele><time>2026-04-11T15:52:15.121Z</time></trkpt><trkpt lat="43.280835" lon="13.2708033"><ele>236.0</ele><time>2026-04-11T15:52:16.121Z</time></trkpt><trkpt lat="43.2808233" lon="13.2709267"><ele>236.66666666666669</ele><time>2026-04-11T15:52:17.121Z</time></trkpt><trkpt lat="43.280815" lon="13.2710717"><ele>237.33333333333331</ele><time>2026-04-11T15:52:18.121Z</time></trkpt><trkpt lat="43.2808" lon="13.27123"><ele>238.0</ele><time>2026-04-11T15:52:19.121Z</time></trkpt><trkpt lat="43.2807733" lon="13.271555"><ele>238.0</ele><time>2026-04-11T15:52:21.121Z</time></trkpt><trkpt lat="43.2807617" lon="13.2717167"><ele>238.0</ele><time>2026-04-11T15:52:22.121Z</time></trkpt><trkpt lat="43.28075" lon="13.271885"><ele>238.0</ele><time>2026-04-11T15:52:23.121Z</time></trkpt><trkpt lat="43.2807367" lon="13.2720567"><ele>238.0</ele><time>2026-04-11T15:52:24.121Z</time></trkpt><trkpt lat="43.2807267" lon="13.2722233"><ele>237.83333333333331</ele><time>2026-04-11T15:52:25.121Z</time></trkpt><trkpt lat="43.2807183" lon="13.27237"><ele>237.66666666666666</ele><time>2026-04-11T15:52:26.121Z</time></trkpt><trkpt lat="43.28071" lon="13.2724917"><ele>237.5</ele><time>2026-04-11T15:52:27.121Z</time></trkpt><trkpt lat="43.2807067" lon="13.2726017"><ele>237.33333333333331</ele><time>2026-04-11T15:52:28.121Z</time></trkpt><trkpt lat="43.2807067" lon="13.2727033"><ele>237.16666666666666</ele><time>2026-04-11T15:52:29.121Z</time></trkpt><trkpt lat="43.2807017" lon="13.2727933"><ele>237.0</ele><time>2026-04-11T15:52:30.121Z</time></trkpt><trkpt lat="43.2806983" lon="13.27288"><ele>237.0</ele><time>2026-04-11T15:52:31.121Z</time></trkpt><trkpt lat="43.2806933" lon="13.2729683"><ele>237.0</ele><time>2026-04-11T15:52:32.121Z</time></trkpt><trkpt lat="43.2806817" lon="13.2730533"><ele>237.0</ele><time>2026-04-11T15:52:33.121Z</time></trkpt><trkpt lat="43.2806633" lon="13.2731783"><ele>237.0</ele><time>2026-04-11T15:52:35.121Z</time></trkpt><trkpt lat="43.2807" lon="13.27327"><ele>237.0</ele><time>2026-04-11T15:52:37.121Z</time></trkpt><trkpt lat="43.2808033" lon="13.2733083"><ele>237.0</ele><time>2026-04-11T15:52:39.121Z</time></trkpt><trkpt lat="43.2808867" lon="13.2732917"><ele>235.33333333333331</ele><time>2026-04-11T15:52:40.121Z</time></trkpt><trkpt lat="43.2810867" lon="13.2732583"><ele>233.66666666666666</ele><time>2026-04-11T15:52:42.121Z</time></trkpt><trkpt lat="43.2812117" lon="13.2732517"><ele>232.0</ele><time>2026-04-11T15:52:43.121Z</time></trkpt><trkpt lat="43.2813533" lon="13.2732467"><ele>234.0</ele><time>2026-04-11T15:52:44.121Z</time></trkpt><trkpt lat="43.2814983" lon="13.2732383"><ele>236.0</ele><time>2026-04-11T15:52:45.121Z</time></trkpt><trkpt lat="43.2816433" lon="13.273225"><ele>238.0</ele><time>2026-04-11T15:52:46.121Z</time></trkpt><trkpt lat="43.281785" lon="13.2732033"><ele>240.0</ele><time>2026-04-11T15:52:47.121Z</time></trkpt><trkpt lat="43.2819283" lon="13.2731833"><ele>240.0</ele><time>2026-04-11T15:52:48.121Z</time></trkpt><trkpt lat="43.282065" lon="13.2731567"><ele>240.0</ele><time>2026-04-11T15:52:49.121Z</time></trkpt><trkpt lat="43.2821967" lon="13.27312"><ele>240.0</ele><time>2026-04-11T15:52:50.121Z</time></trkpt><trkpt lat="43.28233" lon="13.273085"><ele>240.0</ele><time>2026-04-11T15:52:51.121Z</time></trkpt><trkpt lat="43.2824617" lon="13.2730467"><ele>243.5</ele><time>2026-04-11T15:52:52.121Z</time></trkpt><trkpt lat="43.282595" lon="13.2730167"><ele>247.0</ele><time>2026-04-11T15:52:53.121Z</time></trkpt><trkpt lat="43.282735" lon="13.2729833"><ele>250.5</ele><time>2026-04-11T15:52:54.121Z</time></trkpt><trkpt lat="43.2828817" lon="13.2729633"><ele>254.0</ele><time>2026-04-11T15:52:55.121Z</time></trkpt><trkpt lat="43.28302" lon="13.2729517"><ele>255.0</ele><time>2026-04-11T15:52:56.121Z</time></trkpt><trkpt lat="43.28315" lon="13.2729483"><ele>256.0</ele><time>2026-04-11T15:52:57.121Z</time></trkpt><trkpt lat="43.2832783" lon="13.27296"><ele>257.0</ele><time>2026-04-11T15:52:58.121Z</time></trkpt><trkpt lat="43.2834117" lon="13.2729967"><ele>258.0</ele><time>2026-04-11T15:52:59.121Z</time></trkpt><trkpt lat="43.2835567" lon="13.2730567"><ele>256.0</ele><time>2026-04-11T15:53:00.121Z</time></trkpt><trkpt lat="43.2837117" lon="13.2731417"><ele>254.0</ele><time>2026-04-11T15:53:01.121Z</time></trkpt><trkpt lat="43.2840333" lon="13.2733283"><ele>254.0</ele><time>2026-04-11T15:53:03.121Z</time></trkpt><trkpt lat="43.2841767" lon="13.2734117"><ele>254.0</ele><time>2026-04-11T15:53:04.121Z</time></trkpt><trkpt lat="43.2843183" lon="13.2734933"><ele>254.0</ele><time>2026-04-11T15:53:05.121Z</time></trkpt><trkpt lat="43.2844583" lon="13.2735733"><ele>254.0</ele><time>2026-04-11T15:53:06.121Z</time></trkpt><trkpt lat="43.284595" lon="13.2736367"><ele>254.0</ele><time>2026-04-11T15:53:07.121Z</time></trkpt><trkpt lat="43.2847233" lon="13.273675"><ele>254.0</ele><time>2026-04-11T15:53:08.121Z</time></trkpt><trkpt lat="43.2848633" lon="13.27369"><ele>254.0</ele><time>2026-04-11T15:53:09.121Z</time></trkpt><trkpt lat="43.2850183" lon="13.2736867"><ele>255.0</ele><time>2026-04-11T15:53:10.121Z</time></trkpt><trkpt lat="43.2851867" lon="13.2736617"><ele>256.0</ele><time>2026-04-11T15:53:11.121Z</time></trkpt><trkpt lat="43.2853583" lon="13.273615"><ele>257.0</ele><time>2026-04-11T15:53:12.121Z</time></trkpt><trkpt lat="43.2855467" lon="13.2735517"><ele>258.33333333333337</ele><time>2026-04-11T15:53:13.121Z</time></trkpt><trkpt lat="43.2857333" lon="13.2734933"><ele>259.6666666666667</ele><time>2026-04-11T15:53:14.121Z</time></trkpt><trkpt lat="43.2859067" lon="13.2734383"><ele>261.0</ele><time>2026-04-11T15:53:15.121Z</time></trkpt><trkpt lat="43.2860683" lon="13.273385"><ele>261.0</ele><time>2026-04-11T15:53:16.121Z</time></trkpt><trkpt lat="43.2862267" lon="13.2733467"><ele>261.0</ele><time>2026-04-11T15:53:17.121Z</time></trkpt><trkpt lat="43.2863883" lon="13.2733217"><ele>261.0</ele><time>2026-04-11T15:53:18.121Z</time></trkpt><trkpt lat="43.2865583" lon="13.2733067"><ele>262.0</ele><time>2026-04-11T15:53:19.121Z</time></trkpt><trkpt lat="43.286735" lon="13.2732983"><ele>263.0</ele><time>2026-04-11T15:53:20.121Z</time></trkpt><trkpt lat="43.2869117" lon="13.2732967"><ele>264.0</ele><time>2026-04-11T15:53:21.121Z</time></trkpt><trkpt lat="43.2870767" lon="13.2733083"><ele>266.0</ele><time>2026-04-11T15:53:22.121Z</time></trkpt><trkpt lat="43.2873817" lon="13.2734033"><ele>268.0</ele><time>2026-04-11T15:53:24.121Z</time></trkpt><trkpt lat="43.287535" lon="13.2734933"><ele>268.0</ele><time>2026-04-11T15:53:25.121Z</time></trkpt><trkpt lat="43.2876783" lon="13.2735883"><ele>268.0</ele><time>2026-04-11T15:53:26.121Z</time></trkpt><trkpt lat="43.28781" lon="13.2736767"><ele>268.0</ele><time>2026-04-11T15:53:27.121Z</time></trkpt><trkpt lat="43.28793" lon="13.2737567"><ele>268.0</ele><time>2026-04-11T15:53:28.121Z</time></trkpt><trkpt lat="43.288035" lon="13.2738317"><ele>267.5</ele><time>2026-04-11T15:53:29.121Z</time></trkpt><trkpt lat="43.2881167" lon="13.2738983"><ele>267.0</ele><time>2026-04-11T15:53:30.121Z</time></trkpt><trkpt lat="43.2881883" lon="13.27397"><ele>266.5</ele><time>2026-04-11T15:53:31.121Z</time></trkpt><trkpt lat="43.28825" lon="13.2740333"><ele>266.0</ele><time>2026-04-11T15:53:32.121Z</time></trkpt><trkpt lat="43.2883083" lon="13.2741267"><ele>265.5</ele><time>2026-04-11T15:53:33.121Z</time></trkpt><trkpt lat="43.288345" lon="13.274245"><ele>265.0</ele><time>2026-04-11T15:53:34.121Z</time></trkpt><trkpt lat="43.2883617" lon="13.2744017"><ele>264.5</ele><time>2026-04-11T15:53:35.121Z</time></trkpt><trkpt lat="43.2883717" lon="13.274585"><ele>264.0</ele><time>2026-04-11T15:53:36.121Z</time></trkpt><trkpt lat="43.288375" lon="13.2747867"><ele>263.5</ele><time>2026-04-11T15:53:37.121Z</time></trkpt><trkpt lat="43.2883817" lon="13.275005"><ele>263.0</ele><time>2026-04-11T15:53:38.121Z</time></trkpt><trkpt lat="43.288385" lon="13.275225"><ele>262.25</ele><time>2026-04-11T15:53:39.121Z</time></trkpt><trkpt lat="43.2883883" lon="13.2754283"><ele>261.5</ele><time>2026-04-11T15:53:40.121Z</time></trkpt><trkpt lat="43.28838" lon="13.27562"><ele>260.75</ele><time>2026-04-11T15:53:41.121Z</time></trkpt><trkpt lat="43.288345" lon="13.2758217"><ele>260.0</ele><time>2026-04-11T15:53:42.121Z</time></trkpt><trkpt lat="43.2882783" lon="13.2760367"><ele>259.5</ele><time>2026-04-11T15:53:43.121Z</time></trkpt><trkpt lat="43.2880983" lon="13.27652"><ele>259.0</ele><time>2026-04-11T15:53:45.121Z</time></trkpt><trkpt lat="43.28802" lon="13.2767717"><ele>258.0</ele><time>2026-04-11T15:53:46.121Z</time></trkpt><trkpt lat="43.2879417" lon="13.2769933"><ele>257.0</ele><time>2026-04-11T15:53:47.121Z</time></trkpt><trkpt lat="43.2878617" lon="13.2771983"><ele>256.0</ele><time>2026-04-11T15:53:48.121Z</time></trkpt><trkpt lat="43.2877667" lon="13.2773967"><ele>256.0</ele><time>2026-04-11T15:53:49.121Z</time></trkpt><trkpt lat="43.28765" lon="13.277555"><ele>256.0</ele><time>2026-04-11T15:53:50.121Z</time></trkpt><trkpt lat="43.287535" lon="13.2776983"><ele>256.0</ele><time>2026-04-11T15:53:51.121Z</time></trkpt><trkpt lat="43.287425" lon="13.27783"><ele>256.0</ele><time>2026-04-11T15:53:52.121Z</time></trkpt><trkpt lat="43.2873367" lon="13.2779667"><ele>256.0</ele><time>2026-04-11T15:53:53.121Z</time></trkpt><trkpt lat="43.2872533" lon="13.2781217"><ele>256.0</ele><time>2026-04-11T15:53:54.121Z</time></trkpt><trkpt lat="43.287175" lon="13.2782917"><ele>256.0</ele><time>2026-04-11T15:53:55.121Z</time></trkpt><trkpt lat="43.28711" lon="13.2784733"><ele>254.0</ele><time>2026-04-11T15:53:56.121Z</time></trkpt><trkpt lat="43.2870617" lon="13.2786733"><ele>252.0</ele><time>2026-04-11T15:53:57.121Z</time></trkpt><trkpt lat="43.2870233" lon="13.2788967"><ele>250.0</ele><time>2026-04-11T15:53:58.121Z</time></trkpt><trkpt lat="43.2869917" lon="13.2791417"><ele>247.66666666666666</ele><time>2026-04-11T15:53:59.121Z</time></trkpt><trkpt lat="43.2869533" lon="13.2794067"><ele>245.33333333333331</ele><time>2026-04-11T15:54:00.121Z</time></trkpt><trkpt lat="43.2869033" lon="13.2796783"><ele>243.0</ele><time>2026-04-11T15:54:01.121Z</time></trkpt><trkpt lat="43.286835" lon="13.27994"><ele>240.33333333333331</ele><time>2026-04-11T15:54:02.121Z</time></trkpt><trkpt lat="43.286745" lon="13.2801933"><ele>237.66666666666666</ele><time>2026-04-11T15:54:03.121Z</time></trkpt><trkpt lat="43.28663" lon="13.280425"><ele>235.0</ele><time>2026-04-11T15:54:04.121Z</time></trkpt><trkpt lat="43.2863717" lon="13.2808683"><ele>232.66666666666666</ele><time>2026-04-11T15:54:06.121Z</time></trkpt><trkpt lat="43.286245" lon="13.2810733"><ele>230.33333333333331</ele><time>2026-04-11T15:54:07.121Z</time></trkpt><trkpt lat="43.2861317" lon="13.2812733"><ele>228.0</ele><time>2026-04-11T15:54:08.121Z</time></trkpt><trkpt lat="43.2860367" lon="13.2814683"><ele>228.0</ele><time>2026-04-11T15:54:09.121Z</time></trkpt><trkpt lat="43.2859583" lon="13.2816633"><ele>228.0</ele><time>2026-04-11T15:54:10.121Z</time></trkpt><trkpt lat="43.2858917" lon="13.2818733"><ele>228.0</ele><time>2026-04-11T15:54:11.121Z</time></trkpt><trkpt lat="43.2858317" lon="13.2820867"><ele>228.0</ele><time>2026-04-11T15:54:12.121Z</time></trkpt><trkpt lat="43.285775" lon="13.2822933"><ele>228.0</ele><time>2026-04-11T15:54:13.121Z</time></trkpt><trkpt lat="43.2857267" lon="13.28249"><ele>228.0</ele><time>2026-04-11T15:54:14.121Z</time></trkpt><trkpt lat="43.2856717" lon="13.28266"><ele>228.0</ele><time>2026-04-11T15:54:15.121Z</time></trkpt><trkpt lat="43.2856133" lon="13.282815"><ele>227.0</ele><time>2026-04-11T15:54:16.121Z</time></trkpt><trkpt lat="43.2855417" lon="13.2829633"><ele>226.0</ele><time>2026-04-11T15:54:17.121Z</time></trkpt><trkpt lat="43.285465" lon="13.2831083"><ele>225.0</ele><time>2026-04-11T15:54:18.121Z</time></trkpt><trkpt lat="43.28538" lon="13.2832517"><ele>224.0</ele><time>2026-04-11T15:54:19.121Z</time></trkpt><trkpt lat="43.285285" lon="13.283395"><ele>223.75</ele><time>2026-04-11T15:54:20.121Z</time></trkpt><trkpt lat="43.285185" lon="13.283535"><ele>223.5</ele><time>2026-04-11T15:54:21.121Z</time></trkpt><trkpt lat="43.2850967" lon="13.283665"><ele>223.25</ele><time>2026-04-11T15:54:22.121Z</time></trkpt><trkpt lat="43.2850167" lon="13.28378"><ele>223.0</ele><time>2026-04-11T15:54:23.121Z</time></trkpt><trkpt lat="43.2849383" lon="13.2838933"><ele>223.25</ele><time>2026-04-11T15:54:24.121Z</time></trkpt><trkpt lat="43.2848533" lon="13.284"><ele>223.5</ele><time>2026-04-11T15:54:25.121Z</time></trkpt><trkpt lat="43.28469" lon="13.2841917"><ele>223.75</ele><time>2026-04-11T15:54:27.121Z</time></trkpt><trkpt lat="43.2845933" lon="13.2842867"><ele>224.0</ele><time>2026-04-11T15:54:28.121Z</time></trkpt><trkpt lat="43.2844833" lon="13.284395"><ele>222.0</ele><time>2026-04-11T15:54:29.121Z</time></trkpt><trkpt lat="43.2843683" lon="13.2845267"><ele>220.0</ele><time>2026-04-11T15:54:30.121Z</time></trkpt><trkpt lat="43.2842517" lon="13.2846583"><ele>218.0</ele><time>2026-04-11T15:54:31.121Z</time></trkpt><trkpt lat="43.2841217" lon="13.2848117"><ele>218.0</ele><time>2026-04-11T15:54:32.121Z</time></trkpt><trkpt lat="43.2839983" lon="13.284975"><ele>218.0</ele><time>2026-04-11T15:54:33.121Z</time></trkpt><trkpt lat="43.2838733" lon="13.2851467"><ele>218.0</ele><time>2026-04-11T15:54:34.121Z</time></trkpt><trkpt lat="43.2837383" lon="13.28533"><ele>218.0</ele><time>2026-04-11T15:54:35.121Z</time></trkpt><trkpt lat="43.2835917" lon="13.2855133"><ele>218.0</ele><time>2026-04-11T15:54:36.121Z</time></trkpt><trkpt lat="43.2834433" lon="13.285705"><ele>218.0</ele><time>2026-04-11T15:54:37.121Z</time></trkpt><trkpt lat="43.2832867" lon="13.2858917"><ele>218.0</ele><time>2026-04-11T15:54:38.121Z</time></trkpt><trkpt lat="43.28313" lon="13.2860867"><ele>218.0</ele><time>2026-04-11T15:54:39.122Z</time></trkpt><trkpt lat="43.282985" lon="13.286265"><ele>218.0</ele><time>2026-04-11T15:54:40.121Z</time></trkpt><trkpt lat="43.2828517" lon="13.2864233"><ele>219.0</ele><time>2026-04-11T15:54:41.121Z</time></trkpt><trkpt lat="43.28273" lon="13.2865717"><ele>220.0</ele><time>2026-04-11T15:54:42.121Z</time></trkpt><trkpt lat="43.2826133" lon="13.286705"><ele>221.0</ele><time>2026-04-11T15:54:43.121Z</time></trkpt><trkpt lat="43.2825017" lon="13.28685"><ele>221.0</ele><time>2026-04-11T15:54:44.121Z</time></trkpt><trkpt lat="43.2823867" lon="13.2869967"><ele>221.0</ele><time>2026-04-11T15:54:45.121Z</time></trkpt><trkpt lat="43.28226" lon="13.2871533"><ele>221.0</ele><time>2026-04-11T15:54:46.121Z</time></trkpt><trkpt lat="43.2820067" lon="13.2874617"><ele>220.25</ele><time>2026-04-11T15:54:48.121Z</time></trkpt><trkpt lat="43.28189" lon="13.287585"><ele>219.5</ele><time>2026-04-11T15:54:49.121Z</time></trkpt><trkpt lat="43.2817817" lon="13.28771"><ele>218.75</ele><time>2026-04-11T15:54:50.121Z</time></trkpt><trkpt lat="43.2816833" lon="13.287805"><ele>218.0</ele><time>2026-04-11T15:54:51.121Z</time></trkpt><trkpt lat="43.2815933" lon="13.287865"><ele>218.00000000000003</ele><time>2026-04-11T15:54:52.122Z</time></trkpt><trkpt lat="43.28151" lon="13.28789"><ele>218.0</ele><time>2026-04-11T15:54:53.121Z</time></trkpt><trkpt lat="43.2814283" lon="13.287885"><ele>218.0</ele><time>2026-04-11T15:54:54.121Z</time></trkpt><trkpt lat="43.2813467" lon="13.287855"><ele>218.0</ele><time>2026-04-11T15:54:55.121Z</time></trkpt><trkpt lat="43.28126" lon="13.287795"><ele>218.00000000000003</ele><time>2026-04-11T15:54:56.121Z</time></trkpt><trkpt lat="43.281175" lon="13.2877233"><ele>218.0</ele><time>2026-04-11T15:54:57.121Z</time></trkpt><trkpt lat="43.2811033" lon="13.2876483"><ele>219.2</ele><time>2026-04-11T15:54:58.121Z</time></trkpt><trkpt lat="43.28104" lon="13.2875767"><ele>220.4</ele><time>2026-04-11T15:54:59.121Z</time></trkpt><trkpt lat="43.280975" lon="13.2875"><ele>221.59999999999997</ele><time>2026-04-11T15:55:00.121Z</time></trkpt><trkpt lat="43.2809033" lon="13.287415"><ele>222.79999999999998</ele><time>2026-04-11T15:55:01.121Z</time></trkpt><trkpt lat="43.2808217" lon="13.2873433"><ele>224.0</ele><time>2026-04-11T15:55:02.121Z</time></trkpt><trkpt lat="43.280735" lon="13.2872883"><ele>224.39999999999998</ele><time>2026-04-11T15:55:03.121Z</time></trkpt><trkpt lat="43.2806417" lon="13.2872533"><ele>224.79999999999998</ele><time>2026-04-11T15:55:04.121Z</time></trkpt><trkpt lat="43.2805533" lon="13.2872333"><ele>225.20000000000002</ele><time>2026-04-11T15:55:05.121Z</time></trkpt><trkpt lat="43.28046" lon="13.2872117"><ele>225.60000000000002</ele><time>2026-04-11T15:55:06.121Z</time></trkpt><trkpt lat="43.2803733" lon="13.2871617"><ele>226.0</ele><time>2026-04-11T15:55:07.121Z</time></trkpt><trkpt lat="43.28023" lon="13.2869833"><ele>226.0</ele><time>2026-04-11T15:55:09.121Z</time></trkpt><trkpt lat="43.28017" lon="13.28687"><ele>226.00000000000003</ele><time>2026-04-11T15:55:10.121Z</time></trkpt><trkpt lat="43.2801133" lon="13.2867617"><ele>226.00000000000003</ele><time>2026-04-11T15:55:11.121Z</time></trkpt><trkpt lat="43.2800517" lon="13.2866533"><ele>226.0</ele><time>2026-04-11T15:55:12.121Z</time></trkpt><trkpt lat="43.279985" lon="13.28655"><ele>226.0</ele><time>2026-04-11T15:55:13.121Z</time></trkpt><trkpt lat="43.2799183" lon="13.2864417"><ele>225.4</ele><time>2026-04-11T15:55:14.121Z</time></trkpt><trkpt lat="43.279855" lon="13.2863283"><ele>224.8</ele><time>2026-04-11T15:55:15.121Z</time></trkpt><trkpt lat="43.2797867" lon="13.2862117"><ele>224.20000000000002</ele><time>2026-04-11T15:55:16.121Z</time></trkpt><trkpt lat="43.2797183" lon="13.2861"><ele>223.60000000000002</ele><time>2026-04-11T15:55:17.121Z</time></trkpt><trkpt lat="43.279645" lon="13.2859917"><ele>223.0</ele><time>2026-04-11T15:55:18.121Z</time></trkpt><trkpt lat="43.2795867" lon="13.2858867"><ele>224.2</ele><time>2026-04-11T15:55:19.121Z</time></trkpt><trkpt lat="43.27953" lon="13.2858033"><ele>225.4</ele><time>2026-04-11T15:55:20.121Z</time></trkpt><trkpt lat="43.2794867" lon="13.2857383"><ele>226.59999999999997</ele><time>2026-04-11T15:55:21.121Z</time></trkpt><trkpt lat="43.2794383" lon="13.285665"><ele>227.79999999999998</ele><time>2026-04-11T15:55:23.121Z</time></trkpt><trkpt lat="43.279475" lon="13.2857683"><ele>229.0</ele><time>2026-04-11T15:55:30.121Z</time></trkpt><trkpt lat="43.2795883" lon="13.2859333"><ele>229.0</ele><time>2026-04-11T15:55:32.121Z</time></trkpt><trkpt lat="43.279665" lon="13.2860583"><ele>229.0</ele><time>2026-04-11T15:55:33.121Z</time></trkpt><trkpt lat="43.27975" lon="13.2861917"><ele>229.0</ele><time>2026-04-11T15:55:34.121Z</time></trkpt><trkpt lat="43.279835" lon="13.2863333"><ele>229.0</ele><time>2026-04-11T15:55:35.121Z</time></trkpt><trkpt lat="43.2799167" lon="13.2864733"><ele>228.25</ele><time>2026-04-11T15:55:36.121Z</time></trkpt><trkpt lat="43.2799983" lon="13.2866133"><ele>227.5</ele><time>2026-04-11T15:55:37.121Z</time></trkpt><trkpt lat="43.2800783" lon="13.2867533"><ele>226.75</ele><time>2026-04-11T15:55:38.121Z</time></trkpt><trkpt lat="43.2801517" lon="13.2868967"><ele>226.0</ele><time>2026-04-11T15:55:39.121Z</time></trkpt><trkpt lat="43.2802317" lon="13.2870267"><ele>226.0</ele><time>2026-04-11T15:55:40.121Z</time></trkpt><trkpt lat="43.2803083" lon="13.2871383"><ele>226.00000000000003</ele><time>2026-04-11T15:55:41.121Z</time></trkpt><trkpt lat="43.2803833" lon="13.2872183"><ele>226.00000000000003</ele><time>2026-04-11T15:55:42.121Z</time></trkpt><trkpt lat="43.280475" lon="13.2872683"><ele>226.0</ele><time>2026-04-11T15:55:43.121Z</time></trkpt><trkpt lat="43.2805833" lon="13.2872967"><ele>226.0</ele><time>2026-04-11T15:55:44.121Z</time></trkpt><trkpt lat="43.2806917" lon="13.28732"><ele>225.60000000000002</ele><time>2026-04-11T15:55:45.121Z</time></trkpt><trkpt lat="43.280785" lon="13.28735"><ele>225.20000000000002</ele><time>2026-04-11T15:55:46.121Z</time></trkpt><trkpt lat="43.280865" lon="13.2873983"><ele>224.79999999999998</ele><time>2026-04-11T15:55:47.121Z</time></trkpt><trkpt lat="43.2809467" lon="13.2874683"><ele>224.39999999999998</ele><time>2026-04-11T15:55:48.121Z</time></trkpt><trkpt lat="43.2810283" lon="13.287555"><ele>224.0</ele><time>2026-04-11T15:55:49.121Z</time></trkpt><trkpt lat="43.2811183" lon="13.2876533"><ele>224.0</ele><time>2026-04-11T15:55:50.122Z</time></trkpt><trkpt lat="43.28121" lon="13.28774"><ele>223.99999999999997</ele><time>2026-04-11T15:55:51.121Z</time></trkpt><trkpt lat="43.2813683" lon="13.2878767"><ele>223.99999999999997</ele><time>2026-04-11T15:55:53.121Z</time></trkpt><trkpt lat="43.2814283" lon="13.2879133"><ele>224.0</ele><time>2026-04-11T15:55:54.121Z</time></trkpt><trkpt lat="43.2815" lon="13.28796"><ele>224.0</ele><time>2026-04-11T15:55:56.121Z</time></trkpt><trkpt lat="43.2815667" lon="13.2880467"><ele>223.0</ele><time>2026-04-11T15:55:59.121Z</time></trkpt><trkpt lat="43.2815667" lon="13.2881967"><ele>221.99999999999997</ele><time>2026-04-11T15:56:01.122Z</time></trkpt><trkpt lat="43.2815533" lon="13.2883017"><ele>220.99999999999997</ele><time>2026-04-11T15:56:02.121Z</time></trkpt><trkpt lat="43.2815367" lon="13.2884233"><ele>220.0</ele><time>2026-04-11T15:56:03.121Z</time></trkpt><trkpt lat="43.2815183" lon="13.28857"><ele>219.0</ele><time>2026-04-11T15:56:04.121Z</time></trkpt><trkpt lat="43.2815017" lon="13.2887317"><ele>219.0</ele><time>2026-04-11T15:56:05.121Z</time></trkpt><trkpt lat="43.281485" lon="13.2889"><ele>218.99999999999997</ele><time>2026-04-11T15:56:06.121Z</time></trkpt><trkpt lat="43.2814667" lon="13.289055"><ele>218.99999999999997</ele><time>2026-04-11T15:56:07.121Z</time></trkpt><trkpt lat="43.281445" lon="13.2891783"><ele>219.0</ele><time>2026-04-11T15:56:08.121Z</time></trkpt><trkpt lat="43.2814183" lon="13.2892867"><ele>219.0</ele><time>2026-04-11T15:56:09.121Z</time></trkpt><trkpt lat="43.28138" lon="13.289395"><ele>219.5</ele><time>2026-04-11T15:56:10.121Z</time></trkpt><trkpt lat="43.2813217" lon="13.2895083"><ele>220.0</ele><time>2026-04-11T15:56:11.121Z</time></trkpt><trkpt lat="43.2812517" lon="13.2896067"><ele>220.5</ele><time>2026-04-11T15:56:12.121Z</time></trkpt><trkpt lat="43.281095" lon="13.289825"><ele>221.0</ele><time>2026-04-11T15:56:14.121Z</time></trkpt><trkpt lat="43.2810067" lon="13.28992"><ele>221.0</ele><time>2026-04-11T15:56:15.121Z</time></trkpt><trkpt lat="43.2808983" lon="13.2900183"><ele>221.0</ele><time>2026-04-11T15:56:16.121Z</time></trkpt><trkpt lat="43.2807717" lon="13.2901183"><ele>221.0</ele><time>2026-04-11T15:56:17.121Z</time></trkpt><trkpt lat="43.2806383" lon="13.2902183"><ele>221.0</ele><time>2026-04-11T15:56:18.121Z</time></trkpt><trkpt lat="43.280495" lon="13.2903233"><ele>220.66666666666669</ele><time>2026-04-11T15:56:19.121Z</time></trkpt><trkpt lat="43.280335" lon="13.2904367"><ele>220.33333333333331</ele><time>2026-04-11T15:56:20.121Z</time></trkpt><trkpt lat="43.2801617" lon="13.2905533"><ele>220.0</ele><time>2026-04-11T15:56:21.121Z</time></trkpt><trkpt lat="43.2799983" lon="13.2906617"><ele>219.33333333333331</ele><time>2026-04-11T15:56:22.121Z</time></trkpt><trkpt lat="43.2798433" lon="13.29077"><ele>218.66666666666669</ele><time>2026-04-11T15:56:23.121Z</time></trkpt><trkpt lat="43.2796917" lon="13.290875"><ele>218.0</ele><time>2026-04-11T15:56:24.121Z</time></trkpt><trkpt lat="43.2795483" lon="13.2909783"><ele>217.33333333333334</ele><time>2026-04-11T15:56:25.121Z</time></trkpt><trkpt lat="43.2794067" lon="13.2910817"><ele>216.66666666666669</ele><time>2026-04-11T15:56:26.121Z</time></trkpt><trkpt lat="43.2792667" lon="13.2911833"><ele>216.0</ele><time>2026-04-11T15:56:27.121Z</time></trkpt><trkpt lat="43.2791367" lon="13.2912767"><ele>216.0</ele><time>2026-04-11T15:56:28.121Z</time></trkpt><trkpt lat="43.2790183" lon="13.29136"><ele>216.0</ele><time>2026-04-11T15:56:29.121Z</time></trkpt><trkpt lat="43.2789167" lon="13.2914383"><ele>216.0</ele><time>2026-04-11T15:56:30.122Z</time></trkpt><trkpt lat="43.2788283" lon="13.291515"><ele>216.0</ele><time>2026-04-11T15:56:31.121Z</time></trkpt><trkpt lat="43.2787383" lon="13.2916033"><ele>215.75</ele><time>2026-04-11T15:56:32.121Z</time></trkpt><trkpt lat="43.278645" lon="13.2917017"><ele>215.5</ele><time>2026-04-11T15:56:33.121Z</time></trkpt><trkpt lat="43.2784833" lon="13.291895"><ele>215.25</ele><time>2026-04-11T15:56:35.121Z</time></trkpt><trkpt lat="43.2784217" lon="13.2919633"><ele>215.0</ele><time>2026-04-11T15:56:36.121Z</time></trkpt><trkpt lat="43.2783617" lon="13.292035"><ele>215.0</ele><time>2026-04-11T15:56:38.121Z</time></trkpt><trkpt lat="43.2783967" lon="13.2921817"><ele>215.0</ele><time>2026-04-11T15:56:41.121Z</time></trkpt><trkpt lat="43.2784267" lon="13.2923567"><ele>215.0</ele><time>2026-04-11T15:56:43.121Z</time></trkpt><trkpt lat="43.2784183" lon="13.292465"><ele>215.0</ele><time>2026-04-11T15:56:44.121Z</time></trkpt><trkpt lat="43.2783883" lon="13.29259"><ele>215.0</ele><time>2026-04-11T15:56:45.122Z</time></trkpt><trkpt lat="43.278335" lon="13.2927383"><ele>214.5</ele><time>2026-04-11T15:56:46.121Z</time></trkpt><trkpt lat="43.27828" lon="13.2929067"><ele>214.0</ele><time>2026-04-11T15:56:47.121Z</time></trkpt><trkpt lat="43.278225" lon="13.29308"><ele>213.5</ele><time>2026-04-11T15:56:48.121Z</time></trkpt><trkpt lat="43.278175" lon="13.29323"><ele>213.0</ele><time>2026-04-11T15:56:49.121Z</time></trkpt><trkpt lat="43.27814" lon="13.293355"><ele>212.60000000000002</ele><time>2026-04-11T15:56:50.121Z</time></trkpt><trkpt lat="43.2781083" lon="13.29348"><ele>212.20000000000002</ele><time>2026-04-11T15:56:51.121Z</time></trkpt><trkpt lat="43.278085" lon="13.2935983"><ele>211.8</ele><time>2026-04-11T15:56:52.121Z</time></trkpt><trkpt lat="43.2780717" lon="13.2937083"><ele>211.4</ele><time>2026-04-11T15:56:53.121Z</time></trkpt><trkpt lat="43.2780667" lon="13.2938233"><ele>211.0</ele><time>2026-04-11T15:56:54.121Z</time></trkpt><trkpt lat="43.2780767" lon="13.2941117"><ele>210.75</ele><time>2026-04-11T15:56:56.121Z</time></trkpt><trkpt lat="43.27809" lon="13.2942683"><ele>210.5</ele><time>2026-04-11T15:56:57.121Z</time></trkpt><trkpt lat="43.2781117" lon="13.2944267"><ele>210.25</ele><time>2026-04-11T15:56:58.121Z</time></trkpt><trkpt lat="43.2781467" lon="13.294595"><ele>210.0</ele><time>2026-04-11T15:56:59.121Z</time></trkpt><trkpt lat="43.278185" lon="13.2947717"><ele>209.5</ele><time>2026-04-11T15:57:00.121Z</time></trkpt><trkpt lat="43.2782233" lon="13.294955"><ele>209.0</ele><time>2026-04-11T15:57:01.121Z</time></trkpt><trkpt lat="43.2782683" lon="13.295135"><ele>208.5</ele><time>2026-04-11T15:57:02.121Z</time></trkpt><trkpt lat="43.278305" lon="13.2952967"><ele>208.0</ele><time>2026-04-11T15:57:03.121Z</time></trkpt><trkpt lat="43.2783417" lon="13.29545"><ele>207.5</ele><time>2026-04-11T15:57:04.122Z</time></trkpt><trkpt lat="43.2783783" lon="13.29561"><ele>207.0</ele><time>2026-04-11T15:57:05.121Z</time></trkpt><trkpt lat="43.27842" lon="13.2957833"><ele>206.5</ele><time>2026-04-11T15:57:06.121Z</time></trkpt><trkpt lat="43.2784617" lon="13.29597"><ele>206.0</ele><time>2026-04-11T15:57:07.121Z</time></trkpt><trkpt lat="43.2785083" lon="13.29616"><ele>206.0</ele><time>2026-04-11T15:57:08.121Z</time></trkpt><trkpt lat="43.2785467" lon="13.2963533"><ele>206.0</ele><time>2026-04-11T15:57:09.121Z</time></trkpt><trkpt lat="43.27858" lon="13.2965533"><ele>206.0</ele><time>2026-04-11T15:57:10.121Z</time></trkpt><trkpt lat="43.27861" lon="13.2967667"><ele>205.5</ele><time>2026-04-11T15:57:11.121Z</time></trkpt><trkpt lat="43.27864" lon="13.2969817"><ele>205.0</ele><time>2026-04-11T15:57:12.121Z</time></trkpt><trkpt lat="43.2786667" lon="13.297185"><ele>204.5</ele><time>2026-04-11T15:57:13.121Z</time></trkpt><trkpt lat="43.2786917" lon="13.2973683"><ele>204.0</ele><time>2026-04-11T15:57:14.121Z</time></trkpt><trkpt lat="43.2787067" lon="13.2975583"><ele>203.5</ele><time>2026-04-11T15:57:15.121Z</time></trkpt><trkpt lat="43.2787317" lon="13.2978817"><ele>203.0</ele><time>2026-04-11T15:57:17.121Z</time></trkpt><trkpt lat="43.2787433" lon="13.29801"><ele>202.5</ele><time>2026-04-11T15:57:18.121Z</time></trkpt><trkpt lat="43.2787483" lon="13.2981383"><ele>202.0</ele><time>2026-04-11T15:57:19.121Z</time></trkpt><trkpt lat="43.2787483" lon="13.2982633"><ele>201.39999999999998</ele><time>2026-04-11T15:57:20.121Z</time></trkpt><trkpt lat="43.2787283" lon="13.29839"><ele>200.79999999999998</ele><time>2026-04-11T15:57:21.121Z</time></trkpt><trkpt lat="43.27869" lon="13.29853"><ele>200.2</ele><time>2026-04-11T15:57:22.121Z</time></trkpt><trkpt lat="43.2786383" lon="13.2986683"><ele>199.6</ele><time>2026-04-11T15:57:23.121Z</time></trkpt><trkpt lat="43.2785917" lon="13.2987667"><ele>199.0</ele><time>2026-04-11T15:57:24.121Z</time></trkpt><trkpt lat="43.2785617" lon="13.2988433"><ele>199.2</ele><time>2026-04-11T15:57:25.121Z</time></trkpt><trkpt lat="43.27857" lon="13.2990017"><ele>199.39999999999998</ele><time>2026-04-11T15:57:27.121Z</time></trkpt><trkpt lat="43.2786167" lon="13.2990917"><ele>199.6</ele><time>2026-04-11T15:57:28.121Z</time></trkpt><trkpt lat="43.2786783" lon="13.299175"><ele>199.8</ele><time>2026-04-11T15:57:29.121Z</time></trkpt><trkpt lat="43.27874" lon="13.2992333"><ele>200.0</ele><time>2026-04-11T15:57:30.121Z</time></trkpt><trkpt lat="43.2788283" lon="13.2993283"><ele>200.0</ele><time>2026-04-11T15:57:32.121Z</time></trkpt><trkpt lat="43.2789033" lon="13.2994083"><ele>200.0</ele><time>2026-04-11T15:57:34.121Z</time></trkpt><trkpt lat="43.2789933" lon="13.2994933"><ele>200.0</ele><time>2026-04-11T15:57:36.121Z</time></trkpt><trkpt lat="43.27917" lon="13.2997083"><ele>200.0</ele><time>2026-04-11T15:57:40.121Z</time></trkpt><trkpt lat="43.27926" lon="13.2998083"><ele>197.2</ele><time>2026-04-11T15:57:42.121Z</time></trkpt><trkpt lat="43.27934" lon="13.2998883"><ele>194.4</ele><time>2026-04-11T15:57:44.121Z</time></trkpt><trkpt lat="43.2794383" lon="13.3000017"><ele>191.60000000000002</ele><time>2026-04-11T15:57:46.121Z</time></trkpt><trkpt lat="43.2794983" lon="13.3000733"><ele>188.8</ele><time>2026-04-11T15:57:47.121Z</time></trkpt><trkpt lat="43.27956" lon="13.30015"><ele>186.0</ele><time>2026-04-11T15:57:48.121Z</time></trkpt><trkpt lat="43.279615" lon="13.30022"><ele>186.0</ele><time>2026-04-11T15:57:49.121Z</time></trkpt><trkpt lat="43.2796617" lon="13.3002783"><ele>186.0</ele><time>2026-04-11T15:57:50.121Z</time></trkpt><trkpt lat="43.2797317" lon="13.3003783"><ele>186.0</ele><time>2026-04-11T15:57:52.121Z</time></trkpt><trkpt lat="43.2797883" lon="13.3004633"><ele>186.0</ele><time>2026-04-11T15:57:54.121Z</time></trkpt><trkpt lat="43.2798483" lon="13.3005433"><ele>186.0</ele><time>2026-04-11T15:57:56.121Z</time></trkpt><trkpt lat="43.279915" lon="13.3006117"><ele>186.0</ele><time>2026-04-11T15:57:58.121Z</time></trkpt><trkpt lat="43.28003" lon="13.3007083"><ele>183.60000000000002</ele><time>2026-04-11T15:58:02.121Z</time></trkpt><trkpt lat="43.2801033" lon="13.3007117"><ele>181.2</ele><time>2026-04-11T15:58:04.121Z</time></trkpt><trkpt lat="43.2801683" lon="13.3007233"><ele>178.8</ele><time>2026-04-11T15:58:06.121Z</time></trkpt><trkpt lat="43.28024" lon="13.300775"><ele>176.39999999999998</ele><time>2026-04-11T15:58:09.121Z</time></trkpt><trkpt lat="43.280345" lon="13.300905"><ele>174.0</ele><time>2026-04-11T16:03:44.12Z</time></trkpt><trkpt lat="43.2805217" lon="13.301115"><ele>173.39999999999998</ele><time>2026-04-11T16:03:46.12Z</time></trkpt><trkpt lat="43.280615" lon="13.3012317"><ele>172.8</ele><time>2026-04-11T16:03:47.12Z</time></trkpt><trkpt lat="43.280695" lon="13.30133"><ele>172.2</ele><time>2026-04-11T16:03:48.12Z</time></trkpt><trkpt lat="43.280765" lon="13.3014117"><ele>171.60000000000002</ele><time>2026-04-11T16:03:49.12Z</time></trkpt><trkpt lat="43.2808183" lon="13.301475"><ele>171.0</ele><time>2026-04-11T16:03:50.12Z</time></trkpt><trkpt lat="43.2808633" lon="13.3015367"><ele>171.0</ele><time>2026-04-11T16:03:51.12Z</time></trkpt><trkpt lat="43.28093" lon="13.30163"><ele>171.0</ele><time>2026-04-11T16:03:53.12Z</time></trkpt><trkpt lat="43.2809967" lon="13.30165"><ele>171.0</ele><time>2026-04-11T16:03:56.12Z</time></trkpt><trkpt lat="43.2810683" lon="13.3015567"><ele>171.0</ele><time>2026-04-11T16:03:58.12Z</time></trkpt><trkpt lat="43.28111" lon="13.301465"><ele>171.0</ele><time>2026-04-11T16:03:59.12Z</time></trkpt><trkpt lat="43.2811733" lon="13.301325"><ele>171.0</ele><time>2026-04-11T16:04:00.12Z</time></trkpt><trkpt lat="43.2812533" lon="13.301165"><ele>171.0</ele><time>2026-04-11T16:04:01.12Z</time></trkpt><trkpt lat="43.2813433" lon="13.3010017"><ele>171.0</ele><time>2026-04-11T16:04:02.12Z</time></trkpt><trkpt lat="43.2814233" lon="13.3008433"><ele>171.0</ele><time>2026-04-11T16:04:03.12Z</time></trkpt><trkpt lat="43.2815067" lon="13.3006667"><ele>171.33333333333334</ele><time>2026-04-11T16:04:04.12Z</time></trkpt><trkpt lat="43.2815967" lon="13.3005017"><ele>171.66666666666669</ele><time>2026-04-11T16:04:05.12Z</time></trkpt><trkpt lat="43.2817567" lon="13.3002083"><ele>172.0</ele><time>2026-04-11T16:04:07.12Z</time></trkpt><trkpt lat="43.281825" lon="13.3000567"><ele>172.0</ele><time>2026-04-11T16:04:08.12Z</time></trkpt><trkpt lat="43.2818867" lon="13.2999083"><ele>172.0</ele><time>2026-04-11T16:04:09.12Z</time></trkpt><trkpt lat="43.2819483" lon="13.2997783"><ele>172.0</ele><time>2026-04-11T16:04:10.12Z</time></trkpt><trkpt lat="43.2820083" lon="13.29964"><ele>172.0</ele><time>2026-04-11T16:04:11.12Z</time></trkpt><trkpt lat="43.2820667" lon="13.2994917"><ele>172.25</ele><time>2026-04-11T16:04:12.12Z</time></trkpt><trkpt lat="43.2821217" lon="13.2993417"><ele>172.5</ele><time>2026-04-11T16:04:13.12Z</time></trkpt><trkpt lat="43.28218" lon="13.2991967"><ele>172.75</ele><time>2026-04-11T16:04:14.12Z</time></trkpt><trkpt lat="43.2822517" lon="13.2990367"><ele>173.0</ele><time>2026-04-11T16:04:15.12Z</time></trkpt><trkpt lat="43.282335" lon="13.2989033"><ele>173.5</ele><time>2026-04-11T16:04:16.12Z</time></trkpt><trkpt lat="43.2824067" lon="13.29874"><ele>174.0</ele><time>2026-04-11T16:04:17.12Z</time></trkpt><trkpt lat="43.28248" lon="13.298585"><ele>174.5</ele><time>2026-04-11T16:04:18.12Z</time></trkpt><trkpt lat="43.2825483" lon="13.2984383"><ele>175.0</ele><time>2026-04-11T16:04:19.12Z</time></trkpt><trkpt lat="43.2826383" lon="13.29828"><ele>175.0</ele><time>2026-04-11T16:04:20.12Z</time></trkpt><trkpt lat="43.2827417" lon="13.2981267"><ele>175.0</ele><time>2026-04-11T16:04:21.12Z</time></trkpt><trkpt lat="43.2828467" lon="13.2979983"><ele>175.0</ele><time>2026-04-11T16:04:22.12Z</time></trkpt><trkpt lat="43.28296" lon="13.2978717"><ele>175.0</ele><time>2026-04-11T16:04:23.12Z</time></trkpt><trkpt lat="43.2830583" lon="13.297735"><ele>175.33333333333334</ele><time>2026-04-11T16:04:24.12Z</time></trkpt><trkpt lat="43.283145" lon="13.2975883"><ele>175.66666666666666</ele><time>2026-04-11T16:04:25.12Z</time></trkpt><trkpt lat="43.2832333" lon="13.297435"><ele>176.0</ele><time>2026-04-11T16:04:26.12Z</time></trkpt><trkpt lat="43.2833617" lon="13.2970967"><ele>176.33333333333331</ele><time>2026-04-11T16:04:28.12Z</time></trkpt><trkpt lat="43.2834083" lon="13.296905"><ele>176.66666666666666</ele><time>2026-04-11T16:04:29.12Z</time></trkpt><trkpt lat="43.2834617" lon="13.2966967"><ele>177.0</ele><time>2026-04-11T16:04:30.12Z</time></trkpt><trkpt lat="43.2835167" lon="13.29649"><ele>178.0</ele><time>2026-04-11T16:04:31.12Z</time></trkpt><trkpt lat="43.2835717" lon="13.2962833"><ele>179.0</ele><time>2026-04-11T16:04:32.12Z</time></trkpt><trkpt lat="43.2836283" lon="13.29607"><ele>180.0</ele><time>2026-04-11T16:04:33.12Z</time></trkpt><trkpt lat="43.28367" lon="13.2958467"><ele>180.0</ele><time>2026-04-11T16:04:34.12Z</time></trkpt><trkpt lat="43.2837183" lon="13.2956183"><ele>180.0</ele><time>2026-04-11T16:04:35.12Z</time></trkpt><trkpt lat="43.2837667" lon="13.29541"><ele>180.0</ele><time>2026-04-11T16:04:36.12Z</time></trkpt><trkpt lat="43.2838217" lon="13.2952167"><ele>180.5</ele><time>2026-04-11T16:04:37.12Z</time></trkpt><trkpt lat="43.2838783" lon="13.2950383"><ele>181.0</ele><time>2026-04-11T16:04:38.12Z</time></trkpt><trkpt lat="43.28395" lon="13.29486"><ele>181.5</ele><time>2026-04-11T16:04:39.12Z</time></trkpt><trkpt lat="43.28402" lon="13.294685"><ele>182.0</ele><time>2026-04-11T16:04:40.12Z</time></trkpt><trkpt lat="43.2840983" lon="13.294525"><ele>183.0</ele><time>2026-04-11T16:04:41.12Z</time></trkpt><trkpt lat="43.2841883" lon="13.2943683"><ele>184.0</ele><time>2026-04-11T16:04:42.12Z</time></trkpt><trkpt lat="43.2842917" lon="13.2942083"><ele>185.0</ele><time>2026-04-11T16:04:43.12Z</time></trkpt><trkpt lat="43.2843983" lon="13.2940533"><ele>185.66666666666666</ele><time>2026-04-11T16:04:44.12Z</time></trkpt><trkpt lat="43.284515" lon="13.2938933"><ele>186.33333333333334</ele><time>2026-04-11T16:04:45.12Z</time></trkpt><trkpt lat="43.2846333" lon="13.2937417"><ele>187.0</ele><time>2026-04-11T16:04:46.12Z</time></trkpt><trkpt lat="43.2847433" lon="13.2936"><ele>187.0</ele><time>2026-04-11T16:04:47.12Z</time></trkpt><trkpt lat="43.2849283" lon="13.293335"><ele>187.0</ele><time>2026-04-11T16:04:49.12Z</time></trkpt><trkpt lat="43.2850117" lon="13.293185"><ele>187.0</ele><time>2026-04-11T16:04:50.12Z</time></trkpt><trkpt lat="43.2850967" lon="13.293025"><ele>187.0</ele><time>2026-04-11T16:04:51.12Z</time></trkpt><trkpt lat="43.2851833" lon="13.292865"><ele>187.0</ele><time>2026-04-11T16:04:52.12Z</time></trkpt><trkpt lat="43.2852633" lon="13.2927167"><ele>187.0</ele><time>2026-04-11T16:04:53.12Z</time></trkpt><trkpt lat="43.2853333" lon="13.2925783"><ele>187.0</ele><time>2026-04-11T16:04:54.12Z</time></trkpt><trkpt lat="43.2854" lon="13.2924417"><ele>187.0</ele><time>2026-04-11T16:04:55.12Z</time></trkpt><trkpt lat="43.28547" lon="13.2923133"><ele>187.0</ele><time>2026-04-11T16:04:56.12Z</time></trkpt><trkpt lat="43.2855433" lon="13.29217"><ele>187.0</ele><time>2026-04-11T16:04:57.12Z</time></trkpt><trkpt lat="43.2856217" lon="13.292015"><ele>187.0</ele><time>2026-04-11T16:04:58.12Z</time></trkpt><trkpt lat="43.2857117" lon="13.2918517"><ele>187.66666666666669</ele><time>2026-04-11T16:04:59.12Z</time></trkpt><trkpt lat="43.2858217" lon="13.2916917"><ele>188.33333333333334</ele><time>2026-04-11T16:05:00.12Z</time></trkpt><trkpt lat="43.2859083" lon="13.291505"><ele>189.0</ele><time>2026-04-11T16:05:01.12Z</time></trkpt><trkpt lat="43.2859983" lon="13.2913167"><ele>189.66666666666666</ele><time>2026-04-11T16:05:02.12Z</time></trkpt><trkpt lat="43.2860933" lon="13.2911433"><ele>190.33333333333331</ele><time>2026-04-11T16:05:03.12Z</time></trkpt><trkpt lat="43.2861867" lon="13.290965"><ele>191.0</ele><time>2026-04-11T16:05:04.12Z</time></trkpt><trkpt lat="43.2862967" lon="13.2907917"><ele>191.0</ele><time>2026-04-11T16:05:05.12Z</time></trkpt><trkpt lat="43.28639" lon="13.2906133"><ele>191.0</ele><time>2026-04-11T16:05:06.12Z</time></trkpt><trkpt lat="43.2864833" lon="13.29043"><ele>191.0</ele><time>2026-04-11T16:05:07.12Z</time></trkpt><trkpt lat="43.2865683" lon="13.2902533"><ele>192.0</ele><time>2026-04-11T16:05:08.12Z</time></trkpt><trkpt lat="43.2867467" lon="13.2898883"><ele>193.0</ele><time>2026-04-11T16:05:10.12Z</time></trkpt><trkpt lat="43.2868367" lon="13.2896983"><ele>194.0</ele><time>2026-04-11T16:05:11.12Z</time></trkpt><trkpt lat="43.2869333" lon="13.2895233"><ele>195.0</ele><time>2026-04-11T16:05:12.12Z</time></trkpt><trkpt lat="43.2870317" lon="13.2893467"><ele>196.0</ele><time>2026-04-11T16:05:13.12Z</time></trkpt><trkpt lat="43.2871317" lon="13.2891817"><ele>196.0</ele><time>2026-04-11T16:05:14.12Z</time></trkpt><trkpt lat="43.2872167" lon="13.2890033"><ele>196.0</ele><time>2026-04-11T16:05:15.12Z</time></trkpt><trkpt lat="43.2872967" lon="13.2888267"><ele>196.0</ele><time>2026-04-11T16:05:16.12Z</time></trkpt><trkpt lat="43.28738" lon="13.2886433"><ele>196.0</ele><time>2026-04-11T16:05:17.12Z</time></trkpt><trkpt lat="43.2874722" lon="13.2884762"><ele>196.0</ele><time>2026-04-11T16:05:18.12Z</time></trkpt><trkpt lat="43.2875713" lon="13.2883151"><ele>196.0</ele><time>2026-04-11T16:05:19.12Z</time></trkpt><trkpt lat="43.2876599" lon="13.2881473"><ele>197.66666666666666</ele><time>2026-04-11T16:05:20.12Z</time></trkpt><trkpt lat="43.2877491" lon="13.2879785"><ele>199.33333333333331</ele><time>2026-04-11T16:05:21.12Z</time></trkpt><trkpt lat="43.2878285" lon="13.2878019"><ele>201.0</ele><time>2026-04-11T16:05:22.12Z</time></trkpt><trkpt lat="43.2879131" lon="13.2876284"><ele>201.0</ele><time>2026-04-11T16:05:23.121Z</time></trkpt><trkpt lat="43.2879927" lon="13.2874724"><ele>201.0</ele><time>2026-04-11T16:05:24.12Z</time></trkpt><trkpt lat="43.2880713" lon="13.2873181"><ele>201.0</ele><time>2026-04-11T16:05:25.12Z</time></trkpt><trkpt lat="43.2881535" lon="13.2871606"><ele>201.0</ele><time>2026-04-11T16:05:26.12Z</time></trkpt><trkpt lat="43.2882335" lon="13.287004"><ele>201.33333333333331</ele><time>2026-04-11T16:05:27.12Z</time></trkpt><trkpt lat="43.2883153" lon="13.2868579"><ele>201.66666666666666</ele><time>2026-04-11T16:05:28.12Z</time></trkpt><trkpt lat="43.2883989" lon="13.2867028"><ele>202.0</ele><time>2026-04-11T16:05:29.12Z</time></trkpt><trkpt lat="43.2885603" lon="13.2863674"><ele>202.5</ele><time>2026-04-11T16:05:31.12Z</time></trkpt><trkpt lat="43.2886407" lon="13.2862152"><ele>203.0</ele><time>2026-04-11T16:05:32.12Z</time></trkpt><trkpt lat="43.2887209" lon="13.2860621"><ele>203.5</ele><time>2026-04-11T16:05:33.12Z</time></trkpt><trkpt lat="43.2888032" lon="13.2859124"><ele>204.0</ele><time>2026-04-11T16:05:34.12Z</time></trkpt><trkpt lat="43.2888816" lon="13.285771"><ele>204.0</ele><time>2026-04-11T16:05:35.12Z</time></trkpt><trkpt lat="43.288946" lon="13.2856276"><ele>204.0</ele><time>2026-04-11T16:05:36.12Z</time></trkpt><trkpt lat="43.2890064" lon="13.2854818"><ele>204.0</ele><time>2026-04-11T16:05:37.12Z</time></trkpt><trkpt lat="43.2890575" lon="13.2853258"><ele>204.0</ele><time>2026-04-11T16:05:38.12Z</time></trkpt><trkpt lat="43.2891027" lon="13.2851514"><ele>204.25</ele><time>2026-04-11T16:05:39.12Z</time></trkpt><trkpt lat="43.2891416" lon="13.2849706"><ele>204.5</ele><time>2026-04-11T16:05:40.12Z</time></trkpt><trkpt lat="43.289172" lon="13.2847741"><ele>204.75</ele><time>2026-04-11T16:05:41.12Z</time></trkpt><trkpt lat="43.2892071" lon="13.2845839"><ele>205.0</ele><time>2026-04-11T16:05:42.12Z</time></trkpt><trkpt lat="43.2892369" lon="13.2843829"><ele>205.0</ele><time>2026-04-11T16:05:43.12Z</time></trkpt><trkpt lat="43.2892713" lon="13.2841909"><ele>205.0</ele><time>2026-04-11T16:05:44.12Z</time></trkpt><trkpt lat="43.289303" lon="13.2840097"><ele>205.0</ele><time>2026-04-11T16:05:45.12Z</time></trkpt><trkpt lat="43.2893345" lon="13.283827"><ele>205.0</ele><time>2026-04-11T16:05:46.12Z</time></trkpt><trkpt lat="43.2893649" lon="13.2836435"><ele>205.75</ele><time>2026-04-11T16:05:47.12Z</time></trkpt><trkpt lat="43.2893941" lon="13.2834549"><ele>206.5</ele><time>2026-04-11T16:05:48.12Z</time></trkpt><trkpt lat="43.2894251" lon="13.2832754"><ele>207.25</ele><time>2026-04-11T16:05:49.12Z</time></trkpt><trkpt lat="43.2894554" lon="13.283099"><ele>208.0</ele><time>2026-04-11T16:05:50.12Z</time></trkpt><trkpt lat="43.2895223" lon="13.2827828"><ele>209.0</ele><time>2026-04-11T16:05:52.12Z</time></trkpt><trkpt lat="43.2895579" lon="13.282628"><ele>210.0</ele><time>2026-04-11T16:05:53.12Z</time></trkpt><trkpt lat="43.2896058" lon="13.2824764"><ele>211.0</ele><time>2026-04-11T16:05:54.12Z</time></trkpt><trkpt lat="43.2896649" lon="13.2823226"><ele>212.0</ele><time>2026-04-11T16:05:55.12Z</time></trkpt><trkpt lat="43.2897328" lon="13.2821725"><ele>212.25</ele><time>2026-04-11T16:05:56.12Z</time></trkpt><trkpt lat="43.2898029" lon="13.2820307"><ele>212.5</ele><time>2026-04-11T16:05:57.12Z</time></trkpt><trkpt lat="43.2898709" lon="13.2819017"><ele>212.75</ele><time>2026-04-11T16:05:58.12Z</time></trkpt><trkpt lat="43.2899329" lon="13.2817815"><ele>213.0</ele><time>2026-04-11T16:05:59.12Z</time></trkpt><trkpt lat="43.2899914" lon="13.2816644"><ele>213.0</ele><time>2026-04-11T16:06:00.12Z</time></trkpt><trkpt lat="43.2900521" lon="13.2815476"><ele>213.0</ele><time>2026-04-11T16:06:01.12Z</time></trkpt><trkpt lat="43.2901115" lon="13.2814434"><ele>213.0</ele><time>2026-04-11T16:06:02.12Z</time></trkpt><trkpt lat="43.2901731" lon="13.2813445"><ele>213.0</ele><time>2026-04-11T16:06:03.12Z</time></trkpt><trkpt lat="43.2902463" lon="13.2812533"><ele>213.0</ele><time>2026-04-11T16:06:04.12Z</time></trkpt><trkpt lat="43.2903312" lon="13.2811607"><ele>212.4</ele><time>2026-04-11T16:06:05.12Z</time></trkpt><trkpt lat="43.2904207" lon="13.281073"><ele>211.8</ele><time>2026-04-11T16:06:06.12Z</time></trkpt><trkpt lat="43.2905054" lon="13.2809952"><ele>211.2</ele><time>2026-04-11T16:06:07.12Z</time></trkpt><trkpt lat="43.2905884" lon="13.2809152"><ele>210.6</ele><time>2026-04-11T16:06:08.12Z</time></trkpt><trkpt lat="43.2906679" lon="13.2808403"><ele>210.0</ele><time>2026-04-11T16:06:09.12Z</time></trkpt><trkpt lat="43.2907451" lon="13.2807598"><ele>210.0</ele><time>2026-04-11T16:06:10.12Z</time></trkpt><trkpt lat="43.2908143" lon="13.2806842"><ele>210.0</ele><time>2026-04-11T16:06:11.12Z</time></trkpt><trkpt lat="43.2909439" lon="13.2805443"><ele>210.0</ele><time>2026-04-11T16:06:13.12Z</time></trkpt><trkpt lat="43.291" lon="13.2804605"><ele>210.0</ele><time>2026-04-11T16:06:14.12Z</time></trkpt><trkpt lat="43.2910598" lon="13.2803595"><ele>210.0</ele><time>2026-04-11T16:06:15.12Z</time></trkpt><trkpt lat="43.2911149" lon="13.2802354"><ele>211.0</ele><time>2026-04-11T16:06:16.12Z</time></trkpt><trkpt lat="43.2911719" lon="13.2800957"><ele>212.0</ele><time>2026-04-11T16:06:17.12Z</time></trkpt><trkpt lat="43.2912357" lon="13.2799693"><ele>213.0</ele><time>2026-04-11T16:06:18.12Z</time></trkpt><trkpt lat="43.2913199" lon="13.2798499"><ele>214.0</ele><time>2026-04-11T16:06:19.12Z</time></trkpt><trkpt lat="43.2914313" lon="13.2797373"><ele>210.0</ele><time>2026-04-11T16:06:20.12Z</time></trkpt><trkpt lat="43.2915777" lon="13.2796317"><ele>206.0</ele><time>2026-04-11T16:06:21.12Z</time></trkpt><trkpt lat="43.2917314" lon="13.2795294"><ele>202.0</ele><time>2026-04-11T16:06:22.12Z</time></trkpt><trkpt lat="43.2918817" lon="13.2794461"><ele>202.0</ele><time>2026-04-11T16:06:23.12Z</time></trkpt><trkpt lat="43.2920311" lon="13.2793754"><ele>202.0</ele><time>2026-04-11T16:06:24.12Z</time></trkpt><trkpt lat="43.2921644" lon="13.2792977"><ele>202.0</ele><time>2026-04-11T16:06:25.12Z</time></trkpt><trkpt lat="43.2923001" lon="13.2792229"><ele>202.0</ele><time>2026-04-11T16:06:26.12Z</time></trkpt><trkpt lat="43.2924408" lon="13.2791464"><ele>201.5</ele><time>2026-04-11T16:06:27.12Z</time></trkpt><trkpt lat="43.2925738" lon="13.2790741"><ele>201.0</ele><time>2026-04-11T16:06:28.12Z</time></trkpt><trkpt lat="43.2926949" lon="13.2789986"><ele>200.5</ele><time>2026-04-11T16:06:29.12Z</time></trkpt><trkpt lat="43.292794" lon="13.2789086"><ele>200.0</ele><time>2026-04-11T16:06:30.12Z</time></trkpt><trkpt lat="43.2928703" lon="13.2788074"><ele>201.25</ele><time>2026-04-11T16:06:31.12Z</time></trkpt><trkpt lat="43.2929225" lon="13.2786917"><ele>202.5</ele><time>2026-04-11T16:06:32.12Z</time></trkpt><trkpt lat="43.2929837" lon="13.2784323"><ele>203.75</ele><time>2026-04-11T16:06:34.12Z</time></trkpt><trkpt lat="43.2929957" lon="13.2782915"><ele>205.0</ele><time>2026-04-11T16:06:35.12Z</time></trkpt><trkpt lat="43.2930059" lon="13.2781414"><ele>206.25</ele><time>2026-04-11T16:06:36.12Z</time></trkpt><trkpt lat="43.2930208" lon="13.2779853"><ele>207.5</ele><time>2026-04-11T16:06:37.12Z</time></trkpt><trkpt lat="43.293029" lon="13.277818"><ele>208.75</ele><time>2026-04-11T16:06:38.12Z</time></trkpt><trkpt lat="43.2930461" lon="13.277648"><ele>210.0</ele><time>2026-04-11T16:06:39.12Z</time></trkpt><trkpt lat="43.2930641" lon="13.2774715"><ele>210.0</ele><time>2026-04-11T16:06:40.12Z</time></trkpt><trkpt lat="43.2930814" lon="13.2772976"><ele>210.0</ele><time>2026-04-11T16:06:41.12Z</time></trkpt><trkpt lat="43.2930974" lon="13.2771222"><ele>210.0</ele><time>2026-04-11T16:06:42.12Z</time></trkpt><trkpt lat="43.2931123" lon="13.2769405"><ele>210.0</ele><time>2026-04-11T16:06:43.12Z</time></trkpt><trkpt lat="43.2931237" lon="13.2767563"><ele>210.25</ele><time>2026-04-11T16:06:44.12Z</time></trkpt><trkpt lat="43.2931426" lon="13.2765779"><ele>210.5</ele><time>2026-04-11T16:06:45.12Z</time></trkpt><trkpt lat="43.293162" lon="13.2764014"><ele>210.75</ele><time>2026-04-11T16:06:46.12Z</time></trkpt><trkpt lat="43.2931872" lon="13.276239"><ele>211.0</ele><time>2026-04-11T16:06:47.12Z</time></trkpt><trkpt lat="43.2932078" lon="13.2760781"><ele>212.0</ele><time>2026-04-11T16:06:48.12Z</time></trkpt><trkpt lat="43.2932273" lon="13.2759185"><ele>213.0</ele><time>2026-04-11T16:06:49.12Z</time></trkpt><trkpt lat="43.2932394" lon="13.2757595"><ele>214.0</ele><time>2026-04-11T16:06:50.12Z</time></trkpt><trkpt lat="43.2932558" lon="13.2756031"><ele>215.0</ele><time>2026-04-11T16:06:51.12Z</time></trkpt><trkpt lat="43.2932687" lon="13.275446"><ele>216.25</ele><time>2026-04-11T16:06:52.12Z</time></trkpt><trkpt lat="43.2932859" lon="13.2752881"><ele>217.5</ele><time>2026-04-11T16:06:53.12Z</time></trkpt><trkpt lat="43.2933057" lon="13.2749943"><ele>218.75</ele><time>2026-04-11T16:06:55.12Z</time></trkpt><trkpt lat="43.2933076" lon="13.274849"><ele>220.0</ele><time>2026-04-11T16:06:56.12Z</time></trkpt><trkpt lat="43.2933048" lon="13.2747012"><ele>221.75</ele><time>2026-04-11T16:06:57.12Z</time></trkpt><trkpt lat="43.2932994" lon="13.2745399"><ele>223.5</ele><time>2026-04-11T16:06:58.12Z</time></trkpt><trkpt lat="43.2932908" lon="13.2743697"><ele>225.25</ele><time>2026-04-11T16:06:59.12Z</time></trkpt><trkpt lat="43.2932805" lon="13.2741984"><ele>227.0</ele><time>2026-04-11T16:07:00.12Z</time></trkpt><trkpt lat="43.2932733" lon="13.2740184"><ele>227.5</ele><time>2026-04-11T16:07:01.12Z</time></trkpt><trkpt lat="43.2932801" lon="13.2738278"><ele>228.0</ele><time>2026-04-11T16:07:02.12Z</time></trkpt><trkpt lat="43.2932857" lon="13.2736301"><ele>228.5</ele><time>2026-04-11T16:07:03.12Z</time></trkpt><trkpt lat="43.2932899" lon="13.2734277"><ele>229.0</ele><time>2026-04-11T16:07:04.12Z</time></trkpt><trkpt lat="43.2932915" lon="13.2732204"><ele>229.0</ele><time>2026-04-11T16:07:05.12Z</time></trkpt><trkpt lat="43.2932947" lon="13.2730138"><ele>229.0</ele><time>2026-04-11T16:07:06.12Z</time></trkpt><trkpt lat="43.2932943" lon="13.2728159"><ele>229.0</ele><time>2026-04-11T16:07:07.12Z</time></trkpt><trkpt lat="43.2932943" lon="13.2726152"><ele>229.0</ele><time>2026-04-11T16:07:08.12Z</time></trkpt><trkpt lat="43.2932934" lon="13.272417"><ele>229.25</ele><time>2026-04-11T16:07:09.12Z</time></trkpt><trkpt lat="43.2932958" lon="13.2722212"><ele>229.5</ele><time>2026-04-11T16:07:10.12Z</time></trkpt><trkpt lat="43.2932938" lon="13.2720205"><ele>229.75</ele><time>2026-04-11T16:07:11.12Z</time></trkpt><trkpt lat="43.2932953" lon="13.2718208"><ele>230.0</ele><time>2026-04-11T16:07:12.12Z</time></trkpt><trkpt lat="43.2932995" lon="13.2716199"><ele>229.66666666666669</ele><time>2026-04-11T16:07:13.121Z</time></trkpt><trkpt lat="43.2933127" lon="13.2714226"><ele>229.33333333333331</ele><time>2026-04-11T16:07:14.12Z</time></trkpt><trkpt lat="43.2933703" lon="13.2710456"><ele>229.0</ele><time>2026-04-11T16:07:16.12Z</time></trkpt><trkpt lat="43.2934037" lon="13.2708885"><ele>229.0</ele><time>2026-04-11T16:07:17.12Z</time></trkpt><trkpt lat="43.2934328" lon="13.2707481"><ele>228.99999999999997</ele><time>2026-04-11T16:07:18.12Z</time></trkpt><trkpt lat="43.2934664" lon="13.2706305"><ele>228.99999999999997</ele><time>2026-04-11T16:07:19.121Z</time></trkpt><trkpt lat="43.2935206" lon="13.2705396"><ele>229.0</ele><time>2026-04-11T16:07:20.12Z</time></trkpt><trkpt lat="43.2935943" lon="13.2704703"><ele>229.0</ele><time>2026-04-11T16:07:21.12Z</time></trkpt><trkpt lat="43.2936814" lon="13.2704331"><ele>229.0</ele><time>2026-04-11T16:07:22.12Z</time></trkpt><trkpt lat="43.2937736" lon="13.2704269"><ele>229.0</ele><time>2026-04-11T16:07:23.12Z</time></trkpt><trkpt lat="43.2938852" lon="13.2704578"><ele>229.0</ele><time>2026-04-11T16:07:24.12Z</time></trkpt><trkpt lat="43.2940123" lon="13.2704904"><ele>229.0</ele><time>2026-04-11T16:07:25.12Z</time></trkpt><trkpt lat="43.2941523" lon="13.27052"><ele>231.25</ele><time>2026-04-11T16:07:26.12Z</time></trkpt><trkpt lat="43.2942962" lon="13.2705504"><ele>233.5</ele><time>2026-04-11T16:07:27.12Z</time></trkpt><trkpt lat="43.2944449" lon="13.2705778"><ele>235.75</ele><time>2026-04-11T16:07:28.12Z</time></trkpt><trkpt lat="43.294595" lon="13.2705759"><ele>238.0</ele><time>2026-04-11T16:07:29.12Z</time></trkpt><trkpt lat="43.2947372" lon="13.270552"><ele>242.0</ele><time>2026-04-11T16:07:30.12Z</time></trkpt><trkpt lat="43.2948673" lon="13.2704877"><ele>246.0</ele><time>2026-04-11T16:07:31.12Z</time></trkpt><trkpt lat="43.294975" lon="13.2703879"><ele>250.0</ele><time>2026-04-11T16:07:32.12Z</time></trkpt><trkpt lat="43.2950657" lon="13.2702685"><ele>254.0</ele><time>2026-04-11T16:07:33.12Z</time></trkpt><trkpt lat="43.295154" lon="13.2701253"><ele>254.0</ele><time>2026-04-11T16:07:34.12Z</time></trkpt><trkpt lat="43.2952404" lon="13.269976"><ele>254.0</ele><time>2026-04-11T16:07:35.12Z</time></trkpt><trkpt lat="43.2954197" lon="13.2696825"><ele>254.0</ele><time>2026-04-11T16:07:37.12Z</time></trkpt><trkpt lat="43.2955016" lon="13.2695702"><ele>253.2</ele><time>2026-04-11T16:07:38.12Z</time></trkpt><trkpt lat="43.2955842" lon="13.269489"><ele>252.39999999999998</ele><time>2026-04-11T16:07:39.12Z</time></trkpt><trkpt lat="43.2956757" lon="13.2694276"><ele>251.6</ele><time>2026-04-11T16:07:40.12Z</time></trkpt><trkpt lat="43.2957784" lon="13.2693944"><ele>250.8</ele><time>2026-04-11T16:07:41.12Z</time></trkpt><trkpt lat="43.295893" lon="13.269399"><ele>250.0</ele><time>2026-04-11T16:07:42.12Z</time></trkpt><trkpt lat="43.2960238" lon="13.2694184"><ele>254.25</ele><time>2026-04-11T16:07:43.12Z</time></trkpt><trkpt lat="43.2961609" lon="13.2694275"><ele>258.5</ele><time>2026-04-11T16:07:44.12Z</time></trkpt><trkpt lat="43.2963029" lon="13.2694208"><ele>262.75</ele><time>2026-04-11T16:07:45.12Z</time></trkpt><trkpt lat="43.2964494" lon="13.269379"><ele>267.0</ele><time>2026-04-11T16:07:46.12Z</time></trkpt><trkpt lat="43.2965944" lon="13.2693282"><ele>270.5</ele><time>2026-04-11T16:07:47.12Z</time></trkpt><trkpt lat="43.2967307" lon="13.2692811"><ele>274.0</ele><time>2026-04-11T16:07:48.12Z</time></trkpt><trkpt lat="43.2968549" lon="13.2692637"><ele>277.5</ele><time>2026-04-11T16:07:49.12Z</time></trkpt><trkpt lat="43.296981" lon="13.2692964"><ele>281.0</ele><time>2026-04-11T16:07:50.12Z</time></trkpt><trkpt lat="43.2971009" lon="13.2693566"><ele>281.0</ele><time>2026-04-11T16:07:51.12Z</time></trkpt><trkpt lat="43.2972227" lon="13.2694321"><ele>281.0</ele><time>2026-04-11T16:07:52.12Z</time></trkpt><trkpt lat="43.2973429" lon="13.2694957"><ele>281.0</ele><time>2026-04-11T16:07:53.12Z</time></trkpt><trkpt lat="43.2974544" lon="13.2695188"><ele>281.0</ele><time>2026-04-11T16:07:54.12Z</time></trkpt><trkpt lat="43.2975655" lon="13.2695043"><ele>285.33333333333337</ele><time>2026-04-11T16:07:55.12Z</time></trkpt><trkpt lat="43.2976811" lon="13.2694537"><ele>289.6666666666667</ele><time>2026-04-11T16:07:56.12Z</time></trkpt><trkpt lat="43.2979422" lon="13.2692622"><ele>294.0</ele><time>2026-04-11T16:07:58.121Z</time></trkpt><trkpt lat="43.2980889" lon="13.2691473"><ele>295.25</ele><time>2026-04-11T16:07:59.12Z</time></trkpt><trkpt lat="43.2982371" lon="13.2690248"><ele>296.5</ele><time>2026-04-11T16:08:00.12Z</time></trkpt><trkpt lat="43.2983664" lon="13.2689222"><ele>297.75</ele><time>2026-04-11T16:08:01.12Z</time></trkpt><trkpt lat="43.298472" lon="13.268827"><ele>299.0</ele><time>2026-04-11T16:08:02.12Z</time></trkpt><trkpt lat="43.2985509" lon="13.268728"><ele>299.59999999999997</ele><time>2026-04-11T16:08:03.12Z</time></trkpt><trkpt lat="43.298598" lon="13.2686312"><ele>300.2</ele><time>2026-04-11T16:08:04.12Z</time></trkpt><trkpt lat="43.2986198" lon="13.2685112"><ele>300.79999999999995</ele><time>2026-04-11T16:08:05.12Z</time></trkpt><trkpt lat="43.2986246" lon="13.2683616"><ele>301.4</ele><time>2026-04-11T16:08:06.12Z</time></trkpt><trkpt lat="43.2986272" lon="13.2681933"><ele>302.0</ele><time>2026-04-11T16:08:07.12Z</time></trkpt><trkpt lat="43.2986338" lon="13.2680096"><ele>302.4</ele><time>2026-04-11T16:08:08.12Z</time></trkpt><trkpt lat="43.2986443" lon="13.2678383"><ele>302.79999999999995</ele><time>2026-04-11T16:08:09.12Z</time></trkpt><trkpt lat="43.2986596" lon="13.2676847"><ele>303.2</ele><time>2026-04-11T16:08:10.12Z</time></trkpt><trkpt lat="43.2986799" lon="13.2675599"><ele>303.59999999999997</ele><time>2026-04-11T16:08:11.12Z</time></trkpt><trkpt lat="43.2987182" lon="13.2674537"><ele>304.0</ele><time>2026-04-11T16:08:12.12Z</time></trkpt><trkpt lat="43.298783" lon="13.2673618"><ele>304.0</ele><time>2026-04-11T16:08:13.12Z</time></trkpt><trkpt lat="43.298877" lon="13.2672857"><ele>304.0</ele><time>2026-04-11T16:08:14.12Z</time></trkpt><trkpt lat="43.2989899" lon="13.2672304"><ele>304.0</ele><time>2026-04-11T16:08:15.12Z</time></trkpt><trkpt lat="43.2991138" lon="13.2671727"><ele>304.0</ele><time>2026-04-11T16:08:16.12Z</time></trkpt><trkpt lat="43.2992416" lon="13.2671138"><ele>307.66666666666663</ele><time>2026-04-11T16:08:17.12Z</time></trkpt><trkpt lat="43.2995142" lon="13.2669767"><ele>311.3333333333333</ele><time>2026-04-11T16:08:19.12Z</time></trkpt><trkpt lat="43.299655" lon="13.266909"><ele>315.0</ele><time>2026-04-11T16:08:20.12Z</time></trkpt><trkpt lat="43.2998011" lon="13.2668547"><ele>318.0</ele><time>2026-04-11T16:08:21.12Z</time></trkpt><trkpt lat="43.2999443" lon="13.2668171"><ele>321.0</ele><time>2026-04-11T16:08:22.12Z</time></trkpt><trkpt lat="43.3000833" lon="13.2667807"><ele>324.0</ele><time>2026-04-11T16:08:23.12Z</time></trkpt><trkpt lat="43.30022" lon="13.2667473"><ele>327.0</ele><time>2026-04-11T16:08:24.12Z</time></trkpt><trkpt lat="43.3003505" lon="13.2667157"><ele>327.0</ele><time>2026-04-11T16:08:25.12Z</time></trkpt><trkpt lat="43.3004896" lon="13.266687"><ele>327.0</ele><time>2026-04-11T16:08:26.12Z</time></trkpt><trkpt lat="43.3006273" lon="13.2666579"><ele>327.0</ele><time>2026-04-11T16:08:27.12Z</time></trkpt><trkpt lat="43.3007667" lon="13.2666327"><ele>327.0</ele><time>2026-04-11T16:08:28.12Z</time></trkpt><trkpt lat="43.3009224" lon="13.2665964"><ele>329.3333333333333</ele><time>2026-04-11T16:08:29.12Z</time></trkpt><trkpt lat="43.3010874" lon="13.2665622"><ele>331.66666666666663</ele><time>2026-04-11T16:08:30.12Z</time></trkpt><trkpt lat="43.3012567" lon="13.2665412"><ele>334.0</ele><time>2026-04-11T16:08:31.12Z</time></trkpt><trkpt lat="43.3014228" lon="13.2665149"><ele>333.5</ele><time>2026-04-11T16:08:32.12Z</time></trkpt><trkpt lat="43.3015719" lon="13.2664763"><ele>333.0</ele><time>2026-04-11T16:08:33.12Z</time></trkpt><trkpt lat="43.3017164" lon="13.2664349"><ele>332.5</ele><time>2026-04-11T16:08:34.12Z</time></trkpt><trkpt lat="43.3018587" lon="13.2663918"><ele>332.0</ele><time>2026-04-11T16:08:35.12Z</time></trkpt><trkpt lat="43.3019738" lon="13.2663448"><ele>332.0</ele><time>2026-04-11T16:08:36.12Z</time></trkpt><trkpt lat="43.3020711" lon="13.2663021"><ele>332.0</ele><time>2026-04-11T16:08:37.12Z</time></trkpt><trkpt lat="43.3021592" lon="13.2662545"><ele>332.0</ele><time>2026-04-11T16:08:38.12Z</time></trkpt><trkpt lat="43.3023096" lon="13.266111"><ele>332.0</ele><time>2026-04-11T16:08:40.12Z</time></trkpt><trkpt lat="43.3024006" lon="13.2660016"><ele>335.0</ele><time>2026-04-11T16:08:41.12Z</time></trkpt><trkpt lat="43.3025102" lon="13.2658759"><ele>338.0</ele><time>2026-04-11T16:08:42.12Z</time></trkpt><trkpt lat="43.3026406" lon="13.2657602"><ele>341.0</ele><time>2026-04-11T16:08:43.12Z</time></trkpt><trkpt lat="43.302793" lon="13.2656529"><ele>338.0</ele><time>2026-04-11T16:08:44.12Z</time></trkpt><trkpt lat="43.302965" lon="13.2655576"><ele>335.0</ele><time>2026-04-11T16:08:45.12Z</time></trkpt><trkpt lat="43.3031301" lon="13.2654681"><ele>332.0</ele><time>2026-04-11T16:08:46.12Z</time></trkpt><trkpt lat="43.3032779" lon="13.2653772"><ele>336.5</ele><time>2026-04-11T16:08:47.12Z</time></trkpt><trkpt lat="43.3034069" lon="13.265293"><ele>341.0</ele><time>2026-04-11T16:08:48.12Z</time></trkpt><trkpt lat="43.3035338" lon="13.2652308"><ele>345.5</ele><time>2026-04-11T16:08:49.12Z</time></trkpt><trkpt lat="43.3036548" lon="13.2651835"><ele>350.0</ele><time>2026-04-11T16:08:50.12Z</time></trkpt><trkpt lat="43.3037757" lon="13.2651607"><ele>350.0</ele><time>2026-04-11T16:08:51.12Z</time></trkpt><trkpt lat="43.303902" lon="13.2651484"><ele>350.0</ele><time>2026-04-11T16:08:52.12Z</time></trkpt><trkpt lat="43.3040262" lon="13.2651422"><ele>350.0</ele><time>2026-04-11T16:08:53.12Z</time></trkpt><trkpt lat="43.3041555" lon="13.2651442"><ele>350.0</ele><time>2026-04-11T16:08:54.12Z</time></trkpt><trkpt lat="43.3042966" lon="13.2651583"><ele>353.5</ele><time>2026-04-11T16:08:55.12Z</time></trkpt><trkpt lat="43.3044396" lon="13.2651722"><ele>357.0</ele><time>2026-04-11T16:08:56.12Z</time></trkpt><trkpt lat="43.3045818" lon="13.2651857"><ele>360.5</ele><time>2026-04-11T16:08:57.12Z</time></trkpt><trkpt lat="43.3047178" lon="13.2651909"><ele>364.0</ele><time>2026-04-11T16:08:58.12Z</time></trkpt><trkpt lat="43.3048456" lon="13.2651981"><ele>366.25</ele><time>2026-04-11T16:08:59.12Z</time></trkpt><trkpt lat="43.3050346" lon="13.2651498"><ele>368.5</ele><time>2026-04-11T16:09:01.12Z</time></trkpt><trkpt lat="43.3050985" lon="13.2650835"><ele>370.75</ele><time>2026-04-11T16:09:02.12Z</time></trkpt><trkpt lat="43.3051525" lon="13.2649865"><ele>373.0</ele><time>2026-04-11T16:09:03.12Z</time></trkpt><trkpt lat="43.3051915" lon="13.2648644"><ele>372.5</ele><time>2026-04-11T16:09:04.12Z</time></trkpt><trkpt lat="43.3052248" lon="13.2647263"><ele>372.0</ele><time>2026-04-11T16:09:05.12Z</time></trkpt><trkpt lat="43.3052535" lon="13.2645611"><ele>371.5</ele><time>2026-04-11T16:09:06.12Z</time></trkpt><trkpt lat="43.3052771" lon="13.2643789"><ele>371.0</ele><time>2026-04-11T16:09:07.12Z</time></trkpt><trkpt lat="43.3052984" lon="13.2641824"><ele>371.0</ele><time>2026-04-11T16:09:08.12Z</time></trkpt><trkpt lat="43.3053195" lon="13.2639688"><ele>371.0</ele><time>2026-04-11T16:09:09.12Z</time></trkpt><trkpt lat="43.3053398" lon="13.2637391"><ele>371.0</ele><time>2026-04-11T16:09:10.12Z</time></trkpt><trkpt lat="43.3053514" lon="13.2635153"><ele>370.75</ele><time>2026-04-11T16:09:11.12Z</time></trkpt><trkpt lat="43.305367" lon="13.263305"><ele>370.5</ele><time>2026-04-11T16:09:12.12Z</time></trkpt><trkpt lat="43.3053839" lon="13.2631034"><ele>370.25</ele><time>2026-04-11T16:09:13.12Z</time></trkpt><trkpt lat="43.3054074" lon="13.262919"><ele>370.0</ele><time>2026-04-11T16:09:14.12Z</time></trkpt><trkpt lat="43.3054414" lon="13.2627368"><ele>370.0</ele><time>2026-04-11T16:09:15.12Z</time></trkpt><trkpt lat="43.3054692" lon="13.2625517"><ele>370.0</ele><time>2026-04-11T16:09:16.12Z</time></trkpt><trkpt lat="43.30549" lon="13.262366"><ele>370.0</ele><time>2026-04-11T16:09:17.121Z</time></trkpt><trkpt lat="43.3055043" lon="13.2621651"><ele>370.0</ele><time>2026-04-11T16:09:18.12Z</time></trkpt><trkpt lat="43.3055314" lon="13.2619517"><ele>370.0</ele><time>2026-04-11T16:09:19.12Z</time></trkpt><trkpt lat="43.3055725" lon="13.2617462"><ele>370.0</ele><time>2026-04-11T16:09:20.12Z</time></trkpt><trkpt lat="43.305653" lon="13.2613915"><ele>370.0</ele><time>2026-04-11T16:09:22.12Z</time></trkpt><trkpt lat="43.3057012" lon="13.2612311"><ele>374.0</ele><time>2026-04-11T16:09:23.12Z</time></trkpt><trkpt lat="43.3057502" lon="13.2610842"><ele>378.0</ele><time>2026-04-11T16:09:24.12Z</time></trkpt><trkpt lat="43.3058072" lon="13.2609232"><ele>382.0</ele><time>2026-04-11T16:09:25.12Z</time></trkpt><trkpt lat="43.3058812" lon="13.2607645"><ele>386.0</ele><time>2026-04-11T16:09:26.12Z</time></trkpt><trkpt lat="43.3059618" lon="13.2606006"><ele>386.0</ele><time>2026-04-11T16:09:27.12Z</time></trkpt><trkpt lat="43.306055" lon="13.26041"><ele>386.0</ele><time>2026-04-11T16:09:28.12Z</time></trkpt><trkpt lat="43.3061421" lon="13.260225"><ele>386.0</ele><time>2026-04-11T16:09:29.12Z</time></trkpt><trkpt lat="43.3062292" lon="13.2600388"><ele>386.0</ele><time>2026-04-11T16:09:30.12Z</time></trkpt><trkpt lat="43.3063074" lon="13.2598715"><ele>386.0</ele><time>2026-04-11T16:09:31.12Z</time></trkpt><trkpt lat="43.3063817" lon="13.2597009"><ele>386.0</ele><time>2026-04-11T16:09:32.121Z</time></trkpt><trkpt lat="43.306463" lon="13.2595261"><ele>386.0</ele><time>2026-04-11T16:09:33.12Z</time></trkpt><trkpt lat="43.30655" lon="13.2593406"><ele>385.75</ele><time>2026-04-11T16:09:34.12Z</time></trkpt><trkpt lat="43.3066288" lon="13.2591635"><ele>385.5</ele><time>2026-04-11T16:09:35.12Z</time></trkpt><trkpt lat="43.3067025" lon="13.2590097"><ele>385.25</ele><time>2026-04-11T16:09:36.12Z</time></trkpt><trkpt lat="43.3067687" lon="13.258894"><ele>385.0</ele><time>2026-04-11T16:09:37.12Z</time></trkpt><trkpt lat="43.3068402" lon="13.2588142"><ele>385.0</ele><time>2026-04-11T16:09:38.12Z</time></trkpt><trkpt lat="43.3069272" lon="13.2587618"><ele>385.0</ele><time>2026-04-11T16:09:39.12Z</time></trkpt><trkpt lat="43.3070224" lon="13.2587692"><ele>385.0</ele><time>2026-04-11T16:09:40.12Z</time></trkpt><trkpt lat="43.3071259" lon="13.2588163"><ele>385.0</ele><time>2026-04-11T16:09:41.12Z</time></trkpt><trkpt lat="43.3073208" lon="13.2588542"><ele>387.4</ele><time>2026-04-11T16:09:43.12Z</time></trkpt><trkpt lat="43.3074132" lon="13.2588337"><ele>389.8</ele><time>2026-04-11T16:09:44.12Z</time></trkpt><trkpt lat="43.3074978" lon="13.2587887"><ele>392.20000000000005</ele><time>2026-04-11T16:09:45.12Z</time></trkpt><trkpt lat="43.3075717" lon="13.2587321"><ele>394.6</ele><time>2026-04-11T16:09:46.12Z</time></trkpt><trkpt lat="43.3076364" lon="13.2586766"><ele>397.0</ele><time>2026-04-11T16:09:47.12Z</time></trkpt><trkpt lat="43.307723" lon="13.2585592"><ele>397.0</ele><time>2026-04-11T16:09:49.12Z</time></trkpt><trkpt lat="43.3077516" lon="13.2583825"><ele>397.0</ele><time>2026-04-11T16:09:51.12Z</time></trkpt><trkpt lat="43.3077529" lon="13.2582752"><ele>397.0</ele><time>2026-04-11T16:09:52.12Z</time></trkpt><trkpt lat="43.3077464" lon="13.258166"><ele>397.0</ele><time>2026-04-11T16:09:53.12Z</time></trkpt><trkpt lat="43.3077322" lon="13.2580567"><ele>397.0</ele><time>2026-04-11T16:09:54.12Z</time></trkpt><trkpt lat="43.307721" lon="13.2579269"><ele>396.0</ele><time>2026-04-11T16:09:55.12Z</time></trkpt><trkpt lat="43.3077149" lon="13.2577604"><ele>395.0</ele><time>2026-04-11T16:09:56.12Z</time></trkpt><trkpt lat="43.3077223" lon="13.2575732"><ele>394.0</ele><time>2026-04-11T16:09:57.12Z</time></trkpt><trkpt lat="43.307733" lon="13.2573842"><ele>393.0</ele><time>2026-04-11T16:09:58.12Z</time></trkpt><trkpt lat="43.3077475" lon="13.257211"><ele>391.75</ele><time>2026-04-11T16:09:59.12Z</time></trkpt><trkpt lat="43.307771" lon="13.2570481"><ele>390.5</ele><time>2026-04-11T16:10:00.12Z</time></trkpt><trkpt lat="43.3078104" lon="13.2569049"><ele>389.25</ele><time>2026-04-11T16:10:01.12Z</time></trkpt><trkpt lat="43.3078604" lon="13.2567819"><ele>388.0</ele><time>2026-04-11T16:10:02.12Z</time></trkpt><trkpt lat="43.3079947" lon="13.2565862"><ele>389.25</ele><time>2026-04-11T16:10:04.12Z</time></trkpt><trkpt lat="43.3080887" lon="13.256523"><ele>390.5</ele><time>2026-04-11T16:10:05.12Z</time></trkpt><trkpt lat="43.3082065" lon="13.2564697"><ele>391.75</ele><time>2026-04-11T16:10:06.12Z</time></trkpt><trkpt lat="43.3083329" lon="13.2564116"><ele>393.0</ele><time>2026-04-11T16:10:07.12Z</time></trkpt><trkpt lat="43.3084588" lon="13.2563449"><ele>393.59999999999997</ele><time>2026-04-11T16:10:08.12Z</time></trkpt><trkpt lat="43.3085737" lon="13.256265"><ele>394.2</ele><time>2026-04-11T16:10:09.121Z</time></trkpt><trkpt lat="43.3086636" lon="13.2561725"><ele>394.8</ele><time>2026-04-11T16:10:10.12Z</time></trkpt><trkpt lat="43.308735" lon="13.2560646"><ele>395.4</ele><time>2026-04-11T16:10:11.12Z</time></trkpt><trkpt lat="43.3087889" lon="13.2559513"><ele>396.0</ele><time>2026-04-11T16:10:12.12Z</time></trkpt><trkpt lat="43.3088316" lon="13.2558292"><ele>396.0</ele><time>2026-04-11T16:10:13.12Z</time></trkpt><trkpt lat="43.3088528" lon="13.2556954"><ele>396.0</ele><time>2026-04-11T16:10:14.12Z</time></trkpt><trkpt lat="43.3088496" lon="13.2555533"><ele>396.0</ele><time>2026-04-11T16:10:15.12Z</time></trkpt><trkpt lat="43.3088303" lon="13.2554331"><ele>396.0</ele><time>2026-04-11T16:10:16.121Z</time></trkpt><trkpt lat="43.308803" lon="13.2553395"><ele>396.0</ele><time>2026-04-11T16:10:17.12Z</time></trkpt><trkpt lat="43.3087888" lon="13.2551978"><ele>396.33333333333337</ele><time>2026-04-11T16:10:19.12Z</time></trkpt><trkpt lat="43.3088507" lon="13.2550893"><ele>396.6666666666667</ele><time>2026-04-11T16:10:21.12Z</time></trkpt><trkpt lat="43.3089867" lon="13.2550502"><ele>397.0</ele><time>2026-04-11T16:10:23.12Z</time></trkpt><trkpt lat="43.3092104" lon="13.2550819"><ele>397.0</ele><time>2026-04-11T16:10:25.12Z</time></trkpt><trkpt lat="43.3093204" lon="13.255093"><ele>397.0</ele><time>2026-04-11T16:10:26.12Z</time></trkpt><trkpt lat="43.309425" lon="13.255093"><ele>397.0</ele><time>2026-04-11T16:10:27.12Z</time></trkpt><trkpt lat="43.3095162" lon="13.2550612"><ele>397.0</ele><time>2026-04-11T16:10:28.12Z</time></trkpt><trkpt lat="43.3096073" lon="13.2550018"><ele>397.0</ele><time>2026-04-11T16:10:29.12Z</time></trkpt><trkpt lat="43.3097069" lon="13.2549148"><ele>395.40000000000003</ele><time>2026-04-11T16:10:30.12Z</time></trkpt><trkpt lat="43.3098051" lon="13.2548148"><ele>393.8</ele><time>2026-04-11T16:10:31.121Z</time></trkpt><trkpt lat="43.3099008" lon="13.2547245"><ele>392.2</ele><time>2026-04-11T16:10:32.12Z</time></trkpt><trkpt lat="43.3099899" lon="13.2546515"><ele>390.6</ele><time>2026-04-11T16:10:33.12Z</time></trkpt><trkpt lat="43.3100808" lon="13.2545991"><ele>389.0</ele><time>2026-04-11T16:10:34.12Z</time></trkpt><trkpt lat="43.3101892" lon="13.2545832"><ele>389.0</ele><time>2026-04-11T16:10:35.12Z</time></trkpt><trkpt lat="43.3103136" lon="13.2545912"><ele>389.0</ele><time>2026-04-11T16:10:36.12Z</time></trkpt><trkpt lat="43.3104438" lon="13.2546221"><ele>389.0</ele><time>2026-04-11T16:10:37.12Z</time></trkpt><trkpt lat="43.3105618" lon="13.2546728"><ele>389.0</ele><time>2026-04-11T16:10:38.12Z</time></trkpt><trkpt lat="43.3106563" lon="13.2547442"><ele>388.8333333333333</ele><time>2026-04-11T16:10:39.12Z</time></trkpt><trkpt lat="43.3107194" lon="13.2548314"><ele>388.66666666666663</ele><time>2026-04-11T16:10:40.12Z</time></trkpt><trkpt lat="43.310758" lon="13.2549278"><ele>388.5</ele><time>2026-04-11T16:10:41.12Z</time></trkpt><trkpt lat="43.3107724" lon="13.2550339"><ele>388.33333333333337</ele><time>2026-04-11T16:10:42.12Z</time></trkpt><trkpt lat="43.3107721" lon="13.2551303"><ele>388.1666666666667</ele><time>2026-04-11T16:10:43.12Z</time></trkpt><trkpt lat="43.3107592" lon="13.2552167"><ele>388.0</ele><time>2026-04-11T16:10:44.12Z</time></trkpt><trkpt lat="43.310723" lon="13.2553891"><ele>388.0</ele><time>2026-04-11T16:10:46.12Z</time></trkpt><trkpt lat="43.3107175" lon="13.255481"><ele>388.0</ele><time>2026-04-11T16:10:47.12Z</time></trkpt><trkpt lat="43.3107288" lon="13.255586"><ele>388.0</ele><time>2026-04-11T16:10:48.12Z</time></trkpt><trkpt lat="43.3107549" lon="13.2557086"><ele>388.0</ele><time>2026-04-11T16:10:49.12Z</time></trkpt><trkpt lat="43.3107834" lon="13.2558547"><ele>388.0</ele><time>2026-04-11T16:10:50.12Z</time></trkpt><trkpt lat="43.3108082" lon="13.2560129"><ele>386.5</ele><time>2026-04-11T16:10:51.12Z</time></trkpt><trkpt lat="43.3108187" lon="13.2561812"><ele>385.0</ele><time>2026-04-11T16:10:52.12Z</time></trkpt><trkpt lat="43.3108241" lon="13.2563588"><ele>383.5</ele><time>2026-04-11T16:10:53.12Z</time></trkpt><trkpt lat="43.3108304" lon="13.2565337"><ele>382.0</ele><time>2026-04-11T16:10:54.12Z</time></trkpt><trkpt lat="43.3108299" lon="13.2567004"><ele>380.5</ele><time>2026-04-11T16:10:55.12Z</time></trkpt><trkpt lat="43.3108329" lon="13.2568606"><ele>379.0</ele><time>2026-04-11T16:10:56.12Z</time></trkpt><trkpt lat="43.310835" lon="13.2570233"><ele>377.5</ele><time>2026-04-11T16:10:57.12Z</time></trkpt><trkpt lat="43.3108267" lon="13.2572117"><ele>376.0</ele><time>2026-04-11T16:10:58.12Z</time></trkpt><trkpt lat="43.31081" lon="13.257405"><ele>374.25</ele><time>2026-04-11T16:10:59.12Z</time></trkpt><trkpt lat="43.310795" lon="13.2575833"><ele>372.5</ele><time>2026-04-11T16:11:00.12Z</time></trkpt><trkpt lat="43.3107783" lon="13.2577617"><ele>370.75</ele><time>2026-04-11T16:11:01.12Z</time></trkpt><trkpt lat="43.3107617" lon="13.2579283"><ele>369.0</ele><time>2026-04-11T16:11:02.12Z</time></trkpt><trkpt lat="43.3107217" lon="13.2580933"><ele>367.6666666666667</ele><time>2026-04-11T16:11:03.12Z</time></trkpt><trkpt lat="43.31066" lon="13.2582467"><ele>366.33333333333337</ele><time>2026-04-11T16:11:04.12Z</time></trkpt><trkpt lat="43.31059" lon="13.2584183"><ele>365.0</ele><time>2026-04-11T16:11:05.12Z</time></trkpt><trkpt lat="43.3104217" lon="13.2587533"><ele>365.0</ele><time>2026-04-11T16:11:07.12Z</time></trkpt><trkpt lat="43.3103333" lon="13.2589233"><ele>365.0</ele><time>2026-04-11T16:11:08.12Z</time></trkpt><trkpt lat="43.310255" lon="13.259085"><ele>365.0</ele><time>2026-04-11T16:11:09.12Z</time></trkpt><trkpt lat="43.3101817" lon="13.2592317"><ele>365.0</ele><time>2026-04-11T16:11:10.12Z</time></trkpt><trkpt lat="43.31012" lon="13.2593583"><ele>365.0</ele><time>2026-04-11T16:11:11.12Z</time></trkpt><trkpt lat="43.3100783" lon="13.2594633"><ele>365.0</ele><time>2026-04-11T16:11:12.12Z</time></trkpt><trkpt lat="43.310055" lon="13.2595583"><ele>365.0</ele><time>2026-04-11T16:11:13.12Z</time></trkpt><trkpt lat="43.31011" lon="13.2597017"><ele>365.0</ele><time>2026-04-11T16:11:15.12Z</time></trkpt><trkpt lat="43.3101633" lon="13.2597767"><ele>365.0</ele><time>2026-04-11T16:11:16.12Z</time></trkpt><trkpt lat="43.3102417" lon="13.2598617"><ele>365.0</ele><time>2026-04-11T16:11:17.12Z</time></trkpt><trkpt lat="43.310315" lon="13.2599833"><ele>365.0</ele><time>2026-04-11T16:11:18.12Z</time></trkpt><trkpt lat="43.310365" lon="13.2601467"><ele>365.0</ele><time>2026-04-11T16:11:19.12Z</time></trkpt><trkpt lat="43.3104017" lon="13.2603317"><ele>365.0</ele><time>2026-04-11T16:11:20.12Z</time></trkpt><trkpt lat="43.3104283" lon="13.260505"><ele>365.4</ele><time>2026-04-11T16:11:21.12Z</time></trkpt><trkpt lat="43.31045" lon="13.260675"><ele>365.8</ele><time>2026-04-11T16:11:22.12Z</time></trkpt><trkpt lat="43.3104783" lon="13.260815"><ele>366.20000000000005</ele><time>2026-04-11T16:11:23.12Z</time></trkpt><trkpt lat="43.3105233" lon="13.260925"><ele>366.6</ele><time>2026-04-11T16:11:24.12Z</time></trkpt><trkpt lat="43.3105933" lon="13.2610233"><ele>367.0</ele><time>2026-04-11T16:11:25.12Z</time></trkpt><trkpt lat="43.3106917" lon="13.261105"><ele>361.3333333333333</ele><time>2026-04-11T16:11:26.12Z</time></trkpt><trkpt lat="43.31094" lon="13.26126"><ele>355.6666666666667</ele><time>2026-04-11T16:11:28.12Z</time></trkpt><trkpt lat="43.3110733" lon="13.261355"><ele>350.0</ele><time>2026-04-11T16:11:29.12Z</time></trkpt><trkpt lat="43.31121" lon="13.26145"><ele>350.0</ele><time>2026-04-11T16:11:30.12Z</time></trkpt><trkpt lat="43.3113533" lon="13.2615083"><ele>350.0</ele><time>2026-04-11T16:11:31.12Z</time></trkpt><trkpt lat="43.31149" lon="13.26154"><ele>350.0</ele><time>2026-04-11T16:11:32.12Z</time></trkpt><trkpt lat="43.3116217" lon="13.261565"><ele>350.0</ele><time>2026-04-11T16:11:33.12Z</time></trkpt><trkpt lat="43.3117383" lon="13.2615983"><ele>346.8</ele><time>2026-04-11T16:11:34.12Z</time></trkpt><trkpt lat="43.3118433" lon="13.2616367"><ele>343.6</ele><time>2026-04-11T16:11:35.12Z</time></trkpt><trkpt lat="43.31194" lon="13.261705"><ele>340.4</ele><time>2026-04-11T16:11:36.12Z</time></trkpt><trkpt lat="43.3120217" lon="13.261805"><ele>337.2</ele><time>2026-04-11T16:11:37.12Z</time></trkpt><trkpt lat="43.31211" lon="13.2619133"><ele>334.0</ele><time>2026-04-11T16:11:38.12Z</time></trkpt><trkpt lat="43.312195" lon="13.262"><ele>332.0</ele><time>2026-04-11T16:11:39.12Z</time></trkpt><trkpt lat="43.31227" lon="13.2621017"><ele>330.0</ele><time>2026-04-11T16:11:40.12Z</time></trkpt><trkpt lat="43.3123233" lon="13.2622"><ele>328.0</ele><time>2026-04-11T16:11:41.12Z</time></trkpt><trkpt lat="43.3123433" lon="13.2623167"><ele>326.0</ele><time>2026-04-11T16:11:42.12Z</time></trkpt><trkpt lat="43.3123517" lon="13.2624317"><ele>324.0</ele><time>2026-04-11T16:11:43.121Z</time></trkpt><trkpt lat="43.31236" lon="13.26252"><ele>322.0</ele><time>2026-04-11T16:11:44.12Z</time></trkpt><trkpt lat="43.3124167" lon="13.2626417"><ele>322.0</ele><time>2026-04-11T16:11:46.12Z</time></trkpt><trkpt lat="43.3124917" lon="13.2625833"><ele>322.0</ele><time>2026-04-11T16:11:48.12Z</time></trkpt><trkpt lat="43.3125933" lon="13.2622417"><ele>322.0</ele><time>2026-04-11T16:11:51.12Z</time></trkpt><trkpt lat="43.31264" lon="13.2621667"><ele>322.0</ele><time>2026-04-11T16:11:52.12Z</time></trkpt><trkpt lat="43.3127383" lon="13.2621433"><ele>322.0</ele><time>2026-04-11T16:11:54.12Z</time></trkpt><trkpt lat="43.3128467" lon="13.2622467"><ele>322.0</ele><time>2026-04-11T16:11:56.12Z</time></trkpt><trkpt lat="43.3128967" lon="13.262355"><ele>322.0</ele><time>2026-04-11T16:11:57.121Z</time></trkpt><trkpt lat="43.3129433" lon="13.2624733"><ele>322.0</ele><time>2026-04-11T16:11:58.12Z</time></trkpt><trkpt lat="43.3130017" lon="13.262575"><ele>322.0</ele><time>2026-04-11T16:11:59.12Z</time></trkpt><trkpt lat="43.3130767" lon="13.2626717"><ele>323.6</ele><time>2026-04-11T16:12:00.12Z</time></trkpt><trkpt lat="43.31316" lon="13.2627533"><ele>325.20000000000005</ele><time>2026-04-11T16:12:01.12Z</time></trkpt><trkpt lat="43.3132567" lon="13.262785"><ele>326.8</ele><time>2026-04-11T16:12:02.12Z</time></trkpt><trkpt lat="43.313335" lon="13.2628367"><ele>328.4</ele><time>2026-04-11T16:12:03.12Z</time></trkpt><trkpt lat="43.3134117" lon="13.2629067"><ele>330.0</ele><time>2026-04-11T16:12:04.12Z</time></trkpt><trkpt lat="43.3134817" lon="13.2629883"><ele>330.0</ele><time>2026-04-11T16:12:05.12Z</time></trkpt><trkpt lat="43.3135533" lon="13.2630917"><ele>330.0</ele><time>2026-04-11T16:12:06.12Z</time></trkpt><trkpt lat="43.31363" lon="13.2632133"><ele>330.0</ele><time>2026-04-11T16:12:07.12Z</time></trkpt><trkpt lat="43.313715" lon="13.2633483"><ele>330.0</ele><time>2026-04-11T16:12:08.12Z</time></trkpt><trkpt lat="43.3137817" lon="13.2635"><ele>338.0</ele><time>2026-04-11T16:12:09.12Z</time></trkpt><trkpt lat="43.3139317" lon="13.26378"><ele>346.0</ele><time>2026-04-11T16:12:11.12Z</time></trkpt><trkpt lat="43.3140317" lon="13.2638833"><ele>354.0</ele><time>2026-04-11T16:12:12.12Z</time></trkpt><trkpt lat="43.3141417" lon="13.2639617"><ele>354.0</ele><time>2026-04-11T16:12:13.12Z</time></trkpt><trkpt lat="43.3142567" lon="13.26402"><ele>354.0</ele><time>2026-04-11T16:12:14.12Z</time></trkpt><trkpt lat="43.31439" lon="13.2640567"><ele>354.0</ele><time>2026-04-11T16:12:15.12Z</time></trkpt><trkpt lat="43.3145233" lon="13.264105"><ele>354.0</ele><time>2026-04-11T16:12:16.12Z</time></trkpt><trkpt lat="43.3146433" lon="13.2641617"><ele>358.4</ele><time>2026-04-11T16:12:17.12Z</time></trkpt><trkpt lat="43.314755" lon="13.2642283"><ele>362.79999999999995</ele><time>2026-04-11T16:12:18.12Z</time></trkpt><trkpt lat="43.3148217" lon="13.2643267"><ele>367.20000000000005</ele><time>2026-04-11T16:12:19.12Z</time></trkpt><trkpt lat="43.3148717" lon="13.2644283"><ele>371.6</ele><time>2026-04-11T16:12:20.12Z</time></trkpt><trkpt lat="43.3149067" lon="13.2645483"><ele>376.0</ele><time>2026-04-11T16:12:21.121Z</time></trkpt><trkpt lat="43.3149367" lon="13.2646867"><ele>375.66666666666663</ele><time>2026-04-11T16:12:22.12Z</time></trkpt><trkpt lat="43.3149733" lon="13.2648067"><ele>375.3333333333333</ele><time>2026-04-11T16:12:23.12Z</time></trkpt><trkpt lat="43.3150133" lon="13.26491"><ele>375.0</ele><time>2026-04-11T16:12:24.12Z</time></trkpt><trkpt lat="43.3150733" lon="13.2649767"><ele>374.6666666666667</ele><time>2026-04-11T16:12:25.12Z</time></trkpt><trkpt lat="43.3151467" lon="13.265025"><ele>374.33333333333337</ele><time>2026-04-11T16:12:26.12Z</time></trkpt><trkpt lat="43.315235" lon="13.265045"><ele>374.0</ele><time>2026-04-11T16:12:27.12Z</time></trkpt><trkpt lat="43.3153133" lon="13.2650517"><ele>374.0</ele><time>2026-04-11T16:12:28.12Z</time></trkpt><trkpt lat="43.315405" lon="13.26505"><ele>374.0</ele><time>2026-04-11T16:12:30.12Z</time></trkpt><trkpt lat="43.3154917" lon="13.2648967"><ele>374.0</ele><time>2026-04-11T16:12:35.12Z</time></trkpt><trkpt lat="43.3154983" lon="13.26481"><ele>374.0</ele><time>2026-04-11T16:12:36.12Z</time></trkpt><trkpt lat="43.3155083" lon="13.2646917"><ele>374.0</ele><time>2026-04-11T16:12:37.12Z</time></trkpt><trkpt lat="43.3155133" lon="13.2645433"><ele>374.5</ele><time>2026-04-11T16:12:38.12Z</time></trkpt><trkpt lat="43.3155179" lon="13.2643732"><ele>375.0</ele><time>2026-04-11T16:12:39.12Z</time></trkpt><trkpt lat="43.3155177" lon="13.2641844"><ele>375.5</ele><time>2026-04-11T16:12:40.12Z</time></trkpt><trkpt lat="43.3155063" lon="13.2639791"><ele>376.0</ele><time>2026-04-11T16:12:41.12Z</time></trkpt><trkpt lat="43.3154815" lon="13.2637721"><ele>378.0</ele><time>2026-04-11T16:12:42.12Z</time></trkpt><trkpt lat="43.3154485" lon="13.2635626"><ele>380.0</ele><time>2026-04-11T16:12:43.12Z</time></trkpt><trkpt lat="43.3154113" lon="13.2633512"><ele>382.0</ele><time>2026-04-11T16:12:44.12Z</time></trkpt><trkpt lat="43.3153661" lon="13.2631271"><ele>382.66666666666663</ele><time>2026-04-11T16:12:45.12Z</time></trkpt><trkpt lat="43.3153166" lon="13.2629036"><ele>383.3333333333333</ele><time>2026-04-11T16:12:46.12Z</time></trkpt><trkpt lat="43.315273" lon="13.2626732"><ele>384.0</ele><time>2026-04-11T16:12:47.12Z</time></trkpt><trkpt lat="43.3152389" lon="13.2624437"><ele>384.0</ele><time>2026-04-11T16:12:48.12Z</time></trkpt><trkpt lat="43.3152168" lon="13.2622117"><ele>384.0</ele><time>2026-04-11T16:12:49.12Z</time></trkpt><trkpt lat="43.3152064" lon="13.2619654"><ele>384.0</ele><time>2026-04-11T16:12:50.12Z</time></trkpt><trkpt lat="43.315209" lon="13.261712"><ele>384.5</ele><time>2026-04-11T16:12:51.12Z</time></trkpt><trkpt lat="43.3152451" lon="13.261198"><ele>385.0</ele><time>2026-04-11T16:12:53.12Z</time></trkpt><trkpt lat="43.3152817" lon="13.2609462"><ele>385.0</ele><time>2026-04-11T16:12:54.12Z</time></trkpt><trkpt lat="43.3153242" lon="13.2607128"><ele>385.0</ele><time>2026-04-11T16:12:55.12Z</time></trkpt><trkpt lat="43.3153728" lon="13.2604923"><ele>385.0</ele><time>2026-04-11T16:12:56.12Z</time></trkpt><trkpt lat="43.3154283" lon="13.2602805"><ele>384.6666666666667</ele><time>2026-04-11T16:12:57.12Z</time></trkpt><trkpt lat="43.3154948" lon="13.2600647"><ele>384.33333333333337</ele><time>2026-04-11T16:12:58.12Z</time></trkpt><trkpt lat="43.3155654" lon="13.2598406"><ele>384.0</ele><time>2026-04-11T16:12:59.12Z</time></trkpt><trkpt lat="43.3156392" lon="13.2596129"><ele>385.0</ele><time>2026-04-11T16:13:00.12Z</time></trkpt><trkpt lat="43.3157123" lon="13.2593808"><ele>386.0</ele><time>2026-04-11T16:13:01.12Z</time></trkpt><trkpt lat="43.3157827" lon="13.2591411"><ele>387.0</ele><time>2026-04-11T16:13:02.12Z</time></trkpt><trkpt lat="43.3158426" lon="13.2589023"><ele>387.0</ele><time>2026-04-11T16:13:03.12Z</time></trkpt><trkpt lat="43.3158859" lon="13.2586738"><ele>387.0</ele><time>2026-04-11T16:13:04.12Z</time></trkpt><trkpt lat="43.3159199" lon="13.2584484"><ele>387.0</ele><time>2026-04-11T16:13:05.12Z</time></trkpt><trkpt lat="43.3159437" lon="13.2582138"><ele>388.0</ele><time>2026-04-11T16:13:06.12Z</time></trkpt><trkpt lat="43.3159586" lon="13.2579707"><ele>389.0</ele><time>2026-04-11T16:13:07.12Z</time></trkpt><trkpt lat="43.3159704" lon="13.2577315"><ele>390.0</ele><time>2026-04-11T16:13:08.12Z</time></trkpt><trkpt lat="43.315979" lon="13.2575119"><ele>390.0</ele><time>2026-04-11T16:13:09.12Z</time></trkpt><trkpt lat="43.3159904" lon="13.2573112"><ele>390.0</ele><time>2026-04-11T16:13:10.12Z</time></trkpt><trkpt lat="43.316014" lon="13.2571149"><ele>390.0</ele><time>2026-04-11T16:13:11.12Z</time></trkpt><trkpt lat="43.3160604" lon="13.256924"><ele>390.0</ele><time>2026-04-11T16:13:12.12Z</time></trkpt><trkpt lat="43.3161733" lon="13.2565797"><ele>393.0</ele><time>2026-04-11T16:13:14.12Z</time></trkpt><trkpt lat="43.3162029" lon="13.2564046"><ele>396.0</ele><time>2026-04-11T16:13:15.12Z</time></trkpt><trkpt lat="43.3161991" lon="13.2562271"><ele>399.0</ele><time>2026-04-11T16:13:16.12Z</time></trkpt><trkpt lat="43.3161624" lon="13.2560452"><ele>402.0</ele><time>2026-04-11T16:13:17.12Z</time></trkpt><trkpt lat="43.3161024" lon="13.2558666"><ele>402.0</ele><time>2026-04-11T16:13:18.12Z</time></trkpt><trkpt lat="43.3160261" lon="13.2556898"><ele>402.0</ele><time>2026-04-11T16:13:19.12Z</time></trkpt><trkpt lat="43.3159297" lon="13.2555178"><ele>402.0</ele><time>2026-04-11T16:13:20.12Z</time></trkpt><trkpt lat="43.3158249" lon="13.2553646"><ele>404.66666666666663</ele><time>2026-04-11T16:13:21.12Z</time></trkpt><trkpt lat="43.3156924" lon="13.2552283"><ele>407.3333333333333</ele><time>2026-04-11T16:13:22.12Z</time></trkpt><trkpt lat="43.3155452" lon="13.2550992"><ele>410.0</ele><time>2026-04-11T16:13:23.12Z</time></trkpt><trkpt lat="43.3153802" lon="13.2549633"><ele>410.0</ele><time>2026-04-11T16:13:24.12Z</time></trkpt><trkpt lat="43.3152149" lon="13.2548232"><ele>410.0</ele><time>2026-04-11T16:13:25.12Z</time></trkpt><trkpt lat="43.3150779" lon="13.254684"><ele>410.0</ele><time>2026-04-11T16:13:26.12Z</time></trkpt><trkpt lat="43.3149688" lon="13.2545447"><ele>413.0</ele><time>2026-04-11T16:13:27.12Z</time></trkpt><trkpt lat="43.3148978" lon="13.2543904"><ele>416.0</ele><time>2026-04-11T16:13:28.12Z</time></trkpt><trkpt lat="43.3148559" lon="13.254229"><ele>419.0</ele><time>2026-04-11T16:13:29.12Z</time></trkpt><trkpt lat="43.3148408" lon="13.2540502"><ele>422.0</ele><time>2026-04-11T16:13:30.12Z</time></trkpt><trkpt lat="43.3148498" lon="13.2538626"><ele>424.3333333333333</ele><time>2026-04-11T16:13:31.12Z</time></trkpt><trkpt lat="43.3148838" lon="13.25368"><ele>426.66666666666663</ele><time>2026-04-11T16:13:32.12Z</time></trkpt><trkpt lat="43.3149478" lon="13.2535077"><ele>429.0</ele><time>2026-04-11T16:13:33.12Z</time></trkpt><trkpt lat="43.3151681" lon="13.2532001"><ele>430.0</ele><time>2026-04-11T16:13:35.12Z</time></trkpt><trkpt lat="43.3153132" lon="13.2530688"><ele>431.0</ele><time>2026-04-11T16:13:36.12Z</time></trkpt><trkpt lat="43.3154719" lon="13.2529532"><ele>432.0</ele><time>2026-04-11T16:13:37.12Z</time></trkpt><trkpt lat="43.315636" lon="13.2528354"><ele>435.66666666666663</ele><time>2026-04-11T16:13:38.12Z</time></trkpt><trkpt lat="43.3158059" lon="13.2527058"><ele>439.3333333333333</ele><time>2026-04-11T16:13:39.12Z</time></trkpt><trkpt lat="43.3159794" lon="13.252571"><ele>443.0</ele><time>2026-04-11T16:13:40.12Z</time></trkpt><trkpt lat="43.3161564" lon="13.252434"><ele>443.0</ele><time>2026-04-11T16:13:41.12Z</time></trkpt><trkpt lat="43.3163288" lon="13.2523273"><ele>443.0</ele><time>2026-04-11T16:13:42.12Z</time></trkpt><trkpt lat="43.3164869" lon="13.252258"><ele>443.0</ele><time>2026-04-11T16:13:43.12Z</time></trkpt><trkpt lat="43.3166382" lon="13.2522503"><ele>444.0</ele><time>2026-04-11T16:13:44.121Z</time></trkpt><trkpt lat="43.3167893" lon="13.2522884"><ele>445.0</ele><time>2026-04-11T16:13:45.12Z</time></trkpt><trkpt lat="43.3169494" lon="13.2523554"><ele>446.0</ele><time>2026-04-11T16:13:46.12Z</time></trkpt><trkpt lat="43.3171164" lon="13.2524022"><ele>447.75</ele><time>2026-04-11T16:13:47.12Z</time></trkpt><trkpt lat="43.3172766" lon="13.2524255"><ele>449.5</ele><time>2026-04-11T16:13:48.12Z</time></trkpt><trkpt lat="43.3174195" lon="13.2524148"><ele>451.25</ele><time>2026-04-11T16:13:49.12Z</time></trkpt><trkpt lat="43.3175459" lon="13.2523495"><ele>453.0</ele><time>2026-04-11T16:13:50.12Z</time></trkpt><trkpt lat="43.3176599" lon="13.2522344"><ele>455.0</ele><time>2026-04-11T16:13:51.12Z</time></trkpt><trkpt lat="43.3177495" lon="13.2520956"><ele>457.0</ele><time>2026-04-11T16:13:52.12Z</time></trkpt><trkpt lat="43.3178161" lon="13.251934"><ele>459.0</ele><time>2026-04-11T16:13:53.12Z</time></trkpt><trkpt lat="43.3178504" lon="13.2517637"><ele>461.0</ele><time>2026-04-11T16:13:54.12Z</time></trkpt><trkpt lat="43.3178204" lon="13.2514149"><ele>463.0</ele><time>2026-04-11T16:13:56.12Z</time></trkpt><trkpt lat="43.3177669" lon="13.2512342"><ele>465.0</ele><time>2026-04-11T16:13:57.12Z</time></trkpt><trkpt lat="43.3176943" lon="13.251065"><ele>467.0</ele><time>2026-04-11T16:13:58.12Z</time></trkpt><trkpt lat="43.3176075" lon="13.2508961"><ele>469.0</ele><time>2026-04-11T16:13:59.12Z</time></trkpt><trkpt lat="43.3175112" lon="13.2507192"><ele>470.33333333333337</ele><time>2026-04-11T16:14:00.12Z</time></trkpt><trkpt lat="43.3174099" lon="13.2505338"><ele>471.66666666666663</ele><time>2026-04-11T16:14:01.12Z</time></trkpt><trkpt lat="43.3173121" lon="13.2503382"><ele>473.0</ele><time>2026-04-11T16:14:02.12Z</time></trkpt><trkpt lat="43.3172203" lon="13.2501392"><ele>473.0</ele><time>2026-04-11T16:14:03.12Z</time></trkpt><trkpt lat="43.3171469" lon="13.2499453"><ele>473.0</ele><time>2026-04-11T16:14:04.12Z</time></trkpt><trkpt lat="43.3170922" lon="13.2497471"><ele>473.0</ele><time>2026-04-11T16:14:05.12Z</time></trkpt><trkpt lat="43.3170521" lon="13.2495294"><ele>476.0</ele><time>2026-04-11T16:14:06.12Z</time></trkpt><trkpt lat="43.317026" lon="13.2493061"><ele>479.0</ele><time>2026-04-11T16:14:07.12Z</time></trkpt><trkpt lat="43.316999" lon="13.2490622"><ele>482.0</ele><time>2026-04-11T16:14:08.12Z</time></trkpt><trkpt lat="43.3169713" lon="13.2488084"><ele>483.66666666666663</ele><time>2026-04-11T16:14:09.12Z</time></trkpt><trkpt lat="43.3169299" lon="13.2485391"><ele>485.33333333333337</ele><time>2026-04-11T16:14:10.12Z</time></trkpt><trkpt lat="43.3168799" lon="13.2482642"><ele>487.0</ele><time>2026-04-11T16:14:11.12Z</time></trkpt><trkpt lat="43.3168344" lon="13.2479748"><ele>490.0</ele><time>2026-04-11T16:14:12.12Z</time></trkpt><trkpt lat="43.3167888" lon="13.2476726"><ele>493.0</ele><time>2026-04-11T16:14:13.12Z</time></trkpt><trkpt lat="43.3167458" lon="13.2473695"><ele>496.0</ele><time>2026-04-11T16:14:14.12Z</time></trkpt><trkpt lat="43.3166975" lon="13.2471044"><ele>500.0</ele><time>2026-04-11T16:14:15.12Z</time></trkpt><trkpt lat="43.3165848" lon="13.2466643"><ele>504.0</ele><time>2026-04-11T16:14:17.12Z</time></trkpt><trkpt lat="43.3165155" lon="13.2464712"><ele>503.33333333333337</ele><time>2026-04-11T16:14:18.12Z</time></trkpt><trkpt lat="43.3164441" lon="13.2462891"><ele>502.6666666666667</ele><time>2026-04-11T16:14:19.12Z</time></trkpt><trkpt lat="43.3163754" lon="13.2460836"><ele>502.0</ele><time>2026-04-11T16:14:20.12Z</time></trkpt><trkpt lat="43.3163108" lon="13.2458871"><ele>503.5</ele><time>2026-04-11T16:14:21.12Z</time></trkpt><trkpt lat="43.3162474" lon="13.2457028"><ele>505.0</ele><time>2026-04-11T16:14:22.12Z</time></trkpt><trkpt lat="43.3161864" lon="13.2455344"><ele>506.5</ele><time>2026-04-11T16:14:23.12Z</time></trkpt><trkpt lat="43.3161397" lon="13.2453806"><ele>508.0</ele><time>2026-04-11T16:14:24.12Z</time></trkpt><trkpt lat="43.3161093" lon="13.2452491"><ele>508.00000000000006</ele><time>2026-04-11T16:14:25.12Z</time></trkpt><trkpt lat="43.3160905" lon="13.2451266"><ele>508.0</ele><time>2026-04-11T16:14:26.12Z</time></trkpt><trkpt lat="43.316086" lon="13.2450082"><ele>508.0</ele><time>2026-04-11T16:14:27.12Z</time></trkpt><trkpt lat="43.316088" lon="13.2448898"><ele>508.0</ele><time>2026-04-11T16:14:28.12Z</time></trkpt><trkpt lat="43.3160886" lon="13.2447769"><ele>508.00000000000006</ele><time>2026-04-11T16:14:29.12Z</time></trkpt><trkpt lat="43.3160938" lon="13.24468"><ele>508.0</ele><time>2026-04-11T16:14:30.12Z</time></trkpt><trkpt lat="43.3161057" lon="13.2445906"><ele>508.2</ele><time>2026-04-11T16:14:31.12Z</time></trkpt><trkpt lat="43.3162012" lon="13.2444577"><ele>508.4</ele><time>2026-04-11T16:14:33.12Z</time></trkpt><trkpt lat="43.3162741" lon="13.2443956"><ele>508.59999999999997</ele><time>2026-04-11T16:14:34.12Z</time></trkpt><trkpt lat="43.31636" lon="13.244324"><ele>508.79999999999995</ele><time>2026-04-11T16:14:35.12Z</time></trkpt><trkpt lat="43.3164637" lon="13.2442349"><ele>509.0</ele><time>2026-04-11T16:14:36.12Z</time></trkpt><trkpt lat="43.3166926" lon="13.244077"><ele>509.0</ele><time>2026-04-11T16:14:38.12Z</time></trkpt><trkpt lat="43.3168035" lon="13.2440259"><ele>509.0</ele><time>2026-04-11T16:14:39.12Z</time></trkpt><trkpt lat="43.3169145" lon="13.2440064"><ele>509.0</ele><time>2026-04-11T16:14:40.12Z</time></trkpt><trkpt lat="43.3170342" lon="13.2440023"><ele>509.0</ele><time>2026-04-11T16:14:41.12Z</time></trkpt><trkpt lat="43.3171785" lon="13.2440282"><ele>504.66666666666663</ele><time>2026-04-11T16:14:42.12Z</time></trkpt><trkpt lat="43.3173443" lon="13.2440788"><ele>500.33333333333337</ele><time>2026-04-11T16:14:43.12Z</time></trkpt><trkpt lat="43.3175162" lon="13.2441491"><ele>496.0</ele><time>2026-04-11T16:14:44.12Z</time></trkpt><trkpt lat="43.3176824" lon="13.2442088"><ele>496.0</ele><time>2026-04-11T16:14:45.12Z</time></trkpt><trkpt lat="43.3178469" lon="13.2442639"><ele>496.0</ele><time>2026-04-11T16:14:46.12Z</time></trkpt><trkpt lat="43.3180115" lon="13.2443136"><ele>496.0</ele><time>2026-04-11T16:14:47.12Z</time></trkpt><trkpt lat="43.3181702" lon="13.2443654"><ele>492.5</ele><time>2026-04-11T16:14:48.12Z</time></trkpt><trkpt lat="43.3183273" lon="13.2444182"><ele>489.0</ele><time>2026-04-11T16:14:49.12Z</time></trkpt><trkpt lat="43.3184687" lon="13.2444659"><ele>485.5</ele><time>2026-04-11T16:14:50.12Z</time></trkpt><trkpt lat="43.3185904" lon="13.2444835"><ele>482.0</ele><time>2026-04-11T16:14:51.12Z</time></trkpt><trkpt lat="43.3187045" lon="13.2444768"><ele>482.0</ele><time>2026-04-11T16:14:52.12Z</time></trkpt><trkpt lat="43.3188189" lon="13.2444288"><ele>482.0</ele><time>2026-04-11T16:14:53.12Z</time></trkpt><trkpt lat="43.3189367" lon="13.2443183"><ele>482.0</ele><time>2026-04-11T16:14:54.12Z</time></trkpt><trkpt lat="43.319065" lon="13.2441883"><ele>482.0</ele><time>2026-04-11T16:14:55.12Z</time></trkpt><trkpt lat="43.3191833" lon="13.2440667"><ele>479.3333333333333</ele><time>2026-04-11T16:14:56.12Z</time></trkpt><trkpt lat="43.31929" lon="13.2439567"><ele>476.66666666666663</ele><time>2026-04-11T16:14:57.12Z</time></trkpt><trkpt lat="43.3195117" lon="13.2438533"><ele>474.0</ele><time>2026-04-11T16:14:59.12Z</time></trkpt><trkpt lat="43.3196267" lon="13.2438517"><ele>471.66666666666663</ele><time>2026-04-11T16:15:00.12Z</time></trkpt><trkpt lat="43.31976" lon="13.2438583"><ele>469.3333333333333</ele><time>2026-04-11T16:15:01.12Z</time></trkpt><trkpt lat="43.31992" lon="13.2439033"><ele>467.0</ele><time>2026-04-11T16:15:02.121Z</time></trkpt><trkpt lat="43.3201017" lon="13.2439517"><ele>462.3333333333333</ele><time>2026-04-11T16:15:03.12Z</time></trkpt><trkpt lat="43.320305" lon="13.2440233"><ele>457.66666666666663</ele><time>2026-04-11T16:15:04.12Z</time></trkpt><trkpt lat="43.3205133" lon="13.24409"><ele>453.0</ele><time>2026-04-11T16:15:05.12Z</time></trkpt><trkpt lat="43.3207333" lon="13.2441483"><ele>452.0</ele><time>2026-04-11T16:15:06.12Z</time></trkpt><trkpt lat="43.3209317" lon="13.2442"><ele>451.0</ele><time>2026-04-11T16:15:07.12Z</time></trkpt><trkpt lat="43.321115" lon="13.2442633"><ele>450.0</ele><time>2026-04-11T16:15:08.12Z</time></trkpt><trkpt lat="43.3212883" lon="13.2443267"><ele>451.0</ele><time>2026-04-11T16:15:09.12Z</time></trkpt><trkpt lat="43.3214483" lon="13.244405"><ele>452.0</ele><time>2026-04-11T16:15:10.12Z</time></trkpt><trkpt lat="43.3215967" lon="13.24452"><ele>453.0</ele><time>2026-04-11T16:15:11.12Z</time></trkpt><trkpt lat="43.3217383" lon="13.2446667"><ele>450.0</ele><time>2026-04-11T16:15:12.12Z</time></trkpt><trkpt lat="43.3218783" lon="13.2448233"><ele>447.0</ele><time>2026-04-11T16:15:13.12Z</time></trkpt><trkpt lat="43.3220067" lon="13.2449633"><ele>444.0</ele><time>2026-04-11T16:15:14.12Z</time></trkpt><trkpt lat="43.3221317" lon="13.2450683"><ele>447.5</ele><time>2026-04-11T16:15:15.12Z</time></trkpt><trkpt lat="43.32225" lon="13.2451467"><ele>451.0</ele><time>2026-04-11T16:15:16.12Z</time></trkpt><trkpt lat="43.3223717" lon="13.2451783"><ele>454.5</ele><time>2026-04-11T16:15:17.12Z</time></trkpt><trkpt lat="43.3225033" lon="13.2451683"><ele>458.0</ele><time>2026-04-11T16:15:18.12Z</time></trkpt><trkpt lat="43.3227883" lon="13.2450317"><ele>458.0</ele><time>2026-04-11T16:15:20.12Z</time></trkpt><trkpt lat="43.3229367" lon="13.2449433"><ele>458.0</ele><time>2026-04-11T16:15:21.12Z</time></trkpt><trkpt lat="43.3230983" lon="13.2448717"><ele>458.0</ele><time>2026-04-11T16:15:22.12Z</time></trkpt><trkpt lat="43.3232533" lon="13.2448217"><ele>463.0</ele><time>2026-04-11T16:15:23.12Z</time></trkpt><trkpt lat="43.3234033" lon="13.2447767"><ele>468.0</ele><time>2026-04-11T16:15:24.12Z</time></trkpt><trkpt lat="43.32356" lon="13.244745"><ele>473.0</ele><time>2026-04-11T16:15:25.12Z</time></trkpt><trkpt lat="43.3237267" lon="13.24471"><ele>470.66666666666663</ele><time>2026-04-11T16:15:26.12Z</time></trkpt><trkpt lat="43.323905" lon="13.2446533"><ele>468.33333333333337</ele><time>2026-04-11T16:15:27.12Z</time></trkpt><trkpt lat="43.3240733" lon="13.2446033"><ele>466.0</ele><time>2026-04-11T16:15:28.12Z</time></trkpt><trkpt lat="43.3242467" lon="13.244555"><ele>466.0</ele><time>2026-04-11T16:15:29.12Z</time></trkpt><trkpt lat="43.3244183" lon="13.244505"><ele>466.0</ele><time>2026-04-11T16:15:30.12Z</time></trkpt><trkpt lat="43.3245817" lon="13.2444633"><ele>466.0</ele><time>2026-04-11T16:15:31.12Z</time></trkpt><trkpt lat="43.32475" lon="13.2444317"><ele>461.6666666666667</ele><time>2026-04-11T16:15:32.12Z</time></trkpt><trkpt lat="43.32493" lon="13.2444217"><ele>457.33333333333337</ele><time>2026-04-11T16:15:33.12Z</time></trkpt><trkpt lat="43.3250917" lon="13.24447"><ele>453.0</ele><time>2026-04-11T16:15:34.12Z</time></trkpt><trkpt lat="43.3252467" lon="13.2445083"><ele>453.0</ele><time>2026-04-11T16:15:35.12Z</time></trkpt><trkpt lat="43.3254017" lon="13.2445333"><ele>453.0</ele><time>2026-04-11T16:15:36.12Z</time></trkpt><trkpt lat="43.325545" lon="13.2445917"><ele>453.0</ele><time>2026-04-11T16:15:37.12Z</time></trkpt><trkpt lat="43.325675" lon="13.244685"><ele>444.5</ele><time>2026-04-11T16:15:38.12Z</time></trkpt><trkpt lat="43.325785" lon="13.2448167"><ele>436.0</ele><time>2026-04-11T16:15:39.12Z</time></trkpt><trkpt lat="43.32601" lon="13.2451867"><ele>436.0</ele><time>2026-04-11T16:15:41.12Z</time></trkpt><trkpt lat="43.3261383" lon="13.2453967"><ele>436.0</ele><time>2026-04-11T16:15:42.12Z</time></trkpt><trkpt lat="43.326275" lon="13.2456067"><ele>436.0</ele><time>2026-04-11T16:15:43.12Z</time></trkpt><trkpt lat="43.3264067" lon="13.24579"><ele>435.25</ele><time>2026-04-11T16:15:44.12Z</time></trkpt><trkpt lat="43.3265167" lon="13.24595"><ele>434.5</ele><time>2026-04-11T16:15:45.12Z</time></trkpt><trkpt lat="43.326605" lon="13.2460817"><ele>433.75</ele><time>2026-04-11T16:15:46.12Z</time></trkpt><trkpt lat="43.32668" lon="13.2461917"><ele>433.0</ele><time>2026-04-11T16:15:47.12Z</time></trkpt><trkpt lat="43.3267383" lon="13.2462783"><ele>433.0</ele><time>2026-04-11T16:15:48.12Z</time></trkpt><trkpt lat="43.326825" lon="13.2463433"><ele>432.99999999999994</ele><time>2026-04-11T16:15:50.12Z</time></trkpt><trkpt lat="43.32691" lon="13.2462717"><ele>432.99999999999994</ele><time>2026-04-11T16:15:52.12Z</time></trkpt><trkpt lat="43.3270067" lon="13.246215"><ele>433.0</ele><time>2026-04-11T16:15:54.12Z</time></trkpt><trkpt lat="43.32711" lon="13.246205"><ele>433.0</ele><time>2026-04-11T16:15:56.12Z</time></trkpt><trkpt lat="43.32726" lon="13.2461767"><ele>433.33333333333337</ele><time>2026-04-11T16:15:58.12Z</time></trkpt><trkpt lat="43.3273633" lon="13.2461633"><ele>433.66666666666663</ele><time>2026-04-11T16:15:59.12Z</time></trkpt><trkpt lat="43.3274933" lon="13.2461533"><ele>434.0</ele><time>2026-04-11T16:16:00.12Z</time></trkpt><trkpt lat="43.327755" lon="13.2461233"><ele>433.99999999999994</ele><time>2026-04-11T16:16:02.12Z</time></trkpt><trkpt lat="43.3278617" lon="13.2461083"><ele>434.0</ele><time>2026-04-11T16:16:03.12Z</time></trkpt><trkpt lat="43.327945" lon="13.2460983"><ele>434.0</ele><time>2026-04-11T16:16:04.12Z</time></trkpt><trkpt lat="43.3280183" lon="13.2461283"><ele>434.0</ele><time>2026-04-11T16:16:05.12Z</time></trkpt><trkpt lat="43.3280683" lon="13.2461917"><ele>433.99999999999994</ele><time>2026-04-11T16:16:06.12Z</time></trkpt><trkpt lat="43.328125" lon="13.246295"><ele>434.0</ele><time>2026-04-11T16:16:07.12Z</time></trkpt><trkpt lat="43.328195" lon="13.2464117"><ele>430.5</ele><time>2026-04-11T16:16:08.12Z</time></trkpt><trkpt lat="43.3282783" lon="13.2465133"><ele>427.0</ele><time>2026-04-11T16:16:09.12Z</time></trkpt><trkpt lat="43.3283867" lon="13.2466"><ele>423.5</ele><time>2026-04-11T16:16:10.12Z</time></trkpt><trkpt lat="43.328515" lon="13.24667"><ele>420.0</ele><time>2026-04-11T16:16:11.12Z</time></trkpt><trkpt lat="43.3286417" lon="13.24674"><ele>420.0</ele><time>2026-04-11T16:16:12.12Z</time></trkpt><trkpt lat="43.3287583" lon="13.2468067"><ele>420.0</ele><time>2026-04-11T16:16:13.12Z</time></trkpt><trkpt lat="43.3288767" lon="13.2468783"><ele>420.0</ele><time>2026-04-11T16:16:14.12Z</time></trkpt><trkpt lat="43.32897" lon="13.24695"><ele>420.0</ele><time>2026-04-11T16:16:15.12Z</time></trkpt><trkpt lat="43.3290583" lon="13.2469967"><ele>418.2</ele><time>2026-04-11T16:16:16.12Z</time></trkpt><trkpt lat="43.3291583" lon="13.247015"><ele>416.4</ele><time>2026-04-11T16:16:17.12Z</time></trkpt><trkpt lat="43.329275" lon="13.24705"><ele>414.6</ele><time>2026-04-11T16:16:18.12Z</time></trkpt><trkpt lat="43.3293883" lon="13.2471033"><ele>412.8</ele><time>2026-04-11T16:16:19.12Z</time></trkpt><trkpt lat="43.3294917" lon="13.2471483"><ele>411.0</ele><time>2026-04-11T16:16:20.12Z</time></trkpt><trkpt lat="43.329605" lon="13.2471833"><ele>408.33333333333337</ele><time>2026-04-11T16:16:21.12Z</time></trkpt><trkpt lat="43.3298567" lon="13.2472183"><ele>405.6666666666667</ele><time>2026-04-11T16:16:23.12Z</time></trkpt><trkpt lat="43.3299817" lon="13.2472267"><ele>403.0</ele><time>2026-04-11T16:16:24.12Z</time></trkpt><trkpt lat="43.33011" lon="13.24722"><ele>403.0</ele><time>2026-04-11T16:16:25.12Z</time></trkpt><trkpt lat="43.330255" lon="13.24719"><ele>403.0</ele><time>2026-04-11T16:16:26.12Z</time></trkpt><trkpt lat="43.3303917" lon="13.2471583"><ele>403.0</ele><time>2026-04-11T16:16:27.12Z</time></trkpt><trkpt lat="43.3305183" lon="13.24714"><ele>403.0</ele><time>2026-04-11T16:16:28.12Z</time></trkpt><trkpt lat="43.330625" lon="13.24713"><ele>401.1666666666667</ele><time>2026-04-11T16:16:29.12Z</time></trkpt><trkpt lat="43.3307183" lon="13.24713"><ele>399.33333333333337</ele><time>2026-04-11T16:16:30.12Z</time></trkpt><trkpt lat="43.3308" lon="13.2471417"><ele>397.5</ele><time>2026-04-11T16:16:31.12Z</time></trkpt><trkpt lat="43.3308783" lon="13.247145"><ele>395.66666666666663</ele><time>2026-04-11T16:16:32.12Z</time></trkpt><trkpt lat="43.3309467" lon="13.2471433"><ele>393.8333333333333</ele><time>2026-04-11T16:16:33.12Z</time></trkpt><trkpt lat="43.3310067" lon="13.2470567"><ele>392.0</ele><time>2026-04-11T16:16:35.12Z</time></trkpt><trkpt lat="43.3310233" lon="13.246965"><ele>392.0</ele><time>2026-04-11T16:16:36.12Z</time></trkpt><trkpt lat="43.3310433" lon="13.2468317"><ele>392.0</ele><time>2026-04-11T16:16:37.12Z</time></trkpt><trkpt lat="43.3310917" lon="13.2466583"><ele>392.0</ele><time>2026-04-11T16:16:38.12Z</time></trkpt><trkpt lat="43.331135" lon="13.2464667"><ele>392.0</ele><time>2026-04-11T16:16:39.12Z</time></trkpt><trkpt lat="43.331185" lon="13.2463083"><ele>391.75</ele><time>2026-04-11T16:16:40.12Z</time></trkpt><trkpt lat="43.3312317" lon="13.2461933"><ele>391.5</ele><time>2026-04-11T16:16:41.12Z</time></trkpt><trkpt lat="43.3312833" lon="13.246115"><ele>391.25</ele><time>2026-04-11T16:16:42.12Z</time></trkpt><trkpt lat="43.33149" lon="13.246075"><ele>391.0</ele><time>2026-04-11T16:16:45.12Z</time></trkpt><trkpt lat="43.3315667" lon="13.2460683"><ele>391.0</ele><time>2026-04-11T16:16:46.12Z</time></trkpt><trkpt lat="43.33163" lon="13.2460467"><ele>391.0</ele><time>2026-04-11T16:16:47.12Z</time></trkpt><trkpt lat="43.33172" lon="13.2459333"><ele>391.0</ele><time>2026-04-11T16:16:49.12Z</time></trkpt><trkpt lat="43.3317267" lon="13.2458283"><ele>391.0</ele><time>2026-04-11T16:16:50.12Z</time></trkpt><trkpt lat="43.3317283" lon="13.2456933"><ele>391.0</ele><time>2026-04-11T16:16:51.12Z</time></trkpt><trkpt lat="43.331735" lon="13.2455333"><ele>393.8</ele><time>2026-04-11T16:16:52.12Z</time></trkpt><trkpt lat="43.3317367" lon="13.2453667"><ele>396.6</ele><time>2026-04-11T16:16:53.12Z</time></trkpt><trkpt lat="43.3317517" lon="13.24521"><ele>399.4</ele><time>2026-04-11T16:16:54.12Z</time></trkpt><trkpt lat="43.3317683" lon="13.2450883"><ele>402.2</ele><time>2026-04-11T16:16:55.12Z</time></trkpt><trkpt lat="43.3318" lon="13.2450017"><ele>405.0</ele><time>2026-04-11T16:16:56.12Z</time></trkpt><trkpt lat="43.3318533" lon="13.2449367"><ele>405.0</ele><time>2026-04-11T16:16:57.12Z</time></trkpt><trkpt lat="43.331925" lon="13.2449017"><ele>405.0</ele><time>2026-04-11T16:16:58.12Z</time></trkpt><trkpt lat="43.332035" lon="13.2448767"><ele>405.0</ele><time>2026-04-11T16:16:59.12Z</time></trkpt><trkpt lat="43.3321817" lon="13.244865"><ele>405.0</ele><time>2026-04-11T16:17:00.12Z</time></trkpt><trkpt lat="43.33233" lon="13.2448617"><ele>404.0</ele><time>2026-04-11T16:17:01.12Z</time></trkpt><trkpt lat="43.3324633" lon="13.244865"><ele>403.0</ele><time>2026-04-11T16:17:02.12Z</time></trkpt><trkpt lat="43.332575" lon="13.244875"><ele>402.0</ele><time>2026-04-11T16:17:03.12Z</time></trkpt><trkpt lat="43.3327717" lon="13.244985"><ele>402.0</ele><time>2026-04-11T16:17:05.12Z</time></trkpt><trkpt lat="43.3328683" lon="13.24508"><ele>402.0</ele><time>2026-04-11T16:17:06.12Z</time></trkpt><trkpt lat="43.3329683" lon="13.24519"><ele>402.0</ele><time>2026-04-11T16:17:07.12Z</time></trkpt><trkpt lat="43.333065" lon="13.2452867"><ele>402.0</ele><time>2026-04-11T16:17:08.12Z</time></trkpt><trkpt lat="43.33316" lon="13.2453733"><ele>403.6</ele><time>2026-04-11T16:17:09.12Z</time></trkpt><trkpt lat="43.333245" lon="13.24545"><ele>405.20000000000005</ele><time>2026-04-11T16:17:10.12Z</time></trkpt><trkpt lat="43.3333267" lon="13.2455283"><ele>406.8</ele><time>2026-04-11T16:17:11.12Z</time></trkpt><trkpt lat="43.333405" lon="13.2456"><ele>408.4</ele><time>2026-04-11T16:17:12.121Z</time></trkpt><trkpt lat="43.3334717" lon="13.2456717"><ele>410.0</ele><time>2026-04-11T16:17:13.12Z</time></trkpt><trkpt lat="43.333525" lon="13.2457333"><ele>405.0</ele><time>2026-04-11T16:17:14.12Z</time></trkpt><trkpt lat="43.3335817" lon="13.2457867"><ele>400.0</ele><time>2026-04-11T16:17:15.12Z</time></trkpt><trkpt lat="43.3336417" lon="13.2458483"><ele>395.0</ele><time>2026-04-11T16:17:16.12Z</time></trkpt><trkpt lat="43.33368" lon="13.2459983"><ele>390.0</ele><time>2026-04-11T16:17:18.12Z</time></trkpt><trkpt lat="43.3337017" lon="13.2461333"><ele>385.0</ele><time>2026-04-11T16:17:20.12Z</time></trkpt><trkpt lat="43.3337983" lon="13.2462083"><ele>385.33333333333337</ele><time>2026-04-11T16:17:22.12Z</time></trkpt><trkpt lat="43.3338917" lon="13.2462317"><ele>385.66666666666663</ele><time>2026-04-11T16:17:23.12Z</time></trkpt><trkpt lat="43.334015" lon="13.2462317"><ele>386.0</ele><time>2026-04-11T16:17:24.12Z</time></trkpt><trkpt lat="43.334335" lon="13.2461917"><ele>386.0</ele><time>2026-04-11T16:17:26.12Z</time></trkpt><trkpt lat="43.3344783" lon="13.2461967"><ele>386.0</ele><time>2026-04-11T16:17:27.12Z</time></trkpt><trkpt lat="43.334625" lon="13.2462217"><ele>386.0</ele><time>2026-04-11T16:17:28.12Z</time></trkpt><trkpt lat="43.3347483" lon="13.24625"><ele>386.0</ele><time>2026-04-11T16:17:29.12Z</time></trkpt><trkpt lat="43.334855" lon="13.2462967"><ele>386.4</ele><time>2026-04-11T16:17:30.12Z</time></trkpt><trkpt lat="43.3349383" lon="13.2463433"><ele>386.8</ele><time>2026-04-11T16:17:31.12Z</time></trkpt><trkpt lat="43.3350183" lon="13.246375"><ele>387.2</ele><time>2026-04-11T16:17:32.12Z</time></trkpt><trkpt lat="43.3351133" lon="13.24639"><ele>387.59999999999997</ele><time>2026-04-11T16:17:33.12Z</time></trkpt><trkpt lat="43.3352183" lon="13.2463767"><ele>388.0</ele><time>2026-04-11T16:17:34.12Z</time></trkpt><trkpt lat="43.3353267" lon="13.246355"><ele>388.00000000000006</ele><time>2026-04-11T16:17:35.12Z</time></trkpt><trkpt lat="43.3354233" lon="13.246335"><ele>388.0</ele><time>2026-04-11T16:17:36.12Z</time></trkpt><trkpt lat="43.3355083" lon="13.2462983"><ele>388.0</ele><time>2026-04-11T16:17:37.12Z</time></trkpt><trkpt lat="43.33558" lon="13.2462517"><ele>388.0</ele><time>2026-04-11T16:17:38.12Z</time></trkpt><trkpt lat="43.3356533" lon="13.2462083"><ele>388.00000000000006</ele><time>2026-04-11T16:17:39.12Z</time></trkpt><trkpt lat="43.3357167" lon="13.2461483"><ele>388.0</ele><time>2026-04-11T16:17:40.12Z</time></trkpt><trkpt lat="43.3357667" lon="13.2460833"><ele>388.0</ele><time>2026-04-11T16:17:41.12Z</time></trkpt><trkpt lat="43.3358167" lon="13.246"><ele>388.0</ele><time>2026-04-11T16:17:42.12Z</time></trkpt><trkpt lat="43.3358683" lon="13.2458783"><ele>388.0</ele><time>2026-04-11T16:17:43.12Z</time></trkpt><trkpt lat="43.3359167" lon="13.2457483"><ele>388.0</ele><time>2026-04-11T16:17:44.12Z</time></trkpt><trkpt lat="43.3359733" lon="13.24562"><ele>388.0</ele><time>2026-04-11T16:17:45.12Z</time></trkpt><trkpt lat="43.33614" lon="13.2453933"><ele>388.0</ele><time>2026-04-11T16:17:47.12Z</time></trkpt><trkpt lat="43.3362367" lon="13.2452883"><ele>388.0</ele><time>2026-04-11T16:17:48.12Z</time></trkpt><trkpt lat="43.33633" lon="13.24518"><ele>388.0</ele><time>2026-04-11T16:17:49.12Z</time></trkpt><trkpt lat="43.3364083" lon="13.245075"><ele>388.0</ele><time>2026-04-11T16:17:50.12Z</time></trkpt><trkpt lat="43.336475" lon="13.2449783"><ele>385.4</ele><time>2026-04-11T16:17:51.12Z</time></trkpt><trkpt lat="43.336525" lon="13.2448733"><ele>382.79999999999995</ele><time>2026-04-11T16:17:52.12Z</time></trkpt><trkpt lat="43.3365767" lon="13.2447583"><ele>380.2</ele><time>2026-04-11T16:17:53.12Z</time></trkpt><trkpt lat="43.33662" lon="13.2446417"><ele>377.6</ele><time>2026-04-11T16:17:54.12Z</time></trkpt><trkpt lat="43.3366517" lon="13.2445133"><ele>375.0</ele><time>2026-04-11T16:17:55.12Z</time></trkpt><trkpt lat="43.3366717" lon="13.244375"><ele>375.0</ele><time>2026-04-11T16:17:56.12Z</time></trkpt><trkpt lat="43.336675" lon="13.244235"><ele>375.0</ele><time>2026-04-11T16:17:57.12Z</time></trkpt><trkpt lat="43.3366917" lon="13.24409"><ele>375.0</ele><time>2026-04-11T16:17:58.12Z</time></trkpt><trkpt lat="43.3367233" lon="13.2439433"><ele>375.0</ele><time>2026-04-11T16:17:59.12Z</time></trkpt><trkpt lat="43.3367517" lon="13.2438267"><ele>375.0</ele><time>2026-04-11T16:18:00.12Z</time></trkpt><trkpt lat="43.3367717" lon="13.243725"><ele>375.0</ele><time>2026-04-11T16:18:01.12Z</time></trkpt><trkpt lat="43.3367833" lon="13.24363"><ele>375.0</ele><time>2026-04-11T16:18:02.12Z</time></trkpt><trkpt lat="43.3367883" lon="13.2435183"><ele>375.0</ele><time>2026-04-11T16:18:03.12Z</time></trkpt><trkpt lat="43.3367767" lon="13.2433983"><ele>375.0</ele><time>2026-04-11T16:18:04.12Z</time></trkpt><trkpt lat="43.3367683" lon="13.243275"><ele>375.0</ele><time>2026-04-11T16:18:05.12Z</time></trkpt><trkpt lat="43.3367583" lon="13.2431383"><ele>375.0</ele><time>2026-04-11T16:18:06.12Z</time></trkpt><trkpt lat="43.33674" lon="13.242895"><ele>375.0</ele><time>2026-04-11T16:18:08.12Z</time></trkpt><trkpt lat="43.3367333" lon="13.2427883"><ele>375.0</ele><time>2026-04-11T16:18:09.12Z</time></trkpt><trkpt lat="43.3367333" lon="13.242685"><ele>375.0</ele><time>2026-04-11T16:18:10.12Z</time></trkpt><trkpt lat="43.3367283" lon="13.24257"><ele>375.0</ele><time>2026-04-11T16:18:11.121Z</time></trkpt><trkpt lat="43.3367233" lon="13.242455"><ele>375.0</ele><time>2026-04-11T16:18:12.12Z</time></trkpt><trkpt lat="43.3367333" lon="13.2423383"><ele>375.0</ele><time>2026-04-11T16:18:13.12Z</time></trkpt><trkpt lat="43.3367417" lon="13.242215"><ele>374.8333333333333</ele><time>2026-04-11T16:18:14.12Z</time></trkpt><trkpt lat="43.3367567" lon="13.2420917"><ele>374.6666666666667</ele><time>2026-04-11T16:18:15.12Z</time></trkpt><trkpt lat="43.3367783" lon="13.2419783"><ele>374.5</ele><time>2026-04-11T16:18:16.12Z</time></trkpt><trkpt lat="43.3368" lon="13.2418683"><ele>374.33333333333337</ele><time>2026-04-11T16:18:17.12Z</time></trkpt><trkpt lat="43.336825" lon="13.2417783"><ele>374.1666666666667</ele><time>2026-04-11T16:18:18.12Z</time></trkpt><trkpt lat="43.3368567" lon="13.2416833"><ele>374.0</ele><time>2026-04-11T16:18:19.12Z</time></trkpt><trkpt lat="43.33691" lon="13.24157"><ele>374.6</ele><time>2026-04-11T16:18:20.12Z</time></trkpt><trkpt lat="43.3369733" lon="13.2414367"><ele>375.2</ele><time>2026-04-11T16:18:21.12Z</time></trkpt><trkpt lat="43.3370367" lon="13.2413"><ele>375.8</ele><time>2026-04-11T16:18:22.12Z</time></trkpt><trkpt lat="43.3370883" lon="13.2411633"><ele>376.40000000000003</ele><time>2026-04-11T16:18:23.12Z</time></trkpt><trkpt lat="43.3371117" lon="13.2410333"><ele>377.0</ele><time>2026-04-11T16:18:24.12Z</time></trkpt><trkpt lat="43.337115" lon="13.2409217"><ele>377.0</ele><time>2026-04-11T16:18:25.12Z</time></trkpt><trkpt lat="43.3371017" lon="13.2408067"><ele>377.0</ele><time>2026-04-11T16:18:26.12Z</time></trkpt><trkpt lat="43.33708" lon="13.24069"><ele>377.0</ele><time>2026-04-11T16:18:27.12Z</time></trkpt><trkpt lat="43.33701" lon="13.240355"><ele>377.0</ele><time>2026-04-11T16:18:29.12Z</time></trkpt><trkpt lat="43.3369717" lon="13.2401933"><ele>376.6</ele><time>2026-04-11T16:18:30.12Z</time></trkpt><trkpt lat="43.3369433" lon="13.24004"><ele>376.20000000000005</ele><time>2026-04-11T16:18:31.12Z</time></trkpt><trkpt lat="43.3369167" lon="13.239925"><ele>375.8</ele><time>2026-04-11T16:18:32.12Z</time></trkpt><trkpt lat="43.3368867" lon="13.2398283"><ele>375.4</ele><time>2026-04-11T16:18:33.12Z</time></trkpt><trkpt lat="43.3368567" lon="13.239725"><ele>375.0</ele><time>2026-04-11T16:18:35.12Z</time></trkpt><trkpt lat="43.3369167" lon="13.2396333"><ele>374.3333333333333</ele><time>2026-04-11T16:18:37.12Z</time></trkpt><trkpt lat="43.3369733" lon="13.2395867"><ele>373.6666666666667</ele><time>2026-04-11T16:18:38.12Z</time></trkpt><trkpt lat="43.337035" lon="13.2395433"><ele>373.0</ele><time>2026-04-11T16:18:39.12Z</time></trkpt><trkpt lat="43.3370917" lon="13.2394967"><ele>372.33333333333337</ele><time>2026-04-11T16:18:40.12Z</time></trkpt><trkpt lat="43.3371567" lon="13.2394567"><ele>371.6666666666667</ele><time>2026-04-11T16:18:41.12Z</time></trkpt><trkpt lat="43.33722" lon="13.2394333"><ele>371.0</ele><time>2026-04-11T16:18:42.12Z</time></trkpt><trkpt lat="43.3373417" lon="13.2393667"><ele>365.0</ele><time>2026-04-11T16:18:44.12Z</time></trkpt><trkpt lat="43.3374067" lon="13.2393433"><ele>359.0</ele><time>2026-04-11T16:18:45.12Z</time></trkpt><trkpt lat="43.3375133" lon="13.2393417"><ele>353.0</ele><time>2026-04-11T16:18:47.12Z</time></trkpt><trkpt lat="43.3376133" lon="13.2394383"><ele>347.0</ele><time>2026-04-11T16:18:49.12Z</time></trkpt><trkpt lat="43.3377333" lon="13.2395883"><ele>347.0</ele><time>2026-04-11T16:18:54.12Z</time></trkpt><trkpt lat="43.33771" lon="13.2396733"><ele>347.0</ele><time>2026-04-11T16:19:59.119Z</time></trkpt><trkpt lat="43.33754" lon="13.2398033"><ele>347.0</ele><time>2026-04-11T16:20:03.119Z</time></trkpt><trkpt lat="43.33746" lon="13.2397567"><ele>347.0</ele><time>2026-04-11T16:20:05.119Z</time></trkpt><trkpt lat="43.3373967" lon="13.239755"><ele>347.0</ele><time>2026-04-11T16:20:07.119Z</time></trkpt><trkpt lat="43.3374617" lon="13.23982"><ele>347.0</ele><time>2026-04-11T16:20:11.119Z</time></trkpt><trkpt lat="43.3375717" lon="13.2397917"><ele>347.0</ele><time>2026-04-11T16:20:13.119Z</time></trkpt><trkpt lat="43.337635" lon="13.2397467"><ele>347.0</ele><time>2026-04-11T16:20:14.119Z</time></trkpt><trkpt lat="43.33769" lon="13.2397033"><ele>347.0</ele><time>2026-04-11T16:20:15.119Z</time></trkpt><trkpt lat="43.33774" lon="13.23962"><ele>347.0</ele><time>2026-04-11T16:20:17.119Z</time></trkpt><trkpt lat="43.3376667" lon="13.239525"><ele>347.0</ele><time>2026-04-11T16:20:20.119Z</time></trkpt><trkpt lat="43.3375033" lon="13.2393567"><ele>347.0</ele><time>2026-04-11T16:20:23.119Z</time></trkpt><trkpt lat="43.33744" lon="13.2393417"><ele>347.0</ele><time>2026-04-11T16:20:24.119Z</time></trkpt><trkpt lat="43.3373183" lon="13.2393867"><ele>347.0</ele><time>2026-04-11T16:20:26.119Z</time></trkpt><trkpt lat="43.3372417" lon="13.2394267"><ele>347.0</ele><time>2026-04-11T16:20:27.119Z</time></trkpt><trkpt lat="43.33716" lon="13.2394767"><ele>347.0</ele><time>2026-04-11T16:20:28.119Z</time></trkpt><trkpt lat="43.33709" lon="13.2395183"><ele>347.0</ele><time>2026-04-11T16:20:29.119Z</time></trkpt><trkpt lat="43.3370217" lon="13.2395783"><ele>351.0</ele><time>2026-04-11T16:20:30.119Z</time></trkpt><trkpt lat="43.3369533" lon="13.23964"><ele>355.0</ele><time>2026-04-11T16:20:31.119Z</time></trkpt><trkpt lat="43.3368933" lon="13.2396867"><ele>359.0</ele><time>2026-04-11T16:20:32.119Z</time></trkpt><trkpt lat="43.336855" lon="13.23979"><ele>363.0</ele><time>2026-04-11T16:20:34.119Z</time></trkpt><trkpt lat="43.3369217" lon="13.2399067"><ele>367.0</ele><time>2026-04-11T16:20:36.119Z</time></trkpt><trkpt lat="43.3369533" lon="13.2399883"><ele>371.0</ele><time>2026-04-11T16:20:37.119Z</time></trkpt><trkpt lat="43.3369833" lon="13.24011"><ele>372.0</ele><time>2026-04-11T16:20:38.119Z</time></trkpt><trkpt lat="43.33701" lon="13.2402633"><ele>373.0</ele><time>2026-04-11T16:20:39.119Z</time></trkpt><trkpt lat="43.33705" lon="13.2404517"><ele>374.0</ele><time>2026-04-11T16:20:40.119Z</time></trkpt><trkpt lat="43.33708" lon="13.2406233"><ele>375.0</ele><time>2026-04-11T16:20:41.119Z</time></trkpt><trkpt lat="43.3371217" lon="13.2409033"><ele>374.8</ele><time>2026-04-11T16:20:43.119Z</time></trkpt><trkpt lat="43.3371233" lon="13.2410183"><ele>374.6</ele><time>2026-04-11T16:20:44.119Z</time></trkpt><trkpt lat="43.3371033" lon="13.24115"><ele>374.4</ele><time>2026-04-11T16:20:45.119Z</time></trkpt><trkpt lat="43.3370617" lon="13.24129"><ele>374.2</ele><time>2026-04-11T16:20:46.119Z</time></trkpt><trkpt lat="43.3370083" lon="13.2414283"><ele>374.0</ele><time>2026-04-11T16:20:47.119Z</time></trkpt><trkpt lat="43.3369417" lon="13.2415733"><ele>374.0</ele><time>2026-04-11T16:20:48.119Z</time></trkpt><trkpt lat="43.3368817" lon="13.241715"><ele>374.0</ele><time>2026-04-11T16:20:49.119Z</time></trkpt><trkpt lat="43.33684" lon="13.2418583"><ele>374.0</ele><time>2026-04-11T16:20:50.119Z</time></trkpt><trkpt lat="43.3368117" lon="13.2420183"><ele>374.0</ele><time>2026-04-11T16:20:51.119Z</time></trkpt><trkpt lat="43.3367833" lon="13.2421617"><ele>374.0</ele><time>2026-04-11T16:20:52.119Z</time></trkpt><trkpt lat="43.3367583" lon="13.2422917"><ele>374.0</ele><time>2026-04-11T16:20:53.119Z</time></trkpt><trkpt lat="43.3367367" lon="13.242405"><ele>374.0</ele><time>2026-04-11T16:20:54.119Z</time></trkpt><trkpt lat="43.3367233" lon="13.2425183"><ele>374.0</ele><time>2026-04-11T16:20:55.119Z</time></trkpt><trkpt lat="43.3367433" lon="13.2426317"><ele>374.0</ele><time>2026-04-11T16:20:56.119Z</time></trkpt><trkpt lat="43.3367567" lon="13.2427617"><ele>374.0</ele><time>2026-04-11T16:20:57.119Z</time></trkpt><trkpt lat="43.33678" lon="13.242905"><ele>374.2</ele><time>2026-04-11T16:20:58.119Z</time></trkpt><trkpt lat="43.3368033" lon="13.2430683"><ele>374.4</ele><time>2026-04-11T16:20:59.119Z</time></trkpt><trkpt lat="43.3368233" lon="13.2432267"><ele>374.6</ele><time>2026-04-11T16:21:00.119Z</time></trkpt><trkpt lat="43.3368383" lon="13.2433767"><ele>374.8</ele><time>2026-04-11T16:21:01.119Z</time></trkpt><trkpt lat="43.336835" lon="13.2435083"><ele>375.0</ele><time>2026-04-11T16:21:02.119Z</time></trkpt><trkpt lat="43.3368133" lon="13.24377"><ele>375.0</ele><time>2026-04-11T16:21:04.119Z</time></trkpt><trkpt lat="43.336785" lon="13.243905"><ele>375.0</ele><time>2026-04-11T16:21:05.119Z</time></trkpt><trkpt lat="43.33675" lon="13.2440467"><ele>375.0</ele><time>2026-04-11T16:21:06.119Z</time></trkpt><trkpt lat="43.3367217" lon="13.2442"><ele>375.0</ele><time>2026-04-11T16:21:07.119Z</time></trkpt><trkpt lat="43.33669" lon="13.2443517"><ele>375.0</ele><time>2026-04-11T16:21:08.119Z</time></trkpt><trkpt lat="43.3366717" lon="13.24449"><ele>375.0</ele><time>2026-04-11T16:21:09.119Z</time></trkpt><trkpt lat="43.3366417" lon="13.2446217"><ele>375.0</ele><time>2026-04-11T16:21:10.119Z</time></trkpt><trkpt lat="43.3366" lon="13.24475"><ele>375.0</ele><time>2026-04-11T16:21:11.119Z</time></trkpt><trkpt lat="43.3365567" lon="13.2448817"><ele>375.0</ele><time>2026-04-11T16:21:12.119Z</time></trkpt><trkpt lat="43.3365017" lon="13.2449883"><ele>375.0</ele><time>2026-04-11T16:21:13.119Z</time></trkpt><trkpt lat="43.33643" lon="13.245095"><ele>378.25</ele><time>2026-04-11T16:21:14.119Z</time></trkpt><trkpt lat="43.3363467" lon="13.2451917"><ele>381.5</ele><time>2026-04-11T16:21:15.119Z</time></trkpt><trkpt lat="43.3362517" lon="13.2453033"><ele>384.75</ele><time>2026-04-11T16:21:16.119Z</time></trkpt><trkpt lat="43.3361433" lon="13.2454167"><ele>388.0</ele><time>2026-04-11T16:21:17.119Z</time></trkpt><trkpt lat="43.3360383" lon="13.2455383"><ele>383.75</ele><time>2026-04-11T16:21:18.119Z</time></trkpt><trkpt lat="43.3359483" lon="13.2456583"><ele>379.5</ele><time>2026-04-11T16:21:19.119Z</time></trkpt><trkpt lat="43.3358683" lon="13.2458"><ele>375.25</ele><time>2026-04-11T16:21:20.119Z</time></trkpt><trkpt lat="43.3357983" lon="13.2459283"><ele>371.0</ele><time>2026-04-11T16:21:21.119Z</time></trkpt><trkpt lat="43.3357317" lon="13.24605"><ele>371.0</ele><time>2026-04-11T16:21:22.119Z</time></trkpt><trkpt lat="43.3356783" lon="13.2461417"><ele>371.0</ele><time>2026-04-11T16:21:23.119Z</time></trkpt><trkpt lat="43.3355433" lon="13.2462517"><ele>371.0</ele><time>2026-04-11T16:21:25.119Z</time></trkpt><trkpt lat="43.33547" lon="13.2462883"><ele>371.0</ele><time>2026-04-11T16:21:26.119Z</time></trkpt><trkpt lat="43.3354017" lon="13.2463183"><ele>371.0</ele><time>2026-04-11T16:21:27.119Z</time></trkpt><trkpt lat="43.3353317" lon="13.246345"><ele>373.83333333333337</ele><time>2026-04-11T16:21:28.119Z</time></trkpt><trkpt lat="43.335255" lon="13.246365"><ele>376.6666666666667</ele><time>2026-04-11T16:21:29.119Z</time></trkpt><trkpt lat="43.335175" lon="13.246385"><ele>379.5</ele><time>2026-04-11T16:21:30.119Z</time></trkpt><trkpt lat="43.3350933" lon="13.2463917"><ele>382.33333333333337</ele><time>2026-04-11T16:21:31.119Z</time></trkpt><trkpt lat="43.33501" lon="13.24639"><ele>385.1666666666667</ele><time>2026-04-11T16:21:32.119Z</time></trkpt><trkpt lat="43.3349417" lon="13.2463817"><ele>388.0</ele><time>2026-04-11T16:21:33.119Z</time></trkpt><trkpt lat="43.3348767" lon="13.2463583"><ele>388.0</ele><time>2026-04-11T16:21:34.119Z</time></trkpt><trkpt lat="43.3347983" lon="13.24632"><ele>388.0</ele><time>2026-04-11T16:21:35.119Z</time></trkpt><trkpt lat="43.3346983" lon="13.246275"><ele>388.0</ele><time>2026-04-11T16:21:36.119Z</time></trkpt><trkpt lat="43.3345717" lon="13.2462233"><ele>388.0</ele><time>2026-04-11T16:21:37.119Z</time></trkpt><trkpt lat="43.3344367" lon="13.24618"><ele>387.5</ele><time>2026-04-11T16:21:38.119Z</time></trkpt><trkpt lat="43.3342917" lon="13.2461767"><ele>387.0</ele><time>2026-04-11T16:21:39.119Z</time></trkpt><trkpt lat="43.334155" lon="13.2461683"><ele>386.5</ele><time>2026-04-11T16:21:40.119Z</time></trkpt><trkpt lat="43.334025" lon="13.2461817"><ele>386.0</ele><time>2026-04-11T16:21:41.119Z</time></trkpt><trkpt lat="43.3339183" lon="13.2461867"><ele>385.8</ele><time>2026-04-11T16:21:42.119Z</time></trkpt><trkpt lat="43.3338333" lon="13.2462"><ele>385.6</ele><time>2026-04-11T16:21:43.12Z</time></trkpt><trkpt lat="43.3337633" lon="13.2461733"><ele>385.4</ele><time>2026-04-11T16:21:44.119Z</time></trkpt><trkpt lat="43.333625" lon="13.2460217"><ele>385.2</ele><time>2026-04-11T16:21:47.119Z</time></trkpt><trkpt lat="43.3336233" lon="13.2458667"><ele>385.0</ele><time>2026-04-11T16:21:49.119Z</time></trkpt><trkpt lat="43.33357" lon="13.245745"><ele>385.0</ele><time>2026-04-11T16:21:51.119Z</time></trkpt><trkpt lat="43.333505" lon="13.2456967"><ele>385.0</ele><time>2026-04-11T16:21:52.119Z</time></trkpt><trkpt lat="43.333425" lon="13.24564"><ele>385.0</ele><time>2026-04-11T16:21:53.119Z</time></trkpt><trkpt lat="43.33334" lon="13.2455667"><ele>385.0</ele><time>2026-04-11T16:21:54.119Z</time></trkpt><trkpt lat="43.3332633" lon="13.245495"><ele>385.0</ele><time>2026-04-11T16:21:55.119Z</time></trkpt><trkpt lat="43.3331883" lon="13.24542"><ele>388.4</ele><time>2026-04-11T16:21:56.119Z</time></trkpt><trkpt lat="43.3331033" lon="13.2453333"><ele>391.8</ele><time>2026-04-11T16:21:57.119Z</time></trkpt><trkpt lat="43.33302" lon="13.2452483"><ele>395.20000000000005</ele><time>2026-04-11T16:21:58.119Z</time></trkpt><trkpt lat="43.3329233" lon="13.245155"><ele>398.6</ele><time>2026-04-11T16:21:59.119Z</time></trkpt><trkpt lat="43.33283" lon="13.2450617"><ele>402.0</ele><time>2026-04-11T16:22:00.119Z</time></trkpt><trkpt lat="43.33274" lon="13.2449633"><ele>402.0</ele><time>2026-04-11T16:22:01.119Z</time></trkpt><trkpt lat="43.3326617" lon="13.244905"><ele>402.0</ele><time>2026-04-11T16:22:02.119Z</time></trkpt><trkpt lat="43.3325667" lon="13.2448783"><ele>402.0</ele><time>2026-04-11T16:22:03.119Z</time></trkpt><trkpt lat="43.3324567" lon="13.244875"><ele>402.0</ele><time>2026-04-11T16:22:04.119Z</time></trkpt><trkpt lat="43.3323317" lon="13.2448883"><ele>402.0</ele><time>2026-04-11T16:22:05.119Z</time></trkpt><trkpt lat="43.3320567" lon="13.2449433"><ele>402.6</ele><time>2026-04-11T16:22:07.119Z</time></trkpt><trkpt lat="43.3319367" lon="13.2449733"><ele>403.20000000000005</ele><time>2026-04-11T16:22:08.119Z</time></trkpt><trkpt lat="43.331845" lon="13.245"><ele>403.8</ele><time>2026-04-11T16:22:09.119Z</time></trkpt><trkpt lat="43.331775" lon="13.2450267"><ele>404.4</ele><time>2026-04-11T16:22:10.119Z</time></trkpt><trkpt lat="43.3316983" lon="13.2451467"><ele>405.0</ele><time>2026-04-11T16:22:12.119Z</time></trkpt><trkpt lat="43.3316867" lon="13.2452383"><ele>405.0</ele><time>2026-04-11T16:22:13.119Z</time></trkpt><trkpt lat="43.3316867" lon="13.2453433"><ele>405.0</ele><time>2026-04-11T16:22:14.119Z</time></trkpt><trkpt lat="43.3317033" lon="13.24547"><ele>405.0</ele><time>2026-04-11T16:22:15.119Z</time></trkpt><trkpt lat="43.33171" lon="13.24562"><ele>405.0</ele><time>2026-04-11T16:22:16.119Z</time></trkpt><trkpt lat="43.3317117" lon="13.2457467"><ele>405.0</ele><time>2026-04-11T16:22:17.119Z</time></trkpt><trkpt lat="43.331705" lon="13.2458717"><ele>403.8333333333333</ele><time>2026-04-11T16:22:18.119Z</time></trkpt><trkpt lat="43.3316933" lon="13.24598"><ele>402.66666666666663</ele><time>2026-04-11T16:22:19.119Z</time></trkpt><trkpt lat="43.3316633" lon="13.2460583"><ele>401.5</ele><time>2026-04-11T16:22:20.119Z</time></trkpt><trkpt lat="43.3315867" lon="13.24614"><ele>400.3333333333333</ele><time>2026-04-11T16:22:22.12Z</time></trkpt><trkpt lat="43.3315217" lon="13.246145"><ele>399.16666666666663</ele><time>2026-04-11T16:22:23.119Z</time></trkpt><trkpt lat="43.3314333" lon="13.246145"><ele>398.0</ele><time>2026-04-11T16:22:24.119Z</time></trkpt><trkpt lat="43.331345" lon="13.2461483"><ele>398.0</ele><time>2026-04-11T16:22:25.119Z</time></trkpt><trkpt lat="43.33127" lon="13.2461833"><ele>398.0</ele><time>2026-04-11T16:22:26.119Z</time></trkpt><trkpt lat="43.33117" lon="13.2463317"><ele>398.0</ele><time>2026-04-11T16:22:28.119Z</time></trkpt><trkpt lat="43.33112" lon="13.24647"><ele>398.0</ele><time>2026-04-11T16:22:29.119Z</time></trkpt><trkpt lat="43.33106" lon="13.2466417"><ele>396.79999999999995</ele><time>2026-04-11T16:22:30.119Z</time></trkpt><trkpt lat="43.3310167" lon="13.246815"><ele>395.6</ele><time>2026-04-11T16:22:31.119Z</time></trkpt><trkpt lat="43.3309867" lon="13.2469517"><ele>394.4</ele><time>2026-04-11T16:22:32.119Z</time></trkpt><trkpt lat="43.33097" lon="13.247045"><ele>393.20000000000005</ele><time>2026-04-11T16:22:33.119Z</time></trkpt><trkpt lat="43.331005" lon="13.2471817"><ele>392.0</ele><time>2026-04-11T16:22:35.119Z</time></trkpt><trkpt lat="43.331125" lon="13.2472433"><ele>392.0</ele><time>2026-04-11T16:22:37.119Z</time></trkpt><trkpt lat="43.3312233" lon="13.2472467"><ele>392.0</ele><time>2026-04-11T16:22:38.119Z</time></trkpt><trkpt lat="43.3313433" lon="13.2472467"><ele>392.0</ele><time>2026-04-11T16:22:39.119Z</time></trkpt><trkpt lat="43.3314717" lon="13.2472267"><ele>392.0</ele><time>2026-04-11T16:22:40.119Z</time></trkpt><trkpt lat="43.3315917" lon="13.2472117"><ele>390.40000000000003</ele><time>2026-04-11T16:22:41.119Z</time></trkpt><trkpt lat="43.33171" lon="13.2472233"><ele>388.8</ele><time>2026-04-11T16:22:42.119Z</time></trkpt><trkpt lat="43.3318133" lon="13.2472483"><ele>387.2</ele><time>2026-04-11T16:22:43.119Z</time></trkpt><trkpt lat="43.3319033" lon="13.2472867"><ele>385.6</ele><time>2026-04-11T16:22:44.119Z</time></trkpt><trkpt lat="43.331995" lon="13.2473467"><ele>384.0</ele><time>2026-04-11T16:22:45.119Z</time></trkpt><trkpt lat="43.33208" lon="13.2474183"><ele>383.25</ele><time>2026-04-11T16:22:46.119Z</time></trkpt><trkpt lat="43.332165" lon="13.2474783"><ele>382.5</ele><time>2026-04-11T16:22:47.119Z</time></trkpt><trkpt lat="43.3323617" lon="13.2475567"><ele>381.75</ele><time>2026-04-11T16:22:49.119Z</time></trkpt><trkpt lat="43.3324633" lon="13.2475817"><ele>381.0</ele><time>2026-04-11T16:22:50.119Z</time></trkpt><trkpt lat="43.3325533" lon="13.2476017"><ele>379.4</ele><time>2026-04-11T16:22:51.119Z</time></trkpt><trkpt lat="43.3326283" lon="13.2475983"><ele>377.8</ele><time>2026-04-11T16:22:52.119Z</time></trkpt><trkpt lat="43.3326933" lon="13.2475867"><ele>376.2</ele><time>2026-04-11T16:22:53.12Z</time></trkpt><trkpt lat="43.3328167" lon="13.24766"><ele>374.59999999999997</ele><time>2026-04-11T16:22:55.119Z</time></trkpt><trkpt lat="43.332895" lon="13.2477267"><ele>373.0</ele><time>2026-04-11T16:22:56.119Z</time></trkpt><trkpt lat="43.3329783" lon="13.2477867"><ele>371.5</ele><time>2026-04-11T16:22:57.119Z</time></trkpt><trkpt lat="43.3330783" lon="13.2478317"><ele>370.0</ele><time>2026-04-11T16:22:58.119Z</time></trkpt><trkpt lat="43.3331783" lon="13.247865"><ele>368.5</ele><time>2026-04-11T16:22:59.119Z</time></trkpt><trkpt lat="43.3332583" lon="13.2478867"><ele>367.0</ele><time>2026-04-11T16:23:00.119Z</time></trkpt><trkpt lat="43.3333217" lon="13.247915"><ele>365.5</ele><time>2026-04-11T16:23:01.119Z</time></trkpt><trkpt lat="43.3333667" lon="13.248015"><ele>364.0</ele><time>2026-04-11T16:23:03.119Z</time></trkpt><trkpt lat="43.3333517" lon="13.2481267"><ele>364.0</ele><time>2026-04-11T16:23:05.119Z</time></trkpt><trkpt lat="43.3332367" lon="13.24822"><ele>364.0</ele><time>2026-04-11T16:23:07.119Z</time></trkpt><trkpt lat="43.3331433" lon="13.2482667"><ele>364.0</ele><time>2026-04-11T16:23:08.119Z</time></trkpt><trkpt lat="43.3330067" lon="13.24837"><ele>364.0</ele><time>2026-04-11T16:23:10.119Z</time></trkpt><trkpt lat="43.3329683" lon="13.2484833"><ele>364.0</ele><time>2026-04-11T16:23:12.119Z</time></trkpt><trkpt lat="43.3330517" lon="13.2485767"><ele>364.0</ele><time>2026-04-11T16:23:14.119Z</time></trkpt><trkpt lat="43.3331433" lon="13.248615"><ele>364.0</ele><time>2026-04-11T16:23:15.119Z</time></trkpt><trkpt lat="43.33326" lon="13.2486517"><ele>364.0</ele><time>2026-04-11T16:23:16.119Z</time></trkpt><trkpt lat="43.3333883" lon="13.248695"><ele>364.0</ele><time>2026-04-11T16:23:17.119Z</time></trkpt><trkpt lat="43.3335167" lon="13.2487533"><ele>364.0</ele><time>2026-04-11T16:23:18.119Z</time></trkpt><trkpt lat="43.3336183" lon="13.2488233"><ele>364.0</ele><time>2026-04-11T16:23:19.119Z</time></trkpt><trkpt lat="43.3337083" lon="13.2489267"><ele>364.0</ele><time>2026-04-11T16:23:20.119Z</time></trkpt><trkpt lat="43.3337983" lon="13.2490617"><ele>363.5</ele><time>2026-04-11T16:23:21.119Z</time></trkpt><trkpt lat="43.3338917" lon="13.2492067"><ele>363.0</ele><time>2026-04-11T16:23:22.119Z</time></trkpt><trkpt lat="43.3340033" lon="13.249365"><ele>362.5</ele><time>2026-04-11T16:23:23.119Z</time></trkpt><trkpt lat="43.3341083" lon="13.2495017"><ele>362.0</ele><time>2026-04-11T16:23:24.119Z</time></trkpt><trkpt lat="43.334205" lon="13.24961"><ele>362.0</ele><time>2026-04-11T16:23:25.119Z</time></trkpt><trkpt lat="43.3343033" lon="13.2497017"><ele>362.0</ele><time>2026-04-11T16:23:26.12Z</time></trkpt><trkpt lat="43.3344183" lon="13.249765"><ele>362.0</ele><time>2026-04-11T16:23:27.119Z</time></trkpt><trkpt lat="43.3345333" lon="13.2498233"><ele>362.0</ele><time>2026-04-11T16:23:28.119Z</time></trkpt><trkpt lat="43.3346467" lon="13.2498683"><ele>363.0</ele><time>2026-04-11T16:23:29.119Z</time></trkpt><trkpt lat="43.33484" lon="13.2499733"><ele>364.0</ele><time>2026-04-11T16:23:31.119Z</time></trkpt><trkpt lat="43.334925" lon="13.2500567"><ele>365.0</ele><time>2026-04-11T16:23:32.119Z</time></trkpt><trkpt lat="43.3349983" lon="13.2501517"><ele>366.0</ele><time>2026-04-11T16:23:33.119Z</time></trkpt><trkpt lat="43.3350717" lon="13.2502583"><ele>366.0</ele><time>2026-04-11T16:23:34.119Z</time></trkpt><trkpt lat="43.3351417" lon="13.2503633"><ele>366.0</ele><time>2026-04-11T16:23:35.119Z</time></trkpt><trkpt lat="43.3351933" lon="13.25046"><ele>366.0</ele><time>2026-04-11T16:23:36.119Z</time></trkpt><trkpt lat="43.3352283" lon="13.2505467"><ele>366.0</ele><time>2026-04-11T16:23:37.119Z</time></trkpt><trkpt lat="43.3352483" lon="13.250655"><ele>366.0</ele><time>2026-04-11T16:23:38.119Z</time></trkpt><trkpt lat="43.3352583" lon="13.2507967"><ele>366.0</ele><time>2026-04-11T16:23:39.119Z</time></trkpt><trkpt lat="43.3352533" lon="13.250965"><ele>365.8</ele><time>2026-04-11T16:23:40.119Z</time></trkpt><trkpt lat="43.3352483" lon="13.25112"><ele>365.6</ele><time>2026-04-11T16:23:41.119Z</time></trkpt><trkpt lat="43.3352517" lon="13.25125"><ele>365.4</ele><time>2026-04-11T16:23:42.119Z</time></trkpt><trkpt lat="43.3352833" lon="13.2513783"><ele>365.2</ele><time>2026-04-11T16:23:43.119Z</time></trkpt><trkpt lat="43.3353483" lon="13.251505"><ele>365.0</ele><time>2026-04-11T16:23:44.119Z</time></trkpt><trkpt lat="43.3354467" lon="13.25164"><ele>363.33333333333337</ele><time>2026-04-11T16:23:45.119Z</time></trkpt><trkpt lat="43.3355533" lon="13.251785"><ele>361.6666666666667</ele><time>2026-04-11T16:23:46.119Z</time></trkpt><trkpt lat="43.3356517" lon="13.251945"><ele>360.0</ele><time>2026-04-11T16:23:47.119Z</time></trkpt><trkpt lat="43.3357367" lon="13.252125"><ele>357.3333333333333</ele><time>2026-04-11T16:23:48.119Z</time></trkpt><trkpt lat="43.33582" lon="13.2523067"><ele>354.66666666666663</ele><time>2026-04-11T16:23:49.119Z</time></trkpt><trkpt lat="43.335885" lon="13.25248"><ele>352.0</ele><time>2026-04-11T16:23:50.119Z</time></trkpt><trkpt lat="43.33602" lon="13.2528083"><ele>352.0</ele><time>2026-04-11T16:23:52.119Z</time></trkpt><trkpt lat="43.3360817" lon="13.2529867"><ele>352.0</ele><time>2026-04-11T16:23:53.119Z</time></trkpt><trkpt lat="43.336115" lon="13.2531783"><ele>352.0</ele><time>2026-04-11T16:23:54.119Z</time></trkpt><trkpt lat="43.3361617" lon="13.2533767"><ele>352.0</ele><time>2026-04-11T16:23:55.119Z</time></trkpt><trkpt lat="43.3362267" lon="13.2535617"><ele>351.5</ele><time>2026-04-11T16:23:56.119Z</time></trkpt><trkpt lat="43.3362983" lon="13.2537483"><ele>351.0</ele><time>2026-04-11T16:23:57.12Z</time></trkpt><trkpt lat="43.3363617" lon="13.2539233"><ele>350.5</ele><time>2026-04-11T16:23:58.119Z</time></trkpt><trkpt lat="43.3364267" lon="13.2540767"><ele>350.0</ele><time>2026-04-11T16:23:59.119Z</time></trkpt><trkpt lat="43.3364817" lon="13.25421"><ele>347.75</ele><time>2026-04-11T16:24:00.119Z</time></trkpt><trkpt lat="43.3365233" lon="13.2543317"><ele>345.5</ele><time>2026-04-11T16:24:01.119Z</time></trkpt><trkpt lat="43.3365517" lon="13.2544933"><ele>343.25</ele><time>2026-04-11T16:24:02.119Z</time></trkpt><trkpt lat="43.336585" lon="13.254675"><ele>341.0</ele><time>2026-04-11T16:24:03.119Z</time></trkpt><trkpt lat="43.336625" lon="13.254885"><ele>340.75</ele><time>2026-04-11T16:24:04.119Z</time></trkpt><trkpt lat="43.3366667" lon="13.2551117"><ele>340.5</ele><time>2026-04-11T16:24:05.119Z</time></trkpt><trkpt lat="43.3367017" lon="13.2553167"><ele>340.25</ele><time>2026-04-11T16:24:06.119Z</time></trkpt><trkpt lat="43.3367333" lon="13.2554733"><ele>340.0</ele><time>2026-04-11T16:24:07.119Z</time></trkpt><trkpt lat="43.33676" lon="13.255615"><ele>339.66666666666663</ele><time>2026-04-11T16:24:08.119Z</time></trkpt><trkpt lat="43.33678" lon="13.2557333"><ele>339.3333333333333</ele><time>2026-04-11T16:24:09.119Z</time></trkpt><trkpt lat="43.336785" lon="13.25584"><ele>339.0</ele><time>2026-04-11T16:24:10.119Z</time></trkpt><trkpt lat="43.3367733" lon="13.25593"><ele>338.6666666666667</ele><time>2026-04-11T16:24:11.119Z</time></trkpt><trkpt lat="43.3367967" lon="13.2561033"><ele>338.33333333333337</ele><time>2026-04-11T16:24:13.12Z</time></trkpt><trkpt lat="43.3368383" lon="13.2561817"><ele>338.0</ele><time>2026-04-11T16:24:14.119Z</time></trkpt><trkpt lat="43.3368917" lon="13.2562833"><ele>338.0</ele><time>2026-04-11T16:24:15.119Z</time></trkpt><trkpt lat="43.336965" lon="13.2564083"><ele>338.0</ele><time>2026-04-11T16:24:16.119Z</time></trkpt><trkpt lat="43.3370417" lon="13.25656"><ele>338.0</ele><time>2026-04-11T16:24:17.119Z</time></trkpt><trkpt lat="43.3371233" lon="13.2567283"><ele>338.0</ele><time>2026-04-11T16:24:18.119Z</time></trkpt><trkpt lat="43.33721" lon="13.2568883"><ele>337.0</ele><time>2026-04-11T16:24:19.119Z</time></trkpt><trkpt lat="43.3373" lon="13.2570467"><ele>336.0</ele><time>2026-04-11T16:24:20.119Z</time></trkpt><trkpt lat="43.3373817" lon="13.2571967"><ele>335.0</ele><time>2026-04-11T16:24:21.119Z</time></trkpt><trkpt lat="43.3374517" lon="13.2573617"><ele>334.0</ele><time>2026-04-11T16:24:22.119Z</time></trkpt><trkpt lat="43.3375033" lon="13.2575383"><ele>334.0</ele><time>2026-04-11T16:24:23.119Z</time></trkpt><trkpt lat="43.3375667" lon="13.257715"><ele>334.0</ele><time>2026-04-11T16:24:24.119Z</time></trkpt><trkpt lat="43.33763" lon="13.2578917"><ele>334.0</ele><time>2026-04-11T16:24:25.119Z</time></trkpt><trkpt lat="43.3376833" lon="13.25806"><ele>334.0</ele><time>2026-04-11T16:24:26.119Z</time></trkpt><trkpt lat="43.3377417" lon="13.2582283"><ele>334.5</ele><time>2026-04-11T16:24:27.119Z</time></trkpt><trkpt lat="43.3377967" lon="13.2583983"><ele>335.0</ele><time>2026-04-11T16:24:28.119Z</time></trkpt><trkpt lat="43.3378617" lon="13.2585583"><ele>335.5</ele><time>2026-04-11T16:24:29.119Z</time></trkpt><trkpt lat="43.3379217" lon="13.2587317"><ele>336.0</ele><time>2026-04-11T16:24:30.119Z</time></trkpt><trkpt lat="43.33798" lon="13.258905"><ele>335.6666666666667</ele><time>2026-04-11T16:24:31.119Z</time></trkpt><trkpt lat="43.3380283" lon="13.2590683"><ele>335.33333333333337</ele><time>2026-04-11T16:24:32.119Z</time></trkpt><trkpt lat="43.3381283" lon="13.2593733"><ele>335.0</ele><time>2026-04-11T16:24:34.119Z</time></trkpt><trkpt lat="43.3381783" lon="13.259525"><ele>333.4</ele><time>2026-04-11T16:24:35.119Z</time></trkpt><trkpt lat="43.3382317" lon="13.2596583"><ele>331.8</ele><time>2026-04-11T16:24:36.119Z</time></trkpt><trkpt lat="43.338285" lon="13.25978"><ele>330.20000000000005</ele><time>2026-04-11T16:24:37.119Z</time></trkpt><trkpt lat="43.3383417" lon="13.25989"><ele>328.6</ele><time>2026-04-11T16:24:38.119Z</time></trkpt><trkpt lat="43.3384183" lon="13.2599967"><ele>327.0</ele><time>2026-04-11T16:24:39.119Z</time></trkpt><trkpt lat="43.3385033" lon="13.2601033"><ele>327.0</ele><time>2026-04-11T16:24:40.119Z</time></trkpt><trkpt lat="43.3385783" lon="13.2602183"><ele>327.0</ele><time>2026-04-11T16:24:41.119Z</time></trkpt><trkpt lat="43.338645" lon="13.26033"><ele>327.0</ele><time>2026-04-11T16:24:42.119Z</time></trkpt><trkpt lat="43.3387033" lon="13.2604233"><ele>327.0</ele><time>2026-04-11T16:24:43.119Z</time></trkpt><trkpt lat="43.3387617" lon="13.2605017"><ele>327.0</ele><time>2026-04-11T16:24:44.119Z</time></trkpt><trkpt lat="43.3388167" lon="13.260585"><ele>326.40000000000003</ele><time>2026-04-11T16:24:45.12Z</time></trkpt><trkpt lat="43.3388633" lon="13.2606683"><ele>325.8</ele><time>2026-04-11T16:24:46.119Z</time></trkpt><trkpt lat="43.3389017" lon="13.26078"><ele>325.2</ele><time>2026-04-11T16:24:47.119Z</time></trkpt><trkpt lat="43.33892" lon="13.2609033"><ele>324.6</ele><time>2026-04-11T16:24:48.119Z</time></trkpt><trkpt lat="43.3389233" lon="13.2610717"><ele>324.0</ele><time>2026-04-11T16:24:49.119Z</time></trkpt><trkpt lat="43.3389283" lon="13.261275"><ele>320.25</ele><time>2026-04-11T16:24:50.119Z</time></trkpt><trkpt lat="43.33893" lon="13.2614667"><ele>316.5</ele><time>2026-04-11T16:24:51.119Z</time></trkpt><trkpt lat="43.3389467" lon="13.2616183"><ele>312.75</ele><time>2026-04-11T16:24:52.119Z</time></trkpt><trkpt lat="43.3389817" lon="13.2617433"><ele>309.0</ele><time>2026-04-11T16:24:53.119Z</time></trkpt><trkpt lat="43.3390733" lon="13.26194"><ele>309.0</ele><time>2026-04-11T16:24:55.119Z</time></trkpt><trkpt lat="43.3391267" lon="13.2620283"><ele>309.0</ele><time>2026-04-11T16:24:57.119Z</time></trkpt><trkpt lat="43.339195" lon="13.262105"><ele>309.0</ele><time>2026-04-11T16:24:59.119Z</time></trkpt><trkpt lat="43.3392867" lon="13.2622333"><ele>309.0</ele><time>2026-04-11T16:25:01.119Z</time></trkpt><trkpt lat="43.33933" lon="13.2623217"><ele>309.0</ele><time>2026-04-11T16:25:02.119Z</time></trkpt><trkpt lat="43.33937" lon="13.2624317"><ele>308.75</ele><time>2026-04-11T16:25:03.119Z</time></trkpt><trkpt lat="43.3394217" lon="13.2625667"><ele>308.5</ele><time>2026-04-11T16:25:04.119Z</time></trkpt><trkpt lat="43.3394833" lon="13.2627033"><ele>308.25</ele><time>2026-04-11T16:25:05.119Z</time></trkpt><trkpt lat="43.3395567" lon="13.262835"><ele>308.0</ele><time>2026-04-11T16:25:06.119Z</time></trkpt><trkpt lat="43.3396467" lon="13.2629583"><ele>306.0</ele><time>2026-04-11T16:25:07.119Z</time></trkpt><trkpt lat="43.3397367" lon="13.263065"><ele>304.0</ele><time>2026-04-11T16:25:08.119Z</time></trkpt><trkpt lat="43.3398183" lon="13.2631467"><ele>302.0</ele><time>2026-04-11T16:25:09.12Z</time></trkpt><trkpt lat="43.3398883" lon="13.2632183"><ele>300.0</ele><time>2026-04-11T16:25:10.119Z</time></trkpt><trkpt lat="43.3399483" lon="13.2632617"><ele>298.0</ele><time>2026-04-11T16:25:11.119Z</time></trkpt><trkpt lat="43.3400467" lon="13.2632633"><ele>298.0</ele><time>2026-04-11T16:25:13.119Z</time></trkpt><trkpt lat="43.3401267" lon="13.2631417"><ele>298.0</ele><time>2026-04-11T16:25:15.119Z</time></trkpt><trkpt lat="43.340195" lon="13.2628967"><ele>298.0</ele><time>2026-04-11T16:25:17.119Z</time></trkpt><trkpt lat="43.3402217" lon="13.2627933"><ele>298.0</ele><time>2026-04-11T16:25:18.119Z</time></trkpt><trkpt lat="43.3402867" lon="13.2626817"><ele>298.0</ele><time>2026-04-11T16:25:20.119Z</time></trkpt><trkpt lat="43.3403567" lon="13.262735"><ele>298.0</ele><time>2026-04-11T16:25:22.119Z</time></trkpt><trkpt lat="43.3403717" lon="13.2629083"><ele>298.0</ele><time>2026-04-11T16:25:24.119Z</time></trkpt><trkpt lat="43.3403583" lon="13.2630417"><ele>298.0</ele><time>2026-04-11T16:25:25.119Z</time></trkpt><trkpt lat="43.3403567" lon="13.2631467"><ele>298.0</ele><time>2026-04-11T16:25:26.119Z</time></trkpt><trkpt lat="43.34039" lon="13.263265"><ele>298.0</ele><time>2026-04-11T16:25:28.119Z</time></trkpt><trkpt lat="43.3404667" lon="13.2632317"><ele>298.0</ele><time>2026-04-11T16:25:30.119Z</time></trkpt><trkpt lat="43.340525" lon="13.2631733"><ele>298.0</ele><time>2026-04-11T16:25:31.119Z</time></trkpt><trkpt lat="43.3405833" lon="13.26309"><ele>298.0</ele><time>2026-04-11T16:25:32.119Z</time></trkpt><trkpt lat="43.34066" lon="13.26304"><ele>298.0</ele><time>2026-04-11T16:25:34.119Z</time></trkpt><trkpt lat="43.3406517" lon="13.2631967"><ele>298.0</ele><time>2026-04-11T16:25:37.119Z</time></trkpt><trkpt lat="43.3404933" lon="13.2634817"><ele>298.0</ele><time>2026-04-11T16:25:39.119Z</time></trkpt><trkpt lat="43.3404217" lon="13.2636183"><ele>298.0</ele><time>2026-04-11T16:25:40.119Z</time></trkpt><trkpt lat="43.34037" lon="13.2637483"><ele>298.0</ele><time>2026-04-11T16:25:41.12Z</time></trkpt><trkpt lat="43.340335" lon="13.2638617"><ele>298.0</ele><time>2026-04-11T16:25:42.119Z</time></trkpt><trkpt lat="43.3403217" lon="13.263955"><ele>298.0</ele><time>2026-04-11T16:25:43.119Z</time></trkpt><trkpt lat="43.3403717" lon="13.2640983"><ele>297.2</ele><time>2026-04-11T16:25:45.119Z</time></trkpt><trkpt lat="43.340455" lon="13.2641533"><ele>296.4</ele><time>2026-04-11T16:25:46.12Z</time></trkpt><trkpt lat="43.34057" lon="13.2641917"><ele>295.59999999999997</ele><time>2026-04-11T16:25:47.119Z</time></trkpt><trkpt lat="43.3406733" lon="13.26425"><ele>294.8</ele><time>2026-04-11T16:25:48.119Z</time></trkpt><trkpt lat="43.3407583" lon="13.264355"><ele>294.0</ele><time>2026-04-11T16:25:49.119Z</time></trkpt><trkpt lat="43.3408167" lon="13.2644817"><ele>292.25</ele><time>2026-04-11T16:25:50.119Z</time></trkpt><trkpt lat="43.34084" lon="13.2646383"><ele>290.5</ele><time>2026-04-11T16:25:51.119Z</time></trkpt><trkpt lat="43.3408367" lon="13.2648283"><ele>288.75</ele><time>2026-04-11T16:25:52.119Z</time></trkpt><trkpt lat="43.3408433" lon="13.265035"><ele>287.0</ele><time>2026-04-11T16:25:53.119Z</time></trkpt><trkpt lat="43.340865" lon="13.265255"><ele>287.0</ele><time>2026-04-11T16:25:54.119Z</time></trkpt><trkpt lat="43.3408917" lon="13.26548"><ele>287.0</ele><time>2026-04-11T16:25:55.119Z</time></trkpt><trkpt lat="43.34091" lon="13.2656633"><ele>287.0</ele><time>2026-04-11T16:25:56.119Z</time></trkpt><trkpt lat="43.3409367" lon="13.2658233"><ele>287.0</ele><time>2026-04-11T16:25:57.12Z</time></trkpt><trkpt lat="43.3409917" lon="13.2659667"><ele>287.33333333333337</ele><time>2026-04-11T16:25:58.119Z</time></trkpt><trkpt lat="43.341155" lon="13.2662267"><ele>287.6666666666667</ele><time>2026-04-11T16:26:00.12Z</time></trkpt><trkpt lat="43.3412333" lon="13.2663317"><ele>288.0</ele><time>2026-04-11T16:26:01.119Z</time></trkpt><trkpt lat="43.341285" lon="13.2664667"><ele>288.0</ele><time>2026-04-11T16:26:02.119Z</time></trkpt><trkpt lat="43.341325" lon="13.2666183"><ele>288.0</ele><time>2026-04-11T16:26:03.119Z</time></trkpt><trkpt lat="43.3413583" lon="13.266805"><ele>288.0</ele><time>2026-04-11T16:26:04.119Z</time></trkpt><trkpt lat="43.34139" lon="13.2670217"><ele>288.0</ele><time>2026-04-11T16:26:05.119Z</time></trkpt><trkpt lat="43.3414233" lon="13.2672617"><ele>289.0</ele><time>2026-04-11T16:26:06.119Z</time></trkpt><trkpt lat="43.3414517" lon="13.26752"><ele>290.0</ele><time>2026-04-11T16:26:07.119Z</time></trkpt><trkpt lat="43.34146" lon="13.2678067"><ele>291.0</ele><time>2026-04-11T16:26:08.119Z</time></trkpt><trkpt lat="43.341455" lon="13.2681133"><ele>291.0</ele><time>2026-04-11T16:26:09.119Z</time></trkpt><trkpt lat="43.3414617" lon="13.2684283"><ele>291.0</ele><time>2026-04-11T16:26:10.119Z</time></trkpt><trkpt lat="43.3414667" lon="13.2687433"><ele>291.5</ele><time>2026-04-11T16:26:11.119Z</time></trkpt><trkpt lat="43.3414867" lon="13.2690667"><ele>292.0</ele><time>2026-04-11T16:26:12.119Z</time></trkpt><trkpt lat="43.34151" lon="13.269395"><ele>292.0</ele><time>2026-04-11T16:26:13.119Z</time></trkpt><trkpt lat="43.34152" lon="13.2697283"><ele>292.0</ele><time>2026-04-11T16:26:14.119Z</time></trkpt><trkpt lat="43.341545" lon="13.2700283"><ele>290.66666666666663</ele><time>2026-04-11T16:26:15.119Z</time></trkpt><trkpt lat="43.3415617" lon="13.2703"><ele>289.3333333333333</ele><time>2026-04-11T16:26:16.119Z</time></trkpt><trkpt lat="43.3415833" lon="13.2705483"><ele>288.0</ele><time>2026-04-11T16:26:17.119Z</time></trkpt><trkpt lat="43.3416267" lon="13.2708067"><ele>287.5</ele><time>2026-04-11T16:26:18.119Z</time></trkpt><trkpt lat="43.3417017" lon="13.2710467"><ele>287.0</ele><time>2026-04-11T16:26:19.119Z</time></trkpt><trkpt lat="43.3419167" lon="13.2714967"><ele>286.6666666666667</ele><time>2026-04-11T16:26:21.119Z</time></trkpt><trkpt lat="43.3420617" lon="13.271725"><ele>286.3333333333333</ele><time>2026-04-11T16:26:22.119Z</time></trkpt><trkpt lat="43.3422167" lon="13.271955"><ele>286.0</ele><time>2026-04-11T16:26:23.119Z</time></trkpt><trkpt lat="43.3423833" lon="13.2721883"><ele>288.0</ele><time>2026-04-11T16:26:24.119Z</time></trkpt><trkpt lat="43.34254" lon="13.2724317"><ele>290.0</ele><time>2026-04-11T16:26:25.119Z</time></trkpt><trkpt lat="43.342695" lon="13.2726733"><ele>290.0</ele><time>2026-04-11T16:26:26.119Z</time></trkpt><trkpt lat="43.3428417" lon="13.2728983"><ele>290.0</ele><time>2026-04-11T16:26:27.119Z</time></trkpt><trkpt lat="43.3429567" lon="13.2731117"><ele>290.0</ele><time>2026-04-11T16:26:28.119Z</time></trkpt><trkpt lat="43.3430467" lon="13.2733217"><ele>294.6666666666667</ele><time>2026-04-11T16:26:29.119Z</time></trkpt><trkpt lat="43.3431183" lon="13.2735467"><ele>299.3333333333333</ele><time>2026-04-11T16:26:30.119Z</time></trkpt><trkpt lat="43.3431733" lon="13.2737667"><ele>304.0</ele><time>2026-04-11T16:26:31.119Z</time></trkpt><trkpt lat="43.3432017" lon="13.273995"><ele>304.0</ele><time>2026-04-11T16:26:32.119Z</time></trkpt><trkpt lat="43.3432533" lon="13.2741983"><ele>304.0</ele><time>2026-04-11T16:26:33.119Z</time></trkpt><trkpt lat="43.34332" lon="13.2743883"><ele>304.0</ele><time>2026-04-11T16:26:34.119Z</time></trkpt><trkpt lat="43.3433883" lon="13.274575"><ele>304.0</ele><time>2026-04-11T16:26:35.119Z</time></trkpt><trkpt lat="43.34346" lon="13.2747233"><ele>304.0</ele><time>2026-04-11T16:26:36.119Z</time></trkpt><trkpt lat="43.3435183" lon="13.2748517"><ele>304.0</ele><time>2026-04-11T16:26:37.119Z</time></trkpt><trkpt lat="43.3435767" lon="13.2749383"><ele>304.0</ele><time>2026-04-11T16:26:38.119Z</time></trkpt><trkpt lat="43.343635" lon="13.2749917"><ele>304.0</ele><time>2026-04-11T16:26:39.119Z</time></trkpt><trkpt lat="43.3437117" lon="13.2750217"><ele>303.8</ele><time>2026-04-11T16:26:41.119Z</time></trkpt><trkpt lat="43.3437583" lon="13.2751967"><ele>303.59999999999997</ele><time>2026-04-11T16:26:45.119Z</time></trkpt><trkpt lat="43.3438333" lon="13.2752517"><ele>303.4</ele><time>2026-04-11T16:26:56.119Z</time></trkpt><trkpt lat="43.3439583" lon="13.2753217"><ele>303.2</ele><time>2026-04-11T16:26:58.119Z</time></trkpt><trkpt lat="43.3440433" lon="13.275375"><ele>303.0</ele><time>2026-04-11T16:26:59.119Z</time></trkpt><trkpt lat="43.344145" lon="13.2754383"><ele>304.6666666666667</ele><time>2026-04-11T16:27:00.119Z</time></trkpt><trkpt lat="43.344235" lon="13.2755167"><ele>306.33333333333337</ele><time>2026-04-11T16:27:01.119Z</time></trkpt><trkpt lat="43.3442967" lon="13.27563"><ele>308.0</ele><time>2026-04-11T16:27:02.119Z</time></trkpt><trkpt lat="43.3443617" lon="13.27598"><ele>308.0</ele><time>2026-04-11T16:27:04.119Z</time></trkpt><trkpt lat="43.3443767" lon="13.276205"><ele>308.0</ele><time>2026-04-11T16:27:05.119Z</time></trkpt><trkpt lat="43.3444017" lon="13.2764583"><ele>308.0</ele><time>2026-04-11T16:27:06.119Z</time></trkpt><trkpt lat="43.34443" lon="13.2766933"><ele>308.0</ele><time>2026-04-11T16:27:07.119Z</time></trkpt><trkpt lat="43.3444633" lon="13.276875"><ele>308.0</ele><time>2026-04-11T16:27:08.119Z</time></trkpt><trkpt lat="43.34449" lon="13.2769967"><ele>308.0</ele><time>2026-04-11T16:27:09.119Z</time></trkpt><trkpt lat="43.3445267" lon="13.2770817"><ele>308.0</ele><time>2026-04-11T16:27:10.119Z</time></trkpt><trkpt lat="43.3446183" lon="13.27716"><ele>308.0</ele><time>2026-04-11T16:27:12.119Z</time></trkpt><trkpt lat="43.344695" lon="13.277165"><ele>307.6666666666667</ele><time>2026-04-11T16:27:13.119Z</time></trkpt><trkpt lat="43.344775" lon="13.2771383"><ele>307.33333333333337</ele><time>2026-04-11T16:27:14.119Z</time></trkpt><trkpt lat="43.3448467" lon="13.2771217"><ele>307.0</ele><time>2026-04-11T16:27:15.119Z</time></trkpt><trkpt lat="43.3449233" lon="13.2772083"><ele>306.6666666666667</ele><time>2026-04-11T16:27:17.119Z</time></trkpt><trkpt lat="43.344945" lon="13.27731"><ele>306.3333333333333</ele><time>2026-04-11T16:27:18.119Z</time></trkpt><trkpt lat="43.34496" lon="13.27745"><ele>306.0</ele><time>2026-04-11T16:27:19.119Z</time></trkpt><trkpt lat="43.3449867" lon="13.2776367"><ele>306.0</ele><time>2026-04-11T16:27:20.119Z</time></trkpt><trkpt lat="43.3450233" lon="13.2778367"><ele>306.0</ele><time>2026-04-11T16:27:21.119Z</time></trkpt><trkpt lat="43.345065" lon="13.2780567"><ele>306.0</ele><time>2026-04-11T16:27:22.119Z</time></trkpt><trkpt lat="43.34511" lon="13.2782867"><ele>305.0</ele><time>2026-04-11T16:27:23.119Z</time></trkpt><trkpt lat="43.34522" lon="13.278775"><ele>304.0</ele><time>2026-04-11T16:27:25.119Z</time></trkpt><trkpt lat="43.3452683" lon="13.2790367"><ele>303.0</ele><time>2026-04-11T16:27:26.119Z</time></trkpt><trkpt lat="43.3453133" lon="13.2792883"><ele>302.0</ele><time>2026-04-11T16:27:27.119Z</time></trkpt><trkpt lat="43.3453567" lon="13.2795383"><ele>301.0</ele><time>2026-04-11T16:27:28.119Z</time></trkpt><trkpt lat="43.3454067" lon="13.2797633"><ele>300.5</ele><time>2026-04-11T16:27:29.119Z</time></trkpt><trkpt lat="43.3454633" lon="13.2799783"><ele>300.0</ele><time>2026-04-11T16:27:30.119Z</time></trkpt><trkpt lat="43.3455117" lon="13.28017"><ele>299.5</ele><time>2026-04-11T16:27:31.119Z</time></trkpt><trkpt lat="43.3455383" lon="13.2803367"><ele>299.0</ele><time>2026-04-11T16:27:32.119Z</time></trkpt><trkpt lat="43.3455633" lon="13.2804933"><ele>299.4</ele><time>2026-04-11T16:27:33.119Z</time></trkpt><trkpt lat="43.345575" lon="13.2806533"><ele>299.79999999999995</ele><time>2026-04-11T16:27:34.119Z</time></trkpt><trkpt lat="43.34559" lon="13.28078"><ele>300.20000000000005</ele><time>2026-04-11T16:27:35.119Z</time></trkpt><trkpt lat="43.3456083" lon="13.2808767"><ele>300.6</ele><time>2026-04-11T16:27:36.119Z</time></trkpt><trkpt lat="43.3456283" lon="13.2810117"><ele>301.0</ele><time>2026-04-11T16:27:38.119Z</time></trkpt><trkpt lat="43.34566" lon="13.2811783"><ele>301.0</ele><time>2026-04-11T16:27:40.119Z</time></trkpt><trkpt lat="43.3456833" lon="13.281275"><ele>301.0</ele><time>2026-04-11T16:27:41.119Z</time></trkpt><trkpt lat="43.3456983" lon="13.281415"><ele>301.0</ele><time>2026-04-11T16:27:42.119Z</time></trkpt><trkpt lat="43.3457383" lon="13.2815417"><ele>301.0</ele><time>2026-04-11T16:27:43.119Z</time></trkpt><trkpt lat="43.3457717" lon="13.2816733"><ele>301.0</ele><time>2026-04-11T16:27:44.119Z</time></trkpt><trkpt lat="43.3458267" lon="13.2819283"><ele>300.5</ele><time>2026-04-11T16:27:46.119Z</time></trkpt><trkpt lat="43.3458633" lon="13.2820617"><ele>300.0</ele><time>2026-04-11T16:27:47.119Z</time></trkpt><trkpt lat="43.3458917" lon="13.282175"><ele>299.5</ele><time>2026-04-11T16:27:48.119Z</time></trkpt><trkpt lat="43.3459033" lon="13.28227"><ele>299.0</ele><time>2026-04-11T16:27:49.119Z</time></trkpt><trkpt lat="43.3459167" lon="13.282365"><ele>298.5</ele><time>2026-04-11T16:27:50.119Z</time></trkpt><trkpt lat="43.3459383" lon="13.28247"><ele>298.0</ele><time>2026-04-11T16:27:51.119Z</time></trkpt><trkpt lat="43.3459617" lon="13.2825917"><ele>297.5</ele><time>2026-04-11T16:27:52.119Z</time></trkpt><trkpt lat="43.3459833" lon="13.2827167"><ele>297.0</ele><time>2026-04-11T16:27:53.119Z</time></trkpt><trkpt lat="43.3460017" lon="13.282835"><ele>296.5</ele><time>2026-04-11T16:27:54.119Z</time></trkpt><trkpt lat="43.3460233" lon="13.2829517"><ele>296.0</ele><time>2026-04-11T16:27:55.119Z</time></trkpt><trkpt lat="43.34605" lon="13.2830617"><ele>295.5</ele><time>2026-04-11T16:27:56.119Z</time></trkpt><trkpt lat="43.3460833" lon="13.283175"><ele>295.0</ele><time>2026-04-11T16:27:57.119Z</time></trkpt><trkpt lat="43.34611" lon="13.2833083"><ele>294.5</ele><time>2026-04-11T16:27:58.119Z</time></trkpt><trkpt lat="43.3461283" lon="13.28346"><ele>294.0</ele><time>2026-04-11T16:27:59.119Z</time></trkpt><trkpt lat="43.346135" lon="13.2836383"><ele>293.5</ele><time>2026-04-11T16:28:00.119Z</time></trkpt><trkpt lat="43.3461383" lon="13.2838383"><ele>293.0</ele><time>2026-04-11T16:28:01.119Z</time></trkpt><trkpt lat="43.3461417" lon="13.284035"><ele>292.5</ele><time>2026-04-11T16:28:02.119Z</time></trkpt><trkpt lat="43.3461433" lon="13.28424"><ele>292.0</ele><time>2026-04-11T16:28:03.119Z</time></trkpt><trkpt lat="43.3461433" lon="13.2844417"><ele>291.5</ele><time>2026-04-11T16:28:04.119Z</time></trkpt><trkpt lat="43.3461417" lon="13.2846433"><ele>291.0</ele><time>2026-04-11T16:28:05.119Z</time></trkpt><trkpt lat="43.34615" lon="13.285055"><ele>290.6666666666667</ele><time>2026-04-11T16:28:07.119Z</time></trkpt><trkpt lat="43.34616" lon="13.2852767"><ele>290.33333333333337</ele><time>2026-04-11T16:28:08.119Z</time></trkpt><trkpt lat="43.3461717" lon="13.2855183"><ele>290.0</ele><time>2026-04-11T16:28:09.119Z</time></trkpt><trkpt lat="43.3462017" lon="13.2857583"><ele>289.33333333333337</ele><time>2026-04-11T16:28:10.119Z</time></trkpt><trkpt lat="43.3462417" lon="13.2860017"><ele>288.6666666666667</ele><time>2026-04-11T16:28:11.119Z</time></trkpt><trkpt lat="43.346275" lon="13.2862267"><ele>288.0</ele><time>2026-04-11T16:28:12.119Z</time></trkpt><trkpt lat="43.346315" lon="13.286445"><ele>288.0</ele><time>2026-04-11T16:28:13.119Z</time></trkpt><trkpt lat="43.34635" lon="13.286655"><ele>288.0</ele><time>2026-04-11T16:28:14.119Z</time></trkpt><trkpt lat="43.346365" lon="13.2868333"><ele>288.0</ele><time>2026-04-11T16:28:15.119Z</time></trkpt><trkpt lat="43.3463783" lon="13.2869833"><ele>288.0</ele><time>2026-04-11T16:28:16.119Z</time></trkpt><trkpt lat="43.3463883" lon="13.287105"><ele>288.0</ele><time>2026-04-11T16:28:17.119Z</time></trkpt><trkpt lat="43.3463983" lon="13.287215"><ele>288.0</ele><time>2026-04-11T16:28:18.119Z</time></trkpt><trkpt lat="43.3463883" lon="13.287335"><ele>288.0</ele><time>2026-04-11T16:28:19.119Z</time></trkpt><trkpt lat="43.34636" lon="13.28747"><ele>288.0</ele><time>2026-04-11T16:28:20.119Z</time></trkpt><trkpt lat="43.3463383" lon="13.287605"><ele>288.0</ele><time>2026-04-11T16:28:21.119Z</time></trkpt><trkpt lat="43.34633" lon="13.287755"><ele>288.0</ele><time>2026-04-11T16:28:22.119Z</time></trkpt><trkpt lat="43.34634" lon="13.2879167"><ele>288.0</ele><time>2026-04-11T16:28:23.119Z</time></trkpt><trkpt lat="43.3463633" lon="13.2880917"><ele>288.0</ele><time>2026-04-11T16:28:24.119Z</time></trkpt><trkpt lat="43.3464" lon="13.288275"><ele>288.0</ele><time>2026-04-11T16:28:25.119Z</time></trkpt><trkpt lat="43.346435" lon="13.288455"><ele>287.3333333333333</ele><time>2026-04-11T16:28:26.12Z</time></trkpt><trkpt lat="43.3465067" lon="13.2888317"><ele>286.66666666666663</ele><time>2026-04-11T16:28:28.119Z</time></trkpt><trkpt lat="43.3465483" lon="13.28902"><ele>286.0</ele><time>2026-04-11T16:28:29.119Z</time></trkpt><trkpt lat="43.3465933" lon="13.28922"><ele>285.5</ele><time>2026-04-11T16:28:30.119Z</time></trkpt><trkpt lat="43.3466367" lon="13.28941"><ele>285.0</ele><time>2026-04-11T16:28:31.119Z</time></trkpt><trkpt lat="43.3466883" lon="13.2895983"><ele>284.5</ele><time>2026-04-11T16:28:32.119Z</time></trkpt><trkpt lat="43.3467467" lon="13.2897917"><ele>284.0</ele><time>2026-04-11T16:28:33.119Z</time></trkpt><trkpt lat="43.346795" lon="13.2899767"><ele>283.75</ele><time>2026-04-11T16:28:34.119Z</time></trkpt><trkpt lat="43.3468467" lon="13.2901533"><ele>283.5</ele><time>2026-04-11T16:28:35.119Z</time></trkpt><trkpt lat="43.3469033" lon="13.29033"><ele>283.25</ele><time>2026-04-11T16:28:36.119Z</time></trkpt><trkpt lat="43.346965" lon="13.2904833"><ele>283.0</ele><time>2026-04-11T16:28:37.119Z</time></trkpt><trkpt lat="43.3470267" lon="13.2906317"><ele>283.0</ele><time>2026-04-11T16:28:38.119Z</time></trkpt><trkpt lat="43.3470867" lon="13.2907767"><ele>283.0</ele><time>2026-04-11T16:28:39.119Z</time></trkpt><trkpt lat="43.347155" lon="13.2909167"><ele>283.0</ele><time>2026-04-11T16:28:40.119Z</time></trkpt><trkpt lat="43.3472283" lon="13.2910417"><ele>283.0</ele><time>2026-04-11T16:28:41.119Z</time></trkpt><trkpt lat="43.3473083" lon="13.29113"><ele>282.75</ele><time>2026-04-11T16:28:42.119Z</time></trkpt><trkpt lat="43.34739" lon="13.2912083"><ele>282.5</ele><time>2026-04-11T16:28:43.119Z</time></trkpt><trkpt lat="43.3474967" lon="13.291285"><ele>282.25</ele><time>2026-04-11T16:28:44.119Z</time></trkpt><trkpt lat="43.3476" lon="13.291375"><ele>282.0</ele><time>2026-04-11T16:28:45.119Z</time></trkpt><trkpt lat="43.3476967" lon="13.291485"><ele>281.6666666666667</ele><time>2026-04-11T16:28:46.119Z</time></trkpt><trkpt lat="43.3478033" lon="13.2916017"><ele>281.33333333333337</ele><time>2026-04-11T16:28:47.12Z</time></trkpt><trkpt lat="43.348005" lon="13.2918417"><ele>281.0</ele><time>2026-04-11T16:28:49.119Z</time></trkpt><trkpt lat="43.3480783" lon="13.2919333"><ele>280.0</ele><time>2026-04-11T16:28:50.119Z</time></trkpt><trkpt lat="43.3481463" lon="13.29207"><ele>279.0</ele><time>2026-04-11T16:28:52.119Z</time></trkpt><trkpt lat="43.3481666" lon="13.2922538"><ele>278.0</ele><time>2026-04-11T16:28:54.119Z</time></trkpt><trkpt lat="43.3481813" lon="13.2923854"><ele>277.0</ele><time>2026-04-11T16:28:55.12Z</time></trkpt><trkpt lat="43.348201" lon="13.2925439"><ele>276.8</ele><time>2026-04-11T16:28:56.119Z</time></trkpt><trkpt lat="43.3482215" lon="13.2926999"><ele>276.6</ele><time>2026-04-11T16:28:57.119Z</time></trkpt><trkpt lat="43.3482455" lon="13.2928316"><ele>276.40000000000003</ele><time>2026-04-11T16:28:58.119Z</time></trkpt><trkpt lat="43.348274" lon="13.2929546"><ele>276.2</ele><time>2026-04-11T16:28:59.119Z</time></trkpt><trkpt lat="43.3483048" lon="13.2930786"><ele>276.0</ele><time>2026-04-11T16:29:00.119Z</time></trkpt><trkpt lat="43.348347" lon="13.2931989"><ele>276.0</ele><time>2026-04-11T16:29:01.119Z</time></trkpt><trkpt lat="43.3483901" lon="13.2933074"><ele>276.0</ele><time>2026-04-11T16:29:02.119Z</time></trkpt><trkpt lat="43.3484214" lon="13.2934051"><ele>276.0</ele><time>2026-04-11T16:29:03.119Z</time></trkpt><trkpt lat="43.3484385" lon="13.293493"><ele>276.0</ele><time>2026-04-11T16:29:04.119Z</time></trkpt><trkpt lat="43.3484738" lon="13.2936646"><ele>276.0</ele><time>2026-04-11T16:29:06.119Z</time></trkpt><trkpt lat="43.3484982" lon="13.2937844"><ele>275.5</ele><time>2026-04-11T16:29:07.119Z</time></trkpt><trkpt lat="43.3485278" lon="13.2939223"><ele>275.0</ele><time>2026-04-11T16:29:08.119Z</time></trkpt><trkpt lat="43.3486024" lon="13.2941847"><ele>274.5</ele><time>2026-04-11T16:29:10.119Z</time></trkpt><trkpt lat="43.3486423" lon="13.2943263"><ele>274.0</ele><time>2026-04-11T16:29:11.119Z</time></trkpt><trkpt lat="43.3486848" lon="13.2944662"><ele>274.0</ele><time>2026-04-11T16:29:12.119Z</time></trkpt><trkpt lat="43.3487169" lon="13.2945858"><ele>274.0</ele><time>2026-04-11T16:29:13.12Z</time></trkpt><trkpt lat="43.3487453" lon="13.2946769"><ele>274.0</ele><time>2026-04-11T16:29:14.119Z</time></trkpt><trkpt lat="43.3487682" lon="13.2948044"><ele>274.0</ele><time>2026-04-11T16:29:16.119Z</time></trkpt><trkpt lat="43.3487506" lon="13.294955"><ele>274.0</ele><time>2026-04-11T16:29:18.119Z</time></trkpt><trkpt lat="43.3487381" lon="13.2950689"><ele>274.0</ele><time>2026-04-11T16:29:19.119Z</time></trkpt><trkpt lat="43.3487244" lon="13.2952152"><ele>274.0</ele><time>2026-04-11T16:29:20.119Z</time></trkpt><trkpt lat="43.3487192" lon="13.2954122"><ele>274.0</ele><time>2026-04-11T16:29:21.119Z</time></trkpt><trkpt lat="43.3487149" lon="13.2956045"><ele>274.0</ele><time>2026-04-11T16:29:22.119Z</time></trkpt><trkpt lat="43.3487132" lon="13.2957638"><ele>273.8</ele><time>2026-04-11T16:29:23.119Z</time></trkpt><trkpt lat="43.3487172" lon="13.2958817"><ele>273.59999999999997</ele><time>2026-04-11T16:29:24.119Z</time></trkpt><trkpt lat="43.34872" lon="13.2959683"><ele>273.4</ele><time>2026-04-11T16:29:25.119Z</time></trkpt><trkpt lat="43.3487533" lon="13.2960683"><ele>273.2</ele><time>2026-04-11T16:29:27.119Z</time></trkpt><trkpt lat="43.3488133" lon="13.29612"><ele>273.0</ele><time>2026-04-11T16:29:29.119Z</time></trkpt><trkpt lat="43.3489817" lon="13.29612"><ele>272.6666666666667</ele><time>2026-04-11T16:29:31.119Z</time></trkpt><trkpt lat="43.3491367" lon="13.2961383"><ele>272.33333333333337</ele><time>2026-04-11T16:29:32.119Z</time></trkpt><trkpt lat="43.3493083" lon="13.29616"><ele>272.0</ele><time>2026-04-11T16:29:33.119Z</time></trkpt><trkpt lat="43.3494883" lon="13.29618"><ele>272.0</ele><time>2026-04-11T16:29:34.119Z</time></trkpt><trkpt lat="43.349675" lon="13.29621"><ele>272.0</ele><time>2026-04-11T16:29:35.119Z</time></trkpt><trkpt lat="43.3498367" lon="13.296235"><ele>272.0</ele><time>2026-04-11T16:29:36.119Z</time></trkpt><trkpt lat="43.34998" lon="13.296255"><ele>271.8</ele><time>2026-04-11T16:29:37.119Z</time></trkpt><trkpt lat="43.350105" lon="13.2962667"><ele>271.6</ele><time>2026-04-11T16:29:38.119Z</time></trkpt><trkpt lat="43.35021" lon="13.2962767"><ele>271.40000000000003</ele><time>2026-04-11T16:29:39.119Z</time></trkpt><trkpt lat="43.3502967" lon="13.2962867"><ele>271.2</ele><time>2026-04-11T16:29:40.119Z</time></trkpt><trkpt lat="43.3503633" lon="13.2963017"><ele>271.0</ele><time>2026-04-11T16:29:41.12Z</time></trkpt><trkpt lat="43.3504667" lon="13.2963683"><ele>270.40000000000003</ele><time>2026-04-11T16:29:43.119Z</time></trkpt><trkpt lat="43.3505033" lon="13.2964483"><ele>269.8</ele><time>2026-04-11T16:29:44.119Z</time></trkpt><trkpt lat="43.3505433" lon="13.2965733"><ele>269.20000000000005</ele><time>2026-04-11T16:29:45.119Z</time></trkpt><trkpt lat="43.35058" lon="13.29674"><ele>268.6</ele><time>2026-04-11T16:29:46.119Z</time></trkpt><trkpt lat="43.3506233" lon="13.2969417"><ele>268.0</ele><time>2026-04-11T16:29:47.119Z</time></trkpt><trkpt lat="43.3506683" lon="13.2971667"><ele>267.66666666666663</ele><time>2026-04-11T16:29:48.119Z</time></trkpt><trkpt lat="43.3507183" lon="13.2973917"><ele>267.3333333333333</ele><time>2026-04-11T16:29:49.119Z</time></trkpt><trkpt lat="43.3507567" lon="13.297605"><ele>267.0</ele><time>2026-04-11T16:29:50.119Z</time></trkpt><trkpt lat="43.3508083" lon="13.2980467"><ele>267.0</ele><time>2026-04-11T16:29:52.119Z</time></trkpt><trkpt lat="43.3508183" lon="13.2983017"><ele>267.0</ele><time>2026-04-11T16:29:53.119Z</time></trkpt><trkpt lat="43.350825" lon="13.29856"><ele>267.0</ele><time>2026-04-11T16:29:54.119Z</time></trkpt><trkpt lat="43.35083" lon="13.2988367"><ele>266.6666666666667</ele><time>2026-04-11T16:29:55.119Z</time></trkpt><trkpt lat="43.3508217" lon="13.2991133"><ele>266.33333333333337</ele><time>2026-04-11T16:29:56.119Z</time></trkpt><trkpt lat="43.350805" lon="13.2993983"><ele>266.0</ele><time>2026-04-11T16:29:57.119Z</time></trkpt><trkpt lat="43.35077" lon="13.2996867"><ele>265.33333333333337</ele><time>2026-04-11T16:29:58.119Z</time></trkpt><trkpt lat="43.3507433" lon="13.299975"><ele>264.6666666666667</ele><time>2026-04-11T16:29:59.119Z</time></trkpt><trkpt lat="43.3507183" lon="13.3002683"><ele>264.0</ele><time>2026-04-11T16:30:00.119Z</time></trkpt><trkpt lat="43.35069" lon="13.3005483"><ele>263.3333333333333</ele><time>2026-04-11T16:30:01.119Z</time></trkpt><trkpt lat="43.3506617" lon="13.30082"><ele>262.66666666666663</ele><time>2026-04-11T16:30:02.119Z</time></trkpt><trkpt lat="43.3506267" lon="13.3010817"><ele>262.0</ele><time>2026-04-11T16:30:03.119Z</time></trkpt><trkpt lat="43.3505917" lon="13.30132"><ele>262.0</ele><time>2026-04-11T16:30:04.119Z</time></trkpt><trkpt lat="43.3505667" lon="13.30157"><ele>262.0</ele><time>2026-04-11T16:30:05.12Z</time></trkpt><trkpt lat="43.3505417" lon="13.3018183"><ele>262.0</ele><time>2026-04-11T16:30:06.119Z</time></trkpt><trkpt lat="43.3505133" lon="13.30207"><ele>260.66666666666663</ele><time>2026-04-11T16:30:07.119Z</time></trkpt><trkpt lat="43.350485" lon="13.3023233"><ele>259.3333333333333</ele><time>2026-04-11T16:30:08.119Z</time></trkpt><trkpt lat="43.3504667" lon="13.30257"><ele>258.0</ele><time>2026-04-11T16:30:09.119Z</time></trkpt><trkpt lat="43.350445" lon="13.3028217"><ele>258.0</ele><time>2026-04-11T16:30:10.119Z</time></trkpt><trkpt lat="43.3504167" lon="13.3030633"><ele>258.0</ele><time>2026-04-11T16:30:11.119Z</time></trkpt><trkpt lat="43.3503733" lon="13.303485"><ele>257.6666666666667</ele><time>2026-04-11T16:30:13.119Z</time></trkpt><trkpt lat="43.3503333" lon="13.3037"><ele>257.33333333333337</ele><time>2026-04-11T16:30:14.119Z</time></trkpt><trkpt lat="43.35029" lon="13.3039217"><ele>257.0</ele><time>2026-04-11T16:30:15.119Z</time></trkpt><trkpt lat="43.3502417" lon="13.304145"><ele>256.33333333333337</ele><time>2026-04-11T16:30:16.119Z</time></trkpt><trkpt lat="43.3501867" lon="13.3043783"><ele>255.66666666666669</ele><time>2026-04-11T16:30:17.119Z</time></trkpt><trkpt lat="43.3501367" lon="13.3046117"><ele>255.0</ele><time>2026-04-11T16:30:18.119Z</time></trkpt><trkpt lat="43.3500817" lon="13.3048483"><ele>255.0</ele><time>2026-04-11T16:30:19.119Z</time></trkpt><trkpt lat="43.35003" lon="13.305085"><ele>255.0</ele><time>2026-04-11T16:30:20.119Z</time></trkpt><trkpt lat="43.349985" lon="13.3053017"><ele>255.0</ele><time>2026-04-11T16:30:21.119Z</time></trkpt><trkpt lat="43.34994" lon="13.305505"><ele>255.5</ele><time>2026-04-11T16:30:22.119Z</time></trkpt><trkpt lat="43.3499" lon="13.3056833"><ele>256.0</ele><time>2026-04-11T16:30:23.119Z</time></trkpt><trkpt lat="43.3498667" lon="13.3058517"><ele>256.5</ele><time>2026-04-11T16:30:24.119Z</time></trkpt><trkpt lat="43.3498317" lon="13.3060183"><ele>257.0</ele><time>2026-04-11T16:30:25.119Z</time></trkpt><trkpt lat="43.3498017" lon="13.3061717"><ele>257.0</ele><time>2026-04-11T16:30:26.119Z</time></trkpt><trkpt lat="43.3497733" lon="13.30631"><ele>257.0</ele><time>2026-04-11T16:30:27.12Z</time></trkpt><trkpt lat="43.3497633" lon="13.30643"><ele>257.0</ele><time>2026-04-11T16:30:28.119Z</time></trkpt><trkpt lat="43.3497433" lon="13.306565"><ele>257.0</ele><time>2026-04-11T16:30:30.119Z</time></trkpt><trkpt lat="43.3498167" lon="13.3066383"><ele>257.0</ele><time>2026-04-11T16:30:33.119Z</time></trkpt><trkpt lat="43.3500867" lon="13.3065433"><ele>257.0</ele><time>2026-04-11T16:30:36.119Z</time></trkpt><trkpt lat="43.3502483" lon="13.30648"><ele>257.0</ele><time>2026-04-11T16:30:37.119Z</time></trkpt><trkpt lat="43.350435" lon="13.3064217"><ele>257.0</ele><time>2026-04-11T16:30:38.119Z</time></trkpt><trkpt lat="43.3506283" lon="13.3063517"><ele>257.0</ele><time>2026-04-11T16:30:39.119Z</time></trkpt><trkpt lat="43.3508317" lon="13.306285"><ele>257.0</ele><time>2026-04-11T16:30:40.119Z</time></trkpt><trkpt lat="43.3510267" lon="13.3062217"><ele>257.0</ele><time>2026-04-11T16:30:41.119Z</time></trkpt><trkpt lat="43.3512283" lon="13.3061583"><ele>256.33333333333337</ele><time>2026-04-11T16:30:42.119Z</time></trkpt><trkpt lat="43.3514317" lon="13.3060883"><ele>255.66666666666669</ele><time>2026-04-11T16:30:43.119Z</time></trkpt><trkpt lat="43.3516317" lon="13.30602"><ele>255.0</ele><time>2026-04-11T16:30:44.119Z</time></trkpt><trkpt lat="43.3518267" lon="13.3059517"><ele>255.0</ele><time>2026-04-11T16:30:45.119Z</time></trkpt><trkpt lat="43.35201" lon="13.3058833"><ele>255.0</ele><time>2026-04-11T16:30:46.119Z</time></trkpt><trkpt lat="43.3521867" lon="13.3058233"><ele>255.0</ele><time>2026-04-11T16:30:47.119Z</time></trkpt><trkpt lat="43.3523433" lon="13.3057683"><ele>255.25</ele><time>2026-04-11T16:30:48.119Z</time></trkpt><trkpt lat="43.352485" lon="13.3057233"><ele>255.5</ele><time>2026-04-11T16:30:49.119Z</time></trkpt><trkpt lat="43.35262" lon="13.3056783"><ele>255.75</ele><time>2026-04-11T16:30:50.119Z</time></trkpt><trkpt lat="43.3527583" lon="13.305635"><ele>256.0</ele><time>2026-04-11T16:30:51.119Z</time></trkpt><trkpt lat="43.352895" lon="13.3055917"><ele>256.0</ele><time>2026-04-11T16:30:52.119Z</time></trkpt><trkpt lat="43.353035" lon="13.3055533"><ele>256.0</ele><time>2026-04-11T16:30:53.119Z</time></trkpt><trkpt lat="43.353175" lon="13.3055183"><ele>256.0</ele><time>2026-04-11T16:30:54.119Z</time></trkpt><trkpt lat="43.3534667" lon="13.3054367"><ele>255.33333333333331</ele><time>2026-04-11T16:30:56.119Z</time></trkpt><trkpt lat="43.353625" lon="13.3053933"><ele>254.66666666666669</ele><time>2026-04-11T16:30:57.119Z</time></trkpt><trkpt lat="43.3537933" lon="13.3053533"><ele>254.0</ele><time>2026-04-11T16:30:58.119Z</time></trkpt><trkpt lat="43.3539517" lon="13.305325"><ele>254.0</ele><time>2026-04-11T16:30:59.119Z</time></trkpt><trkpt lat="43.35409" lon="13.3053183"><ele>254.0</ele><time>2026-04-11T16:31:00.119Z</time></trkpt><trkpt lat="43.35422" lon="13.3053067"><ele>254.0</ele><time>2026-04-11T16:31:01.119Z</time></trkpt><trkpt lat="43.3543433" lon="13.3052917"><ele>254.0</ele><time>2026-04-11T16:31:02.119Z</time></trkpt><trkpt lat="43.3544517" lon="13.305245"><ele>254.0</ele><time>2026-04-11T16:31:03.119Z</time></trkpt><trkpt lat="43.3545817" lon="13.3051717"><ele>254.0</ele><time>2026-04-11T16:31:04.119Z</time></trkpt><trkpt lat="43.354715" lon="13.3050967"><ele>254.0</ele><time>2026-04-11T16:31:05.119Z</time></trkpt><trkpt lat="43.3548717" lon="13.3050283"><ele>254.0</ele><time>2026-04-11T16:31:06.119Z</time></trkpt><trkpt lat="43.3550533" lon="13.3049717"><ele>253.0</ele><time>2026-04-11T16:31:07.119Z</time></trkpt><trkpt lat="43.3552317" lon="13.3049217"><ele>252.0</ele><time>2026-04-11T16:31:08.119Z</time></trkpt><trkpt lat="43.3554267" lon="13.3048833"><ele>251.0</ele><time>2026-04-11T16:31:09.119Z</time></trkpt><trkpt lat="43.3556067" lon="13.30485"><ele>250.66666666666669</ele><time>2026-04-11T16:31:10.119Z</time></trkpt><trkpt lat="43.3557917" lon="13.30481"><ele>250.33333333333331</ele><time>2026-04-11T16:31:11.119Z</time></trkpt><trkpt lat="43.3559767" lon="13.3047567"><ele>250.0</ele><time>2026-04-11T16:31:12.119Z</time></trkpt><trkpt lat="43.356135" lon="13.3047233"><ele>250.0</ele><time>2026-04-11T16:31:13.119Z</time></trkpt><trkpt lat="43.3562867" lon="13.3046817"><ele>250.0</ele><time>2026-04-11T16:31:14.119Z</time></trkpt><trkpt lat="43.3564267" lon="13.30465"><ele>250.0</ele><time>2026-04-11T16:31:15.119Z</time></trkpt><trkpt lat="43.356735" lon="13.304575"><ele>250.0</ele><time>2026-04-11T16:31:17.119Z</time></trkpt><trkpt lat="43.3568817" lon="13.3045317"><ele>250.0</ele><time>2026-04-11T16:31:18.119Z</time></trkpt><trkpt lat="43.3570067" lon="13.304495"><ele>250.0</ele><time>2026-04-11T16:31:19.119Z</time></trkpt><trkpt lat="43.3571033" lon="13.3044667"><ele>250.0</ele><time>2026-04-11T16:31:20.119Z</time></trkpt><trkpt lat="43.3571783" lon="13.3044617"><ele>249.0</ele><time>2026-04-11T16:31:21.119Z</time></trkpt><trkpt lat="43.35727" lon="13.3044883"><ele>248.0</ele><time>2026-04-11T16:31:23.119Z</time></trkpt><trkpt lat="43.3573367" lon="13.3046783"><ele>247.0</ele><time>2026-04-11T16:31:25.119Z</time></trkpt><trkpt lat="43.35737" lon="13.3048267"><ele>246.0</ele><time>2026-04-11T16:31:26.119Z</time></trkpt><trkpt lat="43.3574233" lon="13.3050017"><ele>246.0</ele><time>2026-04-11T16:31:27.119Z</time></trkpt><trkpt lat="43.357485" lon="13.3052"><ele>246.0</ele><time>2026-04-11T16:31:28.119Z</time></trkpt><trkpt lat="43.35756" lon="13.3054217"><ele>246.0</ele><time>2026-04-11T16:31:29.119Z</time></trkpt><trkpt lat="43.3576433" lon="13.3056583"><ele>246.0</ele><time>2026-04-11T16:31:30.119Z</time></trkpt><trkpt lat="43.3577183" lon="13.3059117"><ele>246.0</ele><time>2026-04-11T16:31:31.119Z</time></trkpt><trkpt lat="43.357805" lon="13.3061783"><ele>246.0</ele><time>2026-04-11T16:31:32.119Z</time></trkpt><trkpt lat="43.3578917" lon="13.306445"><ele>245.66666666666669</ele><time>2026-04-11T16:31:33.119Z</time></trkpt><trkpt lat="43.3579817" lon="13.30671"><ele>245.33333333333334</ele><time>2026-04-11T16:31:34.119Z</time></trkpt><trkpt lat="43.3580683" lon="13.3069783"><ele>245.0</ele><time>2026-04-11T16:31:35.119Z</time></trkpt><trkpt lat="43.3581567" lon="13.307235"><ele>245.0</ele><time>2026-04-11T16:31:36.119Z</time></trkpt><trkpt lat="43.35831" lon="13.30771"><ele>245.0</ele><time>2026-04-11T16:31:38.119Z</time></trkpt><trkpt lat="43.35839" lon="13.3079383"><ele>244.66666666666669</ele><time>2026-04-11T16:31:39.119Z</time></trkpt><trkpt lat="43.358465" lon="13.30816"><ele>244.33333333333331</ele><time>2026-04-11T16:31:40.119Z</time></trkpt><trkpt lat="43.3585317" lon="13.3083717"><ele>244.0</ele><time>2026-04-11T16:31:41.119Z</time></trkpt><trkpt lat="43.3586111" lon="13.308583"><ele>244.0</ele><time>2026-04-11T16:31:42.119Z</time></trkpt><trkpt lat="43.3586919" lon="13.3087903"><ele>244.0</ele><time>2026-04-11T16:31:43.119Z</time></trkpt><trkpt lat="43.3587681" lon="13.309006"><ele>244.0</ele><time>2026-04-11T16:31:44.119Z</time></trkpt><trkpt lat="43.3588359" lon="13.309219"><ele>242.33333333333331</ele><time>2026-04-11T16:31:45.119Z</time></trkpt><trkpt lat="43.3589025" lon="13.3094331"><ele>240.66666666666669</ele><time>2026-04-11T16:31:46.12Z</time></trkpt><trkpt lat="43.3589672" lon="13.3096448"><ele>239.0</ele><time>2026-04-11T16:31:47.119Z</time></trkpt><trkpt lat="43.3590338" lon="13.3098644"><ele>238.66666666666669</ele><time>2026-04-11T16:31:48.119Z</time></trkpt><trkpt lat="43.3591119" lon="13.3100883"><ele>238.33333333333331</ele><time>2026-04-11T16:31:49.119Z</time></trkpt><trkpt lat="43.3591956" lon="13.3103094"><ele>238.0</ele><time>2026-04-11T16:31:50.119Z</time></trkpt><trkpt lat="43.3592745" lon="13.3105279"><ele>237.66666666666666</ele><time>2026-04-11T16:31:51.119Z</time></trkpt><trkpt lat="43.3593513" lon="13.3107543"><ele>237.33333333333331</ele><time>2026-04-11T16:31:52.119Z</time></trkpt><trkpt lat="43.3594251" lon="13.3109866"><ele>237.0</ele><time>2026-04-11T16:31:53.119Z</time></trkpt><trkpt lat="43.3594954" lon="13.3112155"><ele>236.66666666666669</ele><time>2026-04-11T16:31:54.119Z</time></trkpt><trkpt lat="43.3595583" lon="13.3114379"><ele>236.33333333333334</ele><time>2026-04-11T16:31:55.119Z</time></trkpt><trkpt lat="43.3596184" lon="13.3116432"><ele>236.0</ele><time>2026-04-11T16:31:56.119Z</time></trkpt><trkpt lat="43.3596684" lon="13.3118208"><ele>235.66666666666669</ele><time>2026-04-11T16:31:57.119Z</time></trkpt><trkpt lat="43.3597791" lon="13.3121724"><ele>235.33333333333331</ele><time>2026-04-11T16:31:59.119Z</time></trkpt><trkpt lat="43.359827" lon="13.3123522"><ele>235.0</ele><time>2026-04-11T16:32:00.119Z</time></trkpt><trkpt lat="43.3598654" lon="13.3125126"><ele>235.0</ele><time>2026-04-11T16:32:01.119Z</time></trkpt><trkpt lat="43.3599065" lon="13.3126605"><ele>235.0</ele><time>2026-04-11T16:32:02.119Z</time></trkpt><trkpt lat="43.3599366" lon="13.3128241"><ele>235.0</ele><time>2026-04-11T16:32:03.119Z</time></trkpt><trkpt lat="43.359961" lon="13.3130001"><ele>235.0</ele><time>2026-04-11T16:32:04.119Z</time></trkpt><trkpt lat="43.3599943" lon="13.3131867"><ele>234.33333333333331</ele><time>2026-04-11T16:32:05.119Z</time></trkpt><trkpt lat="43.3600425" lon="13.3133844"><ele>233.66666666666669</ele><time>2026-04-11T16:32:06.119Z</time></trkpt><trkpt lat="43.3600939" lon="13.3135918"><ele>233.0</ele><time>2026-04-11T16:32:07.119Z</time></trkpt><trkpt lat="43.3601398" lon="13.3138091"><ele>232.33333333333334</ele><time>2026-04-11T16:32:08.119Z</time></trkpt><trkpt lat="43.3601863" lon="13.3140408"><ele>231.66666666666669</ele><time>2026-04-11T16:32:09.119Z</time></trkpt><trkpt lat="43.3602331" lon="13.3142946"><ele>231.0</ele><time>2026-04-11T16:32:10.119Z</time></trkpt><trkpt lat="43.3602879" lon="13.3145635"><ele>230.66666666666669</ele><time>2026-04-11T16:32:11.119Z</time></trkpt><trkpt lat="43.3603496" lon="13.3148387"><ele>230.33333333333334</ele><time>2026-04-11T16:32:12.119Z</time></trkpt><trkpt lat="43.3604087" lon="13.3151021"><ele>230.0</ele><time>2026-04-11T16:32:13.119Z</time></trkpt><trkpt lat="43.3604693" lon="13.3153458"><ele>229.66666666666669</ele><time>2026-04-11T16:32:14.119Z</time></trkpt><trkpt lat="43.3605362" lon="13.3155903"><ele>229.33333333333331</ele><time>2026-04-11T16:32:15.119Z</time></trkpt><trkpt lat="43.3606016" lon="13.3158456"><ele>229.0</ele><time>2026-04-11T16:32:16.119Z</time></trkpt><trkpt lat="43.3606659" lon="13.3161145"><ele>229.0</ele><time>2026-04-11T16:32:17.119Z</time></trkpt><trkpt lat="43.3607325" lon="13.3163868"><ele>229.0</ele><time>2026-04-11T16:32:18.119Z</time></trkpt><trkpt lat="43.3608489" lon="13.3168753"><ele>228.66666666666666</ele><time>2026-04-11T16:32:20.119Z</time></trkpt><trkpt lat="43.3609104" lon="13.3170885"><ele>228.33333333333331</ele><time>2026-04-11T16:32:21.119Z</time></trkpt><trkpt lat="43.3609628" lon="13.3172858"><ele>228.0</ele><time>2026-04-11T16:32:22.119Z</time></trkpt><trkpt lat="43.3609989" lon="13.3174825"><ele>228.0</ele><time>2026-04-11T16:32:23.119Z</time></trkpt><trkpt lat="43.3610203" lon="13.3176939"><ele>228.0</ele><time>2026-04-11T16:32:24.119Z</time></trkpt><trkpt lat="43.3610322" lon="13.3179178"><ele>228.0</ele><time>2026-04-11T16:32:25.119Z</time></trkpt><trkpt lat="43.3610364" lon="13.3181556"><ele>227.66666666666669</ele><time>2026-04-11T16:32:26.119Z</time></trkpt><trkpt lat="43.3610467" lon="13.3183941"><ele>227.33333333333334</ele><time>2026-04-11T16:32:27.119Z</time></trkpt><trkpt lat="43.3610666" lon="13.3186247"><ele>227.0</ele><time>2026-04-11T16:32:28.119Z</time></trkpt><trkpt lat="43.3610854" lon="13.3188487"><ele>226.75</ele><time>2026-04-11T16:32:29.119Z</time></trkpt><trkpt lat="43.3611074" lon="13.319059"><ele>226.5</ele><time>2026-04-11T16:32:30.119Z</time></trkpt><trkpt lat="43.3611294" lon="13.3192497"><ele>226.25</ele><time>2026-04-11T16:32:31.119Z</time></trkpt><trkpt lat="43.3611463" lon="13.3194315"><ele>226.0</ele><time>2026-04-11T16:32:32.119Z</time></trkpt><trkpt lat="43.3611628" lon="13.319614"><ele>226.33333333333331</ele><time>2026-04-11T16:32:33.119Z</time></trkpt><trkpt lat="43.361174" lon="13.3198128"><ele>226.66666666666669</ele><time>2026-04-11T16:32:34.12Z</time></trkpt><trkpt lat="43.361181" lon="13.3200254"><ele>227.0</ele><time>2026-04-11T16:32:35.119Z</time></trkpt><trkpt lat="43.3611916" lon="13.3202489"><ele>227.0</ele><time>2026-04-11T16:32:36.119Z</time></trkpt><trkpt lat="43.3612063" lon="13.3204867"><ele>227.0</ele><time>2026-04-11T16:32:37.119Z</time></trkpt><trkpt lat="43.3612282" lon="13.320739"><ele>227.0</ele><time>2026-04-11T16:32:38.119Z</time></trkpt><trkpt lat="43.3612521" lon="13.3209854"><ele>226.0</ele><time>2026-04-11T16:32:39.119Z</time></trkpt><trkpt lat="43.3612959" lon="13.3214155"><ele>225.0</ele><time>2026-04-11T16:32:41.119Z</time></trkpt><trkpt lat="43.3613079" lon="13.3215911"><ele>224.0</ele><time>2026-04-11T16:32:42.119Z</time></trkpt><trkpt lat="43.3613243" lon="13.3217319"><ele>224.0</ele><time>2026-04-11T16:32:43.119Z</time></trkpt><trkpt lat="43.3613449" lon="13.3218678"><ele>224.0</ele><time>2026-04-11T16:32:44.119Z</time></trkpt><trkpt lat="43.361371" lon="13.3220237"><ele>224.0</ele><time>2026-04-11T16:32:45.119Z</time></trkpt><trkpt lat="43.3614024" lon="13.3221936"><ele>224.0</ele><time>2026-04-11T16:32:46.119Z</time></trkpt><trkpt lat="43.3614344" lon="13.3223749"><ele>223.0</ele><time>2026-04-11T16:32:47.119Z</time></trkpt><trkpt lat="43.3614661" lon="13.3225672"><ele>222.0</ele><time>2026-04-11T16:32:48.119Z</time></trkpt><trkpt lat="43.3615072" lon="13.3227573"><ele>221.0</ele><time>2026-04-11T16:32:49.119Z</time></trkpt><trkpt lat="43.3615593" lon="13.3229496"><ele>220.0</ele><time>2026-04-11T16:32:50.119Z</time></trkpt><trkpt lat="43.3616194" lon="13.323131"><ele>220.0</ele><time>2026-04-11T16:32:51.119Z</time></trkpt><trkpt lat="43.361675" lon="13.3232967"><ele>220.0</ele><time>2026-04-11T16:32:52.119Z</time></trkpt><trkpt lat="43.3617307" lon="13.3234426"><ele>220.0</ele><time>2026-04-11T16:32:53.119Z</time></trkpt><trkpt lat="43.3617991" lon="13.3235705"><ele>220.0</ele><time>2026-04-11T16:32:54.119Z</time></trkpt><trkpt lat="43.3618774" lon="13.3236941"><ele>220.0</ele><time>2026-04-11T16:32:55.119Z</time></trkpt><trkpt lat="43.361969" lon="13.3238076"><ele>220.0</ele><time>2026-04-11T16:32:56.119Z</time></trkpt><trkpt lat="43.3620628" lon="13.3239413"><ele>220.0</ele><time>2026-04-11T16:32:57.119Z</time></trkpt><trkpt lat="43.3621441" lon="13.3240873"><ele>220.0</ele><time>2026-04-11T16:32:58.119Z</time></trkpt><trkpt lat="43.3622083" lon="13.3242284"><ele>218.33333333333331</ele><time>2026-04-11T16:32:59.119Z</time></trkpt><trkpt lat="43.3622596" lon="13.3243641"><ele>216.66666666666669</ele><time>2026-04-11T16:33:00.119Z</time></trkpt><trkpt lat="43.3623302" lon="13.3246556"><ele>215.0</ele><time>2026-04-11T16:33:02.119Z</time></trkpt><trkpt lat="43.3623597" lon="13.3248224"><ele>215.0</ele><time>2026-04-11T16:33:03.119Z</time></trkpt><trkpt lat="43.3623711" lon="13.3249923"><ele>215.0</ele><time>2026-04-11T16:33:04.119Z</time></trkpt><trkpt lat="43.3623718" lon="13.3251752"><ele>215.0</ele><time>2026-04-11T16:33:05.119Z</time></trkpt><trkpt lat="43.3623668" lon="13.3253668"><ele>215.0</ele><time>2026-04-11T16:33:06.119Z</time></trkpt><trkpt lat="43.3623678" lon="13.3255656"><ele>215.0</ele><time>2026-04-11T16:33:07.119Z</time></trkpt><trkpt lat="43.3623843" lon="13.3257678"><ele>215.0</ele><time>2026-04-11T16:33:08.12Z</time></trkpt><trkpt lat="43.3624037" lon="13.3259738"><ele>215.0</ele><time>2026-04-11T16:33:09.119Z</time></trkpt><trkpt lat="43.3624196" lon="13.3261849"><ele>214.5</ele><time>2026-04-11T16:33:10.119Z</time></trkpt><trkpt lat="43.3624326" lon="13.3263954"><ele>214.0</ele><time>2026-04-11T16:33:11.119Z</time></trkpt><trkpt lat="43.3624426" lon="13.326599"><ele>213.5</ele><time>2026-04-11T16:33:12.119Z</time></trkpt><trkpt lat="43.3624586" lon="13.326799"><ele>213.0</ele><time>2026-04-11T16:33:13.119Z</time></trkpt><trkpt lat="43.3624737" lon="13.3269902"><ele>213.0</ele><time>2026-04-11T16:33:14.119Z</time></trkpt><trkpt lat="43.3624872" lon="13.3271779"><ele>213.0</ele><time>2026-04-11T16:33:15.119Z</time></trkpt><trkpt lat="43.3624986" lon="13.3273655"><ele>213.0</ele><time>2026-04-11T16:33:16.119Z</time></trkpt><trkpt lat="43.3625101" lon="13.3275537"><ele>213.0</ele><time>2026-04-11T16:33:17.119Z</time></trkpt><trkpt lat="43.3625252" lon="13.3277416"><ele>212.25</ele><time>2026-04-11T16:33:18.119Z</time></trkpt><trkpt lat="43.3625365" lon="13.3279314"><ele>211.5</ele><time>2026-04-11T16:33:19.119Z</time></trkpt><trkpt lat="43.362548" lon="13.3281201"><ele>210.75</ele><time>2026-04-11T16:33:20.119Z</time></trkpt><trkpt lat="43.3625608" lon="13.3282995"><ele>210.0</ele><time>2026-04-11T16:33:21.12Z</time></trkpt><trkpt lat="43.3626149" lon="13.3286418"><ele>209.0</ele><time>2026-04-11T16:33:23.119Z</time></trkpt><trkpt lat="43.36266" lon="13.3288075"><ele>208.0</ele><time>2026-04-11T16:33:24.119Z</time></trkpt><trkpt lat="43.3627112" lon="13.3289624"><ele>207.0</ele><time>2026-04-11T16:33:25.12Z</time></trkpt><trkpt lat="43.362766" lon="13.3291086"><ele>206.0</ele><time>2026-04-11T16:33:26.119Z</time></trkpt><trkpt lat="43.362814" lon="13.3292583"><ele>205.0</ele><time>2026-04-11T16:33:27.119Z</time></trkpt><trkpt lat="43.3628619" lon="13.3294154"><ele>204.0</ele><time>2026-04-11T16:33:28.119Z</time></trkpt><trkpt lat="43.3629079" lon="13.329592"><ele>203.0</ele><time>2026-04-11T16:33:29.119Z</time></trkpt><trkpt lat="43.3629523" lon="13.3297863"><ele>202.0</ele><time>2026-04-11T16:33:30.119Z</time></trkpt><trkpt lat="43.3629982" lon="13.3299874"><ele>200.0</ele><time>2026-04-11T16:33:31.119Z</time></trkpt><trkpt lat="43.3630479" lon="13.330182"><ele>198.0</ele><time>2026-04-11T16:33:32.119Z</time></trkpt><trkpt lat="43.3630851" lon="13.3303621"><ele>196.0</ele><time>2026-04-11T16:33:33.119Z</time></trkpt><trkpt lat="43.3631222" lon="13.330539"><ele>194.0</ele><time>2026-04-11T16:33:34.119Z</time></trkpt><trkpt lat="43.3631692" lon="13.3307245"><ele>194.0</ele><time>2026-04-11T16:33:35.119Z</time></trkpt><trkpt lat="43.3632123" lon="13.3308989"><ele>194.0</ele><time>2026-04-11T16:33:36.119Z</time></trkpt><trkpt lat="43.3632505" lon="13.3310555"><ele>194.0</ele><time>2026-04-11T16:33:37.12Z</time></trkpt><trkpt lat="43.3632878" lon="13.3311968"><ele>194.0</ele><time>2026-04-11T16:33:38.12Z</time></trkpt><trkpt lat="43.3633193" lon="13.331335"><ele>193.75</ele><time>2026-04-11T16:33:39.12Z</time></trkpt><trkpt lat="43.3633475" lon="13.3314772"><ele>193.5</ele><time>2026-04-11T16:33:40.12Z</time></trkpt><trkpt lat="43.3633775" lon="13.3316279"><ele>193.25</ele><time>2026-04-11T16:33:41.12Z</time></trkpt><trkpt lat="43.3634088" lon="13.331776"><ele>193.0</ele><time>2026-04-11T16:33:42.12Z</time></trkpt><trkpt lat="43.3634388" lon="13.332065"><ele>193.0</ele><time>2026-04-11T16:33:44.12Z</time></trkpt><trkpt lat="43.3634398" lon="13.3322148"><ele>193.0</ele><time>2026-04-11T16:33:45.12Z</time></trkpt><trkpt lat="43.3634481" lon="13.3323501"><ele>193.0</ele><time>2026-04-11T16:33:46.12Z</time></trkpt><trkpt lat="43.3634632" lon="13.3324948"><ele>193.0</ele><time>2026-04-11T16:33:47.12Z</time></trkpt><trkpt lat="43.3634825" lon="13.3326333"><ele>193.0</ele><time>2026-04-11T16:33:48.12Z</time></trkpt><trkpt lat="43.3635018" lon="13.3327795"><ele>193.0</ele><time>2026-04-11T16:33:49.12Z</time></trkpt><trkpt lat="43.3635187" lon="13.3329372"><ele>193.0</ele><time>2026-04-11T16:33:50.12Z</time></trkpt><trkpt lat="43.3635343" lon="13.3331083"><ele>193.0</ele><time>2026-04-11T16:33:51.12Z</time></trkpt><trkpt lat="43.3635542" lon="13.3332661"><ele>193.0</ele><time>2026-04-11T16:33:52.12Z</time></trkpt><trkpt lat="43.3635766" lon="13.3333977"><ele>192.99999999999997</ele><time>2026-04-11T16:33:53.12Z</time></trkpt><trkpt lat="43.3636009" lon="13.3334982"><ele>193.0</ele><time>2026-04-11T16:33:54.12Z</time></trkpt><trkpt lat="43.3636315" lon="13.3335776"><ele>193.0</ele><time>2026-04-11T16:33:55.12Z</time></trkpt><trkpt lat="43.3637281" lon="13.3336637"><ele>193.0</ele><time>2026-04-11T16:33:57.12Z</time></trkpt><trkpt lat="43.3637984" lon="13.3336736"><ele>192.99999999999997</ele><time>2026-04-11T16:33:58.12Z</time></trkpt><trkpt lat="43.363892" lon="13.3336661"><ele>193.0</ele><time>2026-04-11T16:33:59.12Z</time></trkpt><trkpt lat="43.3640078" lon="13.3336451"><ele>193.0</ele><time>2026-04-11T16:34:00.12Z</time></trkpt><trkpt lat="43.364134" lon="13.333599"><ele>193.0</ele><time>2026-04-11T16:34:01.12Z</time></trkpt><trkpt lat="43.3642497" lon="13.3335367"><ele>193.0</ele><time>2026-04-11T16:34:02.12Z</time></trkpt><trkpt lat="43.3643405" lon="13.3334673"><ele>193.0</ele><time>2026-04-11T16:34:03.12Z</time></trkpt><trkpt lat="43.3644648" lon="13.3332979"><ele>192.99999999999997</ele><time>2026-04-11T16:34:05.12Z</time></trkpt><trkpt lat="43.3644982" lon="13.3332094"><ele>193.0</ele><time>2026-04-11T16:34:06.12Z</time></trkpt><trkpt lat="43.3645044" lon="13.3331138"><ele>193.0</ele><time>2026-04-11T16:34:07.12Z</time></trkpt><trkpt lat="43.3644846" lon="13.333013"><ele>193.0</ele><time>2026-04-11T16:34:08.12Z</time></trkpt><trkpt lat="43.3644507" lon="13.3329133"><ele>192.99999999999997</ele><time>2026-04-11T16:34:09.12Z</time></trkpt><trkpt lat="43.3644139" lon="13.3328139"><ele>193.0</ele><time>2026-04-11T16:34:10.12Z</time></trkpt><trkpt lat="43.3643831" lon="13.3327252"><ele>193.16666666666666</ele><time>2026-04-11T16:34:11.12Z</time></trkpt><trkpt lat="43.3643568" lon="13.3326065"><ele>193.33333333333331</ele><time>2026-04-11T16:34:13.12Z</time></trkpt><trkpt lat="43.364382" lon="13.3324969"><ele>193.5</ele><time>2026-04-11T16:34:15.12Z</time></trkpt><trkpt lat="43.3644579" lon="13.3323834"><ele>193.66666666666669</ele><time>2026-04-11T16:34:17.12Z</time></trkpt><trkpt lat="43.3645175" lon="13.3323307"><ele>193.83333333333334</ele><time>2026-04-11T16:34:18.12Z</time></trkpt><trkpt lat="43.3645815" lon="13.332287"><ele>194.0</ele><time>2026-04-11T16:34:19.12Z</time></trkpt><trkpt lat="43.3646441" lon="13.3322661"><ele>196.79999999999998</ele><time>2026-04-11T16:34:20.12Z</time></trkpt><trkpt lat="43.3647095" lon="13.3322819"><ele>199.6</ele><time>2026-04-11T16:34:21.12Z</time></trkpt><trkpt lat="43.364798" lon="13.332361"><ele>202.4</ele><time>2026-04-11T16:34:22.12Z</time></trkpt><trkpt lat="43.3649013" lon="13.3324549"><ele>205.2</ele><time>2026-04-11T16:34:23.12Z</time></trkpt><trkpt lat="43.3650029" lon="13.3325684"><ele>208.0</ele><time>2026-04-11T16:34:24.12Z</time></trkpt><trkpt lat="43.3651611" lon="13.3328108"><ele>208.0</ele><time>2026-04-11T16:34:26.12Z</time></trkpt><trkpt lat="43.3652308" lon="13.3329541"><ele>208.0</ele><time>2026-04-11T16:34:27.12Z</time></trkpt><trkpt lat="43.3652979" lon="13.3331112"><ele>208.0</ele><time>2026-04-11T16:34:28.12Z</time></trkpt><trkpt lat="43.3653674" lon="13.3332637"><ele>208.0</ele><time>2026-04-11T16:34:29.12Z</time></trkpt><trkpt lat="43.3654317" lon="13.3333929"><ele>208.0</ele><time>2026-04-11T16:34:30.12Z</time></trkpt><trkpt lat="43.3654993" lon="13.3335048"><ele>208.0</ele><time>2026-04-11T16:34:31.12Z</time></trkpt><trkpt lat="43.365579" lon="13.3336139"><ele>208.0</ele><time>2026-04-11T16:34:32.12Z</time></trkpt><trkpt lat="43.3656696" lon="13.3337098"><ele>208.0</ele><time>2026-04-11T16:34:33.12Z</time></trkpt><trkpt lat="43.3657713" lon="13.3338041"><ele>208.25</ele><time>2026-04-11T16:34:34.12Z</time></trkpt><trkpt lat="43.3658803" lon="13.3339054"><ele>208.5</ele><time>2026-04-11T16:34:35.12Z</time></trkpt><trkpt lat="43.3659872" lon="13.3340035"><ele>208.75</ele><time>2026-04-11T16:34:36.12Z</time></trkpt><trkpt lat="43.3660841" lon="13.3340933"><ele>209.0</ele><time>2026-04-11T16:34:37.12Z</time></trkpt><trkpt lat="43.3661659" lon="13.3341606"><ele>209.0</ele><time>2026-04-11T16:34:38.12Z</time></trkpt><trkpt lat="43.3662323" lon="13.3342142"><ele>209.0</ele><time>2026-04-11T16:34:39.12Z</time></trkpt><trkpt lat="43.3663241" lon="13.3342985"><ele>209.0</ele><time>2026-04-11T16:34:41.12Z</time></trkpt><trkpt lat="43.3662718" lon="13.3344422"><ele>209.0</ele><time>2026-04-11T16:34:44.12Z</time></trkpt><trkpt lat="43.366198" lon="13.3345256"><ele>209.0</ele><time>2026-04-11T16:34:45.12Z</time></trkpt><trkpt lat="43.366004" lon="13.3347532"><ele>209.0</ele><time>2026-04-11T16:34:47.12Z</time></trkpt><trkpt lat="43.3658873" lon="13.3349019"><ele>209.0</ele><time>2026-04-11T16:34:48.12Z</time></trkpt><trkpt lat="43.3657545" lon="13.3350673"><ele>209.0</ele><time>2026-04-11T16:34:49.12Z</time></trkpt><trkpt lat="43.3656175" lon="13.3352422"><ele>208.33333333333334</ele><time>2026-04-11T16:34:50.121Z</time></trkpt><trkpt lat="43.3654972" lon="13.3354101"><ele>207.66666666666669</ele><time>2026-04-11T16:34:51.12Z</time></trkpt><trkpt lat="43.3653896" lon="13.3355575"><ele>207.0</ele><time>2026-04-11T16:34:52.12Z</time></trkpt><trkpt lat="43.3653055" lon="13.3357031"><ele>207.0</ele><time>2026-04-11T16:34:53.12Z</time></trkpt><trkpt lat="43.3652476" lon="13.3358526"><ele>207.0</ele><time>2026-04-11T16:34:54.12Z</time></trkpt><trkpt lat="43.3652072" lon="13.3360299"><ele>207.0</ele><time>2026-04-11T16:34:55.121Z</time></trkpt><trkpt lat="43.3651856" lon="13.3362254"><ele>207.0</ele><time>2026-04-11T16:34:56.12Z</time></trkpt><trkpt lat="43.3651827" lon="13.3364373"><ele>206.33333333333331</ele><time>2026-04-11T16:34:57.12Z</time></trkpt><trkpt lat="43.3651915" lon="13.3366657"><ele>205.66666666666666</ele><time>2026-04-11T16:34:58.12Z</time></trkpt><trkpt lat="43.3652171" lon="13.336877"><ele>205.0</ele><time>2026-04-11T16:34:59.12Z</time></trkpt><trkpt lat="43.3652486" lon="13.3370523"><ele>205.0</ele><time>2026-04-11T16:35:00.12Z</time></trkpt><trkpt lat="43.3652718" lon="13.3371988"><ele>205.0</ele><time>2026-04-11T16:35:01.12Z</time></trkpt><trkpt lat="43.3652657" lon="13.3373424"><ele>205.0</ele><time>2026-04-11T16:35:02.12Z</time></trkpt><trkpt lat="43.3652235" lon="13.3374955"><ele>205.0</ele><time>2026-04-11T16:35:03.12Z</time></trkpt><trkpt lat="43.3651715" lon="13.3376662"><ele>204.33333333333331</ele><time>2026-04-11T16:35:04.12Z</time></trkpt><trkpt lat="43.3651094" lon="13.3378501"><ele>203.66666666666669</ele><time>2026-04-11T16:35:05.12Z</time></trkpt><trkpt lat="43.3650564" lon="13.3380284"><ele>203.0</ele><time>2026-04-11T16:35:06.12Z</time></trkpt><trkpt lat="43.3650181" lon="13.3383965"><ele>202.25</ele><time>2026-04-11T16:35:08.12Z</time></trkpt><trkpt lat="43.3650281" lon="13.3385874"><ele>201.5</ele><time>2026-04-11T16:35:09.12Z</time></trkpt><trkpt lat="43.3650518" lon="13.3387811"><ele>200.75</ele><time>2026-04-11T16:35:10.12Z</time></trkpt><trkpt lat="43.3650923" lon="13.3389836"><ele>200.0</ele><time>2026-04-11T16:35:11.12Z</time></trkpt><trkpt lat="43.365143" lon="13.3391991"><ele>197.0</ele><time>2026-04-11T16:35:12.12Z</time></trkpt><trkpt lat="43.3651952" lon="13.3394177"><ele>194.0</ele><time>2026-04-11T16:35:13.12Z</time></trkpt><trkpt lat="43.3652513" lon="13.3396415"><ele>191.0</ele><time>2026-04-11T16:35:14.12Z</time></trkpt><trkpt lat="43.3652988" lon="13.339858"><ele>189.0</ele><time>2026-04-11T16:35:15.12Z</time></trkpt><trkpt lat="43.3653298" lon="13.3400673"><ele>187.0</ele><time>2026-04-11T16:35:16.12Z</time></trkpt><trkpt lat="43.3653576" lon="13.3402708"><ele>185.0</ele><time>2026-04-11T16:35:17.12Z</time></trkpt><trkpt lat="43.3653579" lon="13.3404906"><ele>183.33333333333331</ele><time>2026-04-11T16:35:18.12Z</time></trkpt><trkpt lat="43.3653358" lon="13.3407312"><ele>181.66666666666666</ele><time>2026-04-11T16:35:19.12Z</time></trkpt><trkpt lat="43.3652994" lon="13.340981"><ele>180.0</ele><time>2026-04-11T16:35:20.12Z</time></trkpt><trkpt lat="43.3652516" lon="13.3412368"><ele>178.66666666666666</ele><time>2026-04-11T16:35:21.12Z</time></trkpt><trkpt lat="43.3652039" lon="13.341473"><ele>177.33333333333331</ele><time>2026-04-11T16:35:22.12Z</time></trkpt><trkpt lat="43.3651548" lon="13.3417045"><ele>176.0</ele><time>2026-04-11T16:35:23.12Z</time></trkpt><trkpt lat="43.3651069" lon="13.3419368"><ele>176.0</ele><time>2026-04-11T16:35:24.12Z</time></trkpt><trkpt lat="43.365054" lon="13.3421536"><ele>176.0</ele><time>2026-04-11T16:35:25.12Z</time></trkpt><trkpt lat="43.3649984" lon="13.3423458"><ele>176.0</ele><time>2026-04-11T16:35:26.12Z</time></trkpt><trkpt lat="43.3649366" lon="13.3425133"><ele>175.66666666666666</ele><time>2026-04-11T16:35:27.12Z</time></trkpt><trkpt lat="43.3647887" lon="13.3428189"><ele>175.33333333333334</ele><time>2026-04-11T16:35:29.12Z</time></trkpt><trkpt lat="43.3647063" lon="13.3429712"><ele>175.0</ele><time>2026-04-11T16:35:30.12Z</time></trkpt><trkpt lat="43.3646074" lon="13.3431304"><ele>176.25</ele><time>2026-04-11T16:35:31.12Z</time></trkpt><trkpt lat="43.3645017" lon="13.3432785"><ele>177.5</ele><time>2026-04-11T16:35:32.12Z</time></trkpt><trkpt lat="43.3643894" lon="13.3433997"><ele>178.75</ele><time>2026-04-11T16:35:33.12Z</time></trkpt><trkpt lat="43.3642641" lon="13.343489"><ele>180.0</ele><time>2026-04-11T16:35:34.12Z</time></trkpt><trkpt lat="43.3641433" lon="13.343543"><ele>180.0</ele><time>2026-04-11T16:35:35.12Z</time></trkpt><trkpt lat="43.3640447" lon="13.3435858"><ele>180.0</ele><time>2026-04-11T16:35:36.12Z</time></trkpt><trkpt lat="43.3639736" lon="13.3436401"><ele>180.0</ele><time>2026-04-11T16:35:37.12Z</time></trkpt><trkpt lat="43.3639312" lon="13.3437149"><ele>180.0</ele><time>2026-04-11T16:35:38.12Z</time></trkpt><trkpt lat="43.3639073" lon="13.3438227"><ele>180.0</ele><time>2026-04-11T16:35:39.12Z</time></trkpt><trkpt lat="43.3638958" lon="13.3439567"><ele>180.0</ele><time>2026-04-11T16:35:40.12Z</time></trkpt><trkpt lat="43.3639041" lon="13.3441296"><ele>179.66666666666666</ele><time>2026-04-11T16:35:41.12Z</time></trkpt><trkpt lat="43.3639222" lon="13.3443307"><ele>179.33333333333331</ele><time>2026-04-11T16:35:42.12Z</time></trkpt><trkpt lat="43.363958" lon="13.3445429"><ele>179.0</ele><time>2026-04-11T16:35:43.12Z</time></trkpt><trkpt lat="43.3640029" lon="13.3447371"><ele>180.0</ele><time>2026-04-11T16:35:44.12Z</time></trkpt><trkpt lat="43.3640756" lon="13.3449104"><ele>181.0</ele><time>2026-04-11T16:35:45.12Z</time></trkpt><trkpt lat="43.3641689" lon="13.3450684"><ele>182.0</ele><time>2026-04-11T16:35:46.12Z</time></trkpt><trkpt lat="43.3642572" lon="13.3452326"><ele>183.0</ele><time>2026-04-11T16:35:47.12Z</time></trkpt><trkpt lat="43.3643227" lon="13.3453988"><ele>186.0</ele><time>2026-04-11T16:35:48.12Z</time></trkpt><trkpt lat="43.3643949" lon="13.3457569"><ele>189.0</ele><time>2026-04-11T16:35:50.12Z</time></trkpt><trkpt lat="43.3644107" lon="13.34591"><ele>192.0</ele><time>2026-04-11T16:35:51.12Z</time></trkpt><trkpt lat="43.3644277" lon="13.346037"><ele>192.0</ele><time>2026-04-11T16:35:52.12Z</time></trkpt><trkpt lat="43.3644374" lon="13.3461277"><ele>192.0</ele><time>2026-04-11T16:35:53.12Z</time></trkpt><trkpt lat="43.3644472" lon="13.3462207"><ele>192.0</ele><time>2026-04-11T16:35:55.12Z</time></trkpt><trkpt lat="43.36446" lon="13.3463095"><ele>192.0</ele><time>2026-04-11T16:35:57.12Z</time></trkpt><trkpt lat="43.3644885" lon="13.3464773"><ele>192.0</ele><time>2026-04-11T16:35:59.12Z</time></trkpt><trkpt lat="43.36449" lon="13.3466045"><ele>192.0</ele><time>2026-04-11T16:36:00.12Z</time></trkpt><trkpt lat="43.3644725" lon="13.3467367"><ele>191.6</ele><time>2026-04-11T16:36:01.12Z</time></trkpt><trkpt lat="43.3644467" lon="13.3468421"><ele>191.2</ele><time>2026-04-11T16:36:02.121Z</time></trkpt><trkpt lat="43.3644065" lon="13.3469181"><ele>190.8</ele><time>2026-04-11T16:36:03.12Z</time></trkpt><trkpt lat="43.3643475" lon="13.3469667"><ele>190.4</ele><time>2026-04-11T16:36:04.12Z</time></trkpt><trkpt lat="43.364245" lon="13.3469762"><ele>190.0</ele><time>2026-04-11T16:36:05.12Z</time></trkpt><trkpt lat="43.3640865" lon="13.3469418"><ele>190.0</ele><time>2026-04-11T16:36:06.12Z</time></trkpt><trkpt lat="43.3639193" lon="13.3468877"><ele>190.0</ele><time>2026-04-11T16:36:07.12Z</time></trkpt><trkpt lat="43.3637748" lon="13.3468491"><ele>190.0</ele><time>2026-04-11T16:36:08.12Z</time></trkpt><trkpt lat="43.363662" lon="13.3468405"><ele>190.0</ele><time>2026-04-11T16:36:09.12Z</time></trkpt><trkpt lat="43.3634709" lon="13.3468593"><ele>191.0</ele><time>2026-04-11T16:36:11.12Z</time></trkpt><trkpt lat="43.3633615" lon="13.3468529"><ele>192.0</ele><time>2026-04-11T16:36:12.12Z</time></trkpt><trkpt lat="43.3632507" lon="13.3468082"><ele>193.0</ele><time>2026-04-11T16:36:13.12Z</time></trkpt><trkpt lat="43.3631464" lon="13.3467181"><ele>194.0</ele><time>2026-04-11T16:36:14.12Z</time></trkpt><trkpt lat="43.3630538" lon="13.3465982"><ele>195.0</ele><time>2026-04-11T16:36:15.12Z</time></trkpt><trkpt lat="43.3629807" lon="13.3464784"><ele>196.0</ele><time>2026-04-11T16:36:16.12Z</time></trkpt><trkpt lat="43.362937" lon="13.3463498"><ele>197.0</ele><time>2026-04-11T16:36:17.12Z</time></trkpt><trkpt lat="43.3629265" lon="13.3462105"><ele>198.0</ele><time>2026-04-11T16:36:18.12Z</time></trkpt><trkpt lat="43.362943" lon="13.3460769"><ele>199.0</ele><time>2026-04-11T16:36:19.12Z</time></trkpt><trkpt lat="43.3629735" lon="13.3459545"><ele>199.16666666666666</ele><time>2026-04-11T16:36:20.12Z</time></trkpt><trkpt lat="43.3629956" lon="13.3458417"><ele>199.33333333333331</ele><time>2026-04-11T16:36:21.12Z</time></trkpt><trkpt lat="43.3630052" lon="13.3457464"><ele>199.5</ele><time>2026-04-11T16:36:22.12Z</time></trkpt><trkpt lat="43.3630013" lon="13.345621"><ele>199.66666666666669</ele><time>2026-04-11T16:36:24.12Z</time></trkpt><trkpt lat="43.3629563" lon="13.3455403"><ele>199.83333333333334</ele><time>2026-04-11T16:36:26.12Z</time></trkpt><trkpt lat="43.362873" lon="13.345498"><ele>200.0</ele><time>2026-04-11T16:36:28.12Z</time></trkpt><trkpt lat="43.3627474" lon="13.3454987"><ele>200.0</ele><time>2026-04-11T16:36:30.12Z</time></trkpt><trkpt lat="43.362582" lon="13.3455323"><ele>200.0</ele><time>2026-04-11T16:36:32.12Z</time></trkpt><trkpt lat="43.362506" lon="13.3455547"><ele>200.0</ele><time>2026-04-11T16:36:33.12Z</time></trkpt><trkpt lat="43.3624306" lon="13.3455806"><ele>200.0</ele><time>2026-04-11T16:36:34.12Z</time></trkpt><trkpt lat="43.3623555" lon="13.345605"><ele>200.0</ele><time>2026-04-11T16:36:35.12Z</time></trkpt><trkpt lat="43.3622813" lon="13.3456265"><ele>200.00000000000003</ele><time>2026-04-11T16:36:36.12Z</time></trkpt><trkpt lat="43.3622046" lon="13.345649"><ele>200.0</ele><time>2026-04-11T16:36:37.12Z</time></trkpt><trkpt lat="43.3621251" lon="13.3456668"><ele>200.0</ele><time>2026-04-11T16:36:38.12Z</time></trkpt><trkpt lat="43.362048" lon="13.345679"><ele>200.0</ele><time>2026-04-11T16:36:39.12Z</time></trkpt><trkpt lat="43.3619682" lon="13.3456797"><ele>200.00000000000003</ele><time>2026-04-11T16:36:40.12Z</time></trkpt><trkpt lat="43.3618895" lon="13.345668"><ele>200.0</ele><time>2026-04-11T16:36:41.12Z</time></trkpt><trkpt lat="43.3618029" lon="13.3456546"><ele>200.6</ele><time>2026-04-11T16:36:42.12Z</time></trkpt><trkpt lat="43.3617059" lon="13.3456452"><ele>201.2</ele><time>2026-04-11T16:36:43.12Z</time></trkpt><trkpt lat="43.3615973" lon="13.3456587"><ele>201.8</ele><time>2026-04-11T16:36:44.12Z</time></trkpt><trkpt lat="43.3614862" lon="13.3456891"><ele>202.4</ele><time>2026-04-11T16:36:45.12Z</time></trkpt><trkpt lat="43.3613648" lon="13.3457319"><ele>203.0</ele><time>2026-04-11T16:36:46.12Z</time></trkpt><trkpt lat="43.3612304" lon="13.3457838"><ele>204.5</ele><time>2026-04-11T16:36:47.12Z</time></trkpt><trkpt lat="43.36109" lon="13.3458397"><ele>206.0</ele><time>2026-04-11T16:36:48.121Z</time></trkpt><trkpt lat="43.3609641" lon="13.3459051"><ele>207.5</ele><time>2026-04-11T16:36:49.121Z</time></trkpt><trkpt lat="43.3608638" lon="13.3459741"><ele>209.0</ele><time>2026-04-11T16:36:50.12Z</time></trkpt><trkpt lat="43.3607933" lon="13.34606"><ele>209.0</ele><time>2026-04-11T16:36:51.12Z</time></trkpt><trkpt lat="43.3607285" lon="13.3462529"><ele>209.0</ele><time>2026-04-11T16:36:53.12Z</time></trkpt><trkpt lat="43.3607417" lon="13.346375"><ele>209.0</ele><time>2026-04-11T16:36:54.12Z</time></trkpt><trkpt lat="43.3607819" lon="13.3465123"><ele>209.0</ele><time>2026-04-11T16:36:55.12Z</time></trkpt><trkpt lat="43.360852" lon="13.3466617"><ele>209.0</ele><time>2026-04-11T16:36:56.12Z</time></trkpt><trkpt lat="43.3609392" lon="13.3468266"><ele>209.0</ele><time>2026-04-11T16:36:57.12Z</time></trkpt><trkpt lat="43.3610173" lon="13.3469951"><ele>209.0</ele><time>2026-04-11T16:36:58.12Z</time></trkpt><trkpt lat="43.361092" lon="13.347168"><ele>209.0</ele><time>2026-04-11T16:36:59.12Z</time></trkpt><trkpt lat="43.3611696" lon="13.3473402"><ele>209.25</ele><time>2026-04-11T16:37:00.12Z</time></trkpt><trkpt lat="43.3612385" lon="13.3475098"><ele>209.5</ele><time>2026-04-11T16:37:01.12Z</time></trkpt><trkpt lat="43.3613035" lon="13.3476737"><ele>209.75</ele><time>2026-04-11T16:37:02.12Z</time></trkpt><trkpt lat="43.3613625" lon="13.3478273"><ele>210.0</ele><time>2026-04-11T16:37:03.12Z</time></trkpt><trkpt lat="43.3614114" lon="13.34795"><ele>208.4</ele><time>2026-04-11T16:37:04.12Z</time></trkpt><trkpt lat="43.3614602" lon="13.3480677"><ele>206.8</ele><time>2026-04-11T16:37:05.12Z</time></trkpt><trkpt lat="43.3615131" lon="13.3481775"><ele>205.2</ele><time>2026-04-11T16:37:06.12Z</time></trkpt><trkpt lat="43.3615604" lon="13.3482842"><ele>203.6</ele><time>2026-04-11T16:37:07.12Z</time></trkpt><trkpt lat="43.3616048" lon="13.3483897"><ele>202.0</ele><time>2026-04-11T16:37:08.12Z</time></trkpt><trkpt lat="43.3616432" lon="13.3484967"><ele>202.0</ele><time>2026-04-11T16:37:09.12Z</time></trkpt><trkpt lat="43.3616875" lon="13.3486082"><ele>202.0</ele><time>2026-04-11T16:37:10.12Z</time></trkpt><trkpt lat="43.3617332" lon="13.3487022"><ele>202.0</ele><time>2026-04-11T16:37:11.12Z</time></trkpt><trkpt lat="43.3617703" lon="13.3487858"><ele>202.0</ele><time>2026-04-11T16:37:12.12Z</time></trkpt><trkpt lat="43.3617013" lon="13.3490773"><ele>201.99999999999997</ele><time>2026-04-11T16:37:16.12Z</time></trkpt><trkpt lat="43.3616404" lon="13.3491249"><ele>202.0</ele><time>2026-04-11T16:37:17.12Z</time></trkpt><trkpt lat="43.3615469" lon="13.3491956"><ele>202.0</ele><time>2026-04-11T16:37:19.12Z</time></trkpt><trkpt lat="43.3614893" lon="13.3492381"><ele>202.0</ele><time>2026-04-11T16:37:21.12Z</time></trkpt><trkpt lat="43.3614263" lon="13.3493069"><ele>201.99999999999997</ele><time>2026-04-11T16:37:24.12Z</time></trkpt><trkpt lat="43.3613516" lon="13.3494005"><ele>202.0</ele><time>2026-04-11T16:37:26.12Z</time></trkpt><trkpt lat="43.3612639" lon="13.3495013"><ele>203.0</ele><time>2026-04-11T16:37:28.12Z</time></trkpt><trkpt lat="43.3612107" lon="13.3495677"><ele>204.0</ele><time>2026-04-11T16:37:29.12Z</time></trkpt><trkpt lat="43.3611622" lon="13.349631"><ele>205.0</ele><time>2026-04-11T16:37:30.12Z</time></trkpt><trkpt lat="43.361077" lon="13.3497341"><ele>206.0</ele><time>2026-04-11T16:37:32.12Z</time></trkpt><trkpt lat="43.3609842" lon="13.3498624"><ele>207.0</ele><time>2026-04-11T16:37:34.12Z</time></trkpt><trkpt lat="43.3608675" lon="13.3500587"><ele>207.25</ele><time>2026-04-11T16:37:36.12Z</time></trkpt><trkpt lat="43.3608245" lon="13.3501931"><ele>207.5</ele><time>2026-04-11T16:37:37.12Z</time></trkpt><trkpt lat="43.3607878" lon="13.3503577"><ele>207.75</ele><time>2026-04-11T16:37:38.12Z</time></trkpt><trkpt lat="43.3607543" lon="13.3505385"><ele>208.0</ele><time>2026-04-11T16:37:39.12Z</time></trkpt><trkpt lat="43.360713" lon="13.3507163"><ele>207.5</ele><time>2026-04-11T16:37:40.12Z</time></trkpt><trkpt lat="43.3606832" lon="13.3508885"><ele>207.0</ele><time>2026-04-11T16:37:41.12Z</time></trkpt><trkpt lat="43.3606696" lon="13.3510506"><ele>206.5</ele><time>2026-04-11T16:37:42.12Z</time></trkpt><trkpt lat="43.3606646" lon="13.3512055"><ele>206.0</ele><time>2026-04-11T16:37:43.12Z</time></trkpt><trkpt lat="43.3606533" lon="13.3513417"><ele>206.0</ele><time>2026-04-11T16:37:44.12Z</time></trkpt><trkpt lat="43.3606533" lon="13.3514767"><ele>206.0</ele><time>2026-04-11T16:37:45.12Z</time></trkpt><trkpt lat="43.36066" lon="13.3516083"><ele>206.0</ele><time>2026-04-11T16:37:46.12Z</time></trkpt><trkpt lat="43.3606717" lon="13.3517517"><ele>206.0</ele><time>2026-04-11T16:37:47.12Z</time></trkpt><trkpt lat="43.360685" lon="13.3518783"><ele>206.0</ele><time>2026-04-11T16:37:48.12Z</time></trkpt><trkpt lat="43.3606883" lon="13.3519883"><ele>206.0</ele><time>2026-04-11T16:37:49.12Z</time></trkpt><trkpt lat="43.3606933" lon="13.3521117"><ele>206.0</ele><time>2026-04-11T16:37:51.121Z</time></trkpt><trkpt lat="43.3607717" lon="13.3521567"><ele>206.0</ele><time>2026-04-11T16:37:56.12Z</time></trkpt><trkpt lat="43.360965" lon="13.352085"><ele>206.0</ele><time>2026-04-11T16:38:00.12Z</time></trkpt><trkpt lat="43.3610517" lon="13.3520583"><ele>206.00000000000003</ele><time>2026-04-11T16:38:02.12Z</time></trkpt><trkpt lat="43.361135" lon="13.35205"><ele>206.0</ele><time>2026-04-11T16:38:04.12Z</time></trkpt><trkpt lat="43.36122" lon="13.3520683"><ele>206.0</ele><time>2026-04-11T16:38:06.12Z</time></trkpt><trkpt lat="43.3612833" lon="13.3520883"><ele>206.0</ele><time>2026-04-11T16:38:08.12Z</time></trkpt><trkpt lat="43.3613667" lon="13.352115"><ele>206.00000000000003</ele><time>2026-04-11T16:38:11.12Z</time></trkpt><trkpt lat="43.3614317" lon="13.352165"><ele>206.0</ele><time>2026-04-11T16:38:15.12Z</time></trkpt><trkpt lat="43.3615317" lon="13.3522117"><ele>205.60000000000002</ele><time>2026-04-11T16:38:25.12Z</time></trkpt><trkpt lat="43.36167" lon="13.3523533"><ele>205.2</ele><time>2026-04-11T16:38:27.12Z</time></trkpt><trkpt lat="43.3617167" lon="13.3524367"><ele>204.8</ele><time>2026-04-11T16:38:28.12Z</time></trkpt><trkpt lat="43.3617467" lon="13.3525133"><ele>204.39999999999998</ele><time>2026-04-11T16:38:29.12Z</time></trkpt><trkpt lat="43.3617733" lon="13.3526333"><ele>204.0</ele><time>2026-04-11T16:38:31.12Z</time></trkpt><trkpt lat="43.3617883" lon="13.3527283"><ele>204.0</ele><time>2026-04-11T16:38:33.12Z</time></trkpt></trkseg></trk></gpx>